<?xml version="1.0" encoding="UTF-8" standalone="no" ?>
<gpx xmlns="http://www.topografix.com/GPX/1/1" xmlns:xsi="http://www.w3.org/2001/XMLSchema-instance" xsi:schemaLocation="http://www.topografix.com/GPX/1/1 http://www.topografix.com/GPX/1/1/gpx.xsd" version="1.1" creator="VisuGPX - https://www.visugpx.com">
  <metadata>
    <name>Nocturne VTT sur la Gardiole</name>
    <desc><![CDATA[Une belle sortie Full Moon sur la Gardiole sur pistes et monotraces sans danger. Un trés beau parcours que l\'on va encore affiner pour la prochaine nocturne (plus de monotrace encore !).]]></desc>
  </metadata>
  <trk>
    <name><![CDATA[2011-02-18-03]]></name>
    <trkseg>
      <trkpt lat="43.5157" lon="3.76936">
        <ele>81.099998</ele>
        <time>2011-02-18T19:54:41Z</time>
      </trkpt>
      <trkpt lat="43.5157" lon="3.76935">
        <ele>81.125</ele>
        <time>2011-02-18T19:54:42Z</time>
      </trkpt>
      <trkpt lat="43.51562" lon="3.7693">
        <ele>93.8</ele>
        <time>2011-02-18T19:57:32Z</time>
      </trkpt>
      <trkpt lat="43.51553" lon="3.76924">
        <ele>89.6</ele>
        <time>2011-02-18T20:00:56Z</time>
      </trkpt>
      <trkpt lat="43.51545" lon="3.76911">
        <ele>89.7</ele>
        <time>2011-02-18T20:01:01Z</time>
      </trkpt>
      <trkpt lat="43.51539" lon="3.76901">
        <ele>89.7</ele>
        <time>2011-02-18T20:01:04Z</time>
      </trkpt>
      <trkpt lat="43.51536" lon="3.76894">
        <ele>89.7</ele>
        <time>2011-02-18T20:01:06Z</time>
      </trkpt>
      <trkpt lat="43.51533" lon="3.76887">
        <ele>89.8</ele>
        <time>2011-02-18T20:01:08Z</time>
      </trkpt>
      <trkpt lat="43.5153" lon="3.76876">
        <ele>90.1</ele>
        <time>2011-02-18T20:01:11Z</time>
      </trkpt>
      <trkpt lat="43.51529" lon="3.76868">
        <ele>90.2</ele>
        <time>2011-02-18T20:01:13Z</time>
      </trkpt>
      <trkpt lat="43.51527" lon="3.76859">
        <ele>90.2</ele>
        <time>2011-02-18T20:01:15Z</time>
      </trkpt>
      <trkpt lat="43.51526" lon="3.76851">
        <ele>90.3</ele>
        <time>2011-02-18T20:01:17Z</time>
      </trkpt>
      <trkpt lat="43.51525" lon="3.76843">
        <ele>90.3</ele>
        <time>2011-02-18T20:01:19Z</time>
      </trkpt>
      <trkpt lat="43.51524" lon="3.76834">
        <ele>90.3</ele>
        <time>2011-02-18T20:01:21Z</time>
      </trkpt>
      <trkpt lat="43.51522" lon="3.76824">
        <ele>90.2</ele>
        <time>2011-02-18T20:01:23Z</time>
      </trkpt>
      <trkpt lat="43.51521" lon="3.76815">
        <ele>90.2</ele>
        <time>2011-02-18T20:01:25Z</time>
      </trkpt>
      <trkpt lat="43.51519" lon="3.76806">
        <ele>90.3</ele>
        <time>2011-02-18T20:01:27Z</time>
      </trkpt>
      <trkpt lat="43.51517" lon="3.76798">
        <ele>90.3</ele>
        <time>2011-02-18T20:01:29Z</time>
      </trkpt>
      <trkpt lat="43.51515" lon="3.76789">
        <ele>90.3</ele>
        <time>2011-02-18T20:01:31Z</time>
      </trkpt>
      <trkpt lat="43.51513" lon="3.76781">
        <ele>90.4</ele>
        <time>2011-02-18T20:01:33Z</time>
      </trkpt>
      <trkpt lat="43.5151" lon="3.7677">
        <ele>90.5</ele>
        <time>2011-02-18T20:01:36Z</time>
      </trkpt>
      <trkpt lat="43.51507" lon="3.76759">
        <ele>90.7</ele>
        <time>2011-02-18T20:01:39Z</time>
      </trkpt>
      <trkpt lat="43.51504" lon="3.76748">
        <ele>90.7</ele>
        <time>2011-02-18T20:01:42Z</time>
      </trkpt>
      <trkpt lat="43.51501" lon="3.7674">
        <ele>90.8</ele>
        <time>2011-02-18T20:01:44Z</time>
      </trkpt>
      <trkpt lat="43.51499" lon="3.76732">
        <ele>91</ele>
        <time>2011-02-18T20:01:46Z</time>
      </trkpt>
      <trkpt lat="43.51496" lon="3.76724">
        <ele>91.2</ele>
        <time>2011-02-18T20:01:48Z</time>
      </trkpt>
      <trkpt lat="43.51493" lon="3.76713">
        <ele>91.6</ele>
        <time>2011-02-18T20:01:51Z</time>
      </trkpt>
      <trkpt lat="43.51489" lon="3.76702">
        <ele>92</ele>
        <time>2011-02-18T20:01:54Z</time>
      </trkpt>
      <trkpt lat="43.51485" lon="3.76695">
        <ele>92.3</ele>
        <time>2011-02-18T20:01:56Z</time>
      </trkpt>
      <trkpt lat="43.51484" lon="3.76692">
        <ele>92.5</ele>
        <time>2011-02-18T20:01:57Z</time>
      </trkpt>
      <trkpt lat="43.51478" lon="3.76673">
        <ele>92.7</ele>
        <time>2011-02-18T20:02:02Z</time>
      </trkpt>
      <trkpt lat="43.51474" lon="3.76662">
        <ele>92.7</ele>
        <time>2011-02-18T20:02:05Z</time>
      </trkpt>
      <trkpt lat="43.51471" lon="3.76655">
        <ele>92.6</ele>
        <time>2011-02-18T20:02:07Z</time>
      </trkpt>
      <trkpt lat="43.51467" lon="3.76645">
        <ele>92.7</ele>
        <time>2011-02-18T20:02:10Z</time>
      </trkpt>
      <trkpt lat="43.51464" lon="3.76637">
        <ele>92.7</ele>
        <time>2011-02-18T20:02:12Z</time>
      </trkpt>
      <trkpt lat="43.51461" lon="3.7663">
        <ele>92.8</ele>
        <time>2011-02-18T20:02:14Z</time>
      </trkpt>
      <trkpt lat="43.51456" lon="3.76624">
        <ele>92.9</ele>
        <time>2011-02-18T20:02:16Z</time>
      </trkpt>
      <trkpt lat="43.51451" lon="3.76615">
        <ele>93.1</ele>
        <time>2011-02-18T20:02:19Z</time>
      </trkpt>
      <trkpt lat="43.51445" lon="3.76606">
        <ele>93.1</ele>
        <time>2011-02-18T20:02:22Z</time>
      </trkpt>
      <trkpt lat="43.51439" lon="3.76598">
        <ele>93.1</ele>
        <time>2011-02-18T20:02:25Z</time>
      </trkpt>
      <trkpt lat="43.51434" lon="3.76592">
        <ele>93.2</ele>
        <time>2011-02-18T20:02:27Z</time>
      </trkpt>
      <trkpt lat="43.5143" lon="3.76586">
        <ele>93.3</ele>
        <time>2011-02-18T20:02:29Z</time>
      </trkpt>
      <trkpt lat="43.51425" lon="3.76581">
        <ele>93.4</ele>
        <time>2011-02-18T20:02:31Z</time>
      </trkpt>
      <trkpt lat="43.51419" lon="3.76575">
        <ele>93.4</ele>
        <time>2011-02-18T20:02:33Z</time>
      </trkpt>
      <trkpt lat="43.51414" lon="3.76569">
        <ele>93.6</ele>
        <time>2011-02-18T20:02:35Z</time>
      </trkpt>
      <trkpt lat="43.51409" lon="3.76564">
        <ele>93.8</ele>
        <time>2011-02-18T20:02:37Z</time>
      </trkpt>
      <trkpt lat="43.51404" lon="3.76558">
        <ele>93.9</ele>
        <time>2011-02-18T20:02:39Z</time>
      </trkpt>
      <trkpt lat="43.51399" lon="3.76553">
        <ele>94</ele>
        <time>2011-02-18T20:02:41Z</time>
      </trkpt>
      <trkpt lat="43.51394" lon="3.76547">
        <ele>94.2</ele>
        <time>2011-02-18T20:02:43Z</time>
      </trkpt>
      <trkpt lat="43.51389" lon="3.76541">
        <ele>94.3</ele>
        <time>2011-02-18T20:02:45Z</time>
      </trkpt>
      <trkpt lat="43.51384" lon="3.76536">
        <ele>94.5</ele>
        <time>2011-02-18T20:02:47Z</time>
      </trkpt>
      <trkpt lat="43.51379" lon="3.76531">
        <ele>94.6</ele>
        <time>2011-02-18T20:02:49Z</time>
      </trkpt>
      <trkpt lat="43.51374" lon="3.76526">
        <ele>94.8</ele>
        <time>2011-02-18T20:02:51Z</time>
      </trkpt>
      <trkpt lat="43.51368" lon="3.76521">
        <ele>95</ele>
        <time>2011-02-18T20:02:53Z</time>
      </trkpt>
      <trkpt lat="43.51363" lon="3.76517">
        <ele>95.2</ele>
        <time>2011-02-18T20:02:55Z</time>
      </trkpt>
      <trkpt lat="43.51358" lon="3.76513">
        <ele>95.3</ele>
        <time>2011-02-18T20:02:57Z</time>
      </trkpt>
      <trkpt lat="43.51356" lon="3.7651">
        <ele>95.4</ele>
        <time>2011-02-18T20:02:58Z</time>
      </trkpt>
      <trkpt lat="43.51348" lon="3.76504">
        <ele>95.6</ele>
        <time>2011-02-18T20:03:01Z</time>
      </trkpt>
      <trkpt lat="43.5134" lon="3.76497">
        <ele>95.9</ele>
        <time>2011-02-18T20:03:04Z</time>
      </trkpt>
      <trkpt lat="43.51335" lon="3.76493">
        <ele>96.1</ele>
        <time>2011-02-18T20:03:06Z</time>
      </trkpt>
      <trkpt lat="43.5133" lon="3.76489">
        <ele>96.2</ele>
        <time>2011-02-18T20:03:08Z</time>
      </trkpt>
      <trkpt lat="43.51324" lon="3.76485">
        <ele>96.4</ele>
        <time>2011-02-18T20:03:10Z</time>
      </trkpt>
      <trkpt lat="43.51318" lon="3.76481">
        <ele>96.6</ele>
        <time>2011-02-18T20:03:12Z</time>
      </trkpt>
      <trkpt lat="43.51313" lon="3.76477">
        <ele>96.8</ele>
        <time>2011-02-18T20:03:14Z</time>
      </trkpt>
      <trkpt lat="43.51307" lon="3.76474">
        <ele>97</ele>
        <time>2011-02-18T20:03:16Z</time>
      </trkpt>
      <trkpt lat="43.51301" lon="3.76471">
        <ele>97.2</ele>
        <time>2011-02-18T20:03:18Z</time>
      </trkpt>
      <trkpt lat="43.51296" lon="3.76467">
        <ele>97.2</ele>
        <time>2011-02-18T20:03:20Z</time>
      </trkpt>
      <trkpt lat="43.5129" lon="3.76459">
        <ele>97.3</ele>
        <time>2011-02-18T20:03:23Z</time>
      </trkpt>
      <trkpt lat="43.51289" lon="3.7645">
        <ele>97.2</ele>
        <time>2011-02-18T20:03:25Z</time>
      </trkpt>
      <trkpt lat="43.51293" lon="3.76442">
        <ele>96.8</ele>
        <time>2011-02-18T20:03:27Z</time>
      </trkpt>
      <trkpt lat="43.513" lon="3.76437">
        <ele>96.3</ele>
        <time>2011-02-18T20:03:29Z</time>
      </trkpt>
      <trkpt lat="43.51304" lon="3.76434">
        <ele>95.9</ele>
        <time>2011-02-18T20:03:30Z</time>
      </trkpt>
      <trkpt lat="43.51309" lon="3.7643">
        <ele>95.4</ele>
        <time>2011-02-18T20:03:31Z</time>
      </trkpt>
      <trkpt lat="43.51314" lon="3.76427">
        <ele>94.9</ele>
        <time>2011-02-18T20:03:32Z</time>
      </trkpt>
      <trkpt lat="43.51319" lon="3.76423">
        <ele>94.5</ele>
        <time>2011-02-18T20:03:33Z</time>
      </trkpt>
      <trkpt lat="43.51325" lon="3.76419">
        <ele>94</ele>
        <time>2011-02-18T20:03:34Z</time>
      </trkpt>
      <trkpt lat="43.51331" lon="3.76416">
        <ele>93.5</ele>
        <time>2011-02-18T20:03:35Z</time>
      </trkpt>
      <trkpt lat="43.51336" lon="3.76412">
        <ele>93</ele>
        <time>2011-02-18T20:03:36Z</time>
      </trkpt>
      <trkpt lat="43.51343" lon="3.76408">
        <ele>92.5</ele>
        <time>2011-02-18T20:03:37Z</time>
      </trkpt>
      <trkpt lat="43.51349" lon="3.76403">
        <ele>91.9</ele>
        <time>2011-02-18T20:03:38Z</time>
      </trkpt>
      <trkpt lat="43.51356" lon="3.76399">
        <ele>91.3</ele>
        <time>2011-02-18T20:03:39Z</time>
      </trkpt>
      <trkpt lat="43.51363" lon="3.76394">
        <ele>90.7</ele>
        <time>2011-02-18T20:03:40Z</time>
      </trkpt>
      <trkpt lat="43.51371" lon="3.76389">
        <ele>90.1</ele>
        <time>2011-02-18T20:03:41Z</time>
      </trkpt>
      <trkpt lat="43.51378" lon="3.76383">
        <ele>89.5</ele>
        <time>2011-02-18T20:03:42Z</time>
      </trkpt>
      <trkpt lat="43.51385" lon="3.76378">
        <ele>88.9</ele>
        <time>2011-02-18T20:03:43Z</time>
      </trkpt>
      <trkpt lat="43.51392" lon="3.76373">
        <ele>88.4</ele>
        <time>2011-02-18T20:03:44Z</time>
      </trkpt>
      <trkpt lat="43.51399" lon="3.76368">
        <ele>87.9</ele>
        <time>2011-02-18T20:03:45Z</time>
      </trkpt>
      <trkpt lat="43.51406" lon="3.76364">
        <ele>87.5</ele>
        <time>2011-02-18T20:03:46Z</time>
      </trkpt>
      <trkpt lat="43.51413" lon="3.76359">
        <ele>87.1</ele>
        <time>2011-02-18T20:03:47Z</time>
      </trkpt>
      <trkpt lat="43.51419" lon="3.76355">
        <ele>86.9</ele>
        <time>2011-02-18T20:03:48Z</time>
      </trkpt>
      <trkpt lat="43.51425" lon="3.76351">
        <ele>86.7</ele>
        <time>2011-02-18T20:03:49Z</time>
      </trkpt>
      <trkpt lat="43.51431" lon="3.76347">
        <ele>86.7</ele>
        <time>2011-02-18T20:03:50Z</time>
      </trkpt>
      <trkpt lat="43.51436" lon="3.76344">
        <ele>86.7</ele>
        <time>2011-02-18T20:03:51Z</time>
      </trkpt>
      <trkpt lat="43.51442" lon="3.7634">
        <ele>86.7</ele>
        <time>2011-02-18T20:03:52Z</time>
      </trkpt>
      <trkpt lat="43.51446" lon="3.76337">
        <ele>86.8</ele>
        <time>2011-02-18T20:03:53Z</time>
      </trkpt>
      <trkpt lat="43.51454" lon="3.76331">
        <ele>87.1</ele>
        <time>2011-02-18T20:03:55Z</time>
      </trkpt>
      <trkpt lat="43.51459" lon="3.76324">
        <ele>87.5</ele>
        <time>2011-02-18T20:03:57Z</time>
      </trkpt>
      <trkpt lat="43.51461" lon="3.76315">
        <ele>87.9</ele>
        <time>2011-02-18T20:03:59Z</time>
      </trkpt>
      <trkpt lat="43.5146" lon="3.76311">
        <ele>87.9</ele>
        <time>2011-02-18T20:04:00Z</time>
      </trkpt>
      <trkpt lat="43.51455" lon="3.76299">
        <ele>89.8</ele>
        <time>2011-02-18T20:04:03Z</time>
      </trkpt>
      <trkpt lat="43.51451" lon="3.76291">
        <ele>90.1</ele>
        <time>2011-02-18T20:04:05Z</time>
      </trkpt>
      <trkpt lat="43.51445" lon="3.76285">
        <ele>90.2</ele>
        <time>2011-02-18T20:04:07Z</time>
      </trkpt>
      <trkpt lat="43.51438" lon="3.7628">
        <ele>90.2</ele>
        <time>2011-02-18T20:04:09Z</time>
      </trkpt>
      <trkpt lat="43.51432" lon="3.76273">
        <ele>90.4</ele>
        <time>2011-02-18T20:04:11Z</time>
      </trkpt>
      <trkpt lat="43.51428" lon="3.76265">
        <ele>90.7</ele>
        <time>2011-02-18T20:04:13Z</time>
      </trkpt>
      <trkpt lat="43.51424" lon="3.76257">
        <ele>90.4</ele>
        <time>2011-02-18T20:04:15Z</time>
      </trkpt>
      <trkpt lat="43.51421" lon="3.76248">
        <ele>90.5</ele>
        <time>2011-02-18T20:04:17Z</time>
      </trkpt>
      <trkpt lat="43.51417" lon="3.7624">
        <ele>90.7</ele>
        <time>2011-02-18T20:04:19Z</time>
      </trkpt>
      <trkpt lat="43.51414" lon="3.76231">
        <ele>91.1</ele>
        <time>2011-02-18T20:04:21Z</time>
      </trkpt>
      <trkpt lat="43.5141" lon="3.76223">
        <ele>91.4</ele>
        <time>2011-02-18T20:04:23Z</time>
      </trkpt>
      <trkpt lat="43.51405" lon="3.76215">
        <ele>91.4</ele>
        <time>2011-02-18T20:04:25Z</time>
      </trkpt>
      <trkpt lat="43.51401" lon="3.76207">
        <ele>91.3</ele>
        <time>2011-02-18T20:04:27Z</time>
      </trkpt>
      <trkpt lat="43.51396" lon="3.762">
        <ele>91.1</ele>
        <time>2011-02-18T20:04:29Z</time>
      </trkpt>
      <trkpt lat="43.51391" lon="3.76193">
        <ele>90.7</ele>
        <time>2011-02-18T20:04:31Z</time>
      </trkpt>
      <trkpt lat="43.51386" lon="3.76186">
        <ele>90.9</ele>
        <time>2011-02-18T20:04:33Z</time>
      </trkpt>
      <trkpt lat="43.51381" lon="3.76179">
        <ele>91.2</ele>
        <time>2011-02-18T20:04:35Z</time>
      </trkpt>
      <trkpt lat="43.51377" lon="3.76172">
        <ele>91.9</ele>
        <time>2011-02-18T20:04:37Z</time>
      </trkpt>
      <trkpt lat="43.51372" lon="3.76165">
        <ele>92.3</ele>
        <time>2011-02-18T20:04:39Z</time>
      </trkpt>
      <trkpt lat="43.51368" lon="3.76158">
        <ele>92.7</ele>
        <time>2011-02-18T20:04:41Z</time>
      </trkpt>
      <trkpt lat="43.51364" lon="3.76151">
        <ele>93.1</ele>
        <time>2011-02-18T20:04:43Z</time>
      </trkpt>
      <trkpt lat="43.51359" lon="3.76145">
        <ele>93.5</ele>
        <time>2011-02-18T20:04:45Z</time>
      </trkpt>
      <trkpt lat="43.51355" lon="3.76138">
        <ele>94</ele>
        <time>2011-02-18T20:04:47Z</time>
      </trkpt>
      <trkpt lat="43.51351" lon="3.76131">
        <ele>94.1</ele>
        <time>2011-02-18T20:04:49Z</time>
      </trkpt>
      <trkpt lat="43.51348" lon="3.76123">
        <ele>94.1</ele>
        <time>2011-02-18T20:04:51Z</time>
      </trkpt>
      <trkpt lat="43.51344" lon="3.76116">
        <ele>94.9</ele>
        <time>2011-02-18T20:04:53Z</time>
      </trkpt>
      <trkpt lat="43.51342" lon="3.76108">
        <ele>95.3</ele>
        <time>2011-02-18T20:04:55Z</time>
      </trkpt>
      <trkpt lat="43.5134" lon="3.76099">
        <ele>96.1</ele>
        <time>2011-02-18T20:04:57Z</time>
      </trkpt>
      <trkpt lat="43.51339" lon="3.76091">
        <ele>96.6</ele>
        <time>2011-02-18T20:04:59Z</time>
      </trkpt>
      <trkpt lat="43.51337" lon="3.76082">
        <ele>96.9</ele>
        <time>2011-02-18T20:05:01Z</time>
      </trkpt>
      <trkpt lat="43.51337" lon="3.76078">
        <ele>97</ele>
        <time>2011-02-18T20:05:02Z</time>
      </trkpt>
      <trkpt lat="43.51336" lon="3.76065">
        <ele>97.2</ele>
        <time>2011-02-18T20:05:05Z</time>
      </trkpt>
      <trkpt lat="43.51336" lon="3.76056">
        <ele>97.5</ele>
        <time>2011-02-18T20:05:07Z</time>
      </trkpt>
      <trkpt lat="43.51337" lon="3.76047">
        <ele>98.1</ele>
        <time>2011-02-18T20:05:09Z</time>
      </trkpt>
      <trkpt lat="43.51338" lon="3.76039">
        <ele>98.4</ele>
        <time>2011-02-18T20:05:11Z</time>
      </trkpt>
      <trkpt lat="43.5134" lon="3.7603">
        <ele>97.6</ele>
        <time>2011-02-18T20:05:13Z</time>
      </trkpt>
      <trkpt lat="43.51339" lon="3.7602">
        <ele>97.5</ele>
        <time>2011-02-18T20:05:15Z</time>
      </trkpt>
      <trkpt lat="43.5134" lon="3.7601">
        <ele>97.8</ele>
        <time>2011-02-18T20:05:17Z</time>
      </trkpt>
      <trkpt lat="43.51338" lon="3.76">
        <ele>97.6</ele>
        <time>2011-02-18T20:05:19Z</time>
      </trkpt>
      <trkpt lat="43.51337" lon="3.7599">
        <ele>97.4</ele>
        <time>2011-02-18T20:05:21Z</time>
      </trkpt>
      <trkpt lat="43.51338" lon="3.7598">
        <ele>97.3</ele>
        <time>2011-02-18T20:05:23Z</time>
      </trkpt>
      <trkpt lat="43.51339" lon="3.75968">
        <ele>97.3</ele>
        <time>2011-02-18T20:05:25Z</time>
      </trkpt>
      <trkpt lat="43.5134" lon="3.75962">
        <ele>97.4</ele>
        <time>2011-02-18T20:05:26Z</time>
      </trkpt>
      <trkpt lat="43.51341" lon="3.75956">
        <ele>97.4</ele>
        <time>2011-02-18T20:05:27Z</time>
      </trkpt>
      <trkpt lat="43.51342" lon="3.75949">
        <ele>96.6</ele>
        <time>2011-02-18T20:05:28Z</time>
      </trkpt>
      <trkpt lat="43.51344" lon="3.75943">
        <ele>96</ele>
        <time>2011-02-18T20:05:29Z</time>
      </trkpt>
      <trkpt lat="43.51346" lon="3.75937">
        <ele>95.6</ele>
        <time>2011-02-18T20:05:30Z</time>
      </trkpt>
      <trkpt lat="43.51349" lon="3.7593">
        <ele>95.9</ele>
        <time>2011-02-18T20:05:31Z</time>
      </trkpt>
      <trkpt lat="43.51351" lon="3.75923">
        <ele>96.1</ele>
        <time>2011-02-18T20:05:32Z</time>
      </trkpt>
      <trkpt lat="43.51353" lon="3.75916">
        <ele>96.3</ele>
        <time>2011-02-18T20:05:33Z</time>
      </trkpt>
      <trkpt lat="43.51356" lon="3.75909">
        <ele>95.8</ele>
        <time>2011-02-18T20:05:34Z</time>
      </trkpt>
      <trkpt lat="43.51359" lon="3.75902">
        <ele>95.5</ele>
        <time>2011-02-18T20:05:35Z</time>
      </trkpt>
      <trkpt lat="43.51361" lon="3.75895">
        <ele>95.2</ele>
        <time>2011-02-18T20:05:36Z</time>
      </trkpt>
      <trkpt lat="43.51364" lon="3.75888">
        <ele>94.7</ele>
        <time>2011-02-18T20:05:37Z</time>
      </trkpt>
      <trkpt lat="43.51366" lon="3.7588">
        <ele>94.3</ele>
        <time>2011-02-18T20:05:38Z</time>
      </trkpt>
      <trkpt lat="43.51369" lon="3.75872">
        <ele>94.1</ele>
        <time>2011-02-18T20:05:39Z</time>
      </trkpt>
      <trkpt lat="43.51371" lon="3.75865">
        <ele>93.6</ele>
        <time>2011-02-18T20:05:40Z</time>
      </trkpt>
      <trkpt lat="43.51373" lon="3.75857">
        <ele>93.3</ele>
        <time>2011-02-18T20:05:41Z</time>
      </trkpt>
      <trkpt lat="43.51376" lon="3.7585">
        <ele>93.1</ele>
        <time>2011-02-18T20:05:42Z</time>
      </trkpt>
      <trkpt lat="43.51378" lon="3.75843">
        <ele>92.9</ele>
        <time>2011-02-18T20:05:43Z</time>
      </trkpt>
      <trkpt lat="43.51381" lon="3.75836">
        <ele>92.8</ele>
        <time>2011-02-18T20:05:44Z</time>
      </trkpt>
      <trkpt lat="43.51383" lon="3.7583">
        <ele>92.7</ele>
        <time>2011-02-18T20:05:45Z</time>
      </trkpt>
      <trkpt lat="43.51384" lon="3.75823">
        <ele>92.7</ele>
        <time>2011-02-18T20:05:46Z</time>
      </trkpt>
      <trkpt lat="43.51385" lon="3.75817">
        <ele>92.5</ele>
        <time>2011-02-18T20:05:47Z</time>
      </trkpt>
      <trkpt lat="43.51386" lon="3.75809">
        <ele>92.3</ele>
        <time>2011-02-18T20:05:48Z</time>
      </trkpt>
      <trkpt lat="43.51388" lon="3.75802">
        <ele>92.2</ele>
        <time>2011-02-18T20:05:49Z</time>
      </trkpt>
      <trkpt lat="43.5139" lon="3.75795">
        <ele>91.8</ele>
        <time>2011-02-18T20:05:50Z</time>
      </trkpt>
      <trkpt lat="43.51391" lon="3.75789">
        <ele>91.5</ele>
        <time>2011-02-18T20:05:51Z</time>
      </trkpt>
      <trkpt lat="43.51393" lon="3.75778">
        <ele>91.4</ele>
        <time>2011-02-18T20:05:53Z</time>
      </trkpt>
      <trkpt lat="43.51394" lon="3.75769">
        <ele>91.6</ele>
        <time>2011-02-18T20:05:55Z</time>
      </trkpt>
      <trkpt lat="43.51396" lon="3.7576">
        <ele>91</ele>
        <time>2011-02-18T20:05:57Z</time>
      </trkpt>
      <trkpt lat="43.51399" lon="3.75752">
        <ele>90.9</ele>
        <time>2011-02-18T20:05:59Z</time>
      </trkpt>
      <trkpt lat="43.51401" lon="3.75745">
        <ele>91.1</ele>
        <time>2011-02-18T20:06:01Z</time>
      </trkpt>
      <trkpt lat="43.51403" lon="3.75736">
        <ele>91</ele>
        <time>2011-02-18T20:06:03Z</time>
      </trkpt>
      <trkpt lat="43.51404" lon="3.75732">
        <ele>90.9</ele>
        <time>2011-02-18T20:06:04Z</time>
      </trkpt>
      <trkpt lat="43.51403" lon="3.75718">
        <ele>90.7</ele>
        <time>2011-02-18T20:06:07Z</time>
      </trkpt>
      <trkpt lat="43.51402" lon="3.75707">
        <ele>91</ele>
        <time>2011-02-18T20:06:10Z</time>
      </trkpt>
      <trkpt lat="43.51399" lon="3.75695">
        <ele>91.6</ele>
        <time>2011-02-18T20:06:13Z</time>
      </trkpt>
      <trkpt lat="43.51394" lon="3.75685">
        <ele>91.8</ele>
        <time>2011-02-18T20:06:16Z</time>
      </trkpt>
      <trkpt lat="43.51389" lon="3.75679">
        <ele>91.8</ele>
        <time>2011-02-18T20:06:18Z</time>
      </trkpt>
      <trkpt lat="43.51384" lon="3.75674">
        <ele>92.1</ele>
        <time>2011-02-18T20:06:20Z</time>
      </trkpt>
      <trkpt lat="43.51377" lon="3.75666">
        <ele>92.5</ele>
        <time>2011-02-18T20:06:23Z</time>
      </trkpt>
      <trkpt lat="43.51371" lon="3.75657">
        <ele>92.6</ele>
        <time>2011-02-18T20:06:26Z</time>
      </trkpt>
      <trkpt lat="43.51367" lon="3.7565">
        <ele>93.1</ele>
        <time>2011-02-18T20:06:28Z</time>
      </trkpt>
      <trkpt lat="43.51364" lon="3.75643">
        <ele>93.8</ele>
        <time>2011-02-18T20:06:30Z</time>
      </trkpt>
      <trkpt lat="43.5136" lon="3.75635">
        <ele>94.2</ele>
        <time>2011-02-18T20:06:32Z</time>
      </trkpt>
      <trkpt lat="43.51357" lon="3.75628">
        <ele>94.5</ele>
        <time>2011-02-18T20:06:34Z</time>
      </trkpt>
      <trkpt lat="43.51352" lon="3.75617">
        <ele>94.3</ele>
        <time>2011-02-18T20:06:37Z</time>
      </trkpt>
      <trkpt lat="43.51349" lon="3.7561">
        <ele>94.8</ele>
        <time>2011-02-18T20:06:39Z</time>
      </trkpt>
      <trkpt lat="43.51345" lon="3.756">
        <ele>95.4</ele>
        <time>2011-02-18T20:06:42Z</time>
      </trkpt>
      <trkpt lat="43.5134" lon="3.7559">
        <ele>96</ele>
        <time>2011-02-18T20:06:45Z</time>
      </trkpt>
      <trkpt lat="43.51337" lon="3.75582">
        <ele>96.8</ele>
        <time>2011-02-18T20:06:48Z</time>
      </trkpt>
      <trkpt lat="43.51334" lon="3.75573">
        <ele>97</ele>
        <time>2011-02-18T20:06:51Z</time>
      </trkpt>
      <trkpt lat="43.51328" lon="3.75564">
        <ele>97</ele>
        <time>2011-02-18T20:06:54Z</time>
      </trkpt>
      <trkpt lat="43.51323" lon="3.75555">
        <ele>97.5</ele>
        <time>2011-02-18T20:06:57Z</time>
      </trkpt>
      <trkpt lat="43.51318" lon="3.75548">
        <ele>97.9</ele>
        <time>2011-02-18T20:06:59Z</time>
      </trkpt>
      <trkpt lat="43.51313" lon="3.75543">
        <ele>98.5</ele>
        <time>2011-02-18T20:07:01Z</time>
      </trkpt>
      <trkpt lat="43.51308" lon="3.75536">
        <ele>98.7</ele>
        <time>2011-02-18T20:07:03Z</time>
      </trkpt>
      <trkpt lat="43.51302" lon="3.75528">
        <ele>98.9</ele>
        <time>2011-02-18T20:07:06Z</time>
      </trkpt>
      <trkpt lat="43.513" lon="3.75525">
        <ele>99</ele>
        <time>2011-02-18T20:07:07Z</time>
      </trkpt>
      <trkpt lat="43.51293" lon="3.75516">
        <ele>99.1</ele>
        <time>2011-02-18T20:07:10Z</time>
      </trkpt>
      <trkpt lat="43.51289" lon="3.7551">
        <ele>98.9</ele>
        <time>2011-02-18T20:07:12Z</time>
      </trkpt>
      <trkpt lat="43.51283" lon="3.75501">
        <ele>100.3</ele>
        <time>2011-02-18T20:07:15Z</time>
      </trkpt>
      <trkpt lat="43.51278" lon="3.75492">
        <ele>100.2</ele>
        <time>2011-02-18T20:07:18Z</time>
      </trkpt>
      <trkpt lat="43.51274" lon="3.75483">
        <ele>99.7</ele>
        <time>2011-02-18T20:07:21Z</time>
      </trkpt>
      <trkpt lat="43.5127" lon="3.75474">
        <ele>99.8</ele>
        <time>2011-02-18T20:07:24Z</time>
      </trkpt>
      <trkpt lat="43.51265" lon="3.75465">
        <ele>100</ele>
        <time>2011-02-18T20:07:27Z</time>
      </trkpt>
      <trkpt lat="43.51259" lon="3.75457">
        <ele>100.5</ele>
        <time>2011-02-18T20:07:30Z</time>
      </trkpt>
      <trkpt lat="43.51253" lon="3.7545">
        <ele>101</ele>
        <time>2011-02-18T20:07:33Z</time>
      </trkpt>
      <trkpt lat="43.51246" lon="3.75445">
        <ele>101.2</ele>
        <time>2011-02-18T20:07:36Z</time>
      </trkpt>
      <trkpt lat="43.5124" lon="3.75439">
        <ele>101.2</ele>
        <time>2011-02-18T20:07:37Z</time>
      </trkpt>
      <trkpt lat="43.51233" lon="3.75434">
        <ele>102.1</ele>
        <time>2011-02-18T20:07:40Z</time>
      </trkpt>
      <trkpt lat="43.51226" lon="3.7543">
        <ele>101.3</ele>
        <time>2011-02-18T20:07:43Z</time>
      </trkpt>
      <trkpt lat="43.51218" lon="3.75425">
        <ele>101.5</ele>
        <time>2011-02-18T20:07:46Z</time>
      </trkpt>
      <trkpt lat="43.51211" lon="3.75419">
        <ele>102</ele>
        <time>2011-02-18T20:07:49Z</time>
      </trkpt>
      <trkpt lat="43.51205" lon="3.75412">
        <ele>101.9</ele>
        <time>2011-02-18T20:07:52Z</time>
      </trkpt>
      <trkpt lat="43.51199" lon="3.75405">
        <ele>101.9</ele>
        <time>2011-02-18T20:07:55Z</time>
      </trkpt>
      <trkpt lat="43.51194" lon="3.75397">
        <ele>101.9</ele>
        <time>2011-02-18T20:07:58Z</time>
      </trkpt>
      <trkpt lat="43.51188" lon="3.75389">
        <ele>102.1</ele>
        <time>2011-02-18T20:08:01Z</time>
      </trkpt>
      <trkpt lat="43.51182" lon="3.75381">
        <ele>102.1</ele>
        <time>2011-02-18T20:08:04Z</time>
      </trkpt>
      <trkpt lat="43.51176" lon="3.75373">
        <ele>102.1</ele>
        <time>2011-02-18T20:08:07Z</time>
      </trkpt>
      <trkpt lat="43.51175" lon="3.7537">
        <ele>102.3</ele>
        <time>2011-02-18T20:08:08Z</time>
      </trkpt>
      <trkpt lat="43.51166" lon="3.75357">
        <ele>104.1</ele>
        <time>2011-02-18T20:08:13Z</time>
      </trkpt>
      <trkpt lat="43.51161" lon="3.75349">
        <ele>105</ele>
        <time>2011-02-18T20:08:16Z</time>
      </trkpt>
      <trkpt lat="43.51157" lon="3.75342">
        <ele>104.4</ele>
        <time>2011-02-18T20:08:19Z</time>
      </trkpt>
      <trkpt lat="43.51152" lon="3.75331">
        <ele>105.3</ele>
        <time>2011-02-18T20:08:23Z</time>
      </trkpt>
      <trkpt lat="43.51149" lon="3.75323">
        <ele>105.4</ele>
        <time>2011-02-18T20:08:26Z</time>
      </trkpt>
      <trkpt lat="43.51146" lon="3.75314">
        <ele>105.7</ele>
        <time>2011-02-18T20:08:29Z</time>
      </trkpt>
      <trkpt lat="43.51142" lon="3.75306">
        <ele>106</ele>
        <time>2011-02-18T20:08:32Z</time>
      </trkpt>
      <trkpt lat="43.51137" lon="3.75298">
        <ele>107.1</ele>
        <time>2011-02-18T20:08:35Z</time>
      </trkpt>
      <trkpt lat="43.51133" lon="3.75291">
        <ele>107.4</ele>
        <time>2011-02-18T20:08:38Z</time>
      </trkpt>
      <trkpt lat="43.51128" lon="3.75285">
        <ele>108.3</ele>
        <time>2011-02-18T20:08:41Z</time>
      </trkpt>
      <trkpt lat="43.51122" lon="3.75279">
        <ele>108.3</ele>
        <time>2011-02-18T20:08:44Z</time>
      </trkpt>
      <trkpt lat="43.51116" lon="3.75273">
        <ele>109.4</ele>
        <time>2011-02-18T20:08:47Z</time>
      </trkpt>
      <trkpt lat="43.51111" lon="3.75266">
        <ele>109.8</ele>
        <time>2011-02-18T20:08:50Z</time>
      </trkpt>
      <trkpt lat="43.51106" lon="3.75258">
        <ele>110</ele>
        <time>2011-02-18T20:08:53Z</time>
      </trkpt>
      <trkpt lat="43.51102" lon="3.75249">
        <ele>109.9</ele>
        <time>2011-02-18T20:08:56Z</time>
      </trkpt>
      <trkpt lat="43.511" lon="3.75241">
        <ele>110.6</ele>
        <time>2011-02-18T20:08:59Z</time>
      </trkpt>
      <trkpt lat="43.51096" lon="3.75231">
        <ele>111.4</ele>
        <time>2011-02-18T20:09:02Z</time>
      </trkpt>
      <trkpt lat="43.51092" lon="3.75221">
        <ele>111.8</ele>
        <time>2011-02-18T20:09:05Z</time>
      </trkpt>
      <trkpt lat="43.51086" lon="3.75212">
        <ele>111.8</ele>
        <time>2011-02-18T20:09:08Z</time>
      </trkpt>
      <trkpt lat="43.51084" lon="3.7521">
        <ele>111.7</ele>
        <time>2011-02-18T20:09:09Z</time>
      </trkpt>
      <trkpt lat="43.51075" lon="3.7521">
        <ele>111.8</ele>
        <time>2011-02-18T20:09:12Z</time>
      </trkpt>
      <trkpt lat="43.51069" lon="3.75212">
        <ele>111.7</ele>
        <time>2011-02-18T20:09:14Z</time>
      </trkpt>
      <trkpt lat="43.51062" lon="3.75214">
        <ele>111.6</ele>
        <time>2011-02-18T20:09:16Z</time>
      </trkpt>
      <trkpt lat="43.51056" lon="3.75215">
        <ele>111.9</ele>
        <time>2011-02-18T20:09:18Z</time>
      </trkpt>
      <trkpt lat="43.5105" lon="3.75215">
        <ele>112</ele>
        <time>2011-02-18T20:09:20Z</time>
      </trkpt>
      <trkpt lat="43.51043" lon="3.75216">
        <ele>112.1</ele>
        <time>2011-02-18T20:09:22Z</time>
      </trkpt>
      <trkpt lat="43.51037" lon="3.75215">
        <ele>111.9</ele>
        <time>2011-02-18T20:09:24Z</time>
      </trkpt>
      <trkpt lat="43.5103" lon="3.75215">
        <ele>111.6</ele>
        <time>2011-02-18T20:09:26Z</time>
      </trkpt>
      <trkpt lat="43.51023" lon="3.75216">
        <ele>111.4</ele>
        <time>2011-02-18T20:09:28Z</time>
      </trkpt>
      <trkpt lat="43.51015" lon="3.75215">
        <ele>111.4</ele>
        <time>2011-02-18T20:09:30Z</time>
      </trkpt>
      <trkpt lat="43.51008" lon="3.75213">
        <ele>111.4</ele>
        <time>2011-02-18T20:09:32Z</time>
      </trkpt>
      <trkpt lat="43.51" lon="3.75211">
        <ele>111.4</ele>
        <time>2011-02-18T20:09:34Z</time>
      </trkpt>
      <trkpt lat="43.50994" lon="3.75209">
        <ele>111.3</ele>
        <time>2011-02-18T20:09:36Z</time>
      </trkpt>
      <trkpt lat="43.50987" lon="3.75209">
        <ele>111.3</ele>
        <time>2011-02-18T20:09:38Z</time>
      </trkpt>
      <trkpt lat="43.50979" lon="3.75207">
        <ele>111.9</ele>
        <time>2011-02-18T20:09:41Z</time>
      </trkpt>
      <trkpt lat="43.50971" lon="3.75205">
        <ele>112.3</ele>
        <time>2011-02-18T20:09:44Z</time>
      </trkpt>
      <trkpt lat="43.50962" lon="3.75203">
        <ele>112.5</ele>
        <time>2011-02-18T20:09:47Z</time>
      </trkpt>
      <trkpt lat="43.50954" lon="3.75202">
        <ele>113.4</ele>
        <time>2011-02-18T20:09:50Z</time>
      </trkpt>
      <trkpt lat="43.50946" lon="3.75202">
        <ele>113.8</ele>
        <time>2011-02-18T20:09:53Z</time>
      </trkpt>
      <trkpt lat="43.50939" lon="3.75198">
        <ele>114.3</ele>
        <time>2011-02-18T20:09:56Z</time>
      </trkpt>
      <trkpt lat="43.50932" lon="3.75194">
        <ele>115.2</ele>
        <time>2011-02-18T20:09:59Z</time>
      </trkpt>
      <trkpt lat="43.50925" lon="3.7519">
        <ele>115.8</ele>
        <time>2011-02-18T20:10:02Z</time>
      </trkpt>
      <trkpt lat="43.50918" lon="3.75185">
        <ele>116.4</ele>
        <time>2011-02-18T20:10:05Z</time>
      </trkpt>
      <trkpt lat="43.5091" lon="3.75181">
        <ele>117</ele>
        <time>2011-02-18T20:10:08Z</time>
      </trkpt>
      <trkpt lat="43.50903" lon="3.75177">
        <ele>117.4</ele>
        <time>2011-02-18T20:10:11Z</time>
      </trkpt>
      <trkpt lat="43.50901" lon="3.75175">
        <ele>117.4</ele>
        <time>2011-02-18T20:10:12Z</time>
      </trkpt>
      <trkpt lat="43.5089" lon="3.75166">
        <ele>117.7</ele>
        <time>2011-02-18T20:10:17Z</time>
      </trkpt>
      <trkpt lat="43.50884" lon="3.7516">
        <ele>118</ele>
        <time>2011-02-18T20:10:20Z</time>
      </trkpt>
      <trkpt lat="43.50878" lon="3.75154">
        <ele>118.5</ele>
        <time>2011-02-18T20:10:23Z</time>
      </trkpt>
      <trkpt lat="43.50871" lon="3.75148">
        <ele>119.4</ele>
        <time>2011-02-18T20:10:26Z</time>
      </trkpt>
      <trkpt lat="43.50864" lon="3.75143">
        <ele>119</ele>
        <time>2011-02-18T20:10:29Z</time>
      </trkpt>
      <trkpt lat="43.50858" lon="3.75139">
        <ele>118.8</ele>
        <time>2011-02-18T20:10:31Z</time>
      </trkpt>
      <trkpt lat="43.50852" lon="3.75136">
        <ele>118.6</ele>
        <time>2011-02-18T20:10:33Z</time>
      </trkpt>
      <trkpt lat="43.50846" lon="3.75134">
        <ele>118.6</ele>
        <time>2011-02-18T20:10:35Z</time>
      </trkpt>
      <trkpt lat="43.5084" lon="3.75133">
        <ele>118.5</ele>
        <time>2011-02-18T20:10:37Z</time>
      </trkpt>
      <trkpt lat="43.50833" lon="3.75133">
        <ele>118.4</ele>
        <time>2011-02-18T20:10:39Z</time>
      </trkpt>
      <trkpt lat="43.50826" lon="3.75133">
        <ele>117.8</ele>
        <time>2011-02-18T20:10:41Z</time>
      </trkpt>
      <trkpt lat="43.50819" lon="3.75133">
        <ele>117.4</ele>
        <time>2011-02-18T20:10:43Z</time>
      </trkpt>
      <trkpt lat="43.50811" lon="3.75133">
        <ele>117.1</ele>
        <time>2011-02-18T20:10:45Z</time>
      </trkpt>
      <trkpt lat="43.50803" lon="3.7513">
        <ele>117.2</ele>
        <time>2011-02-18T20:10:47Z</time>
      </trkpt>
      <trkpt lat="43.50797" lon="3.75128">
        <ele>117.5</ele>
        <time>2011-02-18T20:10:49Z</time>
      </trkpt>
      <trkpt lat="43.50789" lon="3.75124">
        <ele>118</ele>
        <time>2011-02-18T20:10:52Z</time>
      </trkpt>
      <trkpt lat="43.50781" lon="3.75119">
        <ele>119.1</ele>
        <time>2011-02-18T20:10:55Z</time>
      </trkpt>
      <trkpt lat="43.50774" lon="3.75113">
        <ele>120</ele>
        <time>2011-02-18T20:10:58Z</time>
      </trkpt>
      <trkpt lat="43.50767" lon="3.75105">
        <ele>119.6</ele>
        <time>2011-02-18T20:11:01Z</time>
      </trkpt>
      <trkpt lat="43.50762" lon="3.75098">
        <ele>119.5</ele>
        <time>2011-02-18T20:11:03Z</time>
      </trkpt>
      <trkpt lat="43.50757" lon="3.7509">
        <ele>119.6</ele>
        <time>2011-02-18T20:11:05Z</time>
      </trkpt>
      <trkpt lat="43.50754" lon="3.75085">
        <ele>119.3</ele>
        <time>2011-02-18T20:11:06Z</time>
      </trkpt>
      <trkpt lat="43.50751" lon="3.7508">
        <ele>119.1</ele>
        <time>2011-02-18T20:11:07Z</time>
      </trkpt>
      <trkpt lat="43.50748" lon="3.75075">
        <ele>118.9</ele>
        <time>2011-02-18T20:11:08Z</time>
      </trkpt>
      <trkpt lat="43.50744" lon="3.75068">
        <ele>118.4</ele>
        <time>2011-02-18T20:11:09Z</time>
      </trkpt>
      <trkpt lat="43.50741" lon="3.75062">
        <ele>118</ele>
        <time>2011-02-18T20:11:10Z</time>
      </trkpt>
      <trkpt lat="43.50739" lon="3.75056">
        <ele>117.7</ele>
        <time>2011-02-18T20:11:11Z</time>
      </trkpt>
      <trkpt lat="43.50737" lon="3.75049">
        <ele>117</ele>
        <time>2011-02-18T20:11:12Z</time>
      </trkpt>
      <trkpt lat="43.50734" lon="3.75041">
        <ele>116.5</ele>
        <time>2011-02-18T20:11:13Z</time>
      </trkpt>
      <trkpt lat="43.50732" lon="3.75034">
        <ele>116.1</ele>
        <time>2011-02-18T20:11:14Z</time>
      </trkpt>
      <trkpt lat="43.50729" lon="3.75027">
        <ele>115.8</ele>
        <time>2011-02-18T20:11:15Z</time>
      </trkpt>
      <trkpt lat="43.50727" lon="3.7502">
        <ele>115.6</ele>
        <time>2011-02-18T20:11:16Z</time>
      </trkpt>
      <trkpt lat="43.50724" lon="3.75014">
        <ele>115.4</ele>
        <time>2011-02-18T20:11:17Z</time>
      </trkpt>
      <trkpt lat="43.50721" lon="3.75008">
        <ele>115.3</ele>
        <time>2011-02-18T20:11:18Z</time>
      </trkpt>
      <trkpt lat="43.50719" lon="3.75002">
        <ele>115.2</ele>
        <time>2011-02-18T20:11:19Z</time>
      </trkpt>
      <trkpt lat="43.50716" lon="3.74997">
        <ele>115.1</ele>
        <time>2011-02-18T20:11:20Z</time>
      </trkpt>
      <trkpt lat="43.50711" lon="3.74987">
        <ele>115.2</ele>
        <time>2011-02-18T20:11:22Z</time>
      </trkpt>
      <trkpt lat="43.50706" lon="3.74977">
        <ele>115.3</ele>
        <time>2011-02-18T20:11:24Z</time>
      </trkpt>
      <trkpt lat="43.50704" lon="3.74971">
        <ele>115.4</ele>
        <time>2011-02-18T20:11:25Z</time>
      </trkpt>
      <trkpt lat="43.50699" lon="3.74961">
        <ele>115.6</ele>
        <time>2011-02-18T20:11:27Z</time>
      </trkpt>
      <trkpt lat="43.50693" lon="3.74952">
        <ele>115.3</ele>
        <time>2011-02-18T20:11:29Z</time>
      </trkpt>
      <trkpt lat="43.50687" lon="3.74944">
        <ele>115.1</ele>
        <time>2011-02-18T20:11:31Z</time>
      </trkpt>
      <trkpt lat="43.5068" lon="3.74936">
        <ele>115</ele>
        <time>2011-02-18T20:11:33Z</time>
      </trkpt>
      <trkpt lat="43.50676" lon="3.74933">
        <ele>115</ele>
        <time>2011-02-18T20:11:34Z</time>
      </trkpt>
      <trkpt lat="43.50672" lon="3.7493">
        <ele>114.9</ele>
        <time>2011-02-18T20:11:35Z</time>
      </trkpt>
      <trkpt lat="43.50669" lon="3.74926">
        <ele>114.8</ele>
        <time>2011-02-18T20:11:36Z</time>
      </trkpt>
      <trkpt lat="43.50664" lon="3.74921">
        <ele>114.7</ele>
        <time>2011-02-18T20:11:37Z</time>
      </trkpt>
      <trkpt lat="43.5066" lon="3.74916">
        <ele>114.3</ele>
        <time>2011-02-18T20:11:38Z</time>
      </trkpt>
      <trkpt lat="43.50656" lon="3.74911">
        <ele>113.9</ele>
        <time>2011-02-18T20:11:39Z</time>
      </trkpt>
      <trkpt lat="43.50652" lon="3.74906">
        <ele>113.6</ele>
        <time>2011-02-18T20:11:40Z</time>
      </trkpt>
      <trkpt lat="43.50649" lon="3.74901">
        <ele>113.4</ele>
        <time>2011-02-18T20:11:41Z</time>
      </trkpt>
      <trkpt lat="43.50645" lon="3.74897">
        <ele>113.3</ele>
        <time>2011-02-18T20:11:42Z</time>
      </trkpt>
      <trkpt lat="43.50641" lon="3.74894">
        <ele>113.2</ele>
        <time>2011-02-18T20:11:43Z</time>
      </trkpt>
      <trkpt lat="43.50636" lon="3.74892">
        <ele>112.4</ele>
        <time>2011-02-18T20:11:44Z</time>
      </trkpt>
      <trkpt lat="43.5063" lon="3.74891">
        <ele>111.9</ele>
        <time>2011-02-18T20:11:45Z</time>
      </trkpt>
      <trkpt lat="43.50625" lon="3.74891">
        <ele>111.4</ele>
        <time>2011-02-18T20:11:46Z</time>
      </trkpt>
      <trkpt lat="43.5062" lon="3.74892">
        <ele>110.8</ele>
        <time>2011-02-18T20:11:47Z</time>
      </trkpt>
      <trkpt lat="43.50615" lon="3.74892">
        <ele>110.3</ele>
        <time>2011-02-18T20:11:48Z</time>
      </trkpt>
      <trkpt lat="43.50606" lon="3.74893">
        <ele>109.6</ele>
        <time>2011-02-18T20:11:50Z</time>
      </trkpt>
      <trkpt lat="43.50598" lon="3.74891">
        <ele>109.6</ele>
        <time>2011-02-18T20:11:52Z</time>
      </trkpt>
      <trkpt lat="43.5059" lon="3.74888">
        <ele>109.3</ele>
        <time>2011-02-18T20:11:54Z</time>
      </trkpt>
      <trkpt lat="43.50585" lon="3.74881">
        <ele>108.9</ele>
        <time>2011-02-18T20:11:56Z</time>
      </trkpt>
      <trkpt lat="43.50583" lon="3.74872">
        <ele>109.5</ele>
        <time>2011-02-18T20:11:58Z</time>
      </trkpt>
      <trkpt lat="43.50584" lon="3.74863">
        <ele>110.1</ele>
        <time>2011-02-18T20:12:00Z</time>
      </trkpt>
      <trkpt lat="43.50586" lon="3.74854">
        <ele>110.6</ele>
        <time>2011-02-18T20:12:02Z</time>
      </trkpt>
      <trkpt lat="43.50589" lon="3.74845">
        <ele>111.4</ele>
        <time>2011-02-18T20:12:04Z</time>
      </trkpt>
      <trkpt lat="43.50592" lon="3.74837">
        <ele>111.8</ele>
        <time>2011-02-18T20:12:06Z</time>
      </trkpt>
      <trkpt lat="43.50595" lon="3.74827">
        <ele>112</ele>
        <time>2011-02-18T20:12:08Z</time>
      </trkpt>
      <trkpt lat="43.50597" lon="3.74818">
        <ele>112</ele>
        <time>2011-02-18T20:12:10Z</time>
      </trkpt>
      <trkpt lat="43.50599" lon="3.74808">
        <ele>111.9</ele>
        <time>2011-02-18T20:12:12Z</time>
      </trkpt>
      <trkpt lat="43.50601" lon="3.74799">
        <ele>111.6</ele>
        <time>2011-02-18T20:12:14Z</time>
      </trkpt>
      <trkpt lat="43.50601" lon="3.74794">
        <ele>111.5</ele>
        <time>2011-02-18T20:12:15Z</time>
      </trkpt>
      <trkpt lat="43.50604" lon="3.7478">
        <ele>111.4</ele>
        <time>2011-02-18T20:12:18Z</time>
      </trkpt>
      <trkpt lat="43.50606" lon="3.7477">
        <ele>111.7</ele>
        <time>2011-02-18T20:12:20Z</time>
      </trkpt>
      <trkpt lat="43.50607" lon="3.7476">
        <ele>111.8</ele>
        <time>2011-02-18T20:12:22Z</time>
      </trkpt>
      <trkpt lat="43.50608" lon="3.7475">
        <ele>111.6</ele>
        <time>2011-02-18T20:12:24Z</time>
      </trkpt>
      <trkpt lat="43.50608" lon="3.74741">
        <ele>111.5</ele>
        <time>2011-02-18T20:12:26Z</time>
      </trkpt>
      <trkpt lat="43.50609" lon="3.74732">
        <ele>111.6</ele>
        <time>2011-02-18T20:12:28Z</time>
      </trkpt>
      <trkpt lat="43.5061" lon="3.74723">
        <ele>111.9</ele>
        <time>2011-02-18T20:12:30Z</time>
      </trkpt>
      <trkpt lat="43.5061" lon="3.74713">
        <ele>111.9</ele>
        <time>2011-02-18T20:12:32Z</time>
      </trkpt>
      <trkpt lat="43.5061" lon="3.74703">
        <ele>111.8</ele>
        <time>2011-02-18T20:12:34Z</time>
      </trkpt>
      <trkpt lat="43.50611" lon="3.74693">
        <ele>111.9</ele>
        <time>2011-02-18T20:12:36Z</time>
      </trkpt>
      <trkpt lat="43.50611" lon="3.74682">
        <ele>112.1</ele>
        <time>2011-02-18T20:12:38Z</time>
      </trkpt>
      <trkpt lat="43.50612" lon="3.74672">
        <ele>112.3</ele>
        <time>2011-02-18T20:12:40Z</time>
      </trkpt>
      <trkpt lat="43.50612" lon="3.74662">
        <ele>112.4</ele>
        <time>2011-02-18T20:12:42Z</time>
      </trkpt>
      <trkpt lat="43.50612" lon="3.74652">
        <ele>112.5</ele>
        <time>2011-02-18T20:12:44Z</time>
      </trkpt>
      <trkpt lat="43.50612" lon="3.74641">
        <ele>112.4</ele>
        <time>2011-02-18T20:12:46Z</time>
      </trkpt>
      <trkpt lat="43.50611" lon="3.7463">
        <ele>112.3</ele>
        <time>2011-02-18T20:12:48Z</time>
      </trkpt>
      <trkpt lat="43.5061" lon="3.74618">
        <ele>112.1</ele>
        <time>2011-02-18T20:12:50Z</time>
      </trkpt>
      <trkpt lat="43.5061" lon="3.74612">
        <ele>112.1</ele>
        <time>2011-02-18T20:12:51Z</time>
      </trkpt>
      <trkpt lat="43.50609" lon="3.74605">
        <ele>112.1</ele>
        <time>2011-02-18T20:12:52Z</time>
      </trkpt>
      <trkpt lat="43.50609" lon="3.74599">
        <ele>112.1</ele>
        <time>2011-02-18T20:12:53Z</time>
      </trkpt>
      <trkpt lat="43.50608" lon="3.74592">
        <ele>111.5</ele>
        <time>2011-02-18T20:12:54Z</time>
      </trkpt>
      <trkpt lat="43.50608" lon="3.74586">
        <ele>111.1</ele>
        <time>2011-02-18T20:12:55Z</time>
      </trkpt>
      <trkpt lat="43.50608" lon="3.74579">
        <ele>110.8</ele>
        <time>2011-02-18T20:12:56Z</time>
      </trkpt>
      <trkpt lat="43.50608" lon="3.74572">
        <ele>110.6</ele>
        <time>2011-02-18T20:12:57Z</time>
      </trkpt>
      <trkpt lat="43.50607" lon="3.74565">
        <ele>110.5</ele>
        <time>2011-02-18T20:12:58Z</time>
      </trkpt>
      <trkpt lat="43.50605" lon="3.74559">
        <ele>110.4</ele>
        <time>2011-02-18T20:12:59Z</time>
      </trkpt>
      <trkpt lat="43.50601" lon="3.74549">
        <ele>109.8</ele>
        <time>2011-02-18T20:13:01Z</time>
      </trkpt>
      <trkpt lat="43.50596" lon="3.74542">
        <ele>109.2</ele>
        <time>2011-02-18T20:13:03Z</time>
      </trkpt>
      <trkpt lat="43.5059" lon="3.74533">
        <ele>108.3</ele>
        <time>2011-02-18T20:13:05Z</time>
      </trkpt>
      <trkpt lat="43.50584" lon="3.74524">
        <ele>107.9</ele>
        <time>2011-02-18T20:13:07Z</time>
      </trkpt>
      <trkpt lat="43.50581" lon="3.74519">
        <ele>107.8</ele>
        <time>2011-02-18T20:13:08Z</time>
      </trkpt>
      <trkpt lat="43.50578" lon="3.74513">
        <ele>107.7</ele>
        <time>2011-02-18T20:13:09Z</time>
      </trkpt>
      <trkpt lat="43.50575" lon="3.74507">
        <ele>107.3</ele>
        <time>2011-02-18T20:13:10Z</time>
      </trkpt>
      <trkpt lat="43.50572" lon="3.74502">
        <ele>107.1</ele>
        <time>2011-02-18T20:13:11Z</time>
      </trkpt>
      <trkpt lat="43.50569" lon="3.74496">
        <ele>106.8</ele>
        <time>2011-02-18T20:13:12Z</time>
      </trkpt>
      <trkpt lat="43.50565" lon="3.74491">
        <ele>106.7</ele>
        <time>2011-02-18T20:13:13Z</time>
      </trkpt>
      <trkpt lat="43.50562" lon="3.74486">
        <ele>106.2</ele>
        <time>2011-02-18T20:13:14Z</time>
      </trkpt>
      <trkpt lat="43.5056" lon="3.7448">
        <ele>105.9</ele>
        <time>2011-02-18T20:13:15Z</time>
      </trkpt>
      <trkpt lat="43.50556" lon="3.74475">
        <ele>105.7</ele>
        <time>2011-02-18T20:13:16Z</time>
      </trkpt>
      <trkpt lat="43.50553" lon="3.7447">
        <ele>105.6</ele>
        <time>2011-02-18T20:13:17Z</time>
      </trkpt>
      <trkpt lat="43.5055" lon="3.74466">
        <ele>105.5</ele>
        <time>2011-02-18T20:13:18Z</time>
      </trkpt>
      <trkpt lat="43.50547" lon="3.74461">
        <ele>105.5</ele>
        <time>2011-02-18T20:13:19Z</time>
      </trkpt>
      <trkpt lat="43.50543" lon="3.74456">
        <ele>105.4</ele>
        <time>2011-02-18T20:13:20Z</time>
      </trkpt>
      <trkpt lat="43.50539" lon="3.74452">
        <ele>105.3</ele>
        <time>2011-02-18T20:13:21Z</time>
      </trkpt>
      <trkpt lat="43.50536" lon="3.74448">
        <ele>105.2</ele>
        <time>2011-02-18T20:13:22Z</time>
      </trkpt>
      <trkpt lat="43.50532" lon="3.74444">
        <ele>105.1</ele>
        <time>2011-02-18T20:13:23Z</time>
      </trkpt>
      <trkpt lat="43.50524" lon="3.74439">
        <ele>104.9</ele>
        <time>2011-02-18T20:13:25Z</time>
      </trkpt>
      <trkpt lat="43.5052" lon="3.74431">
        <ele>104.6</ele>
        <time>2011-02-18T20:13:27Z</time>
      </trkpt>
      <trkpt lat="43.5052" lon="3.74421">
        <ele>104.5</ele>
        <time>2011-02-18T20:13:30Z</time>
      </trkpt>
      <trkpt lat="43.50525" lon="3.74412">
        <ele>104.7</ele>
        <time>2011-02-18T20:13:33Z</time>
      </trkpt>
      <trkpt lat="43.50531" lon="3.74407">
        <ele>105</ele>
        <time>2011-02-18T20:13:35Z</time>
      </trkpt>
      <trkpt lat="43.50536" lon="3.74399">
        <ele>104.1</ele>
        <time>2011-02-18T20:13:38Z</time>
      </trkpt>
      <trkpt lat="43.50534" lon="3.74388">
        <ele>103.8</ele>
        <time>2011-02-18T20:13:42Z</time>
      </trkpt>
      <trkpt lat="43.50528" lon="3.74379">
        <ele>103.8</ele>
        <time>2011-02-18T20:13:45Z</time>
      </trkpt>
      <trkpt lat="43.50522" lon="3.74371">
        <ele>103.9</ele>
        <time>2011-02-18T20:13:48Z</time>
      </trkpt>
      <trkpt lat="43.50516" lon="3.74366">
        <ele>104.1</ele>
        <time>2011-02-18T20:13:50Z</time>
      </trkpt>
      <trkpt lat="43.50509" lon="3.74359">
        <ele>104.1</ele>
        <time>2011-02-18T20:13:53Z</time>
      </trkpt>
      <trkpt lat="43.50504" lon="3.74354">
        <ele>104.3</ele>
        <time>2011-02-18T20:13:55Z</time>
      </trkpt>
      <trkpt lat="43.50499" lon="3.74349">
        <ele>104.4</ele>
        <time>2011-02-18T20:13:57Z</time>
      </trkpt>
      <trkpt lat="43.50493" lon="3.74346">
        <ele>105.2</ele>
        <time>2011-02-18T20:13:59Z</time>
      </trkpt>
      <trkpt lat="43.50488" lon="3.74342">
        <ele>105.9</ele>
        <time>2011-02-18T20:14:01Z</time>
      </trkpt>
      <trkpt lat="43.50484" lon="3.74331">
        <ele>106.5</ele>
        <time>2011-02-18T20:14:04Z</time>
      </trkpt>
      <trkpt lat="43.50482" lon="3.74324">
        <ele>107.1</ele>
        <time>2011-02-18T20:14:06Z</time>
      </trkpt>
      <trkpt lat="43.50479" lon="3.74315">
        <ele>107.4</ele>
        <time>2011-02-18T20:14:08Z</time>
      </trkpt>
      <trkpt lat="43.50476" lon="3.74308">
        <ele>107.5</ele>
        <time>2011-02-18T20:14:10Z</time>
      </trkpt>
      <trkpt lat="43.50471" lon="3.74302">
        <ele>108.2</ele>
        <time>2011-02-18T20:14:12Z</time>
      </trkpt>
      <trkpt lat="43.50468" lon="3.74295">
        <ele>108.9</ele>
        <time>2011-02-18T20:14:14Z</time>
      </trkpt>
      <trkpt lat="43.50463" lon="3.74286">
        <ele>109.8</ele>
        <time>2011-02-18T20:14:17Z</time>
      </trkpt>
      <trkpt lat="43.50461" lon="3.74282">
        <ele>110.1</ele>
        <time>2011-02-18T20:14:18Z</time>
      </trkpt>
      <trkpt lat="43.50456" lon="3.74271">
        <ele>111</ele>
        <time>2011-02-18T20:14:21Z</time>
      </trkpt>
      <trkpt lat="43.50451" lon="3.74264">
        <ele>111.7</ele>
        <time>2011-02-18T20:14:23Z</time>
      </trkpt>
      <trkpt lat="43.50446" lon="3.74258">
        <ele>112.6</ele>
        <time>2011-02-18T20:14:25Z</time>
      </trkpt>
      <trkpt lat="43.5044" lon="3.74249">
        <ele>113.3</ele>
        <time>2011-02-18T20:14:28Z</time>
      </trkpt>
      <trkpt lat="43.50434" lon="3.74241">
        <ele>114.2</ele>
        <time>2011-02-18T20:14:31Z</time>
      </trkpt>
      <trkpt lat="43.50428" lon="3.74234">
        <ele>115.2</ele>
        <time>2011-02-18T20:14:34Z</time>
      </trkpt>
      <trkpt lat="43.50422" lon="3.74226">
        <ele>115.9</ele>
        <time>2011-02-18T20:14:37Z</time>
      </trkpt>
      <trkpt lat="43.50416" lon="3.74218">
        <ele>116.7</ele>
        <time>2011-02-18T20:14:40Z</time>
      </trkpt>
      <trkpt lat="43.50411" lon="3.74211">
        <ele>117.9</ele>
        <time>2011-02-18T20:14:43Z</time>
      </trkpt>
      <trkpt lat="43.50405" lon="3.74203">
        <ele>119</ele>
        <time>2011-02-18T20:14:46Z</time>
      </trkpt>
      <trkpt lat="43.504" lon="3.74195">
        <ele>119.8</ele>
        <time>2011-02-18T20:14:49Z</time>
      </trkpt>
      <trkpt lat="43.50393" lon="3.74192">
        <ele>121.1</ele>
        <time>2011-02-18T20:14:53Z</time>
      </trkpt>
      <trkpt lat="43.50385" lon="3.74193">
        <ele>122.2</ele>
        <time>2011-02-18T20:14:57Z</time>
      </trkpt>
      <trkpt lat="43.50379" lon="3.74198">
        <ele>122.4</ele>
        <time>2011-02-18T20:15:00Z</time>
      </trkpt>
      <trkpt lat="43.50375" lon="3.74206">
        <ele>122.8</ele>
        <time>2011-02-18T20:15:03Z</time>
      </trkpt>
      <trkpt lat="43.50374" lon="3.74215">
        <ele>123.3</ele>
        <time>2011-02-18T20:15:06Z</time>
      </trkpt>
      <trkpt lat="43.5037" lon="3.74226">
        <ele>124.3</ele>
        <time>2011-02-18T20:15:10Z</time>
      </trkpt>
      <trkpt lat="43.50368" lon="3.74235">
        <ele>124.8</ele>
        <time>2011-02-18T20:15:13Z</time>
      </trkpt>
      <trkpt lat="43.50365" lon="3.74243">
        <ele>125.6</ele>
        <time>2011-02-18T20:15:16Z</time>
      </trkpt>
      <trkpt lat="43.50362" lon="3.74251">
        <ele>126.2</ele>
        <time>2011-02-18T20:15:19Z</time>
      </trkpt>
      <trkpt lat="43.50361" lon="3.74254">
        <ele>126.3</ele>
        <time>2011-02-18T20:15:20Z</time>
      </trkpt>
      <trkpt lat="43.50355" lon="3.74268">
        <ele>127</ele>
        <time>2011-02-18T20:15:25Z</time>
      </trkpt>
      <trkpt lat="43.50351" lon="3.74276">
        <ele>127.3</ele>
        <time>2011-02-18T20:15:28Z</time>
      </trkpt>
      <trkpt lat="43.50346" lon="3.74283">
        <ele>127.6</ele>
        <time>2011-02-18T20:15:31Z</time>
      </trkpt>
      <trkpt lat="43.50339" lon="3.74287">
        <ele>128.3</ele>
        <time>2011-02-18T20:15:34Z</time>
      </trkpt>
      <trkpt lat="43.50332" lon="3.74287">
        <ele>129</ele>
        <time>2011-02-18T20:15:37Z</time>
      </trkpt>
      <trkpt lat="43.50325" lon="3.74287">
        <ele>129.4</ele>
        <time>2011-02-18T20:15:40Z</time>
      </trkpt>
      <trkpt lat="43.50318" lon="3.74285">
        <ele>129.5</ele>
        <time>2011-02-18T20:15:43Z</time>
      </trkpt>
      <trkpt lat="43.50311" lon="3.74281">
        <ele>129.9</ele>
        <time>2011-02-18T20:15:46Z</time>
      </trkpt>
      <trkpt lat="43.50304" lon="3.74281">
        <ele>130.5</ele>
        <time>2011-02-18T20:15:49Z</time>
      </trkpt>
      <trkpt lat="43.50297" lon="3.74286">
        <ele>130.8</ele>
        <time>2011-02-18T20:15:52Z</time>
      </trkpt>
      <trkpt lat="43.50292" lon="3.74293">
        <ele>130.6</ele>
        <time>2011-02-18T20:15:55Z</time>
      </trkpt>
      <trkpt lat="43.50286" lon="3.74301">
        <ele>131.1</ele>
        <time>2011-02-18T20:15:58Z</time>
      </trkpt>
      <trkpt lat="43.50281" lon="3.74309">
        <ele>131.8</ele>
        <time>2011-02-18T20:16:01Z</time>
      </trkpt>
      <trkpt lat="43.50276" lon="3.74318">
        <ele>132.2</ele>
        <time>2011-02-18T20:16:04Z</time>
      </trkpt>
      <trkpt lat="43.50275" lon="3.74328">
        <ele>132.2</ele>
        <time>2011-02-18T20:16:07Z</time>
      </trkpt>
      <trkpt lat="43.50275" lon="3.74339">
        <ele>132.8</ele>
        <time>2011-02-18T20:16:10Z</time>
      </trkpt>
      <trkpt lat="43.50274" lon="3.74349">
        <ele>134</ele>
        <time>2011-02-18T20:16:13Z</time>
      </trkpt>
      <trkpt lat="43.50273" lon="3.74359">
        <ele>134.3</ele>
        <time>2011-02-18T20:16:16Z</time>
      </trkpt>
      <trkpt lat="43.50272" lon="3.74368">
        <ele>134.3</ele>
        <time>2011-02-18T20:16:19Z</time>
      </trkpt>
      <trkpt lat="43.5027" lon="3.74378">
        <ele>134.7</ele>
        <time>2011-02-18T20:16:22Z</time>
      </trkpt>
      <trkpt lat="43.50269" lon="3.74382">
        <ele>135</ele>
        <time>2011-02-18T20:16:23Z</time>
      </trkpt>
      <trkpt lat="43.50267" lon="3.74398">
        <ele>136.1</ele>
        <time>2011-02-18T20:16:28Z</time>
      </trkpt>
      <trkpt lat="43.50265" lon="3.74408">
        <ele>136.8</ele>
        <time>2011-02-18T20:16:31Z</time>
      </trkpt>
      <trkpt lat="43.50263" lon="3.74417">
        <ele>137.6</ele>
        <time>2011-02-18T20:16:34Z</time>
      </trkpt>
      <trkpt lat="43.50261" lon="3.74427">
        <ele>137.9</ele>
        <time>2011-02-18T20:16:37Z</time>
      </trkpt>
      <trkpt lat="43.50259" lon="3.74436">
        <ele>138</ele>
        <time>2011-02-18T20:16:40Z</time>
      </trkpt>
      <trkpt lat="43.50257" lon="3.74446">
        <ele>138.1</ele>
        <time>2011-02-18T20:16:43Z</time>
      </trkpt>
      <trkpt lat="43.50255" lon="3.74455">
        <ele>139.4</ele>
        <time>2011-02-18T20:16:46Z</time>
      </trkpt>
      <trkpt lat="43.50254" lon="3.74465">
        <ele>139.2</ele>
        <time>2011-02-18T20:16:49Z</time>
      </trkpt>
      <trkpt lat="43.50252" lon="3.74475">
        <ele>139.6</ele>
        <time>2011-02-18T20:16:52Z</time>
      </trkpt>
      <trkpt lat="43.50252" lon="3.74485">
        <ele>140.6</ele>
        <time>2011-02-18T20:16:55Z</time>
      </trkpt>
      <trkpt lat="43.50252" lon="3.74497">
        <ele>142.2</ele>
        <time>2011-02-18T20:16:59Z</time>
      </trkpt>
      <trkpt lat="43.50251" lon="3.74509">
        <ele>141.5</ele>
        <time>2011-02-18T20:17:03Z</time>
      </trkpt>
      <trkpt lat="43.50251" lon="3.74519">
        <ele>141.7</ele>
        <time>2011-02-18T20:17:06Z</time>
      </trkpt>
      <trkpt lat="43.50249" lon="3.74528">
        <ele>143.3</ele>
        <time>2011-02-18T20:17:09Z</time>
      </trkpt>
      <trkpt lat="43.50246" lon="3.74539">
        <ele>144.7</ele>
        <time>2011-02-18T20:17:13Z</time>
      </trkpt>
      <trkpt lat="43.50243" lon="3.74548">
        <ele>144.9</ele>
        <time>2011-02-18T20:17:16Z</time>
      </trkpt>
      <trkpt lat="43.5024" lon="3.74556">
        <ele>145</ele>
        <time>2011-02-18T20:17:19Z</time>
      </trkpt>
      <trkpt lat="43.50237" lon="3.74565">
        <ele>145.4</ele>
        <time>2011-02-18T20:17:22Z</time>
      </trkpt>
      <trkpt lat="43.50233" lon="3.74573">
        <ele>147</ele>
        <time>2011-02-18T20:17:25Z</time>
      </trkpt>
      <trkpt lat="43.50232" lon="3.74576">
        <ele>147</ele>
        <time>2011-02-18T20:17:26Z</time>
      </trkpt>
      <trkpt lat="43.50229" lon="3.74591">
        <ele>147</ele>
        <time>2011-02-18T20:17:31Z</time>
      </trkpt>
      <trkpt lat="43.50231" lon="3.74602">
        <ele>148.8</ele>
        <time>2011-02-18T20:17:34Z</time>
      </trkpt>
      <trkpt lat="43.50234" lon="3.74609">
        <ele>148.5</ele>
        <time>2011-02-18T20:17:36Z</time>
      </trkpt>
      <trkpt lat="43.50237" lon="3.74616">
        <ele>148.4</ele>
        <time>2011-02-18T20:17:38Z</time>
      </trkpt>
      <trkpt lat="43.50241" lon="3.74624">
        <ele>148.3</ele>
        <time>2011-02-18T20:17:40Z</time>
      </trkpt>
      <trkpt lat="43.50245" lon="3.74633">
        <ele>148.2</ele>
        <time>2011-02-18T20:17:42Z</time>
      </trkpt>
      <trkpt lat="43.50249" lon="3.74642">
        <ele>147.9</ele>
        <time>2011-02-18T20:17:44Z</time>
      </trkpt>
      <trkpt lat="43.50253" lon="3.74652">
        <ele>147.5</ele>
        <time>2011-02-18T20:17:46Z</time>
      </trkpt>
      <trkpt lat="43.50257" lon="3.74661">
        <ele>147.3</ele>
        <time>2011-02-18T20:17:48Z</time>
      </trkpt>
      <trkpt lat="43.50261" lon="3.74671">
        <ele>147.1</ele>
        <time>2011-02-18T20:17:50Z</time>
      </trkpt>
      <trkpt lat="43.50263" lon="3.74681">
        <ele>147.7</ele>
        <time>2011-02-18T20:17:52Z</time>
      </trkpt>
      <trkpt lat="43.50265" lon="3.74692">
        <ele>147.7</ele>
        <time>2011-02-18T20:17:54Z</time>
      </trkpt>
      <trkpt lat="43.50266" lon="3.74703">
        <ele>147.5</ele>
        <time>2011-02-18T20:17:56Z</time>
      </trkpt>
      <trkpt lat="43.50265" lon="3.74715">
        <ele>147.1</ele>
        <time>2011-02-18T20:17:58Z</time>
      </trkpt>
      <trkpt lat="43.50262" lon="3.74726">
        <ele>146.8</ele>
        <time>2011-02-18T20:18:00Z</time>
      </trkpt>
      <trkpt lat="43.50257" lon="3.74736">
        <ele>146.6</ele>
        <time>2011-02-18T20:18:02Z</time>
      </trkpt>
      <trkpt lat="43.50254" lon="3.7474">
        <ele>146.5</ele>
        <time>2011-02-18T20:18:03Z</time>
      </trkpt>
      <trkpt lat="43.50252" lon="3.74746">
        <ele>146.4</ele>
        <time>2011-02-18T20:18:04Z</time>
      </trkpt>
      <trkpt lat="43.50249" lon="3.74751">
        <ele>146.4</ele>
        <time>2011-02-18T20:18:05Z</time>
      </trkpt>
      <trkpt lat="43.50246" lon="3.74755">
        <ele>146.3</ele>
        <time>2011-02-18T20:18:06Z</time>
      </trkpt>
      <trkpt lat="43.50243" lon="3.74761">
        <ele>146</ele>
        <time>2011-02-18T20:18:07Z</time>
      </trkpt>
      <trkpt lat="43.5024" lon="3.74767">
        <ele>145.8</ele>
        <time>2011-02-18T20:18:08Z</time>
      </trkpt>
      <trkpt lat="43.50237" lon="3.74773">
        <ele>145.6</ele>
        <time>2011-02-18T20:18:09Z</time>
      </trkpt>
      <trkpt lat="43.50234" lon="3.74778">
        <ele>145.4</ele>
        <time>2011-02-18T20:18:10Z</time>
      </trkpt>
      <trkpt lat="43.50231" lon="3.74784">
        <ele>145.3</ele>
        <time>2011-02-18T20:18:11Z</time>
      </trkpt>
      <trkpt lat="43.50228" lon="3.7479">
        <ele>145.3</ele>
        <time>2011-02-18T20:18:12Z</time>
      </trkpt>
      <trkpt lat="43.50226" lon="3.74796">
        <ele>145.2</ele>
        <time>2011-02-18T20:18:13Z</time>
      </trkpt>
      <trkpt lat="43.50224" lon="3.74803">
        <ele>144.7</ele>
        <time>2011-02-18T20:18:14Z</time>
      </trkpt>
      <trkpt lat="43.50223" lon="3.7481">
        <ele>144.4</ele>
        <time>2011-02-18T20:18:15Z</time>
      </trkpt>
      <trkpt lat="43.50222" lon="3.74817">
        <ele>144.1</ele>
        <time>2011-02-18T20:18:16Z</time>
      </trkpt>
      <trkpt lat="43.50221" lon="3.74825">
        <ele>143.7</ele>
        <time>2011-02-18T20:18:17Z</time>
      </trkpt>
      <trkpt lat="43.5022" lon="3.74831">
        <ele>143.5</ele>
        <time>2011-02-18T20:18:18Z</time>
      </trkpt>
      <trkpt lat="43.50219" lon="3.74838">
        <ele>143.2</ele>
        <time>2011-02-18T20:18:19Z</time>
      </trkpt>
      <trkpt lat="43.50218" lon="3.74844">
        <ele>143.2</ele>
        <time>2011-02-18T20:18:20Z</time>
      </trkpt>
      <trkpt lat="43.50217" lon="3.74851">
        <ele>143.1</ele>
        <time>2011-02-18T20:18:21Z</time>
      </trkpt>
      <trkpt lat="43.50216" lon="3.74857">
        <ele>143.1</ele>
        <time>2011-02-18T20:18:22Z</time>
      </trkpt>
      <trkpt lat="43.50213" lon="3.74868">
        <ele>142.4</ele>
        <time>2011-02-18T20:18:24Z</time>
      </trkpt>
      <trkpt lat="43.50211" lon="3.7488">
        <ele>142.1</ele>
        <time>2011-02-18T20:18:26Z</time>
      </trkpt>
      <trkpt lat="43.50209" lon="3.74885">
        <ele>142</ele>
        <time>2011-02-18T20:18:27Z</time>
      </trkpt>
      <trkpt lat="43.50204" lon="3.74902">
        <ele>141.6</ele>
        <time>2011-02-18T20:18:30Z</time>
      </trkpt>
      <trkpt lat="43.50202" lon="3.74908">
        <ele>141.4</ele>
        <time>2011-02-18T20:18:31Z</time>
      </trkpt>
      <trkpt lat="43.502" lon="3.74913">
        <ele>141.3</ele>
        <time>2011-02-18T20:18:32Z</time>
      </trkpt>
      <trkpt lat="43.50199" lon="3.74919">
        <ele>141.2</ele>
        <time>2011-02-18T20:18:33Z</time>
      </trkpt>
      <trkpt lat="43.50197" lon="3.74925">
        <ele>141.2</ele>
        <time>2011-02-18T20:18:34Z</time>
      </trkpt>
      <trkpt lat="43.50195" lon="3.74932">
        <ele>141.2</ele>
        <time>2011-02-18T20:18:35Z</time>
      </trkpt>
      <trkpt lat="43.50193" lon="3.74938">
        <ele>141.1</ele>
        <time>2011-02-18T20:18:36Z</time>
      </trkpt>
      <trkpt lat="43.50191" lon="3.74944">
        <ele>141.1</ele>
        <time>2011-02-18T20:18:37Z</time>
      </trkpt>
      <trkpt lat="43.50189" lon="3.7495">
        <ele>141.1</ele>
        <time>2011-02-18T20:18:38Z</time>
      </trkpt>
      <trkpt lat="43.50187" lon="3.74956">
        <ele>140.8</ele>
        <time>2011-02-18T20:18:39Z</time>
      </trkpt>
      <trkpt lat="43.5018" lon="3.74964">
        <ele>140.5</ele>
        <time>2011-02-18T20:18:41Z</time>
      </trkpt>
      <trkpt lat="43.50173" lon="3.7497">
        <ele>140.4</ele>
        <time>2011-02-18T20:18:43Z</time>
      </trkpt>
      <trkpt lat="43.50164" lon="3.74974">
        <ele>140.3</ele>
        <time>2011-02-18T20:18:45Z</time>
      </trkpt>
      <trkpt lat="43.5016" lon="3.74974">
        <ele>140.4</ele>
        <time>2011-02-18T20:18:46Z</time>
      </trkpt>
      <trkpt lat="43.50151" lon="3.74975">
        <ele>140.5</ele>
        <time>2011-02-18T20:18:48Z</time>
      </trkpt>
      <trkpt lat="43.50143" lon="3.74978">
        <ele>140.2</ele>
        <time>2011-02-18T20:18:50Z</time>
      </trkpt>
      <trkpt lat="43.50135" lon="3.7498">
        <ele>140.2</ele>
        <time>2011-02-18T20:18:52Z</time>
      </trkpt>
      <trkpt lat="43.50128" lon="3.74981">
        <ele>140.4</ele>
        <time>2011-02-18T20:18:54Z</time>
      </trkpt>
      <trkpt lat="43.50121" lon="3.74981">
        <ele>141</ele>
        <time>2011-02-18T20:18:56Z</time>
      </trkpt>
      <trkpt lat="43.50114" lon="3.74981">
        <ele>141.1</ele>
        <time>2011-02-18T20:18:58Z</time>
      </trkpt>
      <trkpt lat="43.50108" lon="3.74983">
        <ele>141.1</ele>
        <time>2011-02-18T20:19:00Z</time>
      </trkpt>
      <trkpt lat="43.501" lon="3.74985">
        <ele>141.5</ele>
        <time>2011-02-18T20:19:02Z</time>
      </trkpt>
      <trkpt lat="43.50094" lon="3.74984">
        <ele>141.9</ele>
        <time>2011-02-18T20:19:04Z</time>
      </trkpt>
      <trkpt lat="43.50088" lon="3.74981">
        <ele>142.2</ele>
        <time>2011-02-18T20:19:06Z</time>
      </trkpt>
      <trkpt lat="43.50082" lon="3.74977">
        <ele>142.5</ele>
        <time>2011-02-18T20:19:08Z</time>
      </trkpt>
      <trkpt lat="43.50076" lon="3.74974">
        <ele>142.9</ele>
        <time>2011-02-18T20:19:10Z</time>
      </trkpt>
      <trkpt lat="43.5007" lon="3.74971">
        <ele>143.4</ele>
        <time>2011-02-18T20:19:12Z</time>
      </trkpt>
      <trkpt lat="43.50064" lon="3.7497">
        <ele>143.7</ele>
        <time>2011-02-18T20:19:14Z</time>
      </trkpt>
      <trkpt lat="43.50058" lon="3.74969">
        <ele>143.8</ele>
        <time>2011-02-18T20:19:16Z</time>
      </trkpt>
      <trkpt lat="43.50052" lon="3.74968">
        <ele>144.3</ele>
        <time>2011-02-18T20:19:18Z</time>
      </trkpt>
      <trkpt lat="43.50043" lon="3.74968">
        <ele>145.3</ele>
        <time>2011-02-18T20:19:21Z</time>
      </trkpt>
      <trkpt lat="43.50037" lon="3.74967">
        <ele>145.8</ele>
        <time>2011-02-18T20:19:23Z</time>
      </trkpt>
      <trkpt lat="43.5003" lon="3.74965">
        <ele>146.3</ele>
        <time>2011-02-18T20:19:25Z</time>
      </trkpt>
      <trkpt lat="43.50022" lon="3.74964">
        <ele>147.3</ele>
        <time>2011-02-18T20:19:28Z</time>
      </trkpt>
      <trkpt lat="43.50019" lon="3.74963">
        <ele>147.6</ele>
        <time>2011-02-18T20:19:29Z</time>
      </trkpt>
      <trkpt lat="43.50006" lon="3.7496">
        <ele>147.7</ele>
        <time>2011-02-18T20:19:34Z</time>
      </trkpt>
      <trkpt lat="43.49998" lon="3.74957">
        <ele>148.1</ele>
        <time>2011-02-18T20:19:37Z</time>
      </trkpt>
      <trkpt lat="43.4999" lon="3.74957">
        <ele>149</ele>
        <time>2011-02-18T20:19:40Z</time>
      </trkpt>
      <trkpt lat="43.49981" lon="3.74957">
        <ele>149.8</ele>
        <time>2011-02-18T20:19:43Z</time>
      </trkpt>
      <trkpt lat="43.49973" lon="3.74958">
        <ele>150</ele>
        <time>2011-02-18T20:19:46Z</time>
      </trkpt>
      <trkpt lat="43.49965" lon="3.74959">
        <ele>150.4</ele>
        <time>2011-02-18T20:19:49Z</time>
      </trkpt>
      <trkpt lat="43.49957" lon="3.74961">
        <ele>150.8</ele>
        <time>2011-02-18T20:19:52Z</time>
      </trkpt>
      <trkpt lat="43.49949" lon="3.74963">
        <ele>150.9</ele>
        <time>2011-02-18T20:19:55Z</time>
      </trkpt>
      <trkpt lat="43.49941" lon="3.74967">
        <ele>151.5</ele>
        <time>2011-02-18T20:19:58Z</time>
      </trkpt>
      <trkpt lat="43.49933" lon="3.7497">
        <ele>151.5</ele>
        <time>2011-02-18T20:20:01Z</time>
      </trkpt>
      <trkpt lat="43.49925" lon="3.74974">
        <ele>152.5</ele>
        <time>2011-02-18T20:20:04Z</time>
      </trkpt>
      <trkpt lat="43.49917" lon="3.74978">
        <ele>152.4</ele>
        <time>2011-02-18T20:20:07Z</time>
      </trkpt>
      <trkpt lat="43.4991" lon="3.74983">
        <ele>153.3</ele>
        <time>2011-02-18T20:20:10Z</time>
      </trkpt>
      <trkpt lat="43.49903" lon="3.74989">
        <ele>154.2</ele>
        <time>2011-02-18T20:20:13Z</time>
      </trkpt>
      <trkpt lat="43.49897" lon="3.74996">
        <ele>154.4</ele>
        <time>2011-02-18T20:20:16Z</time>
      </trkpt>
      <trkpt lat="43.4989" lon="3.75003">
        <ele>154.9</ele>
        <time>2011-02-18T20:20:19Z</time>
      </trkpt>
      <trkpt lat="43.49884" lon="3.75008">
        <ele>155.5</ele>
        <time>2011-02-18T20:20:22Z</time>
      </trkpt>
      <trkpt lat="43.49877" lon="3.75012">
        <ele>155.7</ele>
        <time>2011-02-18T20:20:25Z</time>
      </trkpt>
      <trkpt lat="43.49869" lon="3.75015">
        <ele>157</ele>
        <time>2011-02-18T20:20:29Z</time>
      </trkpt>
      <trkpt lat="43.49867" lon="3.75015">
        <ele>157.4</ele>
        <time>2011-02-18T20:20:30Z</time>
      </trkpt>
      <trkpt lat="43.49854" lon="3.75018">
        <ele>158.9</ele>
        <time>2011-02-18T20:20:37Z</time>
      </trkpt>
      <trkpt lat="43.49846" lon="3.7502">
        <ele>160.3</ele>
        <time>2011-02-18T20:20:41Z</time>
      </trkpt>
      <trkpt lat="43.49838" lon="3.7502">
        <ele>160.9</ele>
        <time>2011-02-18T20:20:45Z</time>
      </trkpt>
      <trkpt lat="43.49829" lon="3.75019">
        <ele>161.7</ele>
        <time>2011-02-18T20:20:52Z</time>
      </trkpt>
      <trkpt lat="43.49821" lon="3.75015">
        <ele>163.2</ele>
        <time>2011-02-18T20:21:01Z</time>
      </trkpt>
      <trkpt lat="43.49815" lon="3.75009">
        <ele>163.8</ele>
        <time>2011-02-18T20:21:09Z</time>
      </trkpt>
      <trkpt lat="43.49808" lon="3.75001">
        <ele>164</ele>
        <time>2011-02-18T20:21:13Z</time>
      </trkpt>
      <trkpt lat="43.49803" lon="3.74992">
        <ele>165.1</ele>
        <time>2011-02-18T20:21:17Z</time>
      </trkpt>
      <trkpt lat="43.49798" lon="3.74983">
        <ele>166</ele>
        <time>2011-02-18T20:21:21Z</time>
      </trkpt>
      <trkpt lat="43.49792" lon="3.74977">
        <ele>167.8</ele>
        <time>2011-02-18T20:21:25Z</time>
      </trkpt>
      <trkpt lat="43.49784" lon="3.74972">
        <ele>169</ele>
        <time>2011-02-18T20:21:29Z</time>
      </trkpt>
      <trkpt lat="43.49777" lon="3.74969">
        <ele>168.7</ele>
        <time>2011-02-18T20:21:34Z</time>
      </trkpt>
      <trkpt lat="43.49775" lon="3.74968">
        <ele>168.9</ele>
        <time>2011-02-18T20:21:35Z</time>
      </trkpt>
      <trkpt lat="43.49763" lon="3.74962">
        <ele>168.7</ele>
        <time>2011-02-18T20:21:42Z</time>
      </trkpt>
      <trkpt lat="43.49756" lon="3.74955">
        <ele>169.1</ele>
        <time>2011-02-18T20:21:47Z</time>
      </trkpt>
      <trkpt lat="43.49751" lon="3.74948">
        <ele>169.8</ele>
        <time>2011-02-18T20:21:50Z</time>
      </trkpt>
      <trkpt lat="43.49746" lon="3.7494">
        <ele>170.4</ele>
        <time>2011-02-18T20:21:53Z</time>
      </trkpt>
      <trkpt lat="43.49742" lon="3.74931">
        <ele>171.4</ele>
        <time>2011-02-18T20:21:56Z</time>
      </trkpt>
      <trkpt lat="43.49734" lon="3.74925">
        <ele>172.7</ele>
        <time>2011-02-18T20:22:03Z</time>
      </trkpt>
      <trkpt lat="43.49727" lon="3.74922">
        <ele>173.8</ele>
        <time>2011-02-18T20:22:12Z</time>
      </trkpt>
      <trkpt lat="43.49719" lon="3.74923">
        <ele>174.3</ele>
        <time>2011-02-18T20:22:16Z</time>
      </trkpt>
      <trkpt lat="43.49711" lon="3.74922">
        <ele>175.5</ele>
        <time>2011-02-18T20:22:20Z</time>
      </trkpt>
      <trkpt lat="43.49703" lon="3.74921">
        <ele>176.8</ele>
        <time>2011-02-18T20:22:24Z</time>
      </trkpt>
      <trkpt lat="43.49696" lon="3.74914">
        <ele>177.8</ele>
        <time>2011-02-18T20:22:28Z</time>
      </trkpt>
      <trkpt lat="43.4969" lon="3.74907">
        <ele>178.3</ele>
        <time>2011-02-18T20:22:32Z</time>
      </trkpt>
      <trkpt lat="43.49685" lon="3.74899">
        <ele>180.2</ele>
        <time>2011-02-18T20:22:36Z</time>
      </trkpt>
      <trkpt lat="43.49684" lon="3.74897">
        <ele>180.6</ele>
        <time>2011-02-18T20:22:37Z</time>
      </trkpt>
      <trkpt lat="43.49676" lon="3.74881">
        <ele>181.9</ele>
        <time>2011-02-18T20:22:44Z</time>
      </trkpt>
      <trkpt lat="43.49671" lon="3.74871">
        <ele>182.2</ele>
        <time>2011-02-18T20:22:48Z</time>
      </trkpt>
      <trkpt lat="43.49666" lon="3.74862">
        <ele>182.9</ele>
        <time>2011-02-18T20:22:52Z</time>
      </trkpt>
      <trkpt lat="43.49661" lon="3.74852">
        <ele>183.2</ele>
        <time>2011-02-18T20:22:56Z</time>
      </trkpt>
      <trkpt lat="43.49654" lon="3.74845">
        <ele>184.6</ele>
        <time>2011-02-18T20:23:00Z</time>
      </trkpt>
      <trkpt lat="43.49649" lon="3.74836">
        <ele>185.5</ele>
        <time>2011-02-18T20:23:04Z</time>
      </trkpt>
      <trkpt lat="43.49645" lon="3.74828">
        <ele>185.9</ele>
        <time>2011-02-18T20:23:08Z</time>
      </trkpt>
      <trkpt lat="43.49639" lon="3.74822">
        <ele>187</ele>
        <time>2011-02-18T20:23:12Z</time>
      </trkpt>
      <trkpt lat="43.49631" lon="3.74819">
        <ele>187.2</ele>
        <time>2011-02-18T20:23:17Z</time>
      </trkpt>
      <trkpt lat="43.49622" lon="3.74816">
        <ele>187.2</ele>
        <time>2011-02-18T20:23:21Z</time>
      </trkpt>
      <trkpt lat="43.49615" lon="3.74812">
        <ele>186.4</ele>
        <time>2011-02-18T20:23:24Z</time>
      </trkpt>
      <trkpt lat="43.49607" lon="3.74807">
        <ele>186</ele>
        <time>2011-02-18T20:23:27Z</time>
      </trkpt>
      <trkpt lat="43.49598" lon="3.74805">
        <ele>185.9</ele>
        <time>2011-02-18T20:23:30Z</time>
      </trkpt>
      <trkpt lat="43.49592" lon="3.74812">
        <ele>185.7</ele>
        <time>2011-02-18T20:23:35Z</time>
      </trkpt>
      <trkpt lat="43.49584" lon="3.74817">
        <ele>187.1</ele>
        <time>2011-02-18T20:23:40Z</time>
      </trkpt>
      <trkpt lat="43.49582" lon="3.74817">
        <ele>187.5</ele>
        <time>2011-02-18T20:23:41Z</time>
      </trkpt>
      <trkpt lat="43.49568" lon="3.74824">
        <ele>188.2</ele>
        <time>2011-02-18T20:23:50Z</time>
      </trkpt>
      <trkpt lat="43.4956" lon="3.74827">
        <ele>189.1</ele>
        <time>2011-02-18T20:23:55Z</time>
      </trkpt>
      <trkpt lat="43.49552" lon="3.74831">
        <ele>190.5</ele>
        <time>2011-02-18T20:24:00Z</time>
      </trkpt>
      <trkpt lat="43.49544" lon="3.74836">
        <ele>191.4</ele>
        <time>2011-02-18T20:24:05Z</time>
      </trkpt>
      <trkpt lat="43.49538" lon="3.7484">
        <ele>191.4</ele>
        <time>2011-02-18T20:24:09Z</time>
      </trkpt>
      <trkpt lat="43.49529" lon="3.74845">
        <ele>192.6</ele>
        <time>2011-02-18T20:24:14Z</time>
      </trkpt>
      <trkpt lat="43.49522" lon="3.74848">
        <ele>193.5</ele>
        <time>2011-02-18T20:24:18Z</time>
      </trkpt>
      <trkpt lat="43.49515" lon="3.74849">
        <ele>194.5</ele>
        <time>2011-02-18T20:24:22Z</time>
      </trkpt>
      <trkpt lat="43.49507" lon="3.74848">
        <ele>195.6</ele>
        <time>2011-02-18T20:24:26Z</time>
      </trkpt>
      <trkpt lat="43.49499" lon="3.74845">
        <ele>195.9</ele>
        <time>2011-02-18T20:24:30Z</time>
      </trkpt>
      <trkpt lat="43.49492" lon="3.74842">
        <ele>196.6</ele>
        <time>2011-02-18T20:24:34Z</time>
      </trkpt>
      <trkpt lat="43.49485" lon="3.74836">
        <ele>196.6</ele>
        <time>2011-02-18T20:24:38Z</time>
      </trkpt>
      <trkpt lat="43.49478" lon="3.74832">
        <ele>197.9</ele>
        <time>2011-02-18T20:24:42Z</time>
      </trkpt>
      <trkpt lat="43.49476" lon="3.74831">
        <ele>198.3</ele>
        <time>2011-02-18T20:24:43Z</time>
      </trkpt>
      <trkpt lat="43.49464" lon="3.74826">
        <ele>199.1</ele>
        <time>2011-02-18T20:24:50Z</time>
      </trkpt>
      <trkpt lat="43.49456" lon="3.74824">
        <ele>200.1</ele>
        <time>2011-02-18T20:24:54Z</time>
      </trkpt>
      <trkpt lat="43.49448" lon="3.74823">
        <ele>201.2</ele>
        <time>2011-02-18T20:24:58Z</time>
      </trkpt>
      <trkpt lat="43.49441" lon="3.74822">
        <ele>201.6</ele>
        <time>2011-02-18T20:25:02Z</time>
      </trkpt>
      <trkpt lat="43.49433" lon="3.7482">
        <ele>202.2</ele>
        <time>2011-02-18T20:25:06Z</time>
      </trkpt>
      <trkpt lat="43.49427" lon="3.74813">
        <ele>202.8</ele>
        <time>2011-02-18T20:25:10Z</time>
      </trkpt>
      <trkpt lat="43.49422" lon="3.74804">
        <ele>203.7</ele>
        <time>2011-02-18T20:25:14Z</time>
      </trkpt>
      <trkpt lat="43.49419" lon="3.74794">
        <ele>204.9</ele>
        <time>2011-02-18T20:25:18Z</time>
      </trkpt>
      <trkpt lat="43.49416" lon="3.74785">
        <ele>204.6</ele>
        <time>2011-02-18T20:25:22Z</time>
      </trkpt>
      <trkpt lat="43.49411" lon="3.74777">
        <ele>205</ele>
        <time>2011-02-18T20:25:26Z</time>
      </trkpt>
      <trkpt lat="43.49406" lon="3.7477">
        <ele>205.5</ele>
        <time>2011-02-18T20:25:30Z</time>
      </trkpt>
      <trkpt lat="43.494" lon="3.74763">
        <ele>206.7</ele>
        <time>2011-02-18T20:25:34Z</time>
      </trkpt>
      <trkpt lat="43.49394" lon="3.74756">
        <ele>207.5</ele>
        <time>2011-02-18T20:25:38Z</time>
      </trkpt>
      <trkpt lat="43.49388" lon="3.7475">
        <ele>208</ele>
        <time>2011-02-18T20:25:42Z</time>
      </trkpt>
      <trkpt lat="43.49381" lon="3.74745">
        <ele>208.2</ele>
        <time>2011-02-18T20:25:46Z</time>
      </trkpt>
      <trkpt lat="43.4938" lon="3.74744">
        <ele>208.4</ele>
        <time>2011-02-18T20:25:47Z</time>
      </trkpt>
      <trkpt lat="43.49367" lon="3.74737">
        <ele>210.2</ele>
        <time>2011-02-18T20:25:54Z</time>
      </trkpt>
      <trkpt lat="43.49359" lon="3.74734">
        <ele>209.9</ele>
        <time>2011-02-18T20:25:58Z</time>
      </trkpt>
      <trkpt lat="43.49352" lon="3.74731">
        <ele>211.1</ele>
        <time>2011-02-18T20:26:02Z</time>
      </trkpt>
      <trkpt lat="43.49344" lon="3.74731">
        <ele>211.9</ele>
        <time>2011-02-18T20:26:06Z</time>
      </trkpt>
      <trkpt lat="43.49336" lon="3.74732">
        <ele>212.2</ele>
        <time>2011-02-18T20:26:10Z</time>
      </trkpt>
      <trkpt lat="43.49328" lon="3.74733">
        <ele>213.1</ele>
        <time>2011-02-18T20:26:14Z</time>
      </trkpt>
      <trkpt lat="43.4932" lon="3.74732">
        <ele>214</ele>
        <time>2011-02-18T20:26:18Z</time>
      </trkpt>
      <trkpt lat="43.49311" lon="3.74733">
        <ele>215.1</ele>
        <time>2011-02-18T20:26:22Z</time>
      </trkpt>
      <trkpt lat="43.49303" lon="3.74735">
        <ele>216</ele>
        <time>2011-02-18T20:26:26Z</time>
      </trkpt>
      <trkpt lat="43.49295" lon="3.74736">
        <ele>215.7</ele>
        <time>2011-02-18T20:26:30Z</time>
      </trkpt>
      <trkpt lat="43.49287" lon="3.74738">
        <ele>216.8</ele>
        <time>2011-02-18T20:26:34Z</time>
      </trkpt>
      <trkpt lat="43.49279" lon="3.74738">
        <ele>218.2</ele>
        <time>2011-02-18T20:26:38Z</time>
      </trkpt>
      <trkpt lat="43.49272" lon="3.7474">
        <ele>218.4</ele>
        <time>2011-02-18T20:26:42Z</time>
      </trkpt>
      <trkpt lat="43.49265" lon="3.74745">
        <ele>219.2</ele>
        <time>2011-02-18T20:26:46Z</time>
      </trkpt>
      <trkpt lat="43.4926" lon="3.74755">
        <ele>220.5</ele>
        <time>2011-02-18T20:26:51Z</time>
      </trkpt>
      <trkpt lat="43.49259" lon="3.74756">
        <ele>220.5</ele>
        <time>2011-02-18T20:26:52Z</time>
      </trkpt>
      <trkpt lat="43.49246" lon="3.74769">
        <ele>219.4</ele>
        <time>2011-02-18T20:27:01Z</time>
      </trkpt>
      <trkpt lat="43.4924" lon="3.74772">
        <ele>218.8</ele>
        <time>2011-02-18T20:27:03Z</time>
      </trkpt>
      <trkpt lat="43.49233" lon="3.7477">
        <ele>218.1</ele>
        <time>2011-02-18T20:27:05Z</time>
      </trkpt>
      <trkpt lat="43.49227" lon="3.74765">
        <ele>217.7</ele>
        <time>2011-02-18T20:27:08Z</time>
      </trkpt>
      <trkpt lat="43.4922" lon="3.7476">
        <ele>218.7</ele>
        <time>2011-02-18T20:27:12Z</time>
      </trkpt>
      <trkpt lat="43.49212" lon="3.74756">
        <ele>219.3</ele>
        <time>2011-02-18T20:27:16Z</time>
      </trkpt>
      <trkpt lat="43.49206" lon="3.74761">
        <ele>219.6</ele>
        <time>2011-02-18T20:27:19Z</time>
      </trkpt>
      <trkpt lat="43.49198" lon="3.74756">
        <ele>221.9</ele>
        <time>2011-02-18T20:27:33Z</time>
      </trkpt>
      <trkpt lat="43.49199" lon="3.74745">
        <ele>220.9</ele>
        <time>2011-02-18T20:27:38Z</time>
      </trkpt>
      <trkpt lat="43.49192" lon="3.74737">
        <ele>220.6</ele>
        <time>2011-02-18T20:27:42Z</time>
      </trkpt>
      <trkpt lat="43.49185" lon="3.74736">
        <ele>220.9</ele>
        <time>2011-02-18T20:27:45Z</time>
      </trkpt>
      <trkpt lat="43.49178" lon="3.74734">
        <ele>221.1</ele>
        <time>2011-02-18T20:27:48Z</time>
      </trkpt>
      <trkpt lat="43.49173" lon="3.74725">
        <ele>221.2</ele>
        <time>2011-02-18T20:27:51Z</time>
      </trkpt>
      <trkpt lat="43.49173" lon="3.74715">
        <ele>220.5</ele>
        <time>2011-02-18T20:27:54Z</time>
      </trkpt>
      <trkpt lat="43.49173" lon="3.74712">
        <ele>220.5</ele>
        <time>2011-02-18T20:27:55Z</time>
      </trkpt>
      <trkpt lat="43.49168" lon="3.74695">
        <ele>218.7</ele>
        <time>2011-02-18T20:28:00Z</time>
      </trkpt>
      <trkpt lat="43.49161" lon="3.74691">
        <ele>218.3</ele>
        <time>2011-02-18T20:28:02Z</time>
      </trkpt>
      <trkpt lat="43.49154" lon="3.74691">
        <ele>217.8</ele>
        <time>2011-02-18T20:28:04Z</time>
      </trkpt>
      <trkpt lat="43.49148" lon="3.74691">
        <ele>217.4</ele>
        <time>2011-02-18T20:28:06Z</time>
      </trkpt>
      <trkpt lat="43.49142" lon="3.74692">
        <ele>217.5</ele>
        <time>2011-02-18T20:28:08Z</time>
      </trkpt>
      <trkpt lat="43.49136" lon="3.74693">
        <ele>217.6</ele>
        <time>2011-02-18T20:28:10Z</time>
      </trkpt>
      <trkpt lat="43.49127" lon="3.74692">
        <ele>217.4</ele>
        <time>2011-02-18T20:28:13Z</time>
      </trkpt>
      <trkpt lat="43.49121" lon="3.74689">
        <ele>217.7</ele>
        <time>2011-02-18T20:28:15Z</time>
      </trkpt>
      <trkpt lat="43.49113" lon="3.74685">
        <ele>217.1</ele>
        <time>2011-02-18T20:28:17Z</time>
      </trkpt>
      <trkpt lat="43.49105" lon="3.74682">
        <ele>216.3</ele>
        <time>2011-02-18T20:28:19Z</time>
      </trkpt>
      <trkpt lat="43.49099" lon="3.74678">
        <ele>215.7</ele>
        <time>2011-02-18T20:28:21Z</time>
      </trkpt>
      <trkpt lat="43.49092" lon="3.74673">
        <ele>215.5</ele>
        <time>2011-02-18T20:28:23Z</time>
      </trkpt>
      <trkpt lat="43.49086" lon="3.74669">
        <ele>215.4</ele>
        <time>2011-02-18T20:28:25Z</time>
      </trkpt>
      <trkpt lat="43.4908" lon="3.74664">
        <ele>215.4</ele>
        <time>2011-02-18T20:28:27Z</time>
      </trkpt>
      <trkpt lat="43.49073" lon="3.74659">
        <ele>215.5</ele>
        <time>2011-02-18T20:28:29Z</time>
      </trkpt>
      <trkpt lat="43.49067" lon="3.74657">
        <ele>216.1</ele>
        <time>2011-02-18T20:28:31Z</time>
      </trkpt>
      <trkpt lat="43.4906" lon="3.74652">
        <ele>216.3</ele>
        <time>2011-02-18T20:28:34Z</time>
      </trkpt>
      <trkpt lat="43.49054" lon="3.7465">
        <ele>216.6</ele>
        <time>2011-02-18T20:28:36Z</time>
      </trkpt>
      <trkpt lat="43.49046" lon="3.74648">
        <ele>216.9</ele>
        <time>2011-02-18T20:28:39Z</time>
      </trkpt>
      <trkpt lat="43.49039" lon="3.74646">
        <ele>217.2</ele>
        <time>2011-02-18T20:28:43Z</time>
      </trkpt>
      <trkpt lat="43.4903" lon="3.74643">
        <ele>217.9</ele>
        <time>2011-02-18T20:28:56Z</time>
      </trkpt>
      <trkpt lat="43.4903" lon="3.74643">
        <ele>217.9</ele>
        <time>2011-02-18T20:28:57Z</time>
      </trkpt>
      <trkpt lat="43.49015" lon="3.74635">
        <ele>218.1</ele>
        <time>2011-02-18T20:29:07Z</time>
      </trkpt>
      <trkpt lat="43.49008" lon="3.74631">
        <ele>218.2</ele>
        <time>2011-02-18T20:29:11Z</time>
      </trkpt>
      <trkpt lat="43.49" lon="3.74631">
        <ele>218.2</ele>
        <time>2011-02-18T20:29:14Z</time>
      </trkpt>
      <trkpt lat="43.48993" lon="3.74633">
        <ele>218</ele>
        <time>2011-02-18T20:29:17Z</time>
      </trkpt>
      <trkpt lat="43.48987" lon="3.74625">
        <ele>218.2</ele>
        <time>2011-02-18T20:29:21Z</time>
      </trkpt>
      <trkpt lat="43.48982" lon="3.74615">
        <ele>217.6</ele>
        <time>2011-02-18T20:29:26Z</time>
      </trkpt>
      <trkpt lat="43.48975" lon="3.74614">
        <ele>217.9</ele>
        <time>2011-02-18T20:29:30Z</time>
      </trkpt>
      <trkpt lat="43.48966" lon="3.7461">
        <ele>217.6</ele>
        <time>2011-02-18T20:29:34Z</time>
      </trkpt>
      <trkpt lat="43.48958" lon="3.74606">
        <ele>217.4</ele>
        <time>2011-02-18T20:29:39Z</time>
      </trkpt>
      <trkpt lat="43.4895" lon="3.74603">
        <ele>217.8</ele>
        <time>2011-02-18T20:29:43Z</time>
      </trkpt>
      <trkpt lat="43.48945" lon="3.74593">
        <ele>218.6</ele>
        <time>2011-02-18T20:29:51Z</time>
      </trkpt>
      <trkpt lat="43.48944" lon="3.74584">
        <ele>218.1</ele>
        <time>2011-02-18T20:29:54Z</time>
      </trkpt>
      <trkpt lat="43.48944" lon="3.74574">
        <ele>217.9</ele>
        <time>2011-02-18T20:29:57Z</time>
      </trkpt>
      <trkpt lat="43.48944" lon="3.74571">
        <ele>217.9</ele>
        <time>2011-02-18T20:29:58Z</time>
      </trkpt>
      <trkpt lat="43.48946" lon="3.74553">
        <ele>218.6</ele>
        <time>2011-02-18T20:30:03Z</time>
      </trkpt>
      <trkpt lat="43.48946" lon="3.74541">
        <ele>219.1</ele>
        <time>2011-02-18T20:30:06Z</time>
      </trkpt>
      <trkpt lat="43.48946" lon="3.7453">
        <ele>219.4</ele>
        <time>2011-02-18T20:30:09Z</time>
      </trkpt>
      <trkpt lat="43.48945" lon="3.7452">
        <ele>219.2</ele>
        <time>2011-02-18T20:30:12Z</time>
      </trkpt>
      <trkpt lat="43.48943" lon="3.74509">
        <ele>218.8</ele>
        <time>2011-02-18T20:30:15Z</time>
      </trkpt>
      <trkpt lat="43.48939" lon="3.74498">
        <ele>218.6</ele>
        <time>2011-02-18T20:30:18Z</time>
      </trkpt>
      <trkpt lat="43.48935" lon="3.74492">
        <ele>218.7</ele>
        <time>2011-02-18T20:30:20Z</time>
      </trkpt>
      <trkpt lat="43.4893" lon="3.74487">
        <ele>218.3</ele>
        <time>2011-02-18T20:30:22Z</time>
      </trkpt>
      <trkpt lat="43.48925" lon="3.74479">
        <ele>218</ele>
        <time>2011-02-18T20:30:24Z</time>
      </trkpt>
      <trkpt lat="43.4892" lon="3.74469">
        <ele>215.8</ele>
        <time>2011-02-18T20:30:27Z</time>
      </trkpt>
      <trkpt lat="43.48915" lon="3.7446">
        <ele>214.7</ele>
        <time>2011-02-18T20:30:30Z</time>
      </trkpt>
      <trkpt lat="43.48911" lon="3.74453">
        <ele>214.5</ele>
        <time>2011-02-18T20:30:32Z</time>
      </trkpt>
      <trkpt lat="43.48902" lon="3.74451">
        <ele>214.1</ele>
        <time>2011-02-18T20:30:50Z</time>
      </trkpt>
      <trkpt lat="43.48894" lon="3.74449">
        <ele>215.3</ele>
        <time>2011-02-18T20:31:01Z</time>
      </trkpt>
      <trkpt lat="43.48893" lon="3.74449">
        <ele>215.4</ele>
        <time>2011-02-18T20:31:02Z</time>
      </trkpt>
      <trkpt lat="43.48878" lon="3.74446">
        <ele>217.5</ele>
        <time>2011-02-18T20:31:18Z</time>
      </trkpt>
      <trkpt lat="43.4887" lon="3.74448">
        <ele>218.6</ele>
        <time>2011-02-18T20:31:26Z</time>
      </trkpt>
      <trkpt lat="43.48862" lon="3.74444">
        <ele>219.9</ele>
        <time>2011-02-18T20:31:39Z</time>
      </trkpt>
      <trkpt lat="43.48856" lon="3.74442">
        <ele>220.8</ele>
        <time>2011-02-18T20:31:42Z</time>
      </trkpt>
      <trkpt lat="43.48848" lon="3.74446">
        <ele>220.6</ele>
        <time>2011-02-18T20:31:46Z</time>
      </trkpt>
      <trkpt lat="43.48851" lon="3.74457">
        <ele>222.3</ele>
        <time>2011-02-18T20:31:51Z</time>
      </trkpt>
      <trkpt lat="43.48855" lon="3.74466">
        <ele>222</ele>
        <time>2011-02-18T20:31:54Z</time>
      </trkpt>
      <trkpt lat="43.48859" lon="3.74476">
        <ele>221.9</ele>
        <time>2011-02-18T20:31:57Z</time>
      </trkpt>
      <trkpt lat="43.48862" lon="3.74484">
        <ele>221.7</ele>
        <time>2011-02-18T20:31:59Z</time>
      </trkpt>
      <trkpt lat="43.48864" lon="3.74492">
        <ele>222</ele>
        <time>2011-02-18T20:32:01Z</time>
      </trkpt>
      <trkpt lat="43.48866" lon="3.745">
        <ele>222.2</ele>
        <time>2011-02-18T20:32:03Z</time>
      </trkpt>
      <trkpt lat="43.48867" lon="3.74505">
        <ele>222.1</ele>
        <time>2011-02-18T20:32:04Z</time>
      </trkpt>
      <trkpt lat="43.48868" lon="3.7452">
        <ele>222.1</ele>
        <time>2011-02-18T20:32:07Z</time>
      </trkpt>
      <trkpt lat="43.48868" lon="3.74531">
        <ele>222.3</ele>
        <time>2011-02-18T20:32:09Z</time>
      </trkpt>
      <trkpt lat="43.48868" lon="3.74542">
        <ele>222</ele>
        <time>2011-02-18T20:32:11Z</time>
      </trkpt>
      <trkpt lat="43.48867" lon="3.74554">
        <ele>221.7</ele>
        <time>2011-02-18T20:32:13Z</time>
      </trkpt>
      <trkpt lat="43.48867" lon="3.74566">
        <ele>221.4</ele>
        <time>2011-02-18T20:32:15Z</time>
      </trkpt>
      <trkpt lat="43.48866" lon="3.74573">
        <ele>221.3</ele>
        <time>2011-02-18T20:32:16Z</time>
      </trkpt>
      <trkpt lat="43.48866" lon="3.74579">
        <ele>221.2</ele>
        <time>2011-02-18T20:32:17Z</time>
      </trkpt>
      <trkpt lat="43.48866" lon="3.74585">
        <ele>221.1</ele>
        <time>2011-02-18T20:32:18Z</time>
      </trkpt>
      <trkpt lat="43.48866" lon="3.74592">
        <ele>221</ele>
        <time>2011-02-18T20:32:19Z</time>
      </trkpt>
      <trkpt lat="43.48866" lon="3.74599">
        <ele>220.6</ele>
        <time>2011-02-18T20:32:20Z</time>
      </trkpt>
      <trkpt lat="43.48866" lon="3.74606">
        <ele>220.4</ele>
        <time>2011-02-18T20:32:21Z</time>
      </trkpt>
      <trkpt lat="43.48867" lon="3.74613">
        <ele>220.1</ele>
        <time>2011-02-18T20:32:22Z</time>
      </trkpt>
      <trkpt lat="43.48868" lon="3.74619">
        <ele>220</ele>
        <time>2011-02-18T20:32:23Z</time>
      </trkpt>
      <trkpt lat="43.48869" lon="3.7463">
        <ele>219.9</ele>
        <time>2011-02-18T20:32:25Z</time>
      </trkpt>
      <trkpt lat="43.48868" lon="3.74639">
        <ele>220.1</ele>
        <time>2011-02-18T20:32:27Z</time>
      </trkpt>
      <trkpt lat="43.4887" lon="3.74648">
        <ele>219.7</ele>
        <time>2011-02-18T20:32:29Z</time>
      </trkpt>
      <trkpt lat="43.48864" lon="3.74658">
        <ele>219.4</ele>
        <time>2011-02-18T20:32:34Z</time>
      </trkpt>
      <trkpt lat="43.48856" lon="3.74655">
        <ele>219.6</ele>
        <time>2011-02-18T20:32:38Z</time>
      </trkpt>
      <trkpt lat="43.48849" lon="3.74655">
        <ele>220.2</ele>
        <time>2011-02-18T20:32:41Z</time>
      </trkpt>
      <trkpt lat="43.4884" lon="3.74652">
        <ele>220.9</ele>
        <time>2011-02-18T20:32:44Z</time>
      </trkpt>
      <trkpt lat="43.48831" lon="3.74649">
        <ele>220.6</ele>
        <time>2011-02-18T20:32:47Z</time>
      </trkpt>
      <trkpt lat="43.48825" lon="3.74657">
        <ele>220.7</ele>
        <time>2011-02-18T20:32:50Z</time>
      </trkpt>
      <trkpt lat="43.48821" lon="3.74664">
        <ele>220.5</ele>
        <time>2011-02-18T20:32:52Z</time>
      </trkpt>
      <trkpt lat="43.48817" lon="3.74671">
        <ele>220.2</ele>
        <time>2011-02-18T20:32:54Z</time>
      </trkpt>
      <trkpt lat="43.48814" lon="3.7468">
        <ele>220.5</ele>
        <time>2011-02-18T20:32:56Z</time>
      </trkpt>
      <trkpt lat="43.4881" lon="3.74689">
        <ele>220.3</ele>
        <time>2011-02-18T20:32:58Z</time>
      </trkpt>
      <trkpt lat="43.48806" lon="3.74698">
        <ele>219.9</ele>
        <time>2011-02-18T20:33:00Z</time>
      </trkpt>
      <trkpt lat="43.48799" lon="3.74704">
        <ele>219.9</ele>
        <time>2011-02-18T20:33:02Z</time>
      </trkpt>
      <trkpt lat="43.48793" lon="3.74708">
        <ele>220.2</ele>
        <time>2011-02-18T20:33:04Z</time>
      </trkpt>
      <trkpt lat="43.48789" lon="3.74709">
        <ele>220.4</ele>
        <time>2011-02-18T20:33:05Z</time>
      </trkpt>
      <trkpt lat="43.4878" lon="3.74718">
        <ele>220.1</ele>
        <time>2011-02-18T20:33:08Z</time>
      </trkpt>
      <trkpt lat="43.48774" lon="3.74726">
        <ele>219.8</ele>
        <time>2011-02-18T20:33:10Z</time>
      </trkpt>
      <trkpt lat="43.48767" lon="3.74729">
        <ele>219.5</ele>
        <time>2011-02-18T20:33:12Z</time>
      </trkpt>
      <trkpt lat="43.4876" lon="3.74735">
        <ele>219.3</ele>
        <time>2011-02-18T20:33:14Z</time>
      </trkpt>
      <trkpt lat="43.48754" lon="3.74742">
        <ele>219.1</ele>
        <time>2011-02-18T20:33:16Z</time>
      </trkpt>
      <trkpt lat="43.48748" lon="3.74751">
        <ele>218.8</ele>
        <time>2011-02-18T20:33:18Z</time>
      </trkpt>
      <trkpt lat="43.48741" lon="3.74756">
        <ele>218.4</ele>
        <time>2011-02-18T20:33:20Z</time>
      </trkpt>
      <trkpt lat="43.48735" lon="3.74761">
        <ele>218</ele>
        <time>2011-02-18T20:33:22Z</time>
      </trkpt>
      <trkpt lat="43.48732" lon="3.7477">
        <ele>217.7</ele>
        <time>2011-02-18T20:33:24Z</time>
      </trkpt>
      <trkpt lat="43.48727" lon="3.74777">
        <ele>217.5</ele>
        <time>2011-02-18T20:33:26Z</time>
      </trkpt>
      <trkpt lat="43.48723" lon="3.74783">
        <ele>217.7</ele>
        <time>2011-02-18T20:33:28Z</time>
      </trkpt>
      <trkpt lat="43.48717" lon="3.74788">
        <ele>217.6</ele>
        <time>2011-02-18T20:33:30Z</time>
      </trkpt>
      <trkpt lat="43.4871" lon="3.74788">
        <ele>217.5</ele>
        <time>2011-02-18T20:33:32Z</time>
      </trkpt>
      <trkpt lat="43.48702" lon="3.74789">
        <ele>217.6</ele>
        <time>2011-02-18T20:33:34Z</time>
      </trkpt>
      <trkpt lat="43.48696" lon="3.74795">
        <ele>217.2</ele>
        <time>2011-02-18T20:33:36Z</time>
      </trkpt>
      <trkpt lat="43.48688" lon="3.74795">
        <ele>216.2</ele>
        <time>2011-02-18T20:33:39Z</time>
      </trkpt>
      <trkpt lat="43.48683" lon="3.74791">
        <ele>215.4</ele>
        <time>2011-02-18T20:33:41Z</time>
      </trkpt>
      <trkpt lat="43.48677" lon="3.74788">
        <ele>215.8</ele>
        <time>2011-02-18T20:33:43Z</time>
      </trkpt>
      <trkpt lat="43.48671" lon="3.74783">
        <ele>216.5</ele>
        <time>2011-02-18T20:33:45Z</time>
      </trkpt>
      <trkpt lat="43.48664" lon="3.74778">
        <ele>216.2</ele>
        <time>2011-02-18T20:33:47Z</time>
      </trkpt>
      <trkpt lat="43.48658" lon="3.74773">
        <ele>215.8</ele>
        <time>2011-02-18T20:33:49Z</time>
      </trkpt>
      <trkpt lat="43.48652" lon="3.7477">
        <ele>215.5</ele>
        <time>2011-02-18T20:33:51Z</time>
      </trkpt>
      <trkpt lat="43.48646" lon="3.74766">
        <ele>215.6</ele>
        <time>2011-02-18T20:33:53Z</time>
      </trkpt>
      <trkpt lat="43.48639" lon="3.74762">
        <ele>215.9</ele>
        <time>2011-02-18T20:33:55Z</time>
      </trkpt>
      <trkpt lat="43.48632" lon="3.74756">
        <ele>216.2</ele>
        <time>2011-02-18T20:33:57Z</time>
      </trkpt>
      <trkpt lat="43.48626" lon="3.74752">
        <ele>215.9</ele>
        <time>2011-02-18T20:33:59Z</time>
      </trkpt>
      <trkpt lat="43.4862" lon="3.74748">
        <ele>215.8</ele>
        <time>2011-02-18T20:34:01Z</time>
      </trkpt>
      <trkpt lat="43.48614" lon="3.74744">
        <ele>215.7</ele>
        <time>2011-02-18T20:34:03Z</time>
      </trkpt>
      <trkpt lat="43.48608" lon="3.74739">
        <ele>215.7</ele>
        <time>2011-02-18T20:34:05Z</time>
      </trkpt>
      <trkpt lat="43.48605" lon="3.74737">
        <ele>215.8</ele>
        <time>2011-02-18T20:34:06Z</time>
      </trkpt>
      <trkpt lat="43.48595" lon="3.7473">
        <ele>216</ele>
        <time>2011-02-18T20:34:09Z</time>
      </trkpt>
      <trkpt lat="43.48588" lon="3.74726">
        <ele>216.5</ele>
        <time>2011-02-18T20:34:11Z</time>
      </trkpt>
      <trkpt lat="43.48582" lon="3.7472">
        <ele>217.2</ele>
        <time>2011-02-18T20:34:13Z</time>
      </trkpt>
      <trkpt lat="43.48576" lon="3.74716">
        <ele>216.7</ele>
        <time>2011-02-18T20:34:15Z</time>
      </trkpt>
      <trkpt lat="43.48569" lon="3.74712">
        <ele>216.4</ele>
        <time>2011-02-18T20:34:17Z</time>
      </trkpt>
      <trkpt lat="43.48562" lon="3.7471">
        <ele>217.4</ele>
        <time>2011-02-18T20:34:19Z</time>
      </trkpt>
      <trkpt lat="43.48555" lon="3.74707">
        <ele>217.7</ele>
        <time>2011-02-18T20:34:21Z</time>
      </trkpt>
      <trkpt lat="43.48548" lon="3.74703">
        <ele>217.8</ele>
        <time>2011-02-18T20:34:23Z</time>
      </trkpt>
      <trkpt lat="43.48542" lon="3.74697">
        <ele>218</ele>
        <time>2011-02-18T20:34:25Z</time>
      </trkpt>
      <trkpt lat="43.48536" lon="3.74692">
        <ele>218.1</ele>
        <time>2011-02-18T20:34:27Z</time>
      </trkpt>
      <trkpt lat="43.48531" lon="3.74684">
        <ele>218.1</ele>
        <time>2011-02-18T20:34:29Z</time>
      </trkpt>
      <trkpt lat="43.48526" lon="3.74676">
        <ele>217.8</ele>
        <time>2011-02-18T20:34:31Z</time>
      </trkpt>
      <trkpt lat="43.4852" lon="3.74669">
        <ele>217.7</ele>
        <time>2011-02-18T20:34:33Z</time>
      </trkpt>
      <trkpt lat="43.48514" lon="3.74662">
        <ele>217.8</ele>
        <time>2011-02-18T20:34:35Z</time>
      </trkpt>
      <trkpt lat="43.4851" lon="3.74654">
        <ele>217.5</ele>
        <time>2011-02-18T20:34:37Z</time>
      </trkpt>
      <trkpt lat="43.48506" lon="3.74645">
        <ele>217.1</ele>
        <time>2011-02-18T20:34:39Z</time>
      </trkpt>
      <trkpt lat="43.48501" lon="3.74638">
        <ele>217.9</ele>
        <time>2011-02-18T20:34:41Z</time>
      </trkpt>
      <trkpt lat="43.48495" lon="3.74632">
        <ele>218.1</ele>
        <time>2011-02-18T20:34:43Z</time>
      </trkpt>
      <trkpt lat="43.4849" lon="3.74623">
        <ele>217.9</ele>
        <time>2011-02-18T20:34:45Z</time>
      </trkpt>
      <trkpt lat="43.48487" lon="3.74614">
        <ele>218.1</ele>
        <time>2011-02-18T20:34:47Z</time>
      </trkpt>
      <trkpt lat="43.48481" lon="3.74608">
        <ele>218.2</ele>
        <time>2011-02-18T20:34:49Z</time>
      </trkpt>
      <trkpt lat="43.48474" lon="3.74603">
        <ele>218.8</ele>
        <time>2011-02-18T20:34:51Z</time>
      </trkpt>
      <trkpt lat="43.48466" lon="3.74599">
        <ele>219</ele>
        <time>2011-02-18T20:34:53Z</time>
      </trkpt>
      <trkpt lat="43.48458" lon="3.74595">
        <ele>219.1</ele>
        <time>2011-02-18T20:34:55Z</time>
      </trkpt>
      <trkpt lat="43.4845" lon="3.74591">
        <ele>218.4</ele>
        <time>2011-02-18T20:34:57Z</time>
      </trkpt>
      <trkpt lat="43.48442" lon="3.74584">
        <ele>217.9</ele>
        <time>2011-02-18T20:34:59Z</time>
      </trkpt>
      <trkpt lat="43.48435" lon="3.74579">
        <ele>217.6</ele>
        <time>2011-02-18T20:35:01Z</time>
      </trkpt>
      <trkpt lat="43.48427" lon="3.74575">
        <ele>218</ele>
        <time>2011-02-18T20:35:03Z</time>
      </trkpt>
      <trkpt lat="43.48419" lon="3.74569">
        <ele>218.2</ele>
        <time>2011-02-18T20:35:05Z</time>
      </trkpt>
      <trkpt lat="43.48414" lon="3.7456">
        <ele>217.9</ele>
        <time>2011-02-18T20:35:07Z</time>
      </trkpt>
      <trkpt lat="43.48411" lon="3.74556">
        <ele>217.8</ele>
        <time>2011-02-18T20:35:08Z</time>
      </trkpt>
      <trkpt lat="43.48405" lon="3.74543">
        <ele>218.1</ele>
        <time>2011-02-18T20:35:11Z</time>
      </trkpt>
      <trkpt lat="43.48401" lon="3.74535">
        <ele>218.4</ele>
        <time>2011-02-18T20:35:13Z</time>
      </trkpt>
      <trkpt lat="43.48396" lon="3.74528">
        <ele>218.6</ele>
        <time>2011-02-18T20:35:15Z</time>
      </trkpt>
      <trkpt lat="43.4839" lon="3.74521">
        <ele>218.9</ele>
        <time>2011-02-18T20:35:17Z</time>
      </trkpt>
      <trkpt lat="43.48383" lon="3.74518">
        <ele>218.9</ele>
        <time>2011-02-18T20:35:19Z</time>
      </trkpt>
      <trkpt lat="43.48375" lon="3.74517">
        <ele>218.9</ele>
        <time>2011-02-18T20:35:21Z</time>
      </trkpt>
      <trkpt lat="43.48369" lon="3.74512">
        <ele>218.2</ele>
        <time>2011-02-18T20:35:23Z</time>
      </trkpt>
      <trkpt lat="43.48366" lon="3.74504">
        <ele>217.8</ele>
        <time>2011-02-18T20:35:25Z</time>
      </trkpt>
      <trkpt lat="43.48363" lon="3.74497">
        <ele>217.5</ele>
        <time>2011-02-18T20:35:27Z</time>
      </trkpt>
      <trkpt lat="43.48359" lon="3.74489">
        <ele>217.6</ele>
        <time>2011-02-18T20:35:29Z</time>
      </trkpt>
      <trkpt lat="43.48357" lon="3.7448">
        <ele>218.1</ele>
        <time>2011-02-18T20:35:31Z</time>
      </trkpt>
      <trkpt lat="43.48355" lon="3.74472">
        <ele>218.6</ele>
        <time>2011-02-18T20:35:33Z</time>
      </trkpt>
      <trkpt lat="43.48353" lon="3.74463">
        <ele>218.5</ele>
        <time>2011-02-18T20:35:35Z</time>
      </trkpt>
      <trkpt lat="43.4835" lon="3.74456">
        <ele>218.5</ele>
        <time>2011-02-18T20:35:37Z</time>
      </trkpt>
      <trkpt lat="43.48346" lon="3.74449">
        <ele>218.5</ele>
        <time>2011-02-18T20:35:39Z</time>
      </trkpt>
      <trkpt lat="43.48342" lon="3.74443">
        <ele>218.6</ele>
        <time>2011-02-18T20:35:41Z</time>
      </trkpt>
      <trkpt lat="43.48334" lon="3.74438">
        <ele>219.1</ele>
        <time>2011-02-18T20:35:44Z</time>
      </trkpt>
      <trkpt lat="43.48328" lon="3.74436">
        <ele>219.6</ele>
        <time>2011-02-18T20:35:46Z</time>
      </trkpt>
      <trkpt lat="43.48322" lon="3.74435">
        <ele>219.6</ele>
        <time>2011-02-18T20:35:48Z</time>
      </trkpt>
      <trkpt lat="43.48316" lon="3.74433">
        <ele>219.3</ele>
        <time>2011-02-18T20:35:50Z</time>
      </trkpt>
      <trkpt lat="43.4831" lon="3.7443">
        <ele>218.9</ele>
        <time>2011-02-18T20:35:52Z</time>
      </trkpt>
      <trkpt lat="43.48303" lon="3.74428">
        <ele>218.5</ele>
        <time>2011-02-18T20:35:54Z</time>
      </trkpt>
      <trkpt lat="43.48296" lon="3.74425">
        <ele>218.3</ele>
        <time>2011-02-18T20:35:56Z</time>
      </trkpt>
      <trkpt lat="43.48289" lon="3.74422">
        <ele>218</ele>
        <time>2011-02-18T20:35:58Z</time>
      </trkpt>
      <trkpt lat="43.48283" lon="3.74418">
        <ele>217.5</ele>
        <time>2011-02-18T20:36:00Z</time>
      </trkpt>
      <trkpt lat="43.48276" lon="3.74416">
        <ele>216.9</ele>
        <time>2011-02-18T20:36:02Z</time>
      </trkpt>
      <trkpt lat="43.4827" lon="3.74412">
        <ele>217.1</ele>
        <time>2011-02-18T20:36:04Z</time>
      </trkpt>
      <trkpt lat="43.48262" lon="3.74409">
        <ele>216.8</ele>
        <time>2011-02-18T20:36:07Z</time>
      </trkpt>
      <trkpt lat="43.48258" lon="3.744">
        <ele>217.2</ele>
        <time>2011-02-18T20:36:10Z</time>
      </trkpt>
      <trkpt lat="43.48256" lon="3.74397">
        <ele>217.4</ele>
        <time>2011-02-18T20:36:11Z</time>
      </trkpt>
      <trkpt lat="43.48249" lon="3.74385">
        <ele>217.3</ele>
        <time>2011-02-18T20:36:15Z</time>
      </trkpt>
      <trkpt lat="43.48244" lon="3.74379">
        <ele>217.4</ele>
        <time>2011-02-18T20:36:17Z</time>
      </trkpt>
      <trkpt lat="43.48239" lon="3.74372">
        <ele>217.3</ele>
        <time>2011-02-18T20:36:19Z</time>
      </trkpt>
      <trkpt lat="43.48234" lon="3.74366">
        <ele>217.1</ele>
        <time>2011-02-18T20:36:21Z</time>
      </trkpt>
      <trkpt lat="43.48229" lon="3.7436">
        <ele>218</ele>
        <time>2011-02-18T20:36:23Z</time>
      </trkpt>
      <trkpt lat="43.48226" lon="3.74353">
        <ele>218.6</ele>
        <time>2011-02-18T20:36:25Z</time>
      </trkpt>
      <trkpt lat="43.48222" lon="3.74347">
        <ele>219</ele>
        <time>2011-02-18T20:36:27Z</time>
      </trkpt>
      <trkpt lat="43.48217" lon="3.7434">
        <ele>219</ele>
        <time>2011-02-18T20:36:29Z</time>
      </trkpt>
      <trkpt lat="43.48213" lon="3.74333">
        <ele>218.9</ele>
        <time>2011-02-18T20:36:31Z</time>
      </trkpt>
      <trkpt lat="43.48209" lon="3.74326">
        <ele>219.4</ele>
        <time>2011-02-18T20:36:33Z</time>
      </trkpt>
      <trkpt lat="43.48205" lon="3.7432">
        <ele>219.8</ele>
        <time>2011-02-18T20:36:35Z</time>
      </trkpt>
      <trkpt lat="43.48202" lon="3.74312">
        <ele>220.1</ele>
        <time>2011-02-18T20:36:37Z</time>
      </trkpt>
      <trkpt lat="43.48197" lon="3.74305">
        <ele>220</ele>
        <time>2011-02-18T20:36:39Z</time>
      </trkpt>
      <trkpt lat="43.48192" lon="3.74298">
        <ele>220.2</ele>
        <time>2011-02-18T20:36:41Z</time>
      </trkpt>
      <trkpt lat="43.48188" lon="3.74292">
        <ele>220.5</ele>
        <time>2011-02-18T20:36:43Z</time>
      </trkpt>
      <trkpt lat="43.48184" lon="3.74285">
        <ele>220.4</ele>
        <time>2011-02-18T20:36:45Z</time>
      </trkpt>
      <trkpt lat="43.48179" lon="3.74278">
        <ele>220.2</ele>
        <time>2011-02-18T20:36:47Z</time>
      </trkpt>
      <trkpt lat="43.48176" lon="3.74271">
        <ele>220.6</ele>
        <time>2011-02-18T20:36:49Z</time>
      </trkpt>
      <trkpt lat="43.48171" lon="3.74265">
        <ele>220.6</ele>
        <time>2011-02-18T20:36:51Z</time>
      </trkpt>
      <trkpt lat="43.48167" lon="3.74258">
        <ele>220.4</ele>
        <time>2011-02-18T20:36:53Z</time>
      </trkpt>
      <trkpt lat="43.48164" lon="3.74251">
        <ele>220.4</ele>
        <time>2011-02-18T20:36:55Z</time>
      </trkpt>
      <trkpt lat="43.48158" lon="3.74244">
        <ele>220.9</ele>
        <time>2011-02-18T20:36:58Z</time>
      </trkpt>
      <trkpt lat="43.48154" lon="3.74234">
        <ele>222.1</ele>
        <time>2011-02-18T20:38:32Z</time>
      </trkpt>
      <trkpt lat="43.48153" lon="3.74232">
        <ele>222.1</ele>
        <time>2011-02-18T20:38:33Z</time>
      </trkpt>
      <trkpt lat="43.48145" lon="3.74217">
        <ele>221.6</ele>
        <time>2011-02-18T20:38:39Z</time>
      </trkpt>
      <trkpt lat="43.48139" lon="3.74207">
        <ele>222.1</ele>
        <time>2011-02-18T20:38:42Z</time>
      </trkpt>
      <trkpt lat="43.48134" lon="3.74198">
        <ele>223.2</ele>
        <time>2011-02-18T20:38:45Z</time>
      </trkpt>
      <trkpt lat="43.4813" lon="3.74192">
        <ele>223</ele>
        <time>2011-02-18T20:38:47Z</time>
      </trkpt>
      <trkpt lat="43.48125" lon="3.74187">
        <ele>223.2</ele>
        <time>2011-02-18T20:38:49Z</time>
      </trkpt>
      <trkpt lat="43.4812" lon="3.74181">
        <ele>223.4</ele>
        <time>2011-02-18T20:38:51Z</time>
      </trkpt>
      <trkpt lat="43.48113" lon="3.74174">
        <ele>223.2</ele>
        <time>2011-02-18T20:38:54Z</time>
      </trkpt>
      <trkpt lat="43.48107" lon="3.74172">
        <ele>223.6</ele>
        <time>2011-02-18T20:38:56Z</time>
      </trkpt>
      <trkpt lat="43.48101" lon="3.7417">
        <ele>223.8</ele>
        <time>2011-02-18T20:38:58Z</time>
      </trkpt>
      <trkpt lat="43.48095" lon="3.74167">
        <ele>222.8</ele>
        <time>2011-02-18T20:39:00Z</time>
      </trkpt>
      <trkpt lat="43.48089" lon="3.74163">
        <ele>222.6</ele>
        <time>2011-02-18T20:39:02Z</time>
      </trkpt>
      <trkpt lat="43.48082" lon="3.74161">
        <ele>222.7</ele>
        <time>2011-02-18T20:39:04Z</time>
      </trkpt>
      <trkpt lat="43.48077" lon="3.74156">
        <ele>222.2</ele>
        <time>2011-02-18T20:39:06Z</time>
      </trkpt>
      <trkpt lat="43.48071" lon="3.7415">
        <ele>221.9</ele>
        <time>2011-02-18T20:39:08Z</time>
      </trkpt>
      <trkpt lat="43.48064" lon="3.74146">
        <ele>221.8</ele>
        <time>2011-02-18T20:39:10Z</time>
      </trkpt>
      <trkpt lat="43.48056" lon="3.74141">
        <ele>221.4</ele>
        <time>2011-02-18T20:39:12Z</time>
      </trkpt>
      <trkpt lat="43.48048" lon="3.74137">
        <ele>221.2</ele>
        <time>2011-02-18T20:39:14Z</time>
      </trkpt>
      <trkpt lat="43.48042" lon="3.74133">
        <ele>221</ele>
        <time>2011-02-18T20:39:16Z</time>
      </trkpt>
      <trkpt lat="43.48036" lon="3.74132">
        <ele>220.6</ele>
        <time>2011-02-18T20:39:18Z</time>
      </trkpt>
      <trkpt lat="43.4803" lon="3.74128">
        <ele>220.3</ele>
        <time>2011-02-18T20:39:20Z</time>
      </trkpt>
      <trkpt lat="43.48022" lon="3.74125">
        <ele>219.7</ele>
        <time>2011-02-18T20:39:22Z</time>
      </trkpt>
      <trkpt lat="43.48015" lon="3.74122">
        <ele>219.4</ele>
        <time>2011-02-18T20:39:24Z</time>
      </trkpt>
      <trkpt lat="43.48008" lon="3.74118">
        <ele>219.2</ele>
        <time>2011-02-18T20:39:26Z</time>
      </trkpt>
      <trkpt lat="43.48001" lon="3.74115">
        <ele>218.8</ele>
        <time>2011-02-18T20:39:28Z</time>
      </trkpt>
      <trkpt lat="43.47995" lon="3.74112">
        <ele>218.6</ele>
        <time>2011-02-18T20:39:30Z</time>
      </trkpt>
      <trkpt lat="43.47987" lon="3.74108">
        <ele>219.7</ele>
        <time>2011-02-18T20:39:33Z</time>
      </trkpt>
      <trkpt lat="43.47984" lon="3.74107">
        <ele>219.9</ele>
        <time>2011-02-18T20:39:34Z</time>
      </trkpt>
      <trkpt lat="43.47973" lon="3.74103">
        <ele>220.8</ele>
        <time>2011-02-18T20:39:38Z</time>
      </trkpt>
      <trkpt lat="43.47967" lon="3.74101">
        <ele>221</ele>
        <time>2011-02-18T20:39:40Z</time>
      </trkpt>
      <trkpt lat="43.47961" lon="3.74098">
        <ele>220.9</ele>
        <time>2011-02-18T20:39:42Z</time>
      </trkpt>
      <trkpt lat="43.47954" lon="3.74094">
        <ele>221.2</ele>
        <time>2011-02-18T20:39:44Z</time>
      </trkpt>
      <trkpt lat="43.47948" lon="3.74091">
        <ele>221.4</ele>
        <time>2011-02-18T20:39:46Z</time>
      </trkpt>
      <trkpt lat="43.47942" lon="3.7409">
        <ele>221.4</ele>
        <time>2011-02-18T20:39:48Z</time>
      </trkpt>
      <trkpt lat="43.47935" lon="3.74089">
        <ele>221.7</ele>
        <time>2011-02-18T20:39:50Z</time>
      </trkpt>
      <trkpt lat="43.47927" lon="3.74086">
        <ele>222</ele>
        <time>2011-02-18T20:39:53Z</time>
      </trkpt>
      <trkpt lat="43.4792" lon="3.74083">
        <ele>221.7</ele>
        <time>2011-02-18T20:39:56Z</time>
      </trkpt>
      <trkpt lat="43.47912" lon="3.74079">
        <ele>221.7</ele>
        <time>2011-02-18T20:39:59Z</time>
      </trkpt>
      <trkpt lat="43.47905" lon="3.74073">
        <ele>221.7</ele>
        <time>2011-02-18T20:40:02Z</time>
      </trkpt>
      <trkpt lat="43.47899" lon="3.74069">
        <ele>221.6</ele>
        <time>2011-02-18T20:40:04Z</time>
      </trkpt>
      <trkpt lat="43.47894" lon="3.74064">
        <ele>221.8</ele>
        <time>2011-02-18T20:40:06Z</time>
      </trkpt>
      <trkpt lat="43.47888" lon="3.74056">
        <ele>221.9</ele>
        <time>2011-02-18T20:40:09Z</time>
      </trkpt>
      <trkpt lat="43.4788" lon="3.7405">
        <ele>222</ele>
        <time>2011-02-18T20:40:12Z</time>
      </trkpt>
      <trkpt lat="43.47873" lon="3.74045">
        <ele>222.5</ele>
        <time>2011-02-18T20:40:15Z</time>
      </trkpt>
      <trkpt lat="43.47867" lon="3.74042">
        <ele>222.7</ele>
        <time>2011-02-18T20:40:17Z</time>
      </trkpt>
      <trkpt lat="43.47862" lon="3.74038">
        <ele>222.5</ele>
        <time>2011-02-18T20:40:19Z</time>
      </trkpt>
      <trkpt lat="43.47855" lon="3.74031">
        <ele>222.4</ele>
        <time>2011-02-18T20:40:22Z</time>
      </trkpt>
      <trkpt lat="43.47849" lon="3.74022">
        <ele>221.7</ele>
        <time>2011-02-18T20:40:44Z</time>
      </trkpt>
      <trkpt lat="43.47849" lon="3.74022">
        <ele>221.6</ele>
        <time>2011-02-18T20:40:45Z</time>
      </trkpt>
      <trkpt lat="43.47842" lon="3.74005">
        <ele>221.6</ele>
        <time>2011-02-18T20:40:53Z</time>
      </trkpt>
      <trkpt lat="43.47834" lon="3.73999">
        <ele>221.2</ele>
        <time>2011-02-18T20:40:56Z</time>
      </trkpt>
      <trkpt lat="43.47829" lon="3.73994">
        <ele>220.7</ele>
        <time>2011-02-18T20:40:58Z</time>
      </trkpt>
      <trkpt lat="43.47823" lon="3.73986">
        <ele>220.3</ele>
        <time>2011-02-18T20:41:00Z</time>
      </trkpt>
      <trkpt lat="43.47818" lon="3.73977">
        <ele>220.1</ele>
        <time>2011-02-18T20:41:02Z</time>
      </trkpt>
      <trkpt lat="43.47814" lon="3.73967">
        <ele>219.2</ele>
        <time>2011-02-18T20:41:04Z</time>
      </trkpt>
      <trkpt lat="43.47812" lon="3.73962">
        <ele>218.9</ele>
        <time>2011-02-18T20:41:05Z</time>
      </trkpt>
      <trkpt lat="43.47809" lon="3.73957">
        <ele>218.6</ele>
        <time>2011-02-18T20:41:06Z</time>
      </trkpt>
      <trkpt lat="43.47806" lon="3.73951">
        <ele>218.3</ele>
        <time>2011-02-18T20:41:07Z</time>
      </trkpt>
      <trkpt lat="43.47803" lon="3.73945">
        <ele>218.1</ele>
        <time>2011-02-18T20:41:08Z</time>
      </trkpt>
      <trkpt lat="43.478" lon="3.73939">
        <ele>217.9</ele>
        <time>2011-02-18T20:41:09Z</time>
      </trkpt>
      <trkpt lat="43.47797" lon="3.73933">
        <ele>217.8</ele>
        <time>2011-02-18T20:41:10Z</time>
      </trkpt>
      <trkpt lat="43.47794" lon="3.73927">
        <ele>217.7</ele>
        <time>2011-02-18T20:41:11Z</time>
      </trkpt>
      <trkpt lat="43.4779" lon="3.73921">
        <ele>217.6</ele>
        <time>2011-02-18T20:41:12Z</time>
      </trkpt>
      <trkpt lat="43.47787" lon="3.73916">
        <ele>217</ele>
        <time>2011-02-18T20:41:13Z</time>
      </trkpt>
      <trkpt lat="43.47783" lon="3.73911">
        <ele>216.6</ele>
        <time>2011-02-18T20:41:14Z</time>
      </trkpt>
      <trkpt lat="43.4778" lon="3.73906">
        <ele>216.3</ele>
        <time>2011-02-18T20:41:15Z</time>
      </trkpt>
      <trkpt lat="43.47776" lon="3.73901">
        <ele>216.1</ele>
        <time>2011-02-18T20:41:16Z</time>
      </trkpt>
      <trkpt lat="43.47773" lon="3.73897">
        <ele>215.9</ele>
        <time>2011-02-18T20:41:17Z</time>
      </trkpt>
      <trkpt lat="43.47768" lon="3.73894">
        <ele>215.7</ele>
        <time>2011-02-18T20:41:18Z</time>
      </trkpt>
      <trkpt lat="43.47761" lon="3.73887">
        <ele>216</ele>
        <time>2011-02-18T20:41:20Z</time>
      </trkpt>
      <trkpt lat="43.47754" lon="3.73879">
        <ele>215.9</ele>
        <time>2011-02-18T20:41:22Z</time>
      </trkpt>
      <trkpt lat="43.47748" lon="3.73872">
        <ele>215.7</ele>
        <time>2011-02-18T20:41:24Z</time>
      </trkpt>
      <trkpt lat="43.47742" lon="3.73865">
        <ele>215.9</ele>
        <time>2011-02-18T20:41:26Z</time>
      </trkpt>
      <trkpt lat="43.47736" lon="3.73859">
        <ele>216</ele>
        <time>2011-02-18T20:41:28Z</time>
      </trkpt>
      <trkpt lat="43.47734" lon="3.73848">
        <ele>214.2</ele>
        <time>2011-02-18T20:41:31Z</time>
      </trkpt>
      <trkpt lat="43.47737" lon="3.73839">
        <ele>214.8</ele>
        <time>2011-02-18T20:41:34Z</time>
      </trkpt>
      <trkpt lat="43.47742" lon="3.73829">
        <ele>217.8</ele>
        <time>2011-02-18T20:41:44Z</time>
      </trkpt>
      <trkpt lat="43.47745" lon="3.73819">
        <ele>217.3</ele>
        <time>2011-02-18T20:41:49Z</time>
      </trkpt>
      <trkpt lat="43.47746" lon="3.73817">
        <ele>217.3</ele>
        <time>2011-02-18T20:41:50Z</time>
      </trkpt>
      <trkpt lat="43.47754" lon="3.73801">
        <ele>218.5</ele>
        <time>2011-02-18T20:41:56Z</time>
      </trkpt>
      <trkpt lat="43.47759" lon="3.73791">
        <ele>219.1</ele>
        <time>2011-02-18T20:41:59Z</time>
      </trkpt>
      <trkpt lat="43.47763" lon="3.73782">
        <ele>219.8</ele>
        <time>2011-02-18T20:42:02Z</time>
      </trkpt>
      <trkpt lat="43.47766" lon="3.73772">
        <ele>220.7</ele>
        <time>2011-02-18T20:42:06Z</time>
      </trkpt>
      <trkpt lat="43.47772" lon="3.73765">
        <ele>221.9</ele>
        <time>2011-02-18T20:42:20Z</time>
      </trkpt>
      <trkpt lat="43.47775" lon="3.73755">
        <ele>222</ele>
        <time>2011-02-18T20:42:24Z</time>
      </trkpt>
      <trkpt lat="43.4778" lon="3.73748">
        <ele>221.9</ele>
        <time>2011-02-18T20:42:28Z</time>
      </trkpt>
      <trkpt lat="43.47784" lon="3.73737">
        <ele>222.2</ele>
        <time>2011-02-18T20:42:33Z</time>
      </trkpt>
      <trkpt lat="43.47786" lon="3.73726">
        <ele>222.4</ele>
        <time>2011-02-18T20:42:38Z</time>
      </trkpt>
      <trkpt lat="43.47789" lon="3.73717">
        <ele>222.6</ele>
        <time>2011-02-18T20:42:41Z</time>
      </trkpt>
      <trkpt lat="43.47794" lon="3.73709">
        <ele>223.3</ele>
        <time>2011-02-18T20:42:44Z</time>
      </trkpt>
      <trkpt lat="43.478" lon="3.73705">
        <ele>223.9</ele>
        <time>2011-02-18T20:42:47Z</time>
      </trkpt>
      <trkpt lat="43.47809" lon="3.73704">
        <ele>224.7</ele>
        <time>2011-02-18T20:42:51Z</time>
      </trkpt>
      <trkpt lat="43.47811" lon="3.73704">
        <ele>224.5</ele>
        <time>2011-02-18T20:42:52Z</time>
      </trkpt>
      <trkpt lat="43.47824" lon="3.73694">
        <ele>224.7</ele>
        <time>2011-02-18T20:42:59Z</time>
      </trkpt>
      <trkpt lat="43.47832" lon="3.73688">
        <ele>224.5</ele>
        <time>2011-02-18T20:43:03Z</time>
      </trkpt>
      <trkpt lat="43.47838" lon="3.73681">
        <ele>225.6</ele>
        <time>2011-02-18T20:43:07Z</time>
      </trkpt>
      <trkpt lat="43.47842" lon="3.73672">
        <ele>225</ele>
        <time>2011-02-18T20:43:11Z</time>
      </trkpt>
      <trkpt lat="43.47845" lon="3.73662">
        <ele>224.7</ele>
        <time>2011-02-18T20:43:15Z</time>
      </trkpt>
      <trkpt lat="43.47849" lon="3.73652">
        <ele>224</ele>
        <time>2011-02-18T20:43:19Z</time>
      </trkpt>
      <trkpt lat="43.47855" lon="3.73644">
        <ele>223.9</ele>
        <time>2011-02-18T20:43:23Z</time>
      </trkpt>
      <trkpt lat="43.47862" lon="3.73637">
        <ele>224.5</ele>
        <time>2011-02-18T20:43:27Z</time>
      </trkpt>
      <trkpt lat="43.47869" lon="3.73633">
        <ele>224.5</ele>
        <time>2011-02-18T20:43:31Z</time>
      </trkpt>
      <trkpt lat="43.47878" lon="3.7363">
        <ele>224.6</ele>
        <time>2011-02-18T20:43:35Z</time>
      </trkpt>
      <trkpt lat="43.47884" lon="3.73627">
        <ele>224.6</ele>
        <time>2011-02-18T20:43:38Z</time>
      </trkpt>
      <trkpt lat="43.47892" lon="3.73623">
        <ele>224.3</ele>
        <time>2011-02-18T20:43:42Z</time>
      </trkpt>
      <trkpt lat="43.47898" lon="3.73621">
        <ele>223.8</ele>
        <time>2011-02-18T20:43:45Z</time>
      </trkpt>
      <trkpt lat="43.47905" lon="3.73617">
        <ele>223.8</ele>
        <time>2011-02-18T20:43:48Z</time>
      </trkpt>
      <trkpt lat="43.47911" lon="3.73611">
        <ele>223.8</ele>
        <time>2011-02-18T20:43:51Z</time>
      </trkpt>
      <trkpt lat="43.47917" lon="3.73601">
        <ele>223.4</ele>
        <time>2011-02-18T20:43:55Z</time>
      </trkpt>
      <trkpt lat="43.47919" lon="3.73599">
        <ele>223.1</ele>
        <time>2011-02-18T20:43:56Z</time>
      </trkpt>
      <trkpt lat="43.47929" lon="3.73586">
        <ele>222.9</ele>
        <time>2011-02-18T20:44:01Z</time>
      </trkpt>
      <trkpt lat="43.47934" lon="3.73578">
        <ele>222.2</ele>
        <time>2011-02-18T20:44:04Z</time>
      </trkpt>
      <trkpt lat="43.47941" lon="3.73573">
        <ele>221.7</ele>
        <time>2011-02-18T20:44:07Z</time>
      </trkpt>
      <trkpt lat="43.47949" lon="3.73568">
        <ele>220.7</ele>
        <time>2011-02-18T20:44:10Z</time>
      </trkpt>
      <trkpt lat="43.47957" lon="3.73566">
        <ele>220.6</ele>
        <time>2011-02-18T20:44:13Z</time>
      </trkpt>
      <trkpt lat="43.47964" lon="3.73562">
        <ele>220.7</ele>
        <time>2011-02-18T20:44:16Z</time>
      </trkpt>
      <trkpt lat="43.47973" lon="3.73564">
        <ele>221.2</ele>
        <time>2011-02-18T20:44:20Z</time>
      </trkpt>
      <trkpt lat="43.47979" lon="3.7356">
        <ele>220.5</ele>
        <time>2011-02-18T20:44:23Z</time>
      </trkpt>
      <trkpt lat="43.47986" lon="3.73558">
        <ele>220.3</ele>
        <time>2011-02-18T20:44:26Z</time>
      </trkpt>
      <trkpt lat="43.47994" lon="3.73557">
        <ele>220.4</ele>
        <time>2011-02-18T20:44:29Z</time>
      </trkpt>
      <trkpt lat="43.48001" lon="3.73555">
        <ele>220.7</ele>
        <time>2011-02-18T20:44:32Z</time>
      </trkpt>
      <trkpt lat="43.4801" lon="3.73555">
        <ele>221.2</ele>
        <time>2011-02-18T20:44:35Z</time>
      </trkpt>
      <trkpt lat="43.48017" lon="3.73551">
        <ele>220.8</ele>
        <time>2011-02-18T20:44:38Z</time>
      </trkpt>
      <trkpt lat="43.48025" lon="3.73547">
        <ele>221.3</ele>
        <time>2011-02-18T20:44:41Z</time>
      </trkpt>
      <trkpt lat="43.48031" lon="3.73542">
        <ele>221.4</ele>
        <time>2011-02-18T20:44:44Z</time>
      </trkpt>
      <trkpt lat="43.48037" lon="3.73539">
        <ele>221.3</ele>
        <time>2011-02-18T20:44:47Z</time>
      </trkpt>
      <trkpt lat="43.48045" lon="3.73536">
        <ele>221.1</ele>
        <time>2011-02-18T20:44:50Z</time>
      </trkpt>
      <trkpt lat="43.48052" lon="3.73533">
        <ele>220.7</ele>
        <time>2011-02-18T20:44:53Z</time>
      </trkpt>
      <trkpt lat="43.4806" lon="3.7353">
        <ele>220.3</ele>
        <time>2011-02-18T20:44:56Z</time>
      </trkpt>
      <trkpt lat="43.48062" lon="3.73528">
        <ele>220.3</ele>
        <time>2011-02-18T20:44:57Z</time>
      </trkpt>
      <trkpt lat="43.48074" lon="3.73519">
        <ele>221.1</ele>
        <time>2011-02-18T20:45:03Z</time>
      </trkpt>
      <trkpt lat="43.48082" lon="3.73518">
        <ele>221.1</ele>
        <time>2011-02-18T20:45:06Z</time>
      </trkpt>
      <trkpt lat="43.48087" lon="3.73511">
        <ele>221.3</ele>
        <time>2011-02-18T20:45:10Z</time>
      </trkpt>
      <trkpt lat="43.4809" lon="3.73501">
        <ele>220.2</ele>
        <time>2011-02-18T20:45:14Z</time>
      </trkpt>
      <trkpt lat="43.48091" lon="3.7349">
        <ele>220.3</ele>
        <time>2011-02-18T20:45:18Z</time>
      </trkpt>
      <trkpt lat="43.48093" lon="3.73479">
        <ele>221</ele>
        <time>2011-02-18T20:45:22Z</time>
      </trkpt>
      <trkpt lat="43.48092" lon="3.73467">
        <ele>221.3</ele>
        <time>2011-02-18T20:45:26Z</time>
      </trkpt>
      <trkpt lat="43.48093" lon="3.73455">
        <ele>223.3</ele>
        <time>2011-02-18T20:45:31Z</time>
      </trkpt>
      <trkpt lat="43.48095" lon="3.73445">
        <ele>223</ele>
        <time>2011-02-18T20:45:36Z</time>
      </trkpt>
      <trkpt lat="43.48095" lon="3.73434">
        <ele>224.6</ele>
        <time>2011-02-18T20:45:50Z</time>
      </trkpt>
      <trkpt lat="43.481" lon="3.73425">
        <ele>225.4</ele>
        <time>2011-02-18T20:45:57Z</time>
      </trkpt>
      <trkpt lat="43.481" lon="3.73424">
        <ele>225.2</ele>
        <time>2011-02-18T20:45:58Z</time>
      </trkpt>
      <trkpt lat="43.48114" lon="3.73412">
        <ele>226.1</ele>
        <time>2011-02-18T20:46:15Z</time>
      </trkpt>
      <trkpt lat="43.48116" lon="3.73401">
        <ele>226.8</ele>
        <time>2011-02-18T20:46:19Z</time>
      </trkpt>
      <trkpt lat="43.48109" lon="3.73394">
        <ele>227.5</ele>
        <time>2011-02-18T20:46:24Z</time>
      </trkpt>
      <trkpt lat="43.48103" lon="3.73385">
        <ele>227.4</ele>
        <time>2011-02-18T20:46:28Z</time>
      </trkpt>
      <trkpt lat="43.481" lon="3.73375">
        <ele>227.6</ele>
        <time>2011-02-18T20:46:31Z</time>
      </trkpt>
      <trkpt lat="43.48099" lon="3.73364">
        <ele>228.9</ele>
        <time>2011-02-18T20:46:34Z</time>
      </trkpt>
      <trkpt lat="43.48095" lon="3.73354">
        <ele>228.8</ele>
        <time>2011-02-18T20:46:38Z</time>
      </trkpt>
      <trkpt lat="43.4809" lon="3.73347">
        <ele>229.1</ele>
        <time>2011-02-18T20:46:42Z</time>
      </trkpt>
      <trkpt lat="43.48085" lon="3.73339">
        <ele>228.9</ele>
        <time>2011-02-18T20:46:45Z</time>
      </trkpt>
      <trkpt lat="43.4808" lon="3.73332">
        <ele>228.7</ele>
        <time>2011-02-18T20:46:48Z</time>
      </trkpt>
      <trkpt lat="43.48073" lon="3.73324">
        <ele>229.1</ele>
        <time>2011-02-18T20:46:51Z</time>
      </trkpt>
      <trkpt lat="43.48065" lon="3.73322">
        <ele>228.9</ele>
        <time>2011-02-18T20:46:54Z</time>
      </trkpt>
      <trkpt lat="43.48057" lon="3.73324">
        <ele>228.3</ele>
        <time>2011-02-18T20:46:56Z</time>
      </trkpt>
      <trkpt lat="43.48049" lon="3.73325">
        <ele>227.8</ele>
        <time>2011-02-18T20:46:58Z</time>
      </trkpt>
      <trkpt lat="43.48044" lon="3.73324">
        <ele>227.7</ele>
        <time>2011-02-18T20:46:59Z</time>
      </trkpt>
      <trkpt lat="43.48039" lon="3.73322">
        <ele>227.5</ele>
        <time>2011-02-18T20:47:00Z</time>
      </trkpt>
      <trkpt lat="43.48032" lon="3.73314">
        <ele>227.1</ele>
        <time>2011-02-18T20:47:02Z</time>
      </trkpt>
      <trkpt lat="43.48031" lon="3.73304">
        <ele>226.5</ele>
        <time>2011-02-18T20:47:04Z</time>
      </trkpt>
      <trkpt lat="43.48028" lon="3.73296">
        <ele>225.9</ele>
        <time>2011-02-18T20:47:06Z</time>
      </trkpt>
      <trkpt lat="43.48023" lon="3.73291">
        <ele>225.8</ele>
        <time>2011-02-18T20:47:08Z</time>
      </trkpt>
      <trkpt lat="43.48016" lon="3.73286">
        <ele>225.4</ele>
        <time>2011-02-18T20:47:10Z</time>
      </trkpt>
      <trkpt lat="43.48008" lon="3.7328">
        <ele>225</ele>
        <time>2011-02-18T20:47:12Z</time>
      </trkpt>
      <trkpt lat="43.48001" lon="3.73273">
        <ele>224.6</ele>
        <time>2011-02-18T20:47:14Z</time>
      </trkpt>
      <trkpt lat="43.47995" lon="3.73265">
        <ele>224.3</ele>
        <time>2011-02-18T20:47:16Z</time>
      </trkpt>
      <trkpt lat="43.47991" lon="3.7326">
        <ele>224.1</ele>
        <time>2011-02-18T20:47:17Z</time>
      </trkpt>
      <trkpt lat="43.47987" lon="3.73257">
        <ele>223.9</ele>
        <time>2011-02-18T20:47:18Z</time>
      </trkpt>
      <trkpt lat="43.47979" lon="3.73252">
        <ele>222.9</ele>
        <time>2011-02-18T20:47:20Z</time>
      </trkpt>
      <trkpt lat="43.47972" lon="3.7325">
        <ele>221.8</ele>
        <time>2011-02-18T20:47:22Z</time>
      </trkpt>
      <trkpt lat="43.47964" lon="3.73245">
        <ele>221.4</ele>
        <time>2011-02-18T20:47:24Z</time>
      </trkpt>
      <trkpt lat="43.47958" lon="3.73241">
        <ele>221</ele>
        <time>2011-02-18T20:47:26Z</time>
      </trkpt>
      <trkpt lat="43.47951" lon="3.73237">
        <ele>220.7</ele>
        <time>2011-02-18T20:47:28Z</time>
      </trkpt>
      <trkpt lat="43.47943" lon="3.73232">
        <ele>219.8</ele>
        <time>2011-02-18T20:47:30Z</time>
      </trkpt>
      <trkpt lat="43.47939" lon="3.73229">
        <ele>219.5</ele>
        <time>2011-02-18T20:47:31Z</time>
      </trkpt>
      <trkpt lat="43.47935" lon="3.73227">
        <ele>219.3</ele>
        <time>2011-02-18T20:47:32Z</time>
      </trkpt>
      <trkpt lat="43.4793" lon="3.73225">
        <ele>219</ele>
        <time>2011-02-18T20:47:33Z</time>
      </trkpt>
      <trkpt lat="43.47926" lon="3.73223">
        <ele>218.7</ele>
        <time>2011-02-18T20:47:34Z</time>
      </trkpt>
      <trkpt lat="43.47921" lon="3.73221">
        <ele>218.5</ele>
        <time>2011-02-18T20:47:35Z</time>
      </trkpt>
      <trkpt lat="43.47917" lon="3.73217">
        <ele>218.2</ele>
        <time>2011-02-18T20:47:36Z</time>
      </trkpt>
      <trkpt lat="43.47913" lon="3.73213">
        <ele>217.9</ele>
        <time>2011-02-18T20:47:37Z</time>
      </trkpt>
      <trkpt lat="43.47909" lon="3.7321">
        <ele>217.7</ele>
        <time>2011-02-18T20:47:38Z</time>
      </trkpt>
      <trkpt lat="43.47905" lon="3.73208">
        <ele>217.4</ele>
        <time>2011-02-18T20:47:39Z</time>
      </trkpt>
      <trkpt lat="43.47897" lon="3.73203">
        <ele>216.9</ele>
        <time>2011-02-18T20:47:41Z</time>
      </trkpt>
      <trkpt lat="43.4789" lon="3.73199">
        <ele>217</ele>
        <time>2011-02-18T20:47:43Z</time>
      </trkpt>
      <trkpt lat="43.47881" lon="3.73196">
        <ele>216.3</ele>
        <time>2011-02-18T20:47:45Z</time>
      </trkpt>
      <trkpt lat="43.47873" lon="3.73191">
        <ele>215.4</ele>
        <time>2011-02-18T20:47:47Z</time>
      </trkpt>
      <trkpt lat="43.47865" lon="3.73189">
        <ele>214.8</ele>
        <time>2011-02-18T20:47:49Z</time>
      </trkpt>
      <trkpt lat="43.47856" lon="3.73188">
        <ele>214.5</ele>
        <time>2011-02-18T20:47:51Z</time>
      </trkpt>
      <trkpt lat="43.47848" lon="3.73187">
        <ele>214.1</ele>
        <time>2011-02-18T20:47:53Z</time>
      </trkpt>
      <trkpt lat="43.4784" lon="3.73186">
        <ele>213.6</ele>
        <time>2011-02-18T20:47:55Z</time>
      </trkpt>
      <trkpt lat="43.47832" lon="3.73186">
        <ele>213.2</ele>
        <time>2011-02-18T20:47:57Z</time>
      </trkpt>
      <trkpt lat="43.47824" lon="3.73184">
        <ele>214</ele>
        <time>2011-02-18T20:47:59Z</time>
      </trkpt>
      <trkpt lat="43.4782" lon="3.73184">
        <ele>214.3</ele>
        <time>2011-02-18T20:48:00Z</time>
      </trkpt>
      <trkpt lat="43.4781" lon="3.73185">
        <ele>214.5</ele>
        <time>2011-02-18T20:48:03Z</time>
      </trkpt>
      <trkpt lat="43.47803" lon="3.73182">
        <ele>214.1</ele>
        <time>2011-02-18T20:48:05Z</time>
      </trkpt>
      <trkpt lat="43.47796" lon="3.7318">
        <ele>213.9</ele>
        <time>2011-02-18T20:48:07Z</time>
      </trkpt>
      <trkpt lat="43.47789" lon="3.73178">
        <ele>214.4</ele>
        <time>2011-02-18T20:48:09Z</time>
      </trkpt>
      <trkpt lat="43.47782" lon="3.73175">
        <ele>214.8</ele>
        <time>2011-02-18T20:48:11Z</time>
      </trkpt>
      <trkpt lat="43.47775" lon="3.73172">
        <ele>215.2</ele>
        <time>2011-02-18T20:48:13Z</time>
      </trkpt>
      <trkpt lat="43.47769" lon="3.73168">
        <ele>215.1</ele>
        <time>2011-02-18T20:48:15Z</time>
      </trkpt>
      <trkpt lat="43.47762" lon="3.73164">
        <ele>215.3</ele>
        <time>2011-02-18T20:48:17Z</time>
      </trkpt>
      <trkpt lat="43.47756" lon="3.73161">
        <ele>215.7</ele>
        <time>2011-02-18T20:48:19Z</time>
      </trkpt>
      <trkpt lat="43.47748" lon="3.73159">
        <ele>215.6</ele>
        <time>2011-02-18T20:48:21Z</time>
      </trkpt>
      <trkpt lat="43.47741" lon="3.73158">
        <ele>215.6</ele>
        <time>2011-02-18T20:48:23Z</time>
      </trkpt>
      <trkpt lat="43.47735" lon="3.73154">
        <ele>215.1</ele>
        <time>2011-02-18T20:48:25Z</time>
      </trkpt>
      <trkpt lat="43.47729" lon="3.73148">
        <ele>214.7</ele>
        <time>2011-02-18T20:48:27Z</time>
      </trkpt>
      <trkpt lat="43.47726" lon="3.7314">
        <ele>214.4</ele>
        <time>2011-02-18T20:48:29Z</time>
      </trkpt>
      <trkpt lat="43.47722" lon="3.73132">
        <ele>214.4</ele>
        <time>2011-02-18T20:48:31Z</time>
      </trkpt>
      <trkpt lat="43.47717" lon="3.73125">
        <ele>214</ele>
        <time>2011-02-18T20:48:33Z</time>
      </trkpt>
      <trkpt lat="43.47714" lon="3.73118">
        <ele>213.6</ele>
        <time>2011-02-18T20:48:35Z</time>
      </trkpt>
      <trkpt lat="43.47709" lon="3.73109">
        <ele>213.3</ele>
        <time>2011-02-18T20:48:38Z</time>
      </trkpt>
      <trkpt lat="43.47703" lon="3.731">
        <ele>213.6</ele>
        <time>2011-02-18T20:48:41Z</time>
      </trkpt>
      <trkpt lat="43.47699" lon="3.73094">
        <ele>213.7</ele>
        <time>2011-02-18T20:48:43Z</time>
      </trkpt>
      <trkpt lat="43.47695" lon="3.73087">
        <ele>213.7</ele>
        <time>2011-02-18T20:48:45Z</time>
      </trkpt>
      <trkpt lat="43.4769" lon="3.7308">
        <ele>213.3</ele>
        <time>2011-02-18T20:48:47Z</time>
      </trkpt>
      <trkpt lat="43.47687" lon="3.73073">
        <ele>213</ele>
        <time>2011-02-18T20:48:49Z</time>
      </trkpt>
      <trkpt lat="43.47683" lon="3.73066">
        <ele>212.6</ele>
        <time>2011-02-18T20:48:51Z</time>
      </trkpt>
      <trkpt lat="43.47679" lon="3.7306">
        <ele>212.7</ele>
        <time>2011-02-18T20:48:53Z</time>
      </trkpt>
      <trkpt lat="43.47673" lon="3.73053">
        <ele>212.8</ele>
        <time>2011-02-18T20:48:55Z</time>
      </trkpt>
      <trkpt lat="43.47668" lon="3.73045">
        <ele>212.4</ele>
        <time>2011-02-18T20:48:57Z</time>
      </trkpt>
      <trkpt lat="43.47663" lon="3.73039">
        <ele>211.9</ele>
        <time>2011-02-18T20:48:59Z</time>
      </trkpt>
      <trkpt lat="43.47658" lon="3.73031">
        <ele>211.3</ele>
        <time>2011-02-18T20:49:01Z</time>
      </trkpt>
      <trkpt lat="43.47655" lon="3.73026">
        <ele>211.2</ele>
        <time>2011-02-18T20:49:02Z</time>
      </trkpt>
      <trkpt lat="43.47647" lon="3.73012">
        <ele>210.6</ele>
        <time>2011-02-18T20:49:05Z</time>
      </trkpt>
      <trkpt lat="43.47645" lon="3.73002">
        <ele>210.1</ele>
        <time>2011-02-18T20:49:07Z</time>
      </trkpt>
      <trkpt lat="43.47642" lon="3.72993">
        <ele>210.2</ele>
        <time>2011-02-18T20:49:09Z</time>
      </trkpt>
      <trkpt lat="43.47638" lon="3.72983">
        <ele>210.2</ele>
        <time>2011-02-18T20:49:11Z</time>
      </trkpt>
      <trkpt lat="43.47634" lon="3.72974">
        <ele>209.6</ele>
        <time>2011-02-18T20:49:13Z</time>
      </trkpt>
      <trkpt lat="43.47628" lon="3.72969">
        <ele>209.2</ele>
        <time>2011-02-18T20:49:15Z</time>
      </trkpt>
      <trkpt lat="43.47624" lon="3.72964">
        <ele>208.9</ele>
        <time>2011-02-18T20:49:17Z</time>
      </trkpt>
      <trkpt lat="43.47619" lon="3.72953">
        <ele>207.7</ele>
        <time>2011-02-18T20:49:20Z</time>
      </trkpt>
      <trkpt lat="43.47612" lon="3.72946">
        <ele>207</ele>
        <time>2011-02-18T20:49:23Z</time>
      </trkpt>
      <trkpt lat="43.47608" lon="3.7294">
        <ele>206.7</ele>
        <time>2011-02-18T20:49:26Z</time>
      </trkpt>
      <trkpt lat="43.47605" lon="3.72933">
        <ele>205.7</ele>
        <time>2011-02-18T20:49:28Z</time>
      </trkpt>
      <trkpt lat="43.476" lon="3.72925">
        <ele>205.2</ele>
        <time>2011-02-18T20:49:30Z</time>
      </trkpt>
      <trkpt lat="43.47595" lon="3.72916">
        <ele>204.4</ele>
        <time>2011-02-18T20:49:32Z</time>
      </trkpt>
      <trkpt lat="43.4759" lon="3.72907">
        <ele>203.9</ele>
        <time>2011-02-18T20:49:34Z</time>
      </trkpt>
      <trkpt lat="43.47591" lon="3.72897">
        <ele>203.2</ele>
        <time>2011-02-18T20:49:38Z</time>
      </trkpt>
      <trkpt lat="43.47599" lon="3.72893">
        <ele>203.9</ele>
        <time>2011-02-18T20:49:42Z</time>
      </trkpt>
      <trkpt lat="43.47607" lon="3.72892">
        <ele>204.3</ele>
        <time>2011-02-18T20:49:45Z</time>
      </trkpt>
      <trkpt lat="43.47615" lon="3.72893">
        <ele>204.9</ele>
        <time>2011-02-18T20:49:48Z</time>
      </trkpt>
      <trkpt lat="43.47622" lon="3.72897">
        <ele>205.6</ele>
        <time>2011-02-18T20:49:51Z</time>
      </trkpt>
      <trkpt lat="43.47629" lon="3.72901">
        <ele>206.8</ele>
        <time>2011-02-18T20:49:54Z</time>
      </trkpt>
      <trkpt lat="43.47635" lon="3.72905">
        <ele>208</ele>
        <time>2011-02-18T20:49:57Z</time>
      </trkpt>
      <trkpt lat="43.47641" lon="3.72911">
        <ele>209.5</ele>
        <time>2011-02-18T20:50:00Z</time>
      </trkpt>
      <trkpt lat="43.47648" lon="3.72915">
        <ele>210.3</ele>
        <time>2011-02-18T20:50:03Z</time>
      </trkpt>
      <trkpt lat="43.4765" lon="3.72916">
        <ele>210.4</ele>
        <time>2011-02-18T20:50:04Z</time>
      </trkpt>
      <trkpt lat="43.47662" lon="3.72925">
        <ele>212.2</ele>
        <time>2011-02-18T20:50:11Z</time>
      </trkpt>
      <trkpt lat="43.4767" lon="3.72927">
        <ele>213.8</ele>
        <time>2011-02-18T20:50:15Z</time>
      </trkpt>
      <trkpt lat="43.47677" lon="3.72926">
        <ele>215.4</ele>
        <time>2011-02-18T20:50:19Z</time>
      </trkpt>
      <trkpt lat="43.47685" lon="3.72927">
        <ele>215.9</ele>
        <time>2011-02-18T20:50:23Z</time>
      </trkpt>
      <trkpt lat="43.47693" lon="3.72928">
        <ele>216.9</ele>
        <time>2011-02-18T20:50:27Z</time>
      </trkpt>
      <trkpt lat="43.477" lon="3.72928">
        <ele>218.1</ele>
        <time>2011-02-18T20:50:31Z</time>
      </trkpt>
      <trkpt lat="43.47709" lon="3.7293">
        <ele>218.4</ele>
        <time>2011-02-18T20:50:35Z</time>
      </trkpt>
      <trkpt lat="43.47716" lon="3.72932">
        <ele>219.6</ele>
        <time>2011-02-18T20:50:39Z</time>
      </trkpt>
      <trkpt lat="43.47724" lon="3.72933">
        <ele>220.5</ele>
        <time>2011-02-18T20:50:43Z</time>
      </trkpt>
      <trkpt lat="43.47731" lon="3.72937">
        <ele>221.1</ele>
        <time>2011-02-18T20:50:47Z</time>
      </trkpt>
      <trkpt lat="43.47736" lon="3.72946">
        <ele>222.2</ele>
        <time>2011-02-18T20:50:53Z</time>
      </trkpt>
      <trkpt lat="43.47737" lon="3.72957">
        <ele>223.6</ele>
        <time>2011-02-18T20:51:10Z</time>
      </trkpt>
      <trkpt lat="43.47736" lon="3.72959">
        <ele>223.7</ele>
        <time>2011-02-18T20:51:11Z</time>
      </trkpt>
      <trkpt lat="43.47736" lon="3.72979">
        <ele>223.2</ele>
        <time>2011-02-18T20:51:19Z</time>
      </trkpt>
      <trkpt lat="43.47737" lon="3.7299">
        <ele>224.3</ele>
        <time>2011-02-18T20:51:23Z</time>
      </trkpt>
      <trkpt lat="43.4774" lon="3.73001">
        <ele>223.7</ele>
        <time>2011-02-18T20:51:27Z</time>
      </trkpt>
      <trkpt lat="43.47742" lon="3.7301">
        <ele>223.3</ele>
        <time>2011-02-18T20:51:30Z</time>
      </trkpt>
      <trkpt lat="43.47746" lon="3.73022">
        <ele>223.8</ele>
        <time>2011-02-18T20:51:34Z</time>
      </trkpt>
      <trkpt lat="43.4775" lon="3.7303">
        <ele>224.2</ele>
        <time>2011-02-18T20:51:37Z</time>
      </trkpt>
      <trkpt lat="43.47754" lon="3.73038">
        <ele>224.4</ele>
        <time>2011-02-18T20:51:40Z</time>
      </trkpt>
      <trkpt lat="43.47759" lon="3.73046">
        <ele>224.8</ele>
        <time>2011-02-18T20:51:43Z</time>
      </trkpt>
      <trkpt lat="43.47765" lon="3.73053">
        <ele>224.6</ele>
        <time>2011-02-18T20:51:46Z</time>
      </trkpt>
      <trkpt lat="43.47772" lon="3.73056">
        <ele>224.3</ele>
        <time>2011-02-18T20:51:49Z</time>
      </trkpt>
      <trkpt lat="43.47779" lon="3.73058">
        <ele>224.3</ele>
        <time>2011-02-18T20:51:52Z</time>
      </trkpt>
      <trkpt lat="43.47787" lon="3.73058">
        <ele>224.9</ele>
        <time>2011-02-18T20:51:55Z</time>
      </trkpt>
      <trkpt lat="43.47795" lon="3.73056">
        <ele>225</ele>
        <time>2011-02-18T20:51:58Z</time>
      </trkpt>
      <trkpt lat="43.47802" lon="3.73055">
        <ele>225</ele>
        <time>2011-02-18T20:52:01Z</time>
      </trkpt>
      <trkpt lat="43.47809" lon="3.73052">
        <ele>225</ele>
        <time>2011-02-18T20:52:04Z</time>
      </trkpt>
      <trkpt lat="43.47817" lon="3.7305">
        <ele>225.3</ele>
        <time>2011-02-18T20:52:07Z</time>
      </trkpt>
      <trkpt lat="43.47824" lon="3.73047">
        <ele>225.4</ele>
        <time>2011-02-18T20:52:10Z</time>
      </trkpt>
      <trkpt lat="43.47831" lon="3.73044">
        <ele>224.8</ele>
        <time>2011-02-18T20:52:13Z</time>
      </trkpt>
      <trkpt lat="43.47833" lon="3.73043">
        <ele>224.7</ele>
        <time>2011-02-18T20:52:14Z</time>
      </trkpt>
      <trkpt lat="43.47843" lon="3.73036">
        <ele>223.7</ele>
        <time>2011-02-18T20:52:19Z</time>
      </trkpt>
      <trkpt lat="43.4785" lon="3.73031">
        <ele>223.8</ele>
        <time>2011-02-18T20:52:22Z</time>
      </trkpt>
      <trkpt lat="43.47858" lon="3.73028">
        <ele>224.1</ele>
        <time>2011-02-18T20:52:25Z</time>
      </trkpt>
      <trkpt lat="43.47866" lon="3.73025">
        <ele>224.8</ele>
        <time>2011-02-18T20:52:28Z</time>
      </trkpt>
      <trkpt lat="43.47874" lon="3.73024">
        <ele>224.5</ele>
        <time>2011-02-18T20:52:31Z</time>
      </trkpt>
      <trkpt lat="43.47883" lon="3.73024">
        <ele>225.1</ele>
        <time>2011-02-18T20:52:34Z</time>
      </trkpt>
      <trkpt lat="43.47892" lon="3.73026">
        <ele>224.9</ele>
        <time>2011-02-18T20:52:37Z</time>
      </trkpt>
      <trkpt lat="43.479" lon="3.7303">
        <ele>224.7</ele>
        <time>2011-02-18T20:52:40Z</time>
      </trkpt>
      <trkpt lat="43.47907" lon="3.73035">
        <ele>224.4</ele>
        <time>2011-02-18T20:52:43Z</time>
      </trkpt>
      <trkpt lat="43.47915" lon="3.73041">
        <ele>224.9</ele>
        <time>2011-02-18T20:52:46Z</time>
      </trkpt>
      <trkpt lat="43.47922" lon="3.73048">
        <ele>225.1</ele>
        <time>2011-02-18T20:52:49Z</time>
      </trkpt>
      <trkpt lat="43.47927" lon="3.73052">
        <ele>224.9</ele>
        <time>2011-02-18T20:52:51Z</time>
      </trkpt>
      <trkpt lat="43.47934" lon="3.7306">
        <ele>225.7</ele>
        <time>2011-02-18T20:52:54Z</time>
      </trkpt>
      <trkpt lat="43.47937" lon="3.7305">
        <ele>226.9</ele>
        <time>2011-02-18T20:53:05Z</time>
      </trkpt>
      <trkpt lat="43.47933" lon="3.73042">
        <ele>226.5</ele>
        <time>2011-02-18T20:53:09Z</time>
      </trkpt>
      <trkpt lat="43.47927" lon="3.73033">
        <ele>226.9</ele>
        <time>2011-02-18T20:53:14Z</time>
      </trkpt>
      <trkpt lat="43.47927" lon="3.73031">
        <ele>226.7</ele>
        <time>2011-02-18T20:53:15Z</time>
      </trkpt>
      <trkpt lat="43.47917" lon="3.73018">
        <ele>226</ele>
        <time>2011-02-18T20:53:22Z</time>
      </trkpt>
      <trkpt lat="43.47911" lon="3.7301">
        <ele>225</ele>
        <time>2011-02-18T20:53:26Z</time>
      </trkpt>
      <trkpt lat="43.47904" lon="3.73002">
        <ele>225.2</ele>
        <time>2011-02-18T20:53:30Z</time>
      </trkpt>
      <trkpt lat="43.47899" lon="3.72996">
        <ele>224.7</ele>
        <time>2011-02-18T20:53:33Z</time>
      </trkpt>
      <trkpt lat="43.47894" lon="3.72989">
        <ele>224.2</ele>
        <time>2011-02-18T20:53:36Z</time>
      </trkpt>
      <trkpt lat="43.47887" lon="3.72982">
        <ele>224.2</ele>
        <time>2011-02-18T20:53:39Z</time>
      </trkpt>
      <trkpt lat="43.47881" lon="3.72974">
        <ele>224.6</ele>
        <time>2011-02-18T20:53:42Z</time>
      </trkpt>
      <trkpt lat="43.47876" lon="3.72969">
        <ele>224.1</ele>
        <time>2011-02-18T20:53:44Z</time>
      </trkpt>
      <trkpt lat="43.47871" lon="3.72963">
        <ele>223.8</ele>
        <time>2011-02-18T20:53:46Z</time>
      </trkpt>
      <trkpt lat="43.47865" lon="3.72958">
        <ele>223.6</ele>
        <time>2011-02-18T20:53:48Z</time>
      </trkpt>
      <trkpt lat="43.47859" lon="3.72953">
        <ele>223</ele>
        <time>2011-02-18T20:53:50Z</time>
      </trkpt>
      <trkpt lat="43.47853" lon="3.72948">
        <ele>223.1</ele>
        <time>2011-02-18T20:53:52Z</time>
      </trkpt>
      <trkpt lat="43.47847" lon="3.72941">
        <ele>223.4</ele>
        <time>2011-02-18T20:53:54Z</time>
      </trkpt>
      <trkpt lat="43.47842" lon="3.72934">
        <ele>223.1</ele>
        <time>2011-02-18T20:53:56Z</time>
      </trkpt>
      <trkpt lat="43.47838" lon="3.72924">
        <ele>222.6</ele>
        <time>2011-02-18T20:53:58Z</time>
      </trkpt>
      <trkpt lat="43.47837" lon="3.72917">
        <ele>222.1</ele>
        <time>2011-02-18T20:53:59Z</time>
      </trkpt>
      <trkpt lat="43.47837" lon="3.7291">
        <ele>221.7</ele>
        <time>2011-02-18T20:54:00Z</time>
      </trkpt>
      <trkpt lat="43.47839" lon="3.72904">
        <ele>221.5</ele>
        <time>2011-02-18T20:54:01Z</time>
      </trkpt>
      <trkpt lat="43.47843" lon="3.72897">
        <ele>220.6</ele>
        <time>2011-02-18T20:54:02Z</time>
      </trkpt>
      <trkpt lat="43.47847" lon="3.72891">
        <ele>219.9</ele>
        <time>2011-02-18T20:54:03Z</time>
      </trkpt>
      <trkpt lat="43.47851" lon="3.72886">
        <ele>219.5</ele>
        <time>2011-02-18T20:54:04Z</time>
      </trkpt>
      <trkpt lat="43.47856" lon="3.7288">
        <ele>218.7</ele>
        <time>2011-02-18T20:54:05Z</time>
      </trkpt>
      <trkpt lat="43.4786" lon="3.72875">
        <ele>218.1</ele>
        <time>2011-02-18T20:54:06Z</time>
      </trkpt>
      <trkpt lat="43.47865" lon="3.72871">
        <ele>217.7</ele>
        <time>2011-02-18T20:54:07Z</time>
      </trkpt>
      <trkpt lat="43.47869" lon="3.72867">
        <ele>217</ele>
        <time>2011-02-18T20:54:08Z</time>
      </trkpt>
      <trkpt lat="43.47874" lon="3.72864">
        <ele>216.5</ele>
        <time>2011-02-18T20:54:09Z</time>
      </trkpt>
      <trkpt lat="43.47878" lon="3.7286">
        <ele>216.1</ele>
        <time>2011-02-18T20:54:10Z</time>
      </trkpt>
      <trkpt lat="43.47883" lon="3.72857">
        <ele>215.8</ele>
        <time>2011-02-18T20:54:11Z</time>
      </trkpt>
      <trkpt lat="43.47888" lon="3.72854">
        <ele>215.5</ele>
        <time>2011-02-18T20:54:12Z</time>
      </trkpt>
      <trkpt lat="43.47893" lon="3.72853">
        <ele>215.2</ele>
        <time>2011-02-18T20:54:13Z</time>
      </trkpt>
      <trkpt lat="43.47898" lon="3.72852">
        <ele>215</ele>
        <time>2011-02-18T20:54:14Z</time>
      </trkpt>
      <trkpt lat="43.47903" lon="3.7285">
        <ele>214.6</ele>
        <time>2011-02-18T20:54:15Z</time>
      </trkpt>
      <trkpt lat="43.47908" lon="3.72848">
        <ele>214.3</ele>
        <time>2011-02-18T20:54:16Z</time>
      </trkpt>
      <trkpt lat="43.47914" lon="3.72845">
        <ele>214.1</ele>
        <time>2011-02-18T20:54:17Z</time>
      </trkpt>
      <trkpt lat="43.47919" lon="3.72842">
        <ele>213.9</ele>
        <time>2011-02-18T20:54:18Z</time>
      </trkpt>
      <trkpt lat="43.47924" lon="3.72839">
        <ele>213.8</ele>
        <time>2011-02-18T20:54:19Z</time>
      </trkpt>
      <trkpt lat="43.4793" lon="3.72837">
        <ele>213.8</ele>
        <time>2011-02-18T20:54:20Z</time>
      </trkpt>
      <trkpt lat="43.47936" lon="3.72835">
        <ele>212.8</ele>
        <time>2011-02-18T20:54:21Z</time>
      </trkpt>
      <trkpt lat="43.47943" lon="3.72834">
        <ele>212.1</ele>
        <time>2011-02-18T20:54:22Z</time>
      </trkpt>
      <trkpt lat="43.47949" lon="3.72833">
        <ele>211.6</ele>
        <time>2011-02-18T20:54:23Z</time>
      </trkpt>
      <trkpt lat="43.47954" lon="3.72832">
        <ele>211.1</ele>
        <time>2011-02-18T20:54:24Z</time>
      </trkpt>
      <trkpt lat="43.47959" lon="3.72831">
        <ele>210.7</ele>
        <time>2011-02-18T20:54:25Z</time>
      </trkpt>
      <trkpt lat="43.47964" lon="3.72831">
        <ele>210.5</ele>
        <time>2011-02-18T20:54:26Z</time>
      </trkpt>
      <trkpt lat="43.47969" lon="3.7283">
        <ele>210.3</ele>
        <time>2011-02-18T20:54:27Z</time>
      </trkpt>
      <trkpt lat="43.47974" lon="3.72831">
        <ele>209.7</ele>
        <time>2011-02-18T20:54:28Z</time>
      </trkpt>
      <trkpt lat="43.47979" lon="3.72831">
        <ele>209.3</ele>
        <time>2011-02-18T20:54:29Z</time>
      </trkpt>
      <trkpt lat="43.47983" lon="3.72831">
        <ele>209</ele>
        <time>2011-02-18T20:54:30Z</time>
      </trkpt>
      <trkpt lat="43.47988" lon="3.72833">
        <ele>208.3</ele>
        <time>2011-02-18T20:54:31Z</time>
      </trkpt>
      <trkpt lat="43.47992" lon="3.72834">
        <ele>207.8</ele>
        <time>2011-02-18T20:54:32Z</time>
      </trkpt>
      <trkpt lat="43.47997" lon="3.72835">
        <ele>207.4</ele>
        <time>2011-02-18T20:54:33Z</time>
      </trkpt>
      <trkpt lat="43.48002" lon="3.72836">
        <ele>207</ele>
        <time>2011-02-18T20:54:34Z</time>
      </trkpt>
      <trkpt lat="43.48008" lon="3.72836">
        <ele>206.7</ele>
        <time>2011-02-18T20:54:35Z</time>
      </trkpt>
      <trkpt lat="43.48013" lon="3.72835">
        <ele>206.5</ele>
        <time>2011-02-18T20:54:36Z</time>
      </trkpt>
      <trkpt lat="43.48019" lon="3.72834">
        <ele>206.1</ele>
        <time>2011-02-18T20:54:37Z</time>
      </trkpt>
      <trkpt lat="43.48025" lon="3.72832">
        <ele>205.8</ele>
        <time>2011-02-18T20:54:38Z</time>
      </trkpt>
      <trkpt lat="43.4803" lon="3.72829">
        <ele>205.5</ele>
        <time>2011-02-18T20:54:39Z</time>
      </trkpt>
      <trkpt lat="43.48036" lon="3.72826">
        <ele>205</ele>
        <time>2011-02-18T20:54:40Z</time>
      </trkpt>
      <trkpt lat="43.48042" lon="3.72824">
        <ele>204.5</ele>
        <time>2011-02-18T20:54:41Z</time>
      </trkpt>
      <trkpt lat="43.48047" lon="3.72822">
        <ele>204.2</ele>
        <time>2011-02-18T20:54:42Z</time>
      </trkpt>
      <trkpt lat="43.48053" lon="3.7282">
        <ele>203.9</ele>
        <time>2011-02-18T20:54:43Z</time>
      </trkpt>
      <trkpt lat="43.48059" lon="3.72818">
        <ele>203.4</ele>
        <time>2011-02-18T20:54:44Z</time>
      </trkpt>
      <trkpt lat="43.48065" lon="3.72817">
        <ele>203.1</ele>
        <time>2011-02-18T20:54:45Z</time>
      </trkpt>
      <trkpt lat="43.48071" lon="3.72816">
        <ele>202.8</ele>
        <time>2011-02-18T20:54:46Z</time>
      </trkpt>
      <trkpt lat="43.48077" lon="3.72815">
        <ele>202.1</ele>
        <time>2011-02-18T20:54:47Z</time>
      </trkpt>
      <trkpt lat="43.48082" lon="3.72813">
        <ele>201.6</ele>
        <time>2011-02-18T20:54:48Z</time>
      </trkpt>
      <trkpt lat="43.48088" lon="3.7281">
        <ele>201.2</ele>
        <time>2011-02-18T20:54:49Z</time>
      </trkpt>
      <trkpt lat="43.48094" lon="3.72807">
        <ele>200.8</ele>
        <time>2011-02-18T20:54:50Z</time>
      </trkpt>
      <trkpt lat="43.481" lon="3.72804">
        <ele>200.5</ele>
        <time>2011-02-18T20:54:51Z</time>
      </trkpt>
      <trkpt lat="43.48106" lon="3.728">
        <ele>200.3</ele>
        <time>2011-02-18T20:54:52Z</time>
      </trkpt>
      <trkpt lat="43.48112" lon="3.72796">
        <ele>199.1</ele>
        <time>2011-02-18T20:54:53Z</time>
      </trkpt>
      <trkpt lat="43.48118" lon="3.72791">
        <ele>198.2</ele>
        <time>2011-02-18T20:54:54Z</time>
      </trkpt>
      <trkpt lat="43.48123" lon="3.72786">
        <ele>197.5</ele>
        <time>2011-02-18T20:54:55Z</time>
      </trkpt>
      <trkpt lat="43.48128" lon="3.7278">
        <ele>197.2</ele>
        <time>2011-02-18T20:54:56Z</time>
      </trkpt>
      <trkpt lat="43.48132" lon="3.72776">
        <ele>197</ele>
        <time>2011-02-18T20:54:57Z</time>
      </trkpt>
      <trkpt lat="43.48138" lon="3.72767">
        <ele>196.8</ele>
        <time>2011-02-18T20:54:59Z</time>
      </trkpt>
      <trkpt lat="43.48144" lon="3.72758">
        <ele>196.7</ele>
        <time>2011-02-18T20:55:02Z</time>
      </trkpt>
      <trkpt lat="43.48146" lon="3.72746">
        <ele>196.4</ele>
        <time>2011-02-18T20:55:05Z</time>
      </trkpt>
      <trkpt lat="43.48148" lon="3.72737">
        <ele>196.2</ele>
        <time>2011-02-18T20:55:07Z</time>
      </trkpt>
      <trkpt lat="43.48149" lon="3.72727">
        <ele>195.7</ele>
        <time>2011-02-18T20:55:09Z</time>
      </trkpt>
      <trkpt lat="43.48151" lon="3.72715">
        <ele>194.8</ele>
        <time>2011-02-18T20:55:14Z</time>
      </trkpt>
      <trkpt lat="43.48158" lon="3.72708">
        <ele>195.5</ele>
        <time>2011-02-18T20:55:18Z</time>
      </trkpt>
      <trkpt lat="43.48161" lon="3.72707">
        <ele>195.1</ele>
        <time>2011-02-18T20:55:19Z</time>
      </trkpt>
      <trkpt lat="43.48173" lon="3.72697">
        <ele>194.6</ele>
        <time>2011-02-18T20:55:24Z</time>
      </trkpt>
      <trkpt lat="43.48179" lon="3.7269">
        <ele>195.2</ele>
        <time>2011-02-18T20:55:27Z</time>
      </trkpt>
      <trkpt lat="43.48185" lon="3.72682">
        <ele>195.5</ele>
        <time>2011-02-18T20:55:30Z</time>
      </trkpt>
      <trkpt lat="43.4819" lon="3.72677">
        <ele>195.7</ele>
        <time>2011-02-18T20:55:32Z</time>
      </trkpt>
      <trkpt lat="43.48196" lon="3.72673">
        <ele>195.9</ele>
        <time>2011-02-18T20:55:34Z</time>
      </trkpt>
      <trkpt lat="43.48201" lon="3.72669">
        <ele>196</ele>
        <time>2011-02-18T20:55:36Z</time>
      </trkpt>
      <trkpt lat="43.48206" lon="3.72665">
        <ele>196.3</ele>
        <time>2011-02-18T20:55:38Z</time>
      </trkpt>
      <trkpt lat="43.48212" lon="3.72663">
        <ele>196.5</ele>
        <time>2011-02-18T20:55:40Z</time>
      </trkpt>
      <trkpt lat="43.48218" lon="3.7266">
        <ele>196.7</ele>
        <time>2011-02-18T20:55:42Z</time>
      </trkpt>
      <trkpt lat="43.48226" lon="3.72654">
        <ele>197</ele>
        <time>2011-02-18T20:55:45Z</time>
      </trkpt>
      <trkpt lat="43.48232" lon="3.72651">
        <ele>197.1</ele>
        <time>2011-02-18T20:55:47Z</time>
      </trkpt>
      <trkpt lat="43.48237" lon="3.72648">
        <ele>197.3</ele>
        <time>2011-02-18T20:55:49Z</time>
      </trkpt>
      <trkpt lat="43.48243" lon="3.72645">
        <ele>197.3</ele>
        <time>2011-02-18T20:55:51Z</time>
      </trkpt>
      <trkpt lat="43.48249" lon="3.72642">
        <ele>197.2</ele>
        <time>2011-02-18T20:55:53Z</time>
      </trkpt>
      <trkpt lat="43.48255" lon="3.72638">
        <ele>197.2</ele>
        <time>2011-02-18T20:55:55Z</time>
      </trkpt>
      <trkpt lat="43.48261" lon="3.72634">
        <ele>197.3</ele>
        <time>2011-02-18T20:55:57Z</time>
      </trkpt>
      <trkpt lat="43.48267" lon="3.72629">
        <ele>197.4</ele>
        <time>2011-02-18T20:55:59Z</time>
      </trkpt>
      <trkpt lat="43.48272" lon="3.72623">
        <ele>197.4</ele>
        <time>2011-02-18T20:56:01Z</time>
      </trkpt>
      <trkpt lat="43.48277" lon="3.72617">
        <ele>197.5</ele>
        <time>2011-02-18T20:56:03Z</time>
      </trkpt>
      <trkpt lat="43.48281" lon="3.72611">
        <ele>197.6</ele>
        <time>2011-02-18T20:56:05Z</time>
      </trkpt>
      <trkpt lat="43.48286" lon="3.72604">
        <ele>197.3</ele>
        <time>2011-02-18T20:56:07Z</time>
      </trkpt>
      <trkpt lat="43.48292" lon="3.72598">
        <ele>197.2</ele>
        <time>2011-02-18T20:56:09Z</time>
      </trkpt>
      <trkpt lat="43.48297" lon="3.72592">
        <ele>197.6</ele>
        <time>2011-02-18T20:56:11Z</time>
      </trkpt>
      <trkpt lat="43.48303" lon="3.72586">
        <ele>197.7</ele>
        <time>2011-02-18T20:56:13Z</time>
      </trkpt>
      <trkpt lat="43.4831" lon="3.72579">
        <ele>197.7</ele>
        <time>2011-02-18T20:56:15Z</time>
      </trkpt>
      <trkpt lat="43.48316" lon="3.72571">
        <ele>197.6</ele>
        <time>2011-02-18T20:56:17Z</time>
      </trkpt>
      <trkpt lat="43.48322" lon="3.72562">
        <ele>197.3</ele>
        <time>2011-02-18T20:56:19Z</time>
      </trkpt>
      <trkpt lat="43.48324" lon="3.72557">
        <ele>197.1</ele>
        <time>2011-02-18T20:56:20Z</time>
      </trkpt>
      <trkpt lat="43.4833" lon="3.72542">
        <ele>196.7</ele>
        <time>2011-02-18T20:56:23Z</time>
      </trkpt>
      <trkpt lat="43.48335" lon="3.72533">
        <ele>196.5</ele>
        <time>2011-02-18T20:56:25Z</time>
      </trkpt>
      <trkpt lat="43.48342" lon="3.72525">
        <ele>195.8</ele>
        <time>2011-02-18T20:56:27Z</time>
      </trkpt>
      <trkpt lat="43.48347" lon="3.72516">
        <ele>195.1</ele>
        <time>2011-02-18T20:56:29Z</time>
      </trkpt>
      <trkpt lat="43.4835" lon="3.72506">
        <ele>194.6</ele>
        <time>2011-02-18T20:56:31Z</time>
      </trkpt>
      <trkpt lat="43.48352" lon="3.72496">
        <ele>194.7</ele>
        <time>2011-02-18T20:56:33Z</time>
      </trkpt>
      <trkpt lat="43.48355" lon="3.72488">
        <ele>194.6</ele>
        <time>2011-02-18T20:56:35Z</time>
      </trkpt>
      <trkpt lat="43.48359" lon="3.72479">
        <ele>194.4</ele>
        <time>2011-02-18T20:56:37Z</time>
      </trkpt>
      <trkpt lat="43.48362" lon="3.7247">
        <ele>193.8</ele>
        <time>2011-02-18T20:56:39Z</time>
      </trkpt>
      <trkpt lat="43.48366" lon="3.7246">
        <ele>193.5</ele>
        <time>2011-02-18T20:56:41Z</time>
      </trkpt>
      <trkpt lat="43.48368" lon="3.7245">
        <ele>192.2</ele>
        <time>2011-02-18T20:56:43Z</time>
      </trkpt>
      <trkpt lat="43.4837" lon="3.72442">
        <ele>191.4</ele>
        <time>2011-02-18T20:56:45Z</time>
      </trkpt>
      <trkpt lat="43.48372" lon="3.72433">
        <ele>190.9</ele>
        <time>2011-02-18T20:56:47Z</time>
      </trkpt>
      <trkpt lat="43.48374" lon="3.72424">
        <ele>190.3</ele>
        <time>2011-02-18T20:56:49Z</time>
      </trkpt>
      <trkpt lat="43.48375" lon="3.72416">
        <ele>189.9</ele>
        <time>2011-02-18T20:56:51Z</time>
      </trkpt>
      <trkpt lat="43.48373" lon="3.72404">
        <ele>189.5</ele>
        <time>2011-02-18T20:56:54Z</time>
      </trkpt>
      <trkpt lat="43.48371" lon="3.72392">
        <ele>189</ele>
        <time>2011-02-18T20:56:58Z</time>
      </trkpt>
      <trkpt lat="43.4837" lon="3.72381">
        <ele>187.8</ele>
        <time>2011-02-18T20:57:01Z</time>
      </trkpt>
      <trkpt lat="43.48369" lon="3.72372">
        <ele>187</ele>
        <time>2011-02-18T20:57:03Z</time>
      </trkpt>
      <trkpt lat="43.48366" lon="3.72363">
        <ele>184.9</ele>
        <time>2011-02-18T20:57:05Z</time>
      </trkpt>
      <trkpt lat="43.48362" lon="3.72353">
        <ele>183.1</ele>
        <time>2011-02-18T20:57:08Z</time>
      </trkpt>
      <trkpt lat="43.48357" lon="3.72343">
        <ele>181.8</ele>
        <time>2011-02-18T20:57:11Z</time>
      </trkpt>
      <trkpt lat="43.48353" lon="3.72337">
        <ele>180.8</ele>
        <time>2011-02-18T20:57:13Z</time>
      </trkpt>
      <trkpt lat="43.48348" lon="3.72329">
        <ele>179.9</ele>
        <time>2011-02-18T20:57:15Z</time>
      </trkpt>
      <trkpt lat="43.48345" lon="3.72324">
        <ele>179.7</ele>
        <time>2011-02-18T20:57:16Z</time>
      </trkpt>
      <trkpt lat="43.48341" lon="3.72319">
        <ele>178.5</ele>
        <time>2011-02-18T20:57:17Z</time>
      </trkpt>
      <trkpt lat="43.48337" lon="3.72314">
        <ele>177.6</ele>
        <time>2011-02-18T20:57:18Z</time>
      </trkpt>
      <trkpt lat="43.48333" lon="3.72309">
        <ele>177</ele>
        <time>2011-02-18T20:57:19Z</time>
      </trkpt>
      <trkpt lat="43.48329" lon="3.72304">
        <ele>175.7</ele>
        <time>2011-02-18T20:57:20Z</time>
      </trkpt>
      <trkpt lat="43.48324" lon="3.72299">
        <ele>174.7</ele>
        <time>2011-02-18T20:57:21Z</time>
      </trkpt>
      <trkpt lat="43.4832" lon="3.72294">
        <ele>174</ele>
        <time>2011-02-18T20:57:22Z</time>
      </trkpt>
      <trkpt lat="43.48316" lon="3.72288">
        <ele>173.1</ele>
        <time>2011-02-18T20:57:23Z</time>
      </trkpt>
      <trkpt lat="43.48312" lon="3.72283">
        <ele>172.4</ele>
        <time>2011-02-18T20:57:24Z</time>
      </trkpt>
      <trkpt lat="43.48308" lon="3.72277">
        <ele>171.9</ele>
        <time>2011-02-18T20:57:25Z</time>
      </trkpt>
      <trkpt lat="43.48305" lon="3.72271">
        <ele>171.4</ele>
        <time>2011-02-18T20:57:26Z</time>
      </trkpt>
      <trkpt lat="43.48302" lon="3.72266">
        <ele>171</ele>
        <time>2011-02-18T20:57:27Z</time>
      </trkpt>
      <trkpt lat="43.48298" lon="3.7226">
        <ele>170.8</ele>
        <time>2011-02-18T20:57:28Z</time>
      </trkpt>
      <trkpt lat="43.48295" lon="3.72254">
        <ele>170.1</ele>
        <time>2011-02-18T20:57:29Z</time>
      </trkpt>
      <trkpt lat="43.48291" lon="3.72247">
        <ele>169.6</ele>
        <time>2011-02-18T20:57:30Z</time>
      </trkpt>
      <trkpt lat="43.48286" lon="3.7224">
        <ele>169.2</ele>
        <time>2011-02-18T20:57:31Z</time>
      </trkpt>
      <trkpt lat="43.48282" lon="3.72233">
        <ele>168.9</ele>
        <time>2011-02-18T20:57:32Z</time>
      </trkpt>
      <trkpt lat="43.48277" lon="3.72226">
        <ele>168</ele>
        <time>2011-02-18T20:57:33Z</time>
      </trkpt>
      <trkpt lat="43.48273" lon="3.72219">
        <ele>167.3</ele>
        <time>2011-02-18T20:57:34Z</time>
      </trkpt>
      <trkpt lat="43.48269" lon="3.72213">
        <ele>166.8</ele>
        <time>2011-02-18T20:57:35Z</time>
      </trkpt>
      <trkpt lat="43.48265" lon="3.72208">
        <ele>166.1</ele>
        <time>2011-02-18T20:57:36Z</time>
      </trkpt>
      <trkpt lat="43.48261" lon="3.72203">
        <ele>165.5</ele>
        <time>2011-02-18T20:57:37Z</time>
      </trkpt>
      <trkpt lat="43.48256" lon="3.72194">
        <ele>164.8</ele>
        <time>2011-02-18T20:57:39Z</time>
      </trkpt>
      <trkpt lat="43.48251" lon="3.72187">
        <ele>164.5</ele>
        <time>2011-02-18T20:57:41Z</time>
      </trkpt>
      <trkpt lat="43.48247" lon="3.72179">
        <ele>163.2</ele>
        <time>2011-02-18T20:57:43Z</time>
      </trkpt>
      <trkpt lat="43.48241" lon="3.72171">
        <ele>161.9</ele>
        <time>2011-02-18T20:57:45Z</time>
      </trkpt>
      <trkpt lat="43.48235" lon="3.72162">
        <ele>160.7</ele>
        <time>2011-02-18T20:57:47Z</time>
      </trkpt>
      <trkpt lat="43.48232" lon="3.72158">
        <ele>160.4</ele>
        <time>2011-02-18T20:57:48Z</time>
      </trkpt>
      <trkpt lat="43.48228" lon="3.72152">
        <ele>159.4</ele>
        <time>2011-02-18T20:57:49Z</time>
      </trkpt>
      <trkpt lat="43.48225" lon="3.72147">
        <ele>158.6</ele>
        <time>2011-02-18T20:57:50Z</time>
      </trkpt>
      <trkpt lat="43.4822" lon="3.72138">
        <ele>158</ele>
        <time>2011-02-18T20:57:52Z</time>
      </trkpt>
      <trkpt lat="43.48216" lon="3.72131">
        <ele>157.9</ele>
        <time>2011-02-18T20:57:54Z</time>
      </trkpt>
      <trkpt lat="43.48212" lon="3.72124">
        <ele>158.3</ele>
        <time>2011-02-18T20:57:56Z</time>
      </trkpt>
      <trkpt lat="43.48208" lon="3.72116">
        <ele>158.1</ele>
        <time>2011-02-18T20:57:58Z</time>
      </trkpt>
      <trkpt lat="43.48204" lon="3.72109">
        <ele>157.8</ele>
        <time>2011-02-18T20:58:00Z</time>
      </trkpt>
      <trkpt lat="43.48199" lon="3.72101">
        <ele>158</ele>
        <time>2011-02-18T20:58:02Z</time>
      </trkpt>
      <trkpt lat="43.48195" lon="3.72094">
        <ele>158</ele>
        <time>2011-02-18T20:58:04Z</time>
      </trkpt>
      <trkpt lat="43.4819" lon="3.72085">
        <ele>157.8</ele>
        <time>2011-02-18T20:58:06Z</time>
      </trkpt>
      <trkpt lat="43.48185" lon="3.72077">
        <ele>157.7</ele>
        <time>2011-02-18T20:58:08Z</time>
      </trkpt>
      <trkpt lat="43.48179" lon="3.72069">
        <ele>157.6</ele>
        <time>2011-02-18T20:58:10Z</time>
      </trkpt>
      <trkpt lat="43.48172" lon="3.7206">
        <ele>156.6</ele>
        <time>2011-02-18T20:58:12Z</time>
      </trkpt>
      <trkpt lat="43.48166" lon="3.72053">
        <ele>155.9</ele>
        <time>2011-02-18T20:58:14Z</time>
      </trkpt>
      <trkpt lat="43.48162" lon="3.72049">
        <ele>155.5</ele>
        <time>2011-02-18T20:58:15Z</time>
      </trkpt>
      <trkpt lat="43.48155" lon="3.72042">
        <ele>154.7</ele>
        <time>2011-02-18T20:58:17Z</time>
      </trkpt>
      <trkpt lat="43.48148" lon="3.72038">
        <ele>153.8</ele>
        <time>2011-02-18T20:58:19Z</time>
      </trkpt>
      <trkpt lat="43.48141" lon="3.72032">
        <ele>153.1</ele>
        <time>2011-02-18T20:58:21Z</time>
      </trkpt>
      <trkpt lat="43.48138" lon="3.72029">
        <ele>152.7</ele>
        <time>2011-02-18T20:58:22Z</time>
      </trkpt>
      <trkpt lat="43.48129" lon="3.72018">
        <ele>151.6</ele>
        <time>2011-02-18T20:58:25Z</time>
      </trkpt>
      <trkpt lat="43.48123" lon="3.72011">
        <ele>150.2</ele>
        <time>2011-02-18T20:58:27Z</time>
      </trkpt>
      <trkpt lat="43.48116" lon="3.72003">
        <ele>148.6</ele>
        <time>2011-02-18T20:58:29Z</time>
      </trkpt>
      <trkpt lat="43.48112" lon="3.71998">
        <ele>147.4</ele>
        <time>2011-02-18T20:58:30Z</time>
      </trkpt>
      <trkpt lat="43.48109" lon="3.71993">
        <ele>146.5</ele>
        <time>2011-02-18T20:58:31Z</time>
      </trkpt>
      <trkpt lat="43.48106" lon="3.71986">
        <ele>145.9</ele>
        <time>2011-02-18T20:58:32Z</time>
      </trkpt>
      <trkpt lat="43.48104" lon="3.7198">
        <ele>144.3</ele>
        <time>2011-02-18T20:58:33Z</time>
      </trkpt>
      <trkpt lat="43.48102" lon="3.71973">
        <ele>143.2</ele>
        <time>2011-02-18T20:58:34Z</time>
      </trkpt>
      <trkpt lat="43.48099" lon="3.71967">
        <ele>142.3</ele>
        <time>2011-02-18T20:58:35Z</time>
      </trkpt>
      <trkpt lat="43.48097" lon="3.71961">
        <ele>141.2</ele>
        <time>2011-02-18T20:58:36Z</time>
      </trkpt>
      <trkpt lat="43.48096" lon="3.71955">
        <ele>140.3</ele>
        <time>2011-02-18T20:58:37Z</time>
      </trkpt>
      <trkpt lat="43.48094" lon="3.71949">
        <ele>139.6</ele>
        <time>2011-02-18T20:58:38Z</time>
      </trkpt>
      <trkpt lat="43.48093" lon="3.71942">
        <ele>139.1</ele>
        <time>2011-02-18T20:58:39Z</time>
      </trkpt>
      <trkpt lat="43.48092" lon="3.71935">
        <ele>137.9</ele>
        <time>2011-02-18T20:58:40Z</time>
      </trkpt>
      <trkpt lat="43.4809" lon="3.71928">
        <ele>137</ele>
        <time>2011-02-18T20:58:41Z</time>
      </trkpt>
      <trkpt lat="43.48089" lon="3.71921">
        <ele>136.3</ele>
        <time>2011-02-18T20:58:42Z</time>
      </trkpt>
      <trkpt lat="43.48087" lon="3.71914">
        <ele>135.2</ele>
        <time>2011-02-18T20:58:43Z</time>
      </trkpt>
      <trkpt lat="43.48086" lon="3.71907">
        <ele>134.3</ele>
        <time>2011-02-18T20:58:44Z</time>
      </trkpt>
      <trkpt lat="43.48084" lon="3.719">
        <ele>133.7</ele>
        <time>2011-02-18T20:58:45Z</time>
      </trkpt>
      <trkpt lat="43.48082" lon="3.71893">
        <ele>132.8</ele>
        <time>2011-02-18T20:58:46Z</time>
      </trkpt>
      <trkpt lat="43.4808" lon="3.71887">
        <ele>132.1</ele>
        <time>2011-02-18T20:58:47Z</time>
      </trkpt>
      <trkpt lat="43.48078" lon="3.71876">
        <ele>130.5</ele>
        <time>2011-02-18T20:58:49Z</time>
      </trkpt>
      <trkpt lat="43.48075" lon="3.71864">
        <ele>129.1</ele>
        <time>2011-02-18T20:58:51Z</time>
      </trkpt>
      <trkpt lat="43.48072" lon="3.71853">
        <ele>128.1</ele>
        <time>2011-02-18T20:58:53Z</time>
      </trkpt>
      <trkpt lat="43.4807" lon="3.71843">
        <ele>127.5</ele>
        <time>2011-02-18T20:58:55Z</time>
      </trkpt>
      <trkpt lat="43.4807" lon="3.71834">
        <ele>126.6</ele>
        <time>2011-02-18T20:58:57Z</time>
      </trkpt>
      <trkpt lat="43.48068" lon="3.71824">
        <ele>125.6</ele>
        <time>2011-02-18T20:58:59Z</time>
      </trkpt>
      <trkpt lat="43.48067" lon="3.71818">
        <ele>125.1</ele>
        <time>2011-02-18T20:59:00Z</time>
      </trkpt>
      <trkpt lat="43.48066" lon="3.71812">
        <ele>124.7</ele>
        <time>2011-02-18T20:59:01Z</time>
      </trkpt>
      <trkpt lat="43.48065" lon="3.71806">
        <ele>123.9</ele>
        <time>2011-02-18T20:59:02Z</time>
      </trkpt>
      <trkpt lat="43.48062" lon="3.71794">
        <ele>122.8</ele>
        <time>2011-02-18T20:59:04Z</time>
      </trkpt>
      <trkpt lat="43.4806" lon="3.71789">
        <ele>121.5</ele>
        <time>2011-02-18T20:59:05Z</time>
      </trkpt>
      <trkpt lat="43.48058" lon="3.71783">
        <ele>120.4</ele>
        <time>2011-02-18T20:59:06Z</time>
      </trkpt>
      <trkpt lat="43.48056" lon="3.71777">
        <ele>119.7</ele>
        <time>2011-02-18T20:59:07Z</time>
      </trkpt>
      <trkpt lat="43.48053" lon="3.71771">
        <ele>119</ele>
        <time>2011-02-18T20:59:08Z</time>
      </trkpt>
      <trkpt lat="43.4805" lon="3.71765">
        <ele>118.5</ele>
        <time>2011-02-18T20:59:09Z</time>
      </trkpt>
      <trkpt lat="43.48046" lon="3.71759">
        <ele>118.1</ele>
        <time>2011-02-18T20:59:10Z</time>
      </trkpt>
      <trkpt lat="43.48043" lon="3.71753">
        <ele>117.8</ele>
        <time>2011-02-18T20:59:11Z</time>
      </trkpt>
      <trkpt lat="43.48039" lon="3.71747">
        <ele>117.2</ele>
        <time>2011-02-18T20:59:12Z</time>
      </trkpt>
      <trkpt lat="43.48035" lon="3.71742">
        <ele>116.7</ele>
        <time>2011-02-18T20:59:13Z</time>
      </trkpt>
      <trkpt lat="43.48031" lon="3.71737">
        <ele>116.4</ele>
        <time>2011-02-18T20:59:14Z</time>
      </trkpt>
      <trkpt lat="43.48026" lon="3.71733">
        <ele>115.8</ele>
        <time>2011-02-18T20:59:15Z</time>
      </trkpt>
      <trkpt lat="43.48021" lon="3.71729">
        <ele>115.4</ele>
        <time>2011-02-18T20:59:16Z</time>
      </trkpt>
      <trkpt lat="43.48017" lon="3.71725">
        <ele>115.1</ele>
        <time>2011-02-18T20:59:17Z</time>
      </trkpt>
      <trkpt lat="43.48012" lon="3.71721">
        <ele>114.9</ele>
        <time>2011-02-18T20:59:18Z</time>
      </trkpt>
      <trkpt lat="43.48008" lon="3.71718">
        <ele>114.8</ele>
        <time>2011-02-18T20:59:19Z</time>
      </trkpt>
      <trkpt lat="43.48001" lon="3.71713">
        <ele>115.2</ele>
        <time>2011-02-18T20:59:21Z</time>
      </trkpt>
      <trkpt lat="43.47995" lon="3.71714">
        <ele>115.8</ele>
        <time>2011-02-18T20:59:23Z</time>
      </trkpt>
      <trkpt lat="43.47992" lon="3.71715">
        <ele>116.7</ele>
        <time>2011-02-18T20:59:24Z</time>
      </trkpt>
      <trkpt lat="43.47979" lon="3.71717">
        <ele>119</ele>
        <time>2011-02-18T20:59:29Z</time>
      </trkpt>
      <trkpt lat="43.47971" lon="3.71712">
        <ele>119.4</ele>
        <time>2011-02-18T20:59:33Z</time>
      </trkpt>
      <trkpt lat="43.47965" lon="3.71707">
        <ele>120.4</ele>
        <time>2011-02-18T20:59:37Z</time>
      </trkpt>
      <trkpt lat="43.47958" lon="3.717">
        <ele>120.4</ele>
        <time>2011-02-18T20:59:40Z</time>
      </trkpt>
      <trkpt lat="43.47953" lon="3.71696">
        <ele>120.4</ele>
        <time>2011-02-18T20:59:42Z</time>
      </trkpt>
      <trkpt lat="43.47948" lon="3.71691">
        <ele>119.8</ele>
        <time>2011-02-18T20:59:44Z</time>
      </trkpt>
      <trkpt lat="43.47942" lon="3.71686">
        <ele>119</ele>
        <time>2011-02-18T20:59:46Z</time>
      </trkpt>
      <trkpt lat="43.47937" lon="3.7168">
        <ele>118.2</ele>
        <time>2011-02-18T20:59:48Z</time>
      </trkpt>
      <trkpt lat="43.47931" lon="3.71674">
        <ele>116.8</ele>
        <time>2011-02-18T20:59:50Z</time>
      </trkpt>
      <trkpt lat="43.47924" lon="3.71668">
        <ele>115.4</ele>
        <time>2011-02-18T20:59:52Z</time>
      </trkpt>
      <trkpt lat="43.47919" lon="3.71666">
        <ele>114.3</ele>
        <time>2011-02-18T20:59:53Z</time>
      </trkpt>
      <trkpt lat="43.47915" lon="3.71664">
        <ele>113.4</ele>
        <time>2011-02-18T20:59:54Z</time>
      </trkpt>
      <trkpt lat="43.4791" lon="3.71662">
        <ele>112.8</ele>
        <time>2011-02-18T20:59:55Z</time>
      </trkpt>
      <trkpt lat="43.47905" lon="3.71659">
        <ele>111.9</ele>
        <time>2011-02-18T20:59:56Z</time>
      </trkpt>
      <trkpt lat="43.47899" lon="3.71656">
        <ele>111.2</ele>
        <time>2011-02-18T20:59:57Z</time>
      </trkpt>
      <trkpt lat="43.47894" lon="3.71653">
        <ele>110.7</ele>
        <time>2011-02-18T20:59:58Z</time>
      </trkpt>
      <trkpt lat="43.47889" lon="3.7165">
        <ele>110.3</ele>
        <time>2011-02-18T20:59:59Z</time>
      </trkpt>
      <trkpt lat="43.47884" lon="3.71648">
        <ele>109.5</ele>
        <time>2011-02-18T21:00:00Z</time>
      </trkpt>
      <trkpt lat="43.47879" lon="3.71645">
        <ele>109</ele>
        <time>2011-02-18T21:00:01Z</time>
      </trkpt>
      <trkpt lat="43.47874" lon="3.71642">
        <ele>108.5</ele>
        <time>2011-02-18T21:00:02Z</time>
      </trkpt>
      <trkpt lat="43.4787" lon="3.71638">
        <ele>107.6</ele>
        <time>2011-02-18T21:00:03Z</time>
      </trkpt>
      <trkpt lat="43.47866" lon="3.71633">
        <ele>107</ele>
        <time>2011-02-18T21:00:04Z</time>
      </trkpt>
      <trkpt lat="43.47861" lon="3.71624">
        <ele>104.8</ele>
        <time>2011-02-18T21:00:06Z</time>
      </trkpt>
      <trkpt lat="43.47858" lon="3.71613">
        <ele>102.7</ele>
        <time>2011-02-18T21:00:08Z</time>
      </trkpt>
      <trkpt lat="43.47857" lon="3.71602">
        <ele>100.9</ele>
        <time>2011-02-18T21:00:10Z</time>
      </trkpt>
      <trkpt lat="43.47855" lon="3.71591">
        <ele>98.9</ele>
        <time>2011-02-18T21:00:12Z</time>
      </trkpt>
      <trkpt lat="43.47852" lon="3.71587">
        <ele>97.8</ele>
        <time>2011-02-18T21:00:13Z</time>
      </trkpt>
      <trkpt lat="43.47847" lon="3.71582">
        <ele>96.9</ele>
        <time>2011-02-18T21:00:14Z</time>
      </trkpt>
      <trkpt lat="43.47843" lon="3.71578">
        <ele>96.3</ele>
        <time>2011-02-18T21:00:15Z</time>
      </trkpt>
      <trkpt lat="43.47839" lon="3.71574">
        <ele>95.5</ele>
        <time>2011-02-18T21:00:16Z</time>
      </trkpt>
      <trkpt lat="43.47832" lon="3.71567">
        <ele>94.4</ele>
        <time>2011-02-18T21:00:18Z</time>
      </trkpt>
      <trkpt lat="43.47826" lon="3.71559">
        <ele>93</ele>
        <time>2011-02-18T21:00:20Z</time>
      </trkpt>
      <trkpt lat="43.47821" lon="3.71549">
        <ele>92</ele>
        <time>2011-02-18T21:00:22Z</time>
      </trkpt>
      <trkpt lat="43.47818" lon="3.71544">
        <ele>91.6</ele>
        <time>2011-02-18T21:00:23Z</time>
      </trkpt>
      <trkpt lat="43.47816" lon="3.71538">
        <ele>91.3</ele>
        <time>2011-02-18T21:00:24Z</time>
      </trkpt>
      <trkpt lat="43.47812" lon="3.71533">
        <ele>90.5</ele>
        <time>2011-02-18T21:00:25Z</time>
      </trkpt>
      <trkpt lat="43.47809" lon="3.71529">
        <ele>89.9</ele>
        <time>2011-02-18T21:00:26Z</time>
      </trkpt>
      <trkpt lat="43.47805" lon="3.71524">
        <ele>89.4</ele>
        <time>2011-02-18T21:00:27Z</time>
      </trkpt>
      <trkpt lat="43.47801" lon="3.7152">
        <ele>88.6</ele>
        <time>2011-02-18T21:00:28Z</time>
      </trkpt>
      <trkpt lat="43.47796" lon="3.71516">
        <ele>88</ele>
        <time>2011-02-18T21:00:29Z</time>
      </trkpt>
      <trkpt lat="43.47792" lon="3.71512">
        <ele>87.6</ele>
        <time>2011-02-18T21:00:30Z</time>
      </trkpt>
      <trkpt lat="43.47788" lon="3.71507">
        <ele>85.8</ele>
        <time>2011-02-18T21:00:31Z</time>
      </trkpt>
      <trkpt lat="43.47785" lon="3.715">
        <ele>84.5</ele>
        <time>2011-02-18T21:00:32Z</time>
      </trkpt>
      <trkpt lat="43.47782" lon="3.71494">
        <ele>83.5</ele>
        <time>2011-02-18T21:00:33Z</time>
      </trkpt>
      <trkpt lat="43.47778" lon="3.71488">
        <ele>82.8</ele>
        <time>2011-02-18T21:00:34Z</time>
      </trkpt>
      <trkpt lat="43.47774" lon="3.71482">
        <ele>81.8</ele>
        <time>2011-02-18T21:00:35Z</time>
      </trkpt>
      <trkpt lat="43.47769" lon="3.71477">
        <ele>81</ele>
        <time>2011-02-18T21:00:36Z</time>
      </trkpt>
      <trkpt lat="43.47764" lon="3.71472">
        <ele>80.4</ele>
        <time>2011-02-18T21:00:37Z</time>
      </trkpt>
      <trkpt lat="43.4776" lon="3.71469">
        <ele>79.8</ele>
        <time>2011-02-18T21:00:38Z</time>
      </trkpt>
      <trkpt lat="43.47756" lon="3.71465">
        <ele>79.4</ele>
        <time>2011-02-18T21:00:39Z</time>
      </trkpt>
      <trkpt lat="43.47751" lon="3.71461">
        <ele>79</ele>
        <time>2011-02-18T21:00:40Z</time>
      </trkpt>
      <trkpt lat="43.47744" lon="3.71457">
        <ele>77.6</ele>
        <time>2011-02-18T21:00:41Z</time>
      </trkpt>
      <trkpt lat="43.47738" lon="3.71454">
        <ele>76.5</ele>
        <time>2011-02-18T21:00:42Z</time>
      </trkpt>
      <trkpt lat="43.47731" lon="3.71451">
        <ele>75.7</ele>
        <time>2011-02-18T21:00:43Z</time>
      </trkpt>
      <trkpt lat="43.47725" lon="3.7145">
        <ele>75.1</ele>
        <time>2011-02-18T21:00:44Z</time>
      </trkpt>
      <trkpt lat="43.47718" lon="3.71452">
        <ele>74.3</ele>
        <time>2011-02-18T21:00:46Z</time>
      </trkpt>
      <trkpt lat="43.47709" lon="3.71454">
        <ele>75.4</ele>
        <time>2011-02-18T21:00:50Z</time>
      </trkpt>
      <trkpt lat="43.47702" lon="3.7146">
        <ele>76.5</ele>
        <time>2011-02-18T21:00:55Z</time>
      </trkpt>
      <trkpt lat="43.47694" lon="3.71466">
        <ele>78</ele>
        <time>2011-02-18T21:01:01Z</time>
      </trkpt>
      <trkpt lat="43.47688" lon="3.71471">
        <ele>78.4</ele>
        <time>2011-02-18T21:01:06Z</time>
      </trkpt>
      <trkpt lat="43.47681" lon="3.71478">
        <ele>79.4</ele>
        <time>2011-02-18T21:01:11Z</time>
      </trkpt>
      <trkpt lat="43.47673" lon="3.71483">
        <ele>80.3</ele>
        <time>2011-02-18T21:01:16Z</time>
      </trkpt>
      <trkpt lat="43.47665" lon="3.71489">
        <ele>81.7</ele>
        <time>2011-02-18T21:01:21Z</time>
      </trkpt>
      <trkpt lat="43.47658" lon="3.71496">
        <ele>82.7</ele>
        <time>2011-02-18T21:01:26Z</time>
      </trkpt>
      <trkpt lat="43.47657" lon="3.71497">
        <ele>82.7</ele>
        <time>2011-02-18T21:01:27Z</time>
      </trkpt>
      <trkpt lat="43.47644" lon="3.71507">
        <ele>84.6</ele>
        <time>2011-02-18T21:01:37Z</time>
      </trkpt>
      <trkpt lat="43.47637" lon="3.71513">
        <ele>86.2</ele>
        <time>2011-02-18T21:01:43Z</time>
      </trkpt>
      <trkpt lat="43.47629" lon="3.71519">
        <ele>87.8</ele>
        <time>2011-02-18T21:01:49Z</time>
      </trkpt>
      <trkpt lat="43.47622" lon="3.71525">
        <ele>90</ele>
        <time>2011-02-18T21:02:08Z</time>
      </trkpt>
      <trkpt lat="43.47615" lon="3.71531">
        <ele>91.1</ele>
        <time>2011-02-18T21:02:18Z</time>
      </trkpt>
      <trkpt lat="43.47607" lon="3.71537">
        <ele>91.5</ele>
        <time>2011-02-18T21:02:27Z</time>
      </trkpt>
      <trkpt lat="43.47606" lon="3.71537">
        <ele>91.4</ele>
        <time>2011-02-18T21:02:28Z</time>
      </trkpt>
      <trkpt lat="43.47592" lon="3.71546">
        <ele>95.7</ele>
        <time>2011-02-18T21:02:43Z</time>
      </trkpt>
      <trkpt lat="43.47585" lon="3.7155">
        <ele>95.8</ele>
        <time>2011-02-18T21:02:54Z</time>
      </trkpt>
      <trkpt lat="43.47578" lon="3.71555">
        <ele>96.4</ele>
        <time>2011-02-18T21:02:57Z</time>
      </trkpt>
      <trkpt lat="43.47572" lon="3.71559">
        <ele>96.8</ele>
        <time>2011-02-18T21:03:00Z</time>
      </trkpt>
      <trkpt lat="43.47564" lon="3.71564">
        <ele>98.5</ele>
        <time>2011-02-18T21:03:04Z</time>
      </trkpt>
      <trkpt lat="43.47557" lon="3.71567">
        <ele>99.5</ele>
        <time>2011-02-18T21:03:07Z</time>
      </trkpt>
      <trkpt lat="43.47551" lon="3.71569">
        <ele>99.8</ele>
        <time>2011-02-18T21:03:10Z</time>
      </trkpt>
      <trkpt lat="43.47542" lon="3.71572">
        <ele>101.3</ele>
        <time>2011-02-18T21:03:14Z</time>
      </trkpt>
      <trkpt lat="43.47534" lon="3.71576">
        <ele>102.3</ele>
        <time>2011-02-18T21:03:18Z</time>
      </trkpt>
      <trkpt lat="43.47527" lon="3.71581">
        <ele>103.2</ele>
        <time>2011-02-18T21:03:22Z</time>
      </trkpt>
      <trkpt lat="43.47519" lon="3.71584">
        <ele>103.8</ele>
        <time>2011-02-18T21:03:26Z</time>
      </trkpt>
      <trkpt lat="43.47512" lon="3.71586">
        <ele>104.3</ele>
        <time>2011-02-18T21:03:29Z</time>
      </trkpt>
      <trkpt lat="43.4751" lon="3.71587">
        <ele>104.9</ele>
        <time>2011-02-18T21:03:30Z</time>
      </trkpt>
      <trkpt lat="43.47498" lon="3.71594">
        <ele>106.9</ele>
        <time>2011-02-18T21:03:37Z</time>
      </trkpt>
      <trkpt lat="43.47491" lon="3.71597">
        <ele>107.6</ele>
        <time>2011-02-18T21:03:41Z</time>
      </trkpt>
      <trkpt lat="43.47483" lon="3.716">
        <ele>108.3</ele>
        <time>2011-02-18T21:03:45Z</time>
      </trkpt>
      <trkpt lat="43.47476" lon="3.71602">
        <ele>109.8</ele>
        <time>2011-02-18T21:03:49Z</time>
      </trkpt>
      <trkpt lat="43.47468" lon="3.71607">
        <ele>110.9</ele>
        <time>2011-02-18T21:03:54Z</time>
      </trkpt>
      <trkpt lat="43.47461" lon="3.71611">
        <ele>111.3</ele>
        <time>2011-02-18T21:03:58Z</time>
      </trkpt>
      <trkpt lat="43.47454" lon="3.71617">
        <ele>113.7</ele>
        <time>2011-02-18T21:04:03Z</time>
      </trkpt>
      <trkpt lat="43.47446" lon="3.71623">
        <ele>115.2</ele>
        <time>2011-02-18T21:04:08Z</time>
      </trkpt>
      <trkpt lat="43.47439" lon="3.71627">
        <ele>115.6</ele>
        <time>2011-02-18T21:04:12Z</time>
      </trkpt>
      <trkpt lat="43.47432" lon="3.71633">
        <ele>116.5</ele>
        <time>2011-02-18T21:04:17Z</time>
      </trkpt>
      <trkpt lat="43.47423" lon="3.71637">
        <ele>117.4</ele>
        <time>2011-02-18T21:04:22Z</time>
      </trkpt>
      <trkpt lat="43.47416" lon="3.71641">
        <ele>118.1</ele>
        <time>2011-02-18T21:04:27Z</time>
      </trkpt>
      <trkpt lat="43.47413" lon="3.71651">
        <ele>118.4</ele>
        <time>2011-02-18T21:04:34Z</time>
      </trkpt>
      <trkpt lat="43.47412" lon="3.71652">
        <ele>118.5</ele>
        <time>2011-02-18T21:04:35Z</time>
      </trkpt>
      <trkpt lat="43.47411" lon="3.71664">
        <ele>119.4</ele>
        <time>2011-02-18T21:07:18Z</time>
      </trkpt>
      <trkpt lat="43.47408" lon="3.71683">
        <ele>119.8</ele>
        <time>2011-02-18T21:07:25Z</time>
      </trkpt>
      <trkpt lat="43.47406" lon="3.71694">
        <ele>119.6</ele>
        <time>2011-02-18T21:07:29Z</time>
      </trkpt>
      <trkpt lat="43.47403" lon="3.71706">
        <ele>119.3</ele>
        <time>2011-02-18T21:07:33Z</time>
      </trkpt>
      <trkpt lat="43.47399" lon="3.71717">
        <ele>120.8</ele>
        <time>2011-02-18T21:07:37Z</time>
      </trkpt>
      <trkpt lat="43.47394" lon="3.71726">
        <ele>121</ele>
        <time>2011-02-18T21:07:41Z</time>
      </trkpt>
      <trkpt lat="43.47388" lon="3.71735">
        <ele>122</ele>
        <time>2011-02-18T21:07:45Z</time>
      </trkpt>
      <trkpt lat="43.47381" lon="3.71744">
        <ele>122.6</ele>
        <time>2011-02-18T21:07:49Z</time>
      </trkpt>
      <trkpt lat="43.47376" lon="3.71754">
        <ele>123.1</ele>
        <time>2011-02-18T21:07:53Z</time>
      </trkpt>
      <trkpt lat="43.47372" lon="3.71762">
        <ele>123.5</ele>
        <time>2011-02-18T21:07:56Z</time>
      </trkpt>
      <trkpt lat="43.47367" lon="3.71772">
        <ele>124.2</ele>
        <time>2011-02-18T21:08:00Z</time>
      </trkpt>
      <trkpt lat="43.47363" lon="3.7178">
        <ele>124.5</ele>
        <time>2011-02-18T21:08:03Z</time>
      </trkpt>
      <trkpt lat="43.47359" lon="3.71787">
        <ele>124.8</ele>
        <time>2011-02-18T21:08:06Z</time>
      </trkpt>
      <trkpt lat="43.47355" lon="3.71794">
        <ele>125.3</ele>
        <time>2011-02-18T21:08:09Z</time>
      </trkpt>
      <trkpt lat="43.4735" lon="3.71802">
        <ele>125.9</ele>
        <time>2011-02-18T21:08:12Z</time>
      </trkpt>
      <trkpt lat="43.47345" lon="3.71809">
        <ele>125.9</ele>
        <time>2011-02-18T21:08:15Z</time>
      </trkpt>
      <trkpt lat="43.4734" lon="3.71815">
        <ele>125.9</ele>
        <time>2011-02-18T21:08:18Z</time>
      </trkpt>
      <trkpt lat="43.47338" lon="3.71817">
        <ele>126</ele>
        <time>2011-02-18T21:08:19Z</time>
      </trkpt>
      <trkpt lat="43.47329" lon="3.71828">
        <ele>126.6</ele>
        <time>2011-02-18T21:08:24Z</time>
      </trkpt>
      <trkpt lat="43.47324" lon="3.71834">
        <ele>126.4</ele>
        <time>2011-02-18T21:08:27Z</time>
      </trkpt>
      <trkpt lat="43.47318" lon="3.7184">
        <ele>126.6</ele>
        <time>2011-02-18T21:08:30Z</time>
      </trkpt>
      <trkpt lat="43.47312" lon="3.71846">
        <ele>127.3</ele>
        <time>2011-02-18T21:08:33Z</time>
      </trkpt>
      <trkpt lat="43.47306" lon="3.71851">
        <ele>127.4</ele>
        <time>2011-02-18T21:08:36Z</time>
      </trkpt>
      <trkpt lat="43.473" lon="3.71856">
        <ele>127.3</ele>
        <time>2011-02-18T21:08:39Z</time>
      </trkpt>
      <trkpt lat="43.47294" lon="3.71862">
        <ele>128</ele>
        <time>2011-02-18T21:08:42Z</time>
      </trkpt>
      <trkpt lat="43.47288" lon="3.71867">
        <ele>128.7</ele>
        <time>2011-02-18T21:08:45Z</time>
      </trkpt>
      <trkpt lat="43.47282" lon="3.71872">
        <ele>129.2</ele>
        <time>2011-02-18T21:08:48Z</time>
      </trkpt>
      <trkpt lat="43.47275" lon="3.71876">
        <ele>129.5</ele>
        <time>2011-02-18T21:08:51Z</time>
      </trkpt>
      <trkpt lat="43.47269" lon="3.71882">
        <ele>130</ele>
        <time>2011-02-18T21:08:54Z</time>
      </trkpt>
      <trkpt lat="43.47263" lon="3.71886">
        <ele>130.4</ele>
        <time>2011-02-18T21:08:57Z</time>
      </trkpt>
      <trkpt lat="43.47258" lon="3.71893">
        <ele>131</ele>
        <time>2011-02-18T21:09:00Z</time>
      </trkpt>
      <trkpt lat="43.47253" lon="3.71903">
        <ele>132.3</ele>
        <time>2011-02-18T21:09:04Z</time>
      </trkpt>
      <trkpt lat="43.47251" lon="3.71914">
        <ele>133.1</ele>
        <time>2011-02-18T21:09:08Z</time>
      </trkpt>
      <trkpt lat="43.47251" lon="3.71926">
        <ele>133.3</ele>
        <time>2011-02-18T21:09:12Z</time>
      </trkpt>
      <trkpt lat="43.47254" lon="3.71937">
        <ele>133.6</ele>
        <time>2011-02-18T21:09:16Z</time>
      </trkpt>
      <trkpt lat="43.47258" lon="3.71948">
        <ele>133.9</ele>
        <time>2011-02-18T21:09:20Z</time>
      </trkpt>
      <trkpt lat="43.47259" lon="3.7195">
        <ele>133.9</ele>
        <time>2011-02-18T21:09:21Z</time>
      </trkpt>
      <trkpt lat="43.47269" lon="3.71964">
        <ele>133.9</ele>
        <time>2011-02-18T21:09:28Z</time>
      </trkpt>
      <trkpt lat="43.47275" lon="3.71972">
        <ele>133.9</ele>
        <time>2011-02-18T21:09:32Z</time>
      </trkpt>
      <trkpt lat="43.47281" lon="3.7198">
        <ele>135.2</ele>
        <time>2011-02-18T21:09:36Z</time>
      </trkpt>
      <trkpt lat="43.47285" lon="3.71989">
        <ele>135.5</ele>
        <time>2011-02-18T21:09:40Z</time>
      </trkpt>
      <trkpt lat="43.47291" lon="3.71997">
        <ele>136.2</ele>
        <time>2011-02-18T21:09:44Z</time>
      </trkpt>
      <trkpt lat="43.47297" lon="3.72005">
        <ele>136.6</ele>
        <time>2011-02-18T21:09:48Z</time>
      </trkpt>
      <trkpt lat="43.47303" lon="3.72013">
        <ele>136.9</ele>
        <time>2011-02-18T21:09:52Z</time>
      </trkpt>
      <trkpt lat="43.47309" lon="3.72022">
        <ele>137.4</ele>
        <time>2011-02-18T21:09:56Z</time>
      </trkpt>
      <trkpt lat="43.47315" lon="3.7203">
        <ele>138.5</ele>
        <time>2011-02-18T21:10:00Z</time>
      </trkpt>
      <trkpt lat="43.47322" lon="3.72037">
        <ele>138.9</ele>
        <time>2011-02-18T21:10:04Z</time>
      </trkpt>
      <trkpt lat="43.47328" lon="3.72044">
        <ele>139.8</ele>
        <time>2011-02-18T21:10:08Z</time>
      </trkpt>
      <trkpt lat="43.47335" lon="3.72051">
        <ele>140.3</ele>
        <time>2011-02-18T21:10:12Z</time>
      </trkpt>
      <trkpt lat="43.47342" lon="3.72056">
        <ele>140.9</ele>
        <time>2011-02-18T21:10:16Z</time>
      </trkpt>
      <trkpt lat="43.47349" lon="3.72062">
        <ele>141.6</ele>
        <time>2011-02-18T21:10:20Z</time>
      </trkpt>
      <trkpt lat="43.47355" lon="3.72068">
        <ele>141.3</ele>
        <time>2011-02-18T21:10:24Z</time>
      </trkpt>
      <trkpt lat="43.47357" lon="3.72069">
        <ele>141.5</ele>
        <time>2011-02-18T21:10:25Z</time>
      </trkpt>
      <trkpt lat="43.47369" lon="3.72077">
        <ele>142.7</ele>
        <time>2011-02-18T21:10:32Z</time>
      </trkpt>
      <trkpt lat="43.47377" lon="3.72082">
        <ele>143.3</ele>
        <time>2011-02-18T21:10:36Z</time>
      </trkpt>
      <trkpt lat="43.47383" lon="3.72087">
        <ele>143.8</ele>
        <time>2011-02-18T21:10:40Z</time>
      </trkpt>
      <trkpt lat="43.47391" lon="3.72092">
        <ele>144.3</ele>
        <time>2011-02-18T21:10:44Z</time>
      </trkpt>
      <trkpt lat="43.47398" lon="3.72096">
        <ele>144.9</ele>
        <time>2011-02-18T21:10:48Z</time>
      </trkpt>
      <trkpt lat="43.47406" lon="3.72099">
        <ele>145.3</ele>
        <time>2011-02-18T21:10:52Z</time>
      </trkpt>
      <trkpt lat="43.47414" lon="3.72101">
        <ele>147.1</ele>
        <time>2011-02-18T21:10:56Z</time>
      </trkpt>
      <trkpt lat="43.47421" lon="3.72103">
        <ele>147.2</ele>
        <time>2011-02-18T21:11:00Z</time>
      </trkpt>
      <trkpt lat="43.47429" lon="3.72105">
        <ele>147.9</ele>
        <time>2011-02-18T21:11:04Z</time>
      </trkpt>
      <trkpt lat="43.47436" lon="3.72108">
        <ele>147.9</ele>
        <time>2011-02-18T21:11:08Z</time>
      </trkpt>
      <trkpt lat="43.47444" lon="3.72112">
        <ele>147.7</ele>
        <time>2011-02-18T21:11:12Z</time>
      </trkpt>
      <trkpt lat="43.47451" lon="3.72116">
        <ele>148.1</ele>
        <time>2011-02-18T21:11:16Z</time>
      </trkpt>
      <trkpt lat="43.47458" lon="3.7212">
        <ele>149.1</ele>
        <time>2011-02-18T21:11:20Z</time>
      </trkpt>
      <trkpt lat="43.47465" lon="3.72124">
        <ele>149.8</ele>
        <time>2011-02-18T21:11:24Z</time>
      </trkpt>
      <trkpt lat="43.47472" lon="3.72128">
        <ele>150.7</ele>
        <time>2011-02-18T21:11:28Z</time>
      </trkpt>
      <trkpt lat="43.47474" lon="3.7213">
        <ele>150.7</ele>
        <time>2011-02-18T21:11:29Z</time>
      </trkpt>
      <trkpt lat="43.47485" lon="3.7214">
        <ele>151.4</ele>
        <time>2011-02-18T21:11:36Z</time>
      </trkpt>
      <trkpt lat="43.4749" lon="3.72147">
        <ele>151.6</ele>
        <time>2011-02-18T21:11:40Z</time>
      </trkpt>
      <trkpt lat="43.47495" lon="3.72154">
        <ele>152.3</ele>
        <time>2011-02-18T21:11:44Z</time>
      </trkpt>
      <trkpt lat="43.475" lon="3.72163">
        <ele>152.9</ele>
        <time>2011-02-18T21:11:48Z</time>
      </trkpt>
      <trkpt lat="43.47503" lon="3.72172">
        <ele>153.9</ele>
        <time>2011-02-18T21:11:52Z</time>
      </trkpt>
      <trkpt lat="43.47505" lon="3.72182">
        <ele>154.6</ele>
        <time>2011-02-18T21:11:56Z</time>
      </trkpt>
      <trkpt lat="43.47508" lon="3.72192">
        <ele>155.4</ele>
        <time>2011-02-18T21:12:00Z</time>
      </trkpt>
      <trkpt lat="43.4751" lon="3.72202">
        <ele>155.5</ele>
        <time>2011-02-18T21:12:04Z</time>
      </trkpt>
      <trkpt lat="43.47513" lon="3.72211">
        <ele>155.1</ele>
        <time>2011-02-18T21:12:08Z</time>
      </trkpt>
      <trkpt lat="43.47515" lon="3.72221">
        <ele>156.2</ele>
        <time>2011-02-18T21:12:12Z</time>
      </trkpt>
      <trkpt lat="43.47518" lon="3.72231">
        <ele>157.2</ele>
        <time>2011-02-18T21:12:16Z</time>
      </trkpt>
      <trkpt lat="43.47522" lon="3.7224">
        <ele>157.2</ele>
        <time>2011-02-18T21:12:20Z</time>
      </trkpt>
      <trkpt lat="43.47528" lon="3.72248">
        <ele>157.4</ele>
        <time>2011-02-18T21:12:24Z</time>
      </trkpt>
      <trkpt lat="43.47534" lon="3.72254">
        <ele>158.2</ele>
        <time>2011-02-18T21:12:28Z</time>
      </trkpt>
      <trkpt lat="43.4754" lon="3.72259">
        <ele>158.3</ele>
        <time>2011-02-18T21:12:32Z</time>
      </trkpt>
      <trkpt lat="43.47542" lon="3.7226">
        <ele>158.4</ele>
        <time>2011-02-18T21:12:33Z</time>
      </trkpt>
      <trkpt lat="43.47555" lon="3.72266">
        <ele>159.3</ele>
        <time>2011-02-18T21:12:40Z</time>
      </trkpt>
      <trkpt lat="43.47562" lon="3.72267">
        <ele>159.8</ele>
        <time>2011-02-18T21:12:44Z</time>
      </trkpt>
      <trkpt lat="43.4757" lon="3.72268">
        <ele>160.4</ele>
        <time>2011-02-18T21:12:48Z</time>
      </trkpt>
      <trkpt lat="43.47577" lon="3.72268">
        <ele>160.7</ele>
        <time>2011-02-18T21:12:52Z</time>
      </trkpt>
      <trkpt lat="43.47585" lon="3.72267">
        <ele>161.1</ele>
        <time>2011-02-18T21:12:56Z</time>
      </trkpt>
      <trkpt lat="43.47593" lon="3.72268">
        <ele>162.8</ele>
        <time>2011-02-18T21:13:00Z</time>
      </trkpt>
      <trkpt lat="43.47601" lon="3.72268">
        <ele>162.7</ele>
        <time>2011-02-18T21:13:04Z</time>
      </trkpt>
      <trkpt lat="43.47609" lon="3.7227">
        <ele>163.7</ele>
        <time>2011-02-18T21:13:08Z</time>
      </trkpt>
      <trkpt lat="43.47616" lon="3.72271">
        <ele>164.5</ele>
        <time>2011-02-18T21:13:12Z</time>
      </trkpt>
      <trkpt lat="43.47624" lon="3.72273">
        <ele>164.8</ele>
        <time>2011-02-18T21:13:16Z</time>
      </trkpt>
      <trkpt lat="43.47631" lon="3.72277">
        <ele>165.6</ele>
        <time>2011-02-18T21:13:20Z</time>
      </trkpt>
      <trkpt lat="43.47639" lon="3.72281">
        <ele>166.2</ele>
        <time>2011-02-18T21:13:24Z</time>
      </trkpt>
      <trkpt lat="43.47646" lon="3.72285">
        <ele>166.8</ele>
        <time>2011-02-18T21:13:28Z</time>
      </trkpt>
      <trkpt lat="43.47654" lon="3.72289">
        <ele>167.2</ele>
        <time>2011-02-18T21:13:32Z</time>
      </trkpt>
      <trkpt lat="43.47661" lon="3.72294">
        <ele>167.9</ele>
        <time>2011-02-18T21:13:36Z</time>
      </trkpt>
      <trkpt lat="43.47662" lon="3.72295">
        <ele>167.9</ele>
        <time>2011-02-18T21:13:37Z</time>
      </trkpt>
      <trkpt lat="43.47675" lon="3.72303">
        <ele>169.1</ele>
        <time>2011-02-18T21:13:44Z</time>
      </trkpt>
      <trkpt lat="43.47682" lon="3.72309">
        <ele>169.1</ele>
        <time>2011-02-18T21:13:48Z</time>
      </trkpt>
      <trkpt lat="43.47688" lon="3.72315">
        <ele>169.3</ele>
        <time>2011-02-18T21:13:52Z</time>
      </trkpt>
      <trkpt lat="43.47694" lon="3.72321">
        <ele>170.9</ele>
        <time>2011-02-18T21:13:56Z</time>
      </trkpt>
      <trkpt lat="43.47701" lon="3.72328">
        <ele>170.9</ele>
        <time>2011-02-18T21:14:00Z</time>
      </trkpt>
      <trkpt lat="43.47706" lon="3.72336">
        <ele>171.8</ele>
        <time>2011-02-18T21:14:04Z</time>
      </trkpt>
      <trkpt lat="43.47712" lon="3.72345">
        <ele>172.1</ele>
        <time>2011-02-18T21:14:08Z</time>
      </trkpt>
      <trkpt lat="43.47717" lon="3.72353">
        <ele>172.4</ele>
        <time>2011-02-18T21:14:12Z</time>
      </trkpt>
      <trkpt lat="43.47723" lon="3.72361">
        <ele>172.9</ele>
        <time>2011-02-18T21:14:16Z</time>
      </trkpt>
      <trkpt lat="43.47728" lon="3.72369">
        <ele>173.5</ele>
        <time>2011-02-18T21:14:20Z</time>
      </trkpt>
      <trkpt lat="43.47733" lon="3.72378">
        <ele>174.6</ele>
        <time>2011-02-18T21:14:24Z</time>
      </trkpt>
      <trkpt lat="43.47738" lon="3.72387">
        <ele>175.5</ele>
        <time>2011-02-18T21:14:28Z</time>
      </trkpt>
      <trkpt lat="43.47743" lon="3.72396">
        <ele>175.8</ele>
        <time>2011-02-18T21:14:32Z</time>
      </trkpt>
      <trkpt lat="43.47747" lon="3.72404">
        <ele>176.4</ele>
        <time>2011-02-18T21:14:36Z</time>
      </trkpt>
      <trkpt lat="43.47752" lon="3.72412">
        <ele>176.6</ele>
        <time>2011-02-18T21:14:40Z</time>
      </trkpt>
      <trkpt lat="43.47753" lon="3.72414">
        <ele>177</ele>
        <time>2011-02-18T21:14:41Z</time>
      </trkpt>
      <trkpt lat="43.4776" lon="3.72429">
        <ele>177</ele>
        <time>2011-02-18T21:14:48Z</time>
      </trkpt>
      <trkpt lat="43.47765" lon="3.72439">
        <ele>177.7</ele>
        <time>2011-02-18T21:14:53Z</time>
      </trkpt>
      <trkpt lat="43.47769" lon="3.72447">
        <ele>179.2</ele>
        <time>2011-02-18T21:14:57Z</time>
      </trkpt>
      <trkpt lat="43.47773" lon="3.72456">
        <ele>179.4</ele>
        <time>2011-02-18T21:15:01Z</time>
      </trkpt>
      <trkpt lat="43.47777" lon="3.72465">
        <ele>179.9</ele>
        <time>2011-02-18T21:15:05Z</time>
      </trkpt>
      <trkpt lat="43.47782" lon="3.72473">
        <ele>180.7</ele>
        <time>2011-02-18T21:15:09Z</time>
      </trkpt>
      <trkpt lat="43.47787" lon="3.72481">
        <ele>181.6</ele>
        <time>2011-02-18T21:15:13Z</time>
      </trkpt>
      <trkpt lat="43.47793" lon="3.72488">
        <ele>182.4</ele>
        <time>2011-02-18T21:15:17Z</time>
      </trkpt>
      <trkpt lat="43.47799" lon="3.72494">
        <ele>182.7</ele>
        <time>2011-02-18T21:15:21Z</time>
      </trkpt>
      <trkpt lat="43.47806" lon="3.72501">
        <ele>183.7</ele>
        <time>2011-02-18T21:15:25Z</time>
      </trkpt>
      <trkpt lat="43.47812" lon="3.72508">
        <ele>184.9</ele>
        <time>2011-02-18T21:15:29Z</time>
      </trkpt>
      <trkpt lat="43.47818" lon="3.72516">
        <ele>184.7</ele>
        <time>2011-02-18T21:15:33Z</time>
      </trkpt>
      <trkpt lat="43.47825" lon="3.72523">
        <ele>185.6</ele>
        <time>2011-02-18T21:15:37Z</time>
      </trkpt>
      <trkpt lat="43.47832" lon="3.72529">
        <ele>185.5</ele>
        <time>2011-02-18T21:15:41Z</time>
      </trkpt>
      <trkpt lat="43.47834" lon="3.7253">
        <ele>185.3</ele>
        <time>2011-02-18T21:15:42Z</time>
      </trkpt>
      <trkpt lat="43.47846" lon="3.72535">
        <ele>185</ele>
        <time>2011-02-18T21:15:47Z</time>
      </trkpt>
      <trkpt lat="43.47853" lon="3.72536">
        <ele>185.3</ele>
        <time>2011-02-18T21:15:50Z</time>
      </trkpt>
      <trkpt lat="43.47861" lon="3.72537">
        <ele>185.3</ele>
        <time>2011-02-18T21:15:53Z</time>
      </trkpt>
      <trkpt lat="43.47868" lon="3.7254">
        <ele>184.8</ele>
        <time>2011-02-18T21:15:56Z</time>
      </trkpt>
      <trkpt lat="43.47875" lon="3.72542">
        <ele>186.4</ele>
        <time>2011-02-18T21:15:59Z</time>
      </trkpt>
      <trkpt lat="43.47882" lon="3.72546">
        <ele>186.6</ele>
        <time>2011-02-18T21:16:02Z</time>
      </trkpt>
      <trkpt lat="43.47889" lon="3.72549">
        <ele>186.8</ele>
        <time>2011-02-18T21:16:05Z</time>
      </trkpt>
      <trkpt lat="43.47897" lon="3.72551">
        <ele>186.4</ele>
        <time>2011-02-18T21:16:08Z</time>
      </trkpt>
      <trkpt lat="43.47905" lon="3.72554">
        <ele>186</ele>
        <time>2011-02-18T21:16:11Z</time>
      </trkpt>
      <trkpt lat="43.47912" lon="3.72558">
        <ele>186.3</ele>
        <time>2011-02-18T21:16:14Z</time>
      </trkpt>
      <trkpt lat="43.47919" lon="3.72561">
        <ele>186.7</ele>
        <time>2011-02-18T21:16:17Z</time>
      </trkpt>
      <trkpt lat="43.47927" lon="3.72564">
        <ele>187</ele>
        <time>2011-02-18T21:16:20Z</time>
      </trkpt>
      <trkpt lat="43.47934" lon="3.72568">
        <ele>187.6</ele>
        <time>2011-02-18T21:16:23Z</time>
      </trkpt>
      <trkpt lat="43.4794" lon="3.72571">
        <ele>188.2</ele>
        <time>2011-02-18T21:16:26Z</time>
      </trkpt>
      <trkpt lat="43.47947" lon="3.72575">
        <ele>188.3</ele>
        <time>2011-02-18T21:16:29Z</time>
      </trkpt>
      <trkpt lat="43.47954" lon="3.7258">
        <ele>188.4</ele>
        <time>2011-02-18T21:16:32Z</time>
      </trkpt>
      <trkpt lat="43.4796" lon="3.72585">
        <ele>188.8</ele>
        <time>2011-02-18T21:16:35Z</time>
      </trkpt>
      <trkpt lat="43.47965" lon="3.72592">
        <ele>189.4</ele>
        <time>2011-02-18T21:16:38Z</time>
      </trkpt>
      <trkpt lat="43.47971" lon="3.72598">
        <ele>189.2</ele>
        <time>2011-02-18T21:16:41Z</time>
      </trkpt>
      <trkpt lat="43.47977" lon="3.72604">
        <ele>189.1</ele>
        <time>2011-02-18T21:16:44Z</time>
      </trkpt>
      <trkpt lat="43.47979" lon="3.72606">
        <ele>189.2</ele>
        <time>2011-02-18T21:16:45Z</time>
      </trkpt>
      <trkpt lat="43.47991" lon="3.72616">
        <ele>189.6</ele>
        <time>2011-02-18T21:16:50Z</time>
      </trkpt>
      <trkpt lat="43.47998" lon="3.72621">
        <ele>190.3</ele>
        <time>2011-02-18T21:16:53Z</time>
      </trkpt>
      <trkpt lat="43.48006" lon="3.72627">
        <ele>190.5</ele>
        <time>2011-02-18T21:16:56Z</time>
      </trkpt>
      <trkpt lat="43.48013" lon="3.72633">
        <ele>191</ele>
        <time>2011-02-18T21:16:59Z</time>
      </trkpt>
      <trkpt lat="43.4802" lon="3.72638">
        <ele>191.3</ele>
        <time>2011-02-18T21:17:02Z</time>
      </trkpt>
      <trkpt lat="43.48028" lon="3.72643">
        <ele>191.3</ele>
        <time>2011-02-18T21:17:05Z</time>
      </trkpt>
      <trkpt lat="43.48036" lon="3.72647">
        <ele>191.4</ele>
        <time>2011-02-18T21:17:08Z</time>
      </trkpt>
      <trkpt lat="43.48044" lon="3.7265">
        <ele>191.2</ele>
        <time>2011-02-18T21:17:11Z</time>
      </trkpt>
      <trkpt lat="43.48052" lon="3.72651">
        <ele>191</ele>
        <time>2011-02-18T21:17:14Z</time>
      </trkpt>
      <trkpt lat="43.48061" lon="3.72653">
        <ele>191.4</ele>
        <time>2011-02-18T21:17:17Z</time>
      </trkpt>
      <trkpt lat="43.48069" lon="3.72655">
        <ele>191.5</ele>
        <time>2011-02-18T21:17:20Z</time>
      </trkpt>
      <trkpt lat="43.48078" lon="3.72657">
        <ele>191.6</ele>
        <time>2011-02-18T21:17:23Z</time>
      </trkpt>
      <trkpt lat="43.48087" lon="3.7266">
        <ele>191.8</ele>
        <time>2011-02-18T21:17:26Z</time>
      </trkpt>
      <trkpt lat="43.48095" lon="3.72664">
        <ele>191.8</ele>
        <time>2011-02-18T21:17:29Z</time>
      </trkpt>
      <trkpt lat="43.48101" lon="3.72667">
        <ele>192.1</ele>
        <time>2011-02-18T21:17:31Z</time>
      </trkpt>
      <trkpt lat="43.48106" lon="3.72671">
        <ele>192.5</ele>
        <time>2011-02-18T21:17:33Z</time>
      </trkpt>
      <trkpt lat="43.48111" lon="3.72676">
        <ele>193.1</ele>
        <time>2011-02-18T21:17:35Z</time>
      </trkpt>
      <trkpt lat="43.48119" lon="3.72682">
        <ele>193.2</ele>
        <time>2011-02-18T21:17:38Z</time>
      </trkpt>
      <trkpt lat="43.48124" lon="3.72686">
        <ele>193.6</ele>
        <time>2011-02-18T21:17:40Z</time>
      </trkpt>
      <trkpt lat="43.48131" lon="3.72693">
        <ele>193</ele>
        <time>2011-02-18T21:17:43Z</time>
      </trkpt>
      <trkpt lat="43.48138" lon="3.72701">
        <ele>192.9</ele>
        <time>2011-02-18T21:17:46Z</time>
      </trkpt>
      <trkpt lat="43.4814" lon="3.72704">
        <ele>193.1</ele>
        <time>2011-02-18T21:17:47Z</time>
      </trkpt>
      <trkpt lat="43.48147" lon="3.72721">
        <ele>193.9</ele>
        <time>2011-02-18T21:17:52Z</time>
      </trkpt>
      <trkpt lat="43.48147" lon="3.72732">
        <ele>194</ele>
        <time>2011-02-18T21:17:55Z</time>
      </trkpt>
      <trkpt lat="43.48145" lon="3.72742">
        <ele>194</ele>
        <time>2011-02-18T21:17:58Z</time>
      </trkpt>
      <trkpt lat="43.48143" lon="3.72752">
        <ele>194.3</ele>
        <time>2011-02-18T21:18:01Z</time>
      </trkpt>
      <trkpt lat="43.48139" lon="3.72761">
        <ele>193.6</ele>
        <time>2011-02-18T21:18:04Z</time>
      </trkpt>
      <trkpt lat="43.48135" lon="3.7277">
        <ele>194.4</ele>
        <time>2011-02-18T21:18:07Z</time>
      </trkpt>
      <trkpt lat="43.48129" lon="3.72778">
        <ele>195.7</ele>
        <time>2011-02-18T21:18:10Z</time>
      </trkpt>
      <trkpt lat="43.48123" lon="3.72786">
        <ele>196.2</ele>
        <time>2011-02-18T21:18:13Z</time>
      </trkpt>
      <trkpt lat="43.48117" lon="3.72792">
        <ele>197</ele>
        <time>2011-02-18T21:18:16Z</time>
      </trkpt>
      <trkpt lat="43.4811" lon="3.72798">
        <ele>197.6</ele>
        <time>2011-02-18T21:18:19Z</time>
      </trkpt>
      <trkpt lat="43.48104" lon="3.72802">
        <ele>197.5</ele>
        <time>2011-02-18T21:18:22Z</time>
      </trkpt>
      <trkpt lat="43.48097" lon="3.72807">
        <ele>197.4</ele>
        <time>2011-02-18T21:18:26Z</time>
      </trkpt>
      <trkpt lat="43.48089" lon="3.72811">
        <ele>198.7</ele>
        <time>2011-02-18T21:18:30Z</time>
      </trkpt>
      <trkpt lat="43.48081" lon="3.72814">
        <ele>198.6</ele>
        <time>2011-02-18T21:18:34Z</time>
      </trkpt>
      <trkpt lat="43.48073" lon="3.72817">
        <ele>199.6</ele>
        <time>2011-02-18T21:18:38Z</time>
      </trkpt>
      <trkpt lat="43.48065" lon="3.72819">
        <ele>199.9</ele>
        <time>2011-02-18T21:18:42Z</time>
      </trkpt>
      <trkpt lat="43.48057" lon="3.7282">
        <ele>201.4</ele>
        <time>2011-02-18T21:18:46Z</time>
      </trkpt>
      <trkpt lat="43.48049" lon="3.72823">
        <ele>201.6</ele>
        <time>2011-02-18T21:18:50Z</time>
      </trkpt>
      <trkpt lat="43.48047" lon="3.72823">
        <ele>201.7</ele>
        <time>2011-02-18T21:18:51Z</time>
      </trkpt>
      <trkpt lat="43.48033" lon="3.72829">
        <ele>202.7</ele>
        <time>2011-02-18T21:18:58Z</time>
      </trkpt>
      <trkpt lat="43.48025" lon="3.72833">
        <ele>203.1</ele>
        <time>2011-02-18T21:19:02Z</time>
      </trkpt>
      <trkpt lat="43.48017" lon="3.72836">
        <ele>204</ele>
        <time>2011-02-18T21:19:06Z</time>
      </trkpt>
      <trkpt lat="43.48009" lon="3.72838">
        <ele>203.9</ele>
        <time>2011-02-18T21:19:10Z</time>
      </trkpt>
      <trkpt lat="43.48001" lon="3.72838">
        <ele>204.8</ele>
        <time>2011-02-18T21:19:14Z</time>
      </trkpt>
      <trkpt lat="43.47993" lon="3.72835">
        <ele>206</ele>
        <time>2011-02-18T21:19:18Z</time>
      </trkpt>
      <trkpt lat="43.47985" lon="3.72833">
        <ele>206.3</ele>
        <time>2011-02-18T21:19:22Z</time>
      </trkpt>
      <trkpt lat="43.47976" lon="3.72832">
        <ele>206.1</ele>
        <time>2011-02-18T21:19:26Z</time>
      </trkpt>
      <trkpt lat="43.47968" lon="3.72832">
        <ele>206.6</ele>
        <time>2011-02-18T21:19:30Z</time>
      </trkpt>
      <trkpt lat="43.4796" lon="3.72832">
        <ele>207.7</ele>
        <time>2011-02-18T21:19:34Z</time>
      </trkpt>
      <trkpt lat="43.47951" lon="3.72833">
        <ele>208.6</ele>
        <time>2011-02-18T21:19:38Z</time>
      </trkpt>
      <trkpt lat="43.47943" lon="3.72835">
        <ele>209.3</ele>
        <time>2011-02-18T21:19:42Z</time>
      </trkpt>
      <trkpt lat="43.47935" lon="3.72836">
        <ele>209.1</ele>
        <time>2011-02-18T21:19:46Z</time>
      </trkpt>
      <trkpt lat="43.47927" lon="3.72838">
        <ele>210.5</ele>
        <time>2011-02-18T21:19:50Z</time>
      </trkpt>
      <trkpt lat="43.47919" lon="3.72842">
        <ele>211.9</ele>
        <time>2011-02-18T21:19:54Z</time>
      </trkpt>
      <trkpt lat="43.47917" lon="3.72843">
        <ele>212.1</ele>
        <time>2011-02-18T21:19:55Z</time>
      </trkpt>
      <trkpt lat="43.47904" lon="3.72851">
        <ele>212.2</ele>
        <time>2011-02-18T21:20:02Z</time>
      </trkpt>
      <trkpt lat="43.47896" lon="3.72853">
        <ele>213.2</ele>
        <time>2011-02-18T21:20:06Z</time>
      </trkpt>
      <trkpt lat="43.47888" lon="3.72856">
        <ele>214.5</ele>
        <time>2011-02-18T21:20:10Z</time>
      </trkpt>
      <trkpt lat="43.4788" lon="3.7286">
        <ele>215</ele>
        <time>2011-02-18T21:20:14Z</time>
      </trkpt>
      <trkpt lat="43.47873" lon="3.72865">
        <ele>215.4</ele>
        <time>2011-02-18T21:20:18Z</time>
      </trkpt>
      <trkpt lat="43.47866" lon="3.72872">
        <ele>215.3</ele>
        <time>2011-02-18T21:20:22Z</time>
      </trkpt>
      <trkpt lat="43.4786" lon="3.72878">
        <ele>215.5</ele>
        <time>2011-02-18T21:20:26Z</time>
      </trkpt>
      <trkpt lat="43.47854" lon="3.72884">
        <ele>216.2</ele>
        <time>2011-02-18T21:20:29Z</time>
      </trkpt>
      <trkpt lat="43.47849" lon="3.72891">
        <ele>216.7</ele>
        <time>2011-02-18T21:20:32Z</time>
      </trkpt>
      <trkpt lat="43.47843" lon="3.729">
        <ele>216.9</ele>
        <time>2011-02-18T21:20:36Z</time>
      </trkpt>
      <trkpt lat="43.47838" lon="3.72909">
        <ele>217.1</ele>
        <time>2011-02-18T21:20:40Z</time>
      </trkpt>
      <trkpt lat="43.47835" lon="3.72919">
        <ele>219</ele>
        <time>2011-02-18T21:20:44Z</time>
      </trkpt>
      <trkpt lat="43.47837" lon="3.7293">
        <ele>219.7</ele>
        <time>2011-02-18T21:20:48Z</time>
      </trkpt>
      <trkpt lat="43.47842" lon="3.72938">
        <ele>220.1</ele>
        <time>2011-02-18T21:20:52Z</time>
      </trkpt>
      <trkpt lat="43.47848" lon="3.72945">
        <ele>221</ele>
        <time>2011-02-18T21:20:56Z</time>
      </trkpt>
      <trkpt lat="43.47849" lon="3.72947">
        <ele>221</ele>
        <time>2011-02-18T21:20:57Z</time>
      </trkpt>
      <trkpt lat="43.47859" lon="3.72958">
        <ele>222.4</ele>
        <time>2011-02-18T21:21:04Z</time>
      </trkpt>
      <trkpt lat="43.47866" lon="3.72964">
        <ele>222.7</ele>
        <time>2011-02-18T21:21:08Z</time>
      </trkpt>
      <trkpt lat="43.47872" lon="3.7297">
        <ele>223.5</ele>
        <time>2011-02-18T21:21:12Z</time>
      </trkpt>
      <trkpt lat="43.47878" lon="3.72976">
        <ele>223.3</ele>
        <time>2011-02-18T21:21:16Z</time>
      </trkpt>
      <trkpt lat="43.47884" lon="3.72982">
        <ele>224.4</ele>
        <time>2011-02-18T21:21:20Z</time>
      </trkpt>
      <trkpt lat="43.4789" lon="3.72989">
        <ele>224.1</ele>
        <time>2011-02-18T21:21:24Z</time>
      </trkpt>
      <trkpt lat="43.47897" lon="3.72996">
        <ele>224.2</ele>
        <time>2011-02-18T21:21:28Z</time>
      </trkpt>
      <trkpt lat="43.47902" lon="3.73003">
        <ele>224.5</ele>
        <time>2011-02-18T21:21:31Z</time>
      </trkpt>
      <trkpt lat="43.47907" lon="3.73009">
        <ele>224.8</ele>
        <time>2011-02-18T21:21:34Z</time>
      </trkpt>
      <trkpt lat="43.47912" lon="3.73015">
        <ele>225.2</ele>
        <time>2011-02-18T21:21:37Z</time>
      </trkpt>
      <trkpt lat="43.47917" lon="3.73022">
        <ele>225.6</ele>
        <time>2011-02-18T21:21:40Z</time>
      </trkpt>
      <trkpt lat="43.47922" lon="3.7303">
        <ele>225.9</ele>
        <time>2011-02-18T21:21:43Z</time>
      </trkpt>
      <trkpt lat="43.47927" lon="3.73037">
        <ele>225.8</ele>
        <time>2011-02-18T21:21:46Z</time>
      </trkpt>
      <trkpt lat="43.47932" lon="3.73044">
        <ele>226</ele>
        <time>2011-02-18T21:21:49Z</time>
      </trkpt>
      <trkpt lat="43.47937" lon="3.73053">
        <ele>226.6</ele>
        <time>2011-02-18T21:21:52Z</time>
      </trkpt>
      <trkpt lat="43.47942" lon="3.73061">
        <ele>226.8</ele>
        <time>2011-02-18T21:21:55Z</time>
      </trkpt>
      <trkpt lat="43.47947" lon="3.73068">
        <ele>226.9</ele>
        <time>2011-02-18T21:21:58Z</time>
      </trkpt>
      <trkpt lat="43.47949" lon="3.7307">
        <ele>227</ele>
        <time>2011-02-18T21:21:59Z</time>
      </trkpt>
      <trkpt lat="43.47957" lon="3.73083">
        <ele>227.3</ele>
        <time>2011-02-18T21:22:04Z</time>
      </trkpt>
      <trkpt lat="43.47962" lon="3.73091">
        <ele>227.3</ele>
        <time>2011-02-18T21:22:07Z</time>
      </trkpt>
      <trkpt lat="43.47967" lon="3.73099">
        <ele>227.5</ele>
        <time>2011-02-18T21:22:10Z</time>
      </trkpt>
      <trkpt lat="43.47973" lon="3.73106">
        <ele>228.4</ele>
        <time>2011-02-18T21:22:13Z</time>
      </trkpt>
      <trkpt lat="43.47978" lon="3.73113">
        <ele>228</ele>
        <time>2011-02-18T21:22:16Z</time>
      </trkpt>
      <trkpt lat="43.47983" lon="3.73121">
        <ele>228.4</ele>
        <time>2011-02-18T21:22:19Z</time>
      </trkpt>
      <trkpt lat="43.47989" lon="3.73128">
        <ele>228.5</ele>
        <time>2011-02-18T21:22:22Z</time>
      </trkpt>
      <trkpt lat="43.47995" lon="3.73135">
        <ele>228.6</ele>
        <time>2011-02-18T21:22:25Z</time>
      </trkpt>
      <trkpt lat="43.48" lon="3.73142">
        <ele>229.1</ele>
        <time>2011-02-18T21:22:28Z</time>
      </trkpt>
      <trkpt lat="43.48006" lon="3.73149">
        <ele>229.2</ele>
        <time>2011-02-18T21:22:31Z</time>
      </trkpt>
      <trkpt lat="43.48011" lon="3.73155">
        <ele>229</ele>
        <time>2011-02-18T21:22:34Z</time>
      </trkpt>
      <trkpt lat="43.48017" lon="3.73161">
        <ele>229.7</ele>
        <time>2011-02-18T21:22:37Z</time>
      </trkpt>
      <trkpt lat="43.48024" lon="3.73166">
        <ele>230.2</ele>
        <time>2011-02-18T21:22:40Z</time>
      </trkpt>
      <trkpt lat="43.4803" lon="3.73171">
        <ele>230.2</ele>
        <time>2011-02-18T21:22:43Z</time>
      </trkpt>
      <trkpt lat="43.48036" lon="3.73176">
        <ele>230.3</ele>
        <time>2011-02-18T21:22:46Z</time>
      </trkpt>
      <trkpt lat="43.48042" lon="3.73181">
        <ele>231.2</ele>
        <time>2011-02-18T21:22:49Z</time>
      </trkpt>
      <trkpt lat="43.48048" lon="3.73186">
        <ele>231.6</ele>
        <time>2011-02-18T21:22:52Z</time>
      </trkpt>
      <trkpt lat="43.48055" lon="3.73189">
        <ele>231.5</ele>
        <time>2011-02-18T21:22:55Z</time>
      </trkpt>
      <trkpt lat="43.48062" lon="3.73193">
        <ele>232</ele>
        <time>2011-02-18T21:22:58Z</time>
      </trkpt>
      <trkpt lat="43.48069" lon="3.73196">
        <ele>232.9</ele>
        <time>2011-02-18T21:23:01Z</time>
      </trkpt>
      <trkpt lat="43.48071" lon="3.73197">
        <ele>232.9</ele>
        <time>2011-02-18T21:23:02Z</time>
      </trkpt>
      <trkpt lat="43.48083" lon="3.73202">
        <ele>233.5</ele>
        <time>2011-02-18T21:23:07Z</time>
      </trkpt>
      <trkpt lat="43.4809" lon="3.73205">
        <ele>232.9</ele>
        <time>2011-02-18T21:23:10Z</time>
      </trkpt>
      <trkpt lat="43.48097" lon="3.73207">
        <ele>232.4</ele>
        <time>2011-02-18T21:23:13Z</time>
      </trkpt>
      <trkpt lat="43.48105" lon="3.73207">
        <ele>232.5</ele>
        <time>2011-02-18T21:23:16Z</time>
      </trkpt>
      <trkpt lat="43.48114" lon="3.73206">
        <ele>232.3</ele>
        <time>2011-02-18T21:23:19Z</time>
      </trkpt>
      <trkpt lat="43.48122" lon="3.73204">
        <ele>232.9</ele>
        <time>2011-02-18T21:23:22Z</time>
      </trkpt>
      <trkpt lat="43.48128" lon="3.73202">
        <ele>233.2</ele>
        <time>2011-02-18T21:23:24Z</time>
      </trkpt>
      <trkpt lat="43.48134" lon="3.732">
        <ele>233.3</ele>
        <time>2011-02-18T21:23:26Z</time>
      </trkpt>
      <trkpt lat="43.4814" lon="3.73197">
        <ele>233.2</ele>
        <time>2011-02-18T21:23:28Z</time>
      </trkpt>
      <trkpt lat="43.48146" lon="3.73193">
        <ele>232.8</ele>
        <time>2011-02-18T21:23:30Z</time>
      </trkpt>
      <trkpt lat="43.48152" lon="3.73189">
        <ele>232.3</ele>
        <time>2011-02-18T21:23:32Z</time>
      </trkpt>
      <trkpt lat="43.48158" lon="3.73185">
        <ele>232</ele>
        <time>2011-02-18T21:23:34Z</time>
      </trkpt>
      <trkpt lat="43.48164" lon="3.7318">
        <ele>231.9</ele>
        <time>2011-02-18T21:23:36Z</time>
      </trkpt>
      <trkpt lat="43.48169" lon="3.73175">
        <ele>232.7</ele>
        <time>2011-02-18T21:23:38Z</time>
      </trkpt>
      <trkpt lat="43.48175" lon="3.7317">
        <ele>233.1</ele>
        <time>2011-02-18T21:23:40Z</time>
      </trkpt>
      <trkpt lat="43.48181" lon="3.73166">
        <ele>233.3</ele>
        <time>2011-02-18T21:23:42Z</time>
      </trkpt>
      <trkpt lat="43.48187" lon="3.73162">
        <ele>233</ele>
        <time>2011-02-18T21:23:44Z</time>
      </trkpt>
      <trkpt lat="43.48193" lon="3.73159">
        <ele>232.9</ele>
        <time>2011-02-18T21:23:46Z</time>
      </trkpt>
      <trkpt lat="43.48199" lon="3.73156">
        <ele>232.8</ele>
        <time>2011-02-18T21:23:48Z</time>
      </trkpt>
      <trkpt lat="43.48206" lon="3.73154">
        <ele>232.6</ele>
        <time>2011-02-18T21:23:50Z</time>
      </trkpt>
      <trkpt lat="43.48213" lon="3.73153">
        <ele>232.4</ele>
        <time>2011-02-18T21:23:52Z</time>
      </trkpt>
      <trkpt lat="43.4822" lon="3.73153">
        <ele>232.6</ele>
        <time>2011-02-18T21:23:54Z</time>
      </trkpt>
      <trkpt lat="43.48226" lon="3.73154">
        <ele>232.3</ele>
        <time>2011-02-18T21:23:56Z</time>
      </trkpt>
      <trkpt lat="43.48234" lon="3.73156">
        <ele>231.8</ele>
        <time>2011-02-18T21:23:58Z</time>
      </trkpt>
      <trkpt lat="43.4824" lon="3.73158">
        <ele>231.8</ele>
        <time>2011-02-18T21:24:00Z</time>
      </trkpt>
      <trkpt lat="43.48247" lon="3.73161">
        <ele>232</ele>
        <time>2011-02-18T21:24:02Z</time>
      </trkpt>
      <trkpt lat="43.4825" lon="3.73162">
        <ele>232.1</ele>
        <time>2011-02-18T21:24:03Z</time>
      </trkpt>
      <trkpt lat="43.48263" lon="3.7317">
        <ele>232</ele>
        <time>2011-02-18T21:24:08Z</time>
      </trkpt>
      <trkpt lat="43.48271" lon="3.73175">
        <ele>232</ele>
        <time>2011-02-18T21:24:11Z</time>
      </trkpt>
      <trkpt lat="43.48276" lon="3.73179">
        <ele>232.2</ele>
        <time>2011-02-18T21:24:13Z</time>
      </trkpt>
      <trkpt lat="43.48282" lon="3.73182">
        <ele>231.9</ele>
        <time>2011-02-18T21:24:15Z</time>
      </trkpt>
      <trkpt lat="43.48287" lon="3.73187">
        <ele>231.5</ele>
        <time>2011-02-18T21:24:17Z</time>
      </trkpt>
      <trkpt lat="43.48292" lon="3.73192">
        <ele>231.5</ele>
        <time>2011-02-18T21:24:19Z</time>
      </trkpt>
      <trkpt lat="43.48297" lon="3.73197">
        <ele>231.4</ele>
        <time>2011-02-18T21:24:21Z</time>
      </trkpt>
      <trkpt lat="43.48302" lon="3.73203">
        <ele>231.3</ele>
        <time>2011-02-18T21:24:23Z</time>
      </trkpt>
      <trkpt lat="43.48306" lon="3.73209">
        <ele>231.4</ele>
        <time>2011-02-18T21:24:25Z</time>
      </trkpt>
      <trkpt lat="43.48311" lon="3.73216">
        <ele>231.5</ele>
        <time>2011-02-18T21:24:27Z</time>
      </trkpt>
      <trkpt lat="43.48316" lon="3.73223">
        <ele>231.5</ele>
        <time>2011-02-18T21:24:29Z</time>
      </trkpt>
      <trkpt lat="43.48322" lon="3.7323">
        <ele>231.3</ele>
        <time>2011-02-18T21:24:31Z</time>
      </trkpt>
      <trkpt lat="43.48327" lon="3.73237">
        <ele>231.1</ele>
        <time>2011-02-18T21:24:33Z</time>
      </trkpt>
      <trkpt lat="43.48332" lon="3.73246">
        <ele>230.8</ele>
        <time>2011-02-18T21:24:35Z</time>
      </trkpt>
      <trkpt lat="43.48337" lon="3.73254">
        <ele>230.6</ele>
        <time>2011-02-18T21:24:37Z</time>
      </trkpt>
      <trkpt lat="43.48341" lon="3.73263">
        <ele>230.2</ele>
        <time>2011-02-18T21:24:39Z</time>
      </trkpt>
      <trkpt lat="43.48345" lon="3.73271">
        <ele>230.3</ele>
        <time>2011-02-18T21:24:41Z</time>
      </trkpt>
      <trkpt lat="43.48349" lon="3.73278">
        <ele>230.5</ele>
        <time>2011-02-18T21:24:43Z</time>
      </trkpt>
      <trkpt lat="43.48352" lon="3.73286">
        <ele>230.4</ele>
        <time>2011-02-18T21:24:45Z</time>
      </trkpt>
      <trkpt lat="43.48356" lon="3.73295">
        <ele>230.8</ele>
        <time>2011-02-18T21:24:47Z</time>
      </trkpt>
      <trkpt lat="43.4836" lon="3.73303">
        <ele>231.3</ele>
        <time>2011-02-18T21:24:49Z</time>
      </trkpt>
      <trkpt lat="43.48364" lon="3.73312">
        <ele>230.8</ele>
        <time>2011-02-18T21:24:51Z</time>
      </trkpt>
      <trkpt lat="43.48369" lon="3.7332">
        <ele>230.4</ele>
        <time>2011-02-18T21:24:53Z</time>
      </trkpt>
      <trkpt lat="43.48374" lon="3.73328">
        <ele>230.2</ele>
        <time>2011-02-18T21:24:55Z</time>
      </trkpt>
      <trkpt lat="43.48378" lon="3.73338">
        <ele>229.9</ele>
        <time>2011-02-18T21:24:57Z</time>
      </trkpt>
      <trkpt lat="43.48381" lon="3.73348">
        <ele>229.7</ele>
        <time>2011-02-18T21:24:59Z</time>
      </trkpt>
      <trkpt lat="43.48381" lon="3.73359">
        <ele>229.4</ele>
        <time>2011-02-18T21:25:01Z</time>
      </trkpt>
      <trkpt lat="43.48378" lon="3.73369">
        <ele>229.6</ele>
        <time>2011-02-18T21:25:03Z</time>
      </trkpt>
      <trkpt lat="43.48375" lon="3.73373">
        <ele>229.8</ele>
        <time>2011-02-18T21:25:04Z</time>
      </trkpt>
      <trkpt lat="43.48368" lon="3.7338">
        <ele>229.7</ele>
        <time>2011-02-18T21:25:06Z</time>
      </trkpt>
      <trkpt lat="43.48364" lon="3.73382">
        <ele>229.5</ele>
        <time>2011-02-18T21:25:07Z</time>
      </trkpt>
      <trkpt lat="43.48359" lon="3.73385">
        <ele>229.3</ele>
        <time>2011-02-18T21:25:08Z</time>
      </trkpt>
      <trkpt lat="43.4835" lon="3.73388">
        <ele>229.2</ele>
        <time>2011-02-18T21:25:10Z</time>
      </trkpt>
      <trkpt lat="43.48342" lon="3.73391">
        <ele>229.2</ele>
        <time>2011-02-18T21:25:12Z</time>
      </trkpt>
      <trkpt lat="43.48333" lon="3.73392">
        <ele>228.1</ele>
        <time>2011-02-18T21:25:14Z</time>
      </trkpt>
      <trkpt lat="43.48324" lon="3.73393">
        <ele>227.3</ele>
        <time>2011-02-18T21:25:16Z</time>
      </trkpt>
      <trkpt lat="43.48316" lon="3.73394">
        <ele>226.7</ele>
        <time>2011-02-18T21:25:18Z</time>
      </trkpt>
      <trkpt lat="43.48308" lon="3.73396">
        <ele>226.2</ele>
        <time>2011-02-18T21:25:20Z</time>
      </trkpt>
      <trkpt lat="43.483" lon="3.73399">
        <ele>226.2</ele>
        <time>2011-02-18T21:25:22Z</time>
      </trkpt>
      <trkpt lat="43.48291" lon="3.734">
        <ele>226.3</ele>
        <time>2011-02-18T21:25:24Z</time>
      </trkpt>
      <trkpt lat="43.48283" lon="3.73403">
        <ele>225.9</ele>
        <time>2011-02-18T21:25:26Z</time>
      </trkpt>
      <trkpt lat="43.48275" lon="3.73406">
        <ele>225.7</ele>
        <time>2011-02-18T21:25:28Z</time>
      </trkpt>
      <trkpt lat="43.48268" lon="3.73409">
        <ele>225.9</ele>
        <time>2011-02-18T21:25:30Z</time>
      </trkpt>
      <trkpt lat="43.48261" lon="3.73413">
        <ele>226.1</ele>
        <time>2011-02-18T21:25:32Z</time>
      </trkpt>
      <trkpt lat="43.48255" lon="3.73418">
        <ele>226.4</ele>
        <time>2011-02-18T21:25:34Z</time>
      </trkpt>
      <trkpt lat="43.48249" lon="3.73425">
        <ele>226.1</ele>
        <time>2011-02-18T21:25:36Z</time>
      </trkpt>
      <trkpt lat="43.48245" lon="3.73433">
        <ele>226.3</ele>
        <time>2011-02-18T21:25:38Z</time>
      </trkpt>
      <trkpt lat="43.48241" lon="3.73443">
        <ele>226.6</ele>
        <time>2011-02-18T21:25:40Z</time>
      </trkpt>
      <trkpt lat="43.48237" lon="3.73454">
        <ele>226.5</ele>
        <time>2011-02-18T21:25:42Z</time>
      </trkpt>
      <trkpt lat="43.48235" lon="3.7346">
        <ele>226.5</ele>
        <time>2011-02-18T21:25:43Z</time>
      </trkpt>
      <trkpt lat="43.48234" lon="3.73466">
        <ele>226.2</ele>
        <time>2011-02-18T21:25:44Z</time>
      </trkpt>
      <trkpt lat="43.48234" lon="3.73472">
        <ele>225.9</ele>
        <time>2011-02-18T21:25:45Z</time>
      </trkpt>
      <trkpt lat="43.48233" lon="3.73478">
        <ele>225.8</ele>
        <time>2011-02-18T21:25:46Z</time>
      </trkpt>
      <trkpt lat="43.48232" lon="3.73485">
        <ele>225.6</ele>
        <time>2011-02-18T21:25:47Z</time>
      </trkpt>
      <trkpt lat="43.48232" lon="3.73491">
        <ele>225.5</ele>
        <time>2011-02-18T21:25:48Z</time>
      </trkpt>
      <trkpt lat="43.48233" lon="3.73498">
        <ele>225.4</ele>
        <time>2011-02-18T21:25:49Z</time>
      </trkpt>
      <trkpt lat="43.48234" lon="3.73504">
        <ele>225.4</ele>
        <time>2011-02-18T21:25:50Z</time>
      </trkpt>
      <trkpt lat="43.48236" lon="3.73516">
        <ele>225.1</ele>
        <time>2011-02-18T21:25:52Z</time>
      </trkpt>
      <trkpt lat="43.4824" lon="3.73527">
        <ele>225</ele>
        <time>2011-02-18T21:25:54Z</time>
      </trkpt>
      <trkpt lat="43.48243" lon="3.73539">
        <ele>224.9</ele>
        <time>2011-02-18T21:25:56Z</time>
      </trkpt>
      <trkpt lat="43.48245" lon="3.7355">
        <ele>224.7</ele>
        <time>2011-02-18T21:25:58Z</time>
      </trkpt>
      <trkpt lat="43.48247" lon="3.73561">
        <ele>224.8</ele>
        <time>2011-02-18T21:26:00Z</time>
      </trkpt>
      <trkpt lat="43.4825" lon="3.73573">
        <ele>224.9</ele>
        <time>2011-02-18T21:26:02Z</time>
      </trkpt>
      <trkpt lat="43.48252" lon="3.73578">
        <ele>225</ele>
        <time>2011-02-18T21:26:03Z</time>
      </trkpt>
      <trkpt lat="43.48254" lon="3.73584">
        <ele>224.8</ele>
        <time>2011-02-18T21:26:04Z</time>
      </trkpt>
      <trkpt lat="43.48255" lon="3.7359">
        <ele>224.8</ele>
        <time>2011-02-18T21:26:05Z</time>
      </trkpt>
      <trkpt lat="43.48258" lon="3.73602">
        <ele>224.5</ele>
        <time>2011-02-18T21:26:07Z</time>
      </trkpt>
      <trkpt lat="43.48259" lon="3.73608">
        <ele>224.4</ele>
        <time>2011-02-18T21:26:08Z</time>
      </trkpt>
      <trkpt lat="43.48261" lon="3.73614">
        <ele>224.3</ele>
        <time>2011-02-18T21:26:09Z</time>
      </trkpt>
      <trkpt lat="43.48264" lon="3.73625">
        <ele>224.5</ele>
        <time>2011-02-18T21:26:11Z</time>
      </trkpt>
      <trkpt lat="43.48267" lon="3.73637">
        <ele>224.6</ele>
        <time>2011-02-18T21:26:13Z</time>
      </trkpt>
      <trkpt lat="43.4827" lon="3.73648">
        <ele>224.6</ele>
        <time>2011-02-18T21:26:15Z</time>
      </trkpt>
      <trkpt lat="43.48273" lon="3.73659">
        <ele>225</ele>
        <time>2011-02-18T21:26:17Z</time>
      </trkpt>
      <trkpt lat="43.48275" lon="3.73671">
        <ele>225.2</ele>
        <time>2011-02-18T21:26:19Z</time>
      </trkpt>
      <trkpt lat="43.48276" lon="3.73683">
        <ele>225.6</ele>
        <time>2011-02-18T21:26:21Z</time>
      </trkpt>
      <trkpt lat="43.48274" lon="3.73695">
        <ele>225.9</ele>
        <time>2011-02-18T21:26:23Z</time>
      </trkpt>
      <trkpt lat="43.48271" lon="3.73705">
        <ele>226.1</ele>
        <time>2011-02-18T21:26:25Z</time>
      </trkpt>
      <trkpt lat="43.48266" lon="3.73716">
        <ele>225.5</ele>
        <time>2011-02-18T21:26:27Z</time>
      </trkpt>
      <trkpt lat="43.48262" lon="3.73726">
        <ele>225.2</ele>
        <time>2011-02-18T21:26:29Z</time>
      </trkpt>
      <trkpt lat="43.48258" lon="3.73737">
        <ele>225.2</ele>
        <time>2011-02-18T21:26:31Z</time>
      </trkpt>
      <trkpt lat="43.48254" lon="3.73747">
        <ele>226.2</ele>
        <time>2011-02-18T21:26:33Z</time>
      </trkpt>
      <trkpt lat="43.48249" lon="3.73757">
        <ele>226.8</ele>
        <time>2011-02-18T21:26:35Z</time>
      </trkpt>
      <trkpt lat="43.48245" lon="3.73768">
        <ele>226.6</ele>
        <time>2011-02-18T21:26:37Z</time>
      </trkpt>
      <trkpt lat="43.48243" lon="3.73774">
        <ele>226.5</ele>
        <time>2011-02-18T21:26:38Z</time>
      </trkpt>
      <trkpt lat="43.48238" lon="3.73785">
        <ele>226.6</ele>
        <time>2011-02-18T21:26:40Z</time>
      </trkpt>
      <trkpt lat="43.48236" lon="3.7379">
        <ele>226.6</ele>
        <time>2011-02-18T21:26:41Z</time>
      </trkpt>
      <trkpt lat="43.48234" lon="3.73796">
        <ele>226.3</ele>
        <time>2011-02-18T21:26:42Z</time>
      </trkpt>
      <trkpt lat="43.48232" lon="3.73801">
        <ele>226</ele>
        <time>2011-02-18T21:26:43Z</time>
      </trkpt>
      <trkpt lat="43.48229" lon="3.73806">
        <ele>225.8</ele>
        <time>2011-02-18T21:26:44Z</time>
      </trkpt>
      <trkpt lat="43.48227" lon="3.73812">
        <ele>226</ele>
        <time>2011-02-18T21:26:45Z</time>
      </trkpt>
      <trkpt lat="43.48225" lon="3.73817">
        <ele>226.1</ele>
        <time>2011-02-18T21:26:46Z</time>
      </trkpt>
      <trkpt lat="43.4822" lon="3.73828">
        <ele>226.3</ele>
        <time>2011-02-18T21:26:48Z</time>
      </trkpt>
      <trkpt lat="43.48216" lon="3.73838">
        <ele>226.5</ele>
        <time>2011-02-18T21:26:50Z</time>
      </trkpt>
      <trkpt lat="43.48212" lon="3.73849">
        <ele>226.7</ele>
        <time>2011-02-18T21:26:52Z</time>
      </trkpt>
      <trkpt lat="43.48208" lon="3.73859">
        <ele>226.8</ele>
        <time>2011-02-18T21:26:54Z</time>
      </trkpt>
      <trkpt lat="43.48204" lon="3.7387">
        <ele>226.8</ele>
        <time>2011-02-18T21:26:56Z</time>
      </trkpt>
      <trkpt lat="43.482" lon="3.7388">
        <ele>227</ele>
        <time>2011-02-18T21:26:58Z</time>
      </trkpt>
      <trkpt lat="43.48196" lon="3.73891">
        <ele>227.2</ele>
        <time>2011-02-18T21:27:00Z</time>
      </trkpt>
      <trkpt lat="43.48192" lon="3.73902">
        <ele>227.2</ele>
        <time>2011-02-18T21:27:02Z</time>
      </trkpt>
      <trkpt lat="43.48188" lon="3.73912">
        <ele>227.6</ele>
        <time>2011-02-18T21:27:04Z</time>
      </trkpt>
      <trkpt lat="43.48184" lon="3.73923">
        <ele>228.1</ele>
        <time>2011-02-18T21:27:06Z</time>
      </trkpt>
      <trkpt lat="43.48183" lon="3.73929">
        <ele>228</ele>
        <time>2011-02-18T21:27:07Z</time>
      </trkpt>
      <trkpt lat="43.48179" lon="3.73946">
        <ele>227.8</ele>
        <time>2011-02-18T21:27:10Z</time>
      </trkpt>
      <trkpt lat="43.48178" lon="3.73953">
        <ele>227.7</ele>
        <time>2011-02-18T21:27:11Z</time>
      </trkpt>
      <trkpt lat="43.48178" lon="3.73959">
        <ele>227.6</ele>
        <time>2011-02-18T21:27:12Z</time>
      </trkpt>
      <trkpt lat="43.48177" lon="3.73965">
        <ele>227.6</ele>
        <time>2011-02-18T21:27:13Z</time>
      </trkpt>
      <trkpt lat="43.48177" lon="3.73972">
        <ele>227.9</ele>
        <time>2011-02-18T21:27:14Z</time>
      </trkpt>
      <trkpt lat="43.48176" lon="3.73978">
        <ele>228.2</ele>
        <time>2011-02-18T21:27:15Z</time>
      </trkpt>
      <trkpt lat="43.48176" lon="3.73984">
        <ele>228.4</ele>
        <time>2011-02-18T21:27:16Z</time>
      </trkpt>
      <trkpt lat="43.48176" lon="3.73991">
        <ele>227.8</ele>
        <time>2011-02-18T21:27:17Z</time>
      </trkpt>
      <trkpt lat="43.48176" lon="3.73997">
        <ele>227.4</ele>
        <time>2011-02-18T21:27:18Z</time>
      </trkpt>
      <trkpt lat="43.48175" lon="3.74004">
        <ele>227.1</ele>
        <time>2011-02-18T21:27:19Z</time>
      </trkpt>
      <trkpt lat="43.48174" lon="3.7401">
        <ele>227</ele>
        <time>2011-02-18T21:27:20Z</time>
      </trkpt>
      <trkpt lat="43.48174" lon="3.74016">
        <ele>227</ele>
        <time>2011-02-18T21:27:21Z</time>
      </trkpt>
      <trkpt lat="43.48173" lon="3.74023">
        <ele>226.9</ele>
        <time>2011-02-18T21:27:22Z</time>
      </trkpt>
      <trkpt lat="43.48172" lon="3.7403">
        <ele>226.9</ele>
        <time>2011-02-18T21:27:23Z</time>
      </trkpt>
      <trkpt lat="43.48172" lon="3.74042">
        <ele>226.5</ele>
        <time>2011-02-18T21:27:25Z</time>
      </trkpt>
      <trkpt lat="43.48174" lon="3.74054">
        <ele>226.9</ele>
        <time>2011-02-18T21:27:28Z</time>
      </trkpt>
      <trkpt lat="43.48179" lon="3.74064">
        <ele>226.3</ele>
        <time>2011-02-18T21:27:31Z</time>
      </trkpt>
      <trkpt lat="43.48182" lon="3.74073">
        <ele>225.6</ele>
        <time>2011-02-18T21:27:33Z</time>
      </trkpt>
      <trkpt lat="43.48183" lon="3.74083">
        <ele>224.8</ele>
        <time>2011-02-18T21:27:35Z</time>
      </trkpt>
      <trkpt lat="43.48183" lon="3.74094">
        <ele>224.9</ele>
        <time>2011-02-18T21:27:37Z</time>
      </trkpt>
      <trkpt lat="43.48183" lon="3.74106">
        <ele>224.6</ele>
        <time>2011-02-18T21:27:39Z</time>
      </trkpt>
      <trkpt lat="43.48182" lon="3.74118">
        <ele>224.1</ele>
        <time>2011-02-18T21:27:41Z</time>
      </trkpt>
      <trkpt lat="43.48182" lon="3.74125">
        <ele>224</ele>
        <time>2011-02-18T21:27:42Z</time>
      </trkpt>
      <trkpt lat="43.48181" lon="3.74131">
        <ele>224</ele>
        <time>2011-02-18T21:27:43Z</time>
      </trkpt>
      <trkpt lat="43.4818" lon="3.74137">
        <ele>223.9</ele>
        <time>2011-02-18T21:27:44Z</time>
      </trkpt>
      <trkpt lat="43.48179" lon="3.74144">
        <ele>223.9</ele>
        <time>2011-02-18T21:27:45Z</time>
      </trkpt>
      <trkpt lat="43.48178" lon="3.7415">
        <ele>223.9</ele>
        <time>2011-02-18T21:27:46Z</time>
      </trkpt>
      <trkpt lat="43.48177" lon="3.74156">
        <ele>223.9</ele>
        <time>2011-02-18T21:27:47Z</time>
      </trkpt>
      <trkpt lat="43.48175" lon="3.74163">
        <ele>223.9</ele>
        <time>2011-02-18T21:27:48Z</time>
      </trkpt>
      <trkpt lat="43.48174" lon="3.74169">
        <ele>223.8</ele>
        <time>2011-02-18T21:27:49Z</time>
      </trkpt>
      <trkpt lat="43.48172" lon="3.74176">
        <ele>223.7</ele>
        <time>2011-02-18T21:27:50Z</time>
      </trkpt>
      <trkpt lat="43.48171" lon="3.74182">
        <ele>223.7</ele>
        <time>2011-02-18T21:27:51Z</time>
      </trkpt>
      <trkpt lat="43.48169" lon="3.74189">
        <ele>223.5</ele>
        <time>2011-02-18T21:27:52Z</time>
      </trkpt>
      <trkpt lat="43.48167" lon="3.74195">
        <ele>223.4</ele>
        <time>2011-02-18T21:27:53Z</time>
      </trkpt>
      <trkpt lat="43.48166" lon="3.74201">
        <ele>223.3</ele>
        <time>2011-02-18T21:27:54Z</time>
      </trkpt>
      <trkpt lat="43.48164" lon="3.74208">
        <ele>223.2</ele>
        <time>2011-02-18T21:27:55Z</time>
      </trkpt>
      <trkpt lat="43.48163" lon="3.74214">
        <ele>223.1</ele>
        <time>2011-02-18T21:27:56Z</time>
      </trkpt>
      <trkpt lat="43.48161" lon="3.7422">
        <ele>223.1</ele>
        <time>2011-02-18T21:27:57Z</time>
      </trkpt>
      <trkpt lat="43.48159" lon="3.74227">
        <ele>223</ele>
        <time>2011-02-18T21:27:58Z</time>
      </trkpt>
      <trkpt lat="43.48157" lon="3.74233">
        <ele>222.9</ele>
        <time>2011-02-18T21:27:59Z</time>
      </trkpt>
      <trkpt lat="43.48155" lon="3.74239">
        <ele>222.9</ele>
        <time>2011-02-18T21:28:00Z</time>
      </trkpt>
      <trkpt lat="43.48153" lon="3.74246">
        <ele>222.8</ele>
        <time>2011-02-18T21:28:01Z</time>
      </trkpt>
      <trkpt lat="43.48151" lon="3.74252">
        <ele>222.6</ele>
        <time>2011-02-18T21:28:02Z</time>
      </trkpt>
      <trkpt lat="43.48149" lon="3.74259">
        <ele>222.5</ele>
        <time>2011-02-18T21:28:03Z</time>
      </trkpt>
      <trkpt lat="43.48147" lon="3.74265">
        <ele>222.4</ele>
        <time>2011-02-18T21:28:04Z</time>
      </trkpt>
      <trkpt lat="43.48146" lon="3.74272">
        <ele>222</ele>
        <time>2011-02-18T21:28:05Z</time>
      </trkpt>
      <trkpt lat="43.48144" lon="3.74279">
        <ele>221.6</ele>
        <time>2011-02-18T21:28:06Z</time>
      </trkpt>
      <trkpt lat="43.48142" lon="3.74286">
        <ele>221.4</ele>
        <time>2011-02-18T21:28:07Z</time>
      </trkpt>
      <trkpt lat="43.48141" lon="3.74293">
        <ele>221</ele>
        <time>2011-02-18T21:28:08Z</time>
      </trkpt>
      <trkpt lat="43.4814" lon="3.74301">
        <ele>220.6</ele>
        <time>2011-02-18T21:28:09Z</time>
      </trkpt>
      <trkpt lat="43.4814" lon="3.74307">
        <ele>220.4</ele>
        <time>2011-02-18T21:28:10Z</time>
      </trkpt>
      <trkpt lat="43.48139" lon="3.74314">
        <ele>220.5</ele>
        <time>2011-02-18T21:28:11Z</time>
      </trkpt>
      <trkpt lat="43.48139" lon="3.74321">
        <ele>220.6</ele>
        <time>2011-02-18T21:28:12Z</time>
      </trkpt>
      <trkpt lat="43.48138" lon="3.74328">
        <ele>220.7</ele>
        <time>2011-02-18T21:28:13Z</time>
      </trkpt>
      <trkpt lat="43.48138" lon="3.74334">
        <ele>220.7</ele>
        <time>2011-02-18T21:28:14Z</time>
      </trkpt>
      <trkpt lat="43.48138" lon="3.74341">
        <ele>220.5</ele>
        <time>2011-02-18T21:28:15Z</time>
      </trkpt>
      <trkpt lat="43.48138" lon="3.74348">
        <ele>220.4</ele>
        <time>2011-02-18T21:28:16Z</time>
      </trkpt>
      <trkpt lat="43.48137" lon="3.74356">
        <ele>220.3</ele>
        <time>2011-02-18T21:28:17Z</time>
      </trkpt>
      <trkpt lat="43.48137" lon="3.74363">
        <ele>220</ele>
        <time>2011-02-18T21:28:18Z</time>
      </trkpt>
      <trkpt lat="43.48137" lon="3.7437">
        <ele>219.7</ele>
        <time>2011-02-18T21:28:19Z</time>
      </trkpt>
      <trkpt lat="43.48137" lon="3.74378">
        <ele>219.5</ele>
        <time>2011-02-18T21:28:20Z</time>
      </trkpt>
      <trkpt lat="43.48137" lon="3.74385">
        <ele>219.2</ele>
        <time>2011-02-18T21:28:21Z</time>
      </trkpt>
      <trkpt lat="43.48137" lon="3.74393">
        <ele>219.1</ele>
        <time>2011-02-18T21:28:22Z</time>
      </trkpt>
      <trkpt lat="43.48137" lon="3.74401">
        <ele>218.9</ele>
        <time>2011-02-18T21:28:23Z</time>
      </trkpt>
      <trkpt lat="43.48137" lon="3.74408">
        <ele>218.3</ele>
        <time>2011-02-18T21:28:24Z</time>
      </trkpt>
      <trkpt lat="43.48138" lon="3.74416">
        <ele>217.8</ele>
        <time>2011-02-18T21:28:25Z</time>
      </trkpt>
      <trkpt lat="43.48139" lon="3.74424">
        <ele>217.5</ele>
        <time>2011-02-18T21:28:26Z</time>
      </trkpt>
      <trkpt lat="43.4814" lon="3.74431">
        <ele>217.3</ele>
        <time>2011-02-18T21:28:27Z</time>
      </trkpt>
      <trkpt lat="43.48141" lon="3.74439">
        <ele>217.2</ele>
        <time>2011-02-18T21:28:28Z</time>
      </trkpt>
      <trkpt lat="43.48143" lon="3.74446">
        <ele>217.1</ele>
        <time>2011-02-18T21:28:29Z</time>
      </trkpt>
      <trkpt lat="43.48145" lon="3.74454">
        <ele>216.8</ele>
        <time>2011-02-18T21:28:30Z</time>
      </trkpt>
      <trkpt lat="43.48147" lon="3.74461">
        <ele>216.6</ele>
        <time>2011-02-18T21:28:31Z</time>
      </trkpt>
      <trkpt lat="43.4815" lon="3.74468">
        <ele>216.5</ele>
        <time>2011-02-18T21:28:32Z</time>
      </trkpt>
      <trkpt lat="43.48152" lon="3.74475">
        <ele>216.4</ele>
        <time>2011-02-18T21:28:33Z</time>
      </trkpt>
      <trkpt lat="43.48154" lon="3.74482">
        <ele>216</ele>
        <time>2011-02-18T21:28:34Z</time>
      </trkpt>
      <trkpt lat="43.48157" lon="3.74489">
        <ele>215.6</ele>
        <time>2011-02-18T21:28:35Z</time>
      </trkpt>
      <trkpt lat="43.48159" lon="3.74495">
        <ele>215.4</ele>
        <time>2011-02-18T21:28:36Z</time>
      </trkpt>
      <trkpt lat="43.48161" lon="3.74502">
        <ele>215.1</ele>
        <time>2011-02-18T21:28:37Z</time>
      </trkpt>
      <trkpt lat="43.48163" lon="3.74509">
        <ele>214.9</ele>
        <time>2011-02-18T21:28:38Z</time>
      </trkpt>
      <trkpt lat="43.48165" lon="3.74516">
        <ele>214.7</ele>
        <time>2011-02-18T21:28:39Z</time>
      </trkpt>
      <trkpt lat="43.48168" lon="3.74522">
        <ele>214.9</ele>
        <time>2011-02-18T21:28:40Z</time>
      </trkpt>
      <trkpt lat="43.4817" lon="3.74529">
        <ele>215.1</ele>
        <time>2011-02-18T21:28:41Z</time>
      </trkpt>
      <trkpt lat="43.48172" lon="3.74536">
        <ele>215.2</ele>
        <time>2011-02-18T21:28:42Z</time>
      </trkpt>
      <trkpt lat="43.48174" lon="3.74543">
        <ele>215</ele>
        <time>2011-02-18T21:28:43Z</time>
      </trkpt>
      <trkpt lat="43.48177" lon="3.74549">
        <ele>214.8</ele>
        <time>2011-02-18T21:28:44Z</time>
      </trkpt>
      <trkpt lat="43.48179" lon="3.74556">
        <ele>214.6</ele>
        <time>2011-02-18T21:28:45Z</time>
      </trkpt>
      <trkpt lat="43.48181" lon="3.74562">
        <ele>214.5</ele>
        <time>2011-02-18T21:28:46Z</time>
      </trkpt>
      <trkpt lat="43.48183" lon="3.74569">
        <ele>214.3</ele>
        <time>2011-02-18T21:28:47Z</time>
      </trkpt>
      <trkpt lat="43.48186" lon="3.74576">
        <ele>214.2</ele>
        <time>2011-02-18T21:28:48Z</time>
      </trkpt>
      <trkpt lat="43.48188" lon="3.74582">
        <ele>214.1</ele>
        <time>2011-02-18T21:28:49Z</time>
      </trkpt>
      <trkpt lat="43.4819" lon="3.74589">
        <ele>214.1</ele>
        <time>2011-02-18T21:28:50Z</time>
      </trkpt>
      <trkpt lat="43.48192" lon="3.74595">
        <ele>214</ele>
        <time>2011-02-18T21:28:51Z</time>
      </trkpt>
      <trkpt lat="43.48194" lon="3.74602">
        <ele>213.9</ele>
        <time>2011-02-18T21:28:52Z</time>
      </trkpt>
      <trkpt lat="43.48196" lon="3.74608">
        <ele>214.1</ele>
        <time>2011-02-18T21:28:53Z</time>
      </trkpt>
      <trkpt lat="43.48198" lon="3.74614">
        <ele>214.3</ele>
        <time>2011-02-18T21:28:54Z</time>
      </trkpt>
      <trkpt lat="43.482" lon="3.74619">
        <ele>214.4</ele>
        <time>2011-02-18T21:28:55Z</time>
      </trkpt>
      <trkpt lat="43.48202" lon="3.74625">
        <ele>214.3</ele>
        <time>2011-02-18T21:28:56Z</time>
      </trkpt>
      <trkpt lat="43.48204" lon="3.74631">
        <ele>214.2</ele>
        <time>2011-02-18T21:28:57Z</time>
      </trkpt>
      <trkpt lat="43.48208" lon="3.74642">
        <ele>214.1</ele>
        <time>2011-02-18T21:28:59Z</time>
      </trkpt>
      <trkpt lat="43.48211" lon="3.74653">
        <ele>213.9</ele>
        <time>2011-02-18T21:29:01Z</time>
      </trkpt>
      <trkpt lat="43.48212" lon="3.74659">
        <ele>213.8</ele>
        <time>2011-02-18T21:29:02Z</time>
      </trkpt>
      <trkpt lat="43.48213" lon="3.74665">
        <ele>213.7</ele>
        <time>2011-02-18T21:29:03Z</time>
      </trkpt>
      <trkpt lat="43.48215" lon="3.74671">
        <ele>213.6</ele>
        <time>2011-02-18T21:29:04Z</time>
      </trkpt>
      <trkpt lat="43.48217" lon="3.74683">
        <ele>213.6</ele>
        <time>2011-02-18T21:29:06Z</time>
      </trkpt>
      <trkpt lat="43.48218" lon="3.74689">
        <ele>213.7</ele>
        <time>2011-02-18T21:29:07Z</time>
      </trkpt>
      <trkpt lat="43.48219" lon="3.74695">
        <ele>213.7</ele>
        <time>2011-02-18T21:29:08Z</time>
      </trkpt>
      <trkpt lat="43.4822" lon="3.74701">
        <ele>213.7</ele>
        <time>2011-02-18T21:29:09Z</time>
      </trkpt>
      <trkpt lat="43.48222" lon="3.74719">
        <ele>213.9</ele>
        <time>2011-02-18T21:29:12Z</time>
      </trkpt>
      <trkpt lat="43.48222" lon="3.74731">
        <ele>214.3</ele>
        <time>2011-02-18T21:29:14Z</time>
      </trkpt>
      <trkpt lat="43.48222" lon="3.74743">
        <ele>214.6</ele>
        <time>2011-02-18T21:29:16Z</time>
      </trkpt>
      <trkpt lat="43.48222" lon="3.74749">
        <ele>214.7</ele>
        <time>2011-02-18T21:29:17Z</time>
      </trkpt>
      <trkpt lat="43.48222" lon="3.74755">
        <ele>214.5</ele>
        <time>2011-02-18T21:29:18Z</time>
      </trkpt>
      <trkpt lat="43.48222" lon="3.74768">
        <ele>214.4</ele>
        <time>2011-02-18T21:29:20Z</time>
      </trkpt>
      <trkpt lat="43.48222" lon="3.74774">
        <ele>214.3</ele>
        <time>2011-02-18T21:29:21Z</time>
      </trkpt>
      <trkpt lat="43.48221" lon="3.7478">
        <ele>214.2</ele>
        <time>2011-02-18T21:29:22Z</time>
      </trkpt>
      <trkpt lat="43.48221" lon="3.74787">
        <ele>214.2</ele>
        <time>2011-02-18T21:29:23Z</time>
      </trkpt>
      <trkpt lat="43.48221" lon="3.74793">
        <ele>214.1</ele>
        <time>2011-02-18T21:29:24Z</time>
      </trkpt>
      <trkpt lat="43.48221" lon="3.74805">
        <ele>214.1</ele>
        <time>2011-02-18T21:29:26Z</time>
      </trkpt>
      <trkpt lat="43.48221" lon="3.74818">
        <ele>214.1</ele>
        <time>2011-02-18T21:29:28Z</time>
      </trkpt>
      <trkpt lat="43.4822" lon="3.74824">
        <ele>214.1</ele>
        <time>2011-02-18T21:29:29Z</time>
      </trkpt>
      <trkpt lat="43.48219" lon="3.74836">
        <ele>214.1</ele>
        <time>2011-02-18T21:29:31Z</time>
      </trkpt>
      <trkpt lat="43.48218" lon="3.74842">
        <ele>214</ele>
        <time>2011-02-18T21:29:32Z</time>
      </trkpt>
      <trkpt lat="43.48218" lon="3.74849">
        <ele>214</ele>
        <time>2011-02-18T21:29:33Z</time>
      </trkpt>
      <trkpt lat="43.48216" lon="3.74855">
        <ele>214.1</ele>
        <time>2011-02-18T21:29:34Z</time>
      </trkpt>
      <trkpt lat="43.48216" lon="3.74861">
        <ele>214.1</ele>
        <time>2011-02-18T21:29:35Z</time>
      </trkpt>
      <trkpt lat="43.48215" lon="3.74873">
        <ele>214.2</ele>
        <time>2011-02-18T21:29:37Z</time>
      </trkpt>
      <trkpt lat="43.48214" lon="3.74885">
        <ele>214.2</ele>
        <time>2011-02-18T21:29:39Z</time>
      </trkpt>
      <trkpt lat="43.48214" lon="3.74898">
        <ele>214.3</ele>
        <time>2011-02-18T21:29:41Z</time>
      </trkpt>
      <trkpt lat="43.48214" lon="3.7491">
        <ele>214.4</ele>
        <time>2011-02-18T21:29:43Z</time>
      </trkpt>
      <trkpt lat="43.48215" lon="3.74921">
        <ele>214.6</ele>
        <time>2011-02-18T21:29:45Z</time>
      </trkpt>
      <trkpt lat="43.48216" lon="3.74933">
        <ele>214.5</ele>
        <time>2011-02-18T21:29:47Z</time>
      </trkpt>
      <trkpt lat="43.48217" lon="3.74944">
        <ele>214.4</ele>
        <time>2011-02-18T21:29:49Z</time>
      </trkpt>
      <trkpt lat="43.48218" lon="3.74956">
        <ele>215.2</ele>
        <time>2011-02-18T21:29:51Z</time>
      </trkpt>
      <trkpt lat="43.48218" lon="3.74968">
        <ele>215.7</ele>
        <time>2011-02-18T21:29:53Z</time>
      </trkpt>
      <trkpt lat="43.48219" lon="3.74974">
        <ele>215.9</ele>
        <time>2011-02-18T21:29:54Z</time>
      </trkpt>
      <trkpt lat="43.4822" lon="3.74981">
        <ele>216</ele>
        <time>2011-02-18T21:29:55Z</time>
      </trkpt>
      <trkpt lat="43.48221" lon="3.74987">
        <ele>216.1</ele>
        <time>2011-02-18T21:29:56Z</time>
      </trkpt>
      <trkpt lat="43.48223" lon="3.74992">
        <ele>215.8</ele>
        <time>2011-02-18T21:29:57Z</time>
      </trkpt>
      <trkpt lat="43.48225" lon="3.74998">
        <ele>215.6</ele>
        <time>2011-02-18T21:29:58Z</time>
      </trkpt>
      <trkpt lat="43.48227" lon="3.75003">
        <ele>215.5</ele>
        <time>2011-02-18T21:29:59Z</time>
      </trkpt>
      <trkpt lat="43.4823" lon="3.75009">
        <ele>215.4</ele>
        <time>2011-02-18T21:30:00Z</time>
      </trkpt>
      <trkpt lat="43.48233" lon="3.75014">
        <ele>215.4</ele>
        <time>2011-02-18T21:30:01Z</time>
      </trkpt>
      <trkpt lat="43.48239" lon="3.75023">
        <ele>215.1</ele>
        <time>2011-02-18T21:30:03Z</time>
      </trkpt>
      <trkpt lat="43.48245" lon="3.75031">
        <ele>214.7</ele>
        <time>2011-02-18T21:30:05Z</time>
      </trkpt>
      <trkpt lat="43.48252" lon="3.75038">
        <ele>214.6</ele>
        <time>2011-02-18T21:30:07Z</time>
      </trkpt>
      <trkpt lat="43.48259" lon="3.75044">
        <ele>214.7</ele>
        <time>2011-02-18T21:30:09Z</time>
      </trkpt>
      <trkpt lat="43.48262" lon="3.75046">
        <ele>214.9</ele>
        <time>2011-02-18T21:30:10Z</time>
      </trkpt>
      <trkpt lat="43.48273" lon="3.75052">
        <ele>214.8</ele>
        <time>2011-02-18T21:30:13Z</time>
      </trkpt>
      <trkpt lat="43.4828" lon="3.75056">
        <ele>214.4</ele>
        <time>2011-02-18T21:30:15Z</time>
      </trkpt>
      <trkpt lat="43.48287" lon="3.75061">
        <ele>214.3</ele>
        <time>2011-02-18T21:30:17Z</time>
      </trkpt>
      <trkpt lat="43.48294" lon="3.75065">
        <ele>214.7</ele>
        <time>2011-02-18T21:30:19Z</time>
      </trkpt>
      <trkpt lat="43.48302" lon="3.75068">
        <ele>215.3</ele>
        <time>2011-02-18T21:30:21Z</time>
      </trkpt>
      <trkpt lat="43.48309" lon="3.75071">
        <ele>215.2</ele>
        <time>2011-02-18T21:30:23Z</time>
      </trkpt>
      <trkpt lat="43.48317" lon="3.75074">
        <ele>215.2</ele>
        <time>2011-02-18T21:30:25Z</time>
      </trkpt>
      <trkpt lat="43.48324" lon="3.75077">
        <ele>215.1</ele>
        <time>2011-02-18T21:30:27Z</time>
      </trkpt>
      <trkpt lat="43.48332" lon="3.75079">
        <ele>214.7</ele>
        <time>2011-02-18T21:30:29Z</time>
      </trkpt>
      <trkpt lat="43.4834" lon="3.7508">
        <ele>214.2</ele>
        <time>2011-02-18T21:30:31Z</time>
      </trkpt>
      <trkpt lat="43.48348" lon="3.75081">
        <ele>213.9</ele>
        <time>2011-02-18T21:30:33Z</time>
      </trkpt>
      <trkpt lat="43.48356" lon="3.75083">
        <ele>213.6</ele>
        <time>2011-02-18T21:30:35Z</time>
      </trkpt>
      <trkpt lat="43.48364" lon="3.75084">
        <ele>213.4</ele>
        <time>2011-02-18T21:30:37Z</time>
      </trkpt>
      <trkpt lat="43.48372" lon="3.75085">
        <ele>214</ele>
        <time>2011-02-18T21:30:39Z</time>
      </trkpt>
      <trkpt lat="43.4838" lon="3.75087">
        <ele>214</ele>
        <time>2011-02-18T21:30:41Z</time>
      </trkpt>
      <trkpt lat="43.48388" lon="3.75091">
        <ele>213.9</ele>
        <time>2011-02-18T21:30:43Z</time>
      </trkpt>
      <trkpt lat="43.48393" lon="3.75094">
        <ele>213.8</ele>
        <time>2011-02-18T21:30:44Z</time>
      </trkpt>
      <trkpt lat="43.48397" lon="3.75097">
        <ele>213.7</ele>
        <time>2011-02-18T21:30:45Z</time>
      </trkpt>
      <trkpt lat="43.48401" lon="3.751">
        <ele>213.7</ele>
        <time>2011-02-18T21:30:46Z</time>
      </trkpt>
      <trkpt lat="43.48405" lon="3.75104">
        <ele>213.7</ele>
        <time>2011-02-18T21:30:47Z</time>
      </trkpt>
      <trkpt lat="43.48409" lon="3.75108">
        <ele>213.6</ele>
        <time>2011-02-18T21:30:48Z</time>
      </trkpt>
      <trkpt lat="43.48412" lon="3.75112">
        <ele>213.5</ele>
        <time>2011-02-18T21:30:49Z</time>
      </trkpt>
      <trkpt lat="43.48416" lon="3.75116">
        <ele>213.5</ele>
        <time>2011-02-18T21:30:50Z</time>
      </trkpt>
      <trkpt lat="43.4842" lon="3.75121">
        <ele>213.2</ele>
        <time>2011-02-18T21:30:51Z</time>
      </trkpt>
      <trkpt lat="43.48423" lon="3.75126">
        <ele>213.1</ele>
        <time>2011-02-18T21:30:52Z</time>
      </trkpt>
      <trkpt lat="43.48426" lon="3.75131">
        <ele>212.9</ele>
        <time>2011-02-18T21:30:53Z</time>
      </trkpt>
      <trkpt lat="43.4843" lon="3.75136">
        <ele>213.1</ele>
        <time>2011-02-18T21:30:54Z</time>
      </trkpt>
      <trkpt lat="43.48433" lon="3.7514">
        <ele>213.2</ele>
        <time>2011-02-18T21:30:55Z</time>
      </trkpt>
      <trkpt lat="43.48437" lon="3.75144">
        <ele>213.2</ele>
        <time>2011-02-18T21:30:56Z</time>
      </trkpt>
      <trkpt lat="43.48444" lon="3.75152">
        <ele>213.2</ele>
        <time>2011-02-18T21:30:58Z</time>
      </trkpt>
      <trkpt lat="43.48451" lon="3.75158">
        <ele>213.1</ele>
        <time>2011-02-18T21:31:00Z</time>
      </trkpt>
      <trkpt lat="43.48458" lon="3.75165">
        <ele>212.9</ele>
        <time>2011-02-18T21:31:02Z</time>
      </trkpt>
      <trkpt lat="43.48466" lon="3.7517">
        <ele>212.8</ele>
        <time>2011-02-18T21:31:04Z</time>
      </trkpt>
      <trkpt lat="43.48473" lon="3.75176">
        <ele>212.7</ele>
        <time>2011-02-18T21:31:06Z</time>
      </trkpt>
      <trkpt lat="43.48477" lon="3.75179">
        <ele>212.9</ele>
        <time>2011-02-18T21:31:07Z</time>
      </trkpt>
      <trkpt lat="43.48481" lon="3.75181">
        <ele>213.1</ele>
        <time>2011-02-18T21:31:08Z</time>
      </trkpt>
      <trkpt lat="43.48486" lon="3.75183">
        <ele>213.3</ele>
        <time>2011-02-18T21:31:09Z</time>
      </trkpt>
      <trkpt lat="43.4849" lon="3.75184">
        <ele>213.1</ele>
        <time>2011-02-18T21:31:10Z</time>
      </trkpt>
      <trkpt lat="43.48495" lon="3.75185">
        <ele>213.1</ele>
        <time>2011-02-18T21:31:11Z</time>
      </trkpt>
      <trkpt lat="43.48499" lon="3.75186">
        <ele>213</ele>
        <time>2011-02-18T21:31:12Z</time>
      </trkpt>
      <trkpt lat="43.48504" lon="3.75185">
        <ele>212.8</ele>
        <time>2011-02-18T21:31:13Z</time>
      </trkpt>
      <trkpt lat="43.48513" lon="3.75184">
        <ele>212.4</ele>
        <time>2011-02-18T21:31:15Z</time>
      </trkpt>
      <trkpt lat="43.48522" lon="3.75182">
        <ele>212.3</ele>
        <time>2011-02-18T21:31:17Z</time>
      </trkpt>
      <trkpt lat="43.48526" lon="3.75182">
        <ele>212.3</ele>
        <time>2011-02-18T21:31:18Z</time>
      </trkpt>
      <trkpt lat="43.48531" lon="3.75181">
        <ele>212.3</ele>
        <time>2011-02-18T21:31:19Z</time>
      </trkpt>
      <trkpt lat="43.48535" lon="3.75181">
        <ele>212.4</ele>
        <time>2011-02-18T21:31:20Z</time>
      </trkpt>
      <trkpt lat="43.4854" lon="3.75181">
        <ele>212.5</ele>
        <time>2011-02-18T21:31:21Z</time>
      </trkpt>
      <trkpt lat="43.48544" lon="3.75181">
        <ele>212.5</ele>
        <time>2011-02-18T21:31:22Z</time>
      </trkpt>
      <trkpt lat="43.48549" lon="3.75181">
        <ele>212.4</ele>
        <time>2011-02-18T21:31:23Z</time>
      </trkpt>
      <trkpt lat="43.48554" lon="3.75181">
        <ele>212.3</ele>
        <time>2011-02-18T21:31:24Z</time>
      </trkpt>
      <trkpt lat="43.48558" lon="3.75181">
        <ele>212.2</ele>
        <time>2011-02-18T21:31:25Z</time>
      </trkpt>
      <trkpt lat="43.48563" lon="3.75181">
        <ele>212.1</ele>
        <time>2011-02-18T21:31:26Z</time>
      </trkpt>
      <trkpt lat="43.48568" lon="3.75182">
        <ele>212.1</ele>
        <time>2011-02-18T21:31:27Z</time>
      </trkpt>
      <trkpt lat="43.48573" lon="3.75183">
        <ele>212.1</ele>
        <time>2011-02-18T21:31:28Z</time>
      </trkpt>
      <trkpt lat="43.48578" lon="3.75183">
        <ele>211.9</ele>
        <time>2011-02-18T21:31:29Z</time>
      </trkpt>
      <trkpt lat="43.48582" lon="3.75185">
        <ele>211.8</ele>
        <time>2011-02-18T21:31:30Z</time>
      </trkpt>
      <trkpt lat="43.48587" lon="3.75186">
        <ele>211.7</ele>
        <time>2011-02-18T21:31:31Z</time>
      </trkpt>
      <trkpt lat="43.48591" lon="3.75188">
        <ele>211.6</ele>
        <time>2011-02-18T21:31:32Z</time>
      </trkpt>
      <trkpt lat="43.48596" lon="3.75189">
        <ele>211.5</ele>
        <time>2011-02-18T21:31:33Z</time>
      </trkpt>
      <trkpt lat="43.486" lon="3.75191">
        <ele>211.5</ele>
        <time>2011-02-18T21:31:34Z</time>
      </trkpt>
      <trkpt lat="43.48609" lon="3.75195">
        <ele>211.6</ele>
        <time>2011-02-18T21:31:36Z</time>
      </trkpt>
      <trkpt lat="43.48613" lon="3.75197">
        <ele>211.7</ele>
        <time>2011-02-18T21:31:37Z</time>
      </trkpt>
      <trkpt lat="43.48617" lon="3.752">
        <ele>211.8</ele>
        <time>2011-02-18T21:31:38Z</time>
      </trkpt>
      <trkpt lat="43.48621" lon="3.75202">
        <ele>211.8</ele>
        <time>2011-02-18T21:31:39Z</time>
      </trkpt>
      <trkpt lat="43.48625" lon="3.75205">
        <ele>211.8</ele>
        <time>2011-02-18T21:31:40Z</time>
      </trkpt>
      <trkpt lat="43.48629" lon="3.75208">
        <ele>211.8</ele>
        <time>2011-02-18T21:31:41Z</time>
      </trkpt>
      <trkpt lat="43.48634" lon="3.75211">
        <ele>211.6</ele>
        <time>2011-02-18T21:31:42Z</time>
      </trkpt>
      <trkpt lat="43.48638" lon="3.75213">
        <ele>211.5</ele>
        <time>2011-02-18T21:31:43Z</time>
      </trkpt>
      <trkpt lat="43.48642" lon="3.75216">
        <ele>211.5</ele>
        <time>2011-02-18T21:31:44Z</time>
      </trkpt>
      <trkpt lat="43.48646" lon="3.75219">
        <ele>211.4</ele>
        <time>2011-02-18T21:31:45Z</time>
      </trkpt>
      <trkpt lat="43.4865" lon="3.75222">
        <ele>211.4</ele>
        <time>2011-02-18T21:31:46Z</time>
      </trkpt>
      <trkpt lat="43.48658" lon="3.75227">
        <ele>211.7</ele>
        <time>2011-02-18T21:31:48Z</time>
      </trkpt>
      <trkpt lat="43.48662" lon="3.75229">
        <ele>211.9</ele>
        <time>2011-02-18T21:31:49Z</time>
      </trkpt>
      <trkpt lat="43.48667" lon="3.75232">
        <ele>212</ele>
        <time>2011-02-18T21:31:50Z</time>
      </trkpt>
      <trkpt lat="43.48671" lon="3.75234">
        <ele>212.1</ele>
        <time>2011-02-18T21:31:51Z</time>
      </trkpt>
      <trkpt lat="43.48675" lon="3.75237">
        <ele>211.9</ele>
        <time>2011-02-18T21:31:52Z</time>
      </trkpt>
      <trkpt lat="43.48679" lon="3.75241">
        <ele>211.7</ele>
        <time>2011-02-18T21:31:53Z</time>
      </trkpt>
      <trkpt lat="43.48683" lon="3.75244">
        <ele>211.5</ele>
        <time>2011-02-18T21:31:54Z</time>
      </trkpt>
      <trkpt lat="43.48687" lon="3.75248">
        <ele>211.4</ele>
        <time>2011-02-18T21:31:55Z</time>
      </trkpt>
      <trkpt lat="43.48692" lon="3.75252">
        <ele>211.3</ele>
        <time>2011-02-18T21:31:56Z</time>
      </trkpt>
      <trkpt lat="43.48696" lon="3.75256">
        <ele>211.2</ele>
        <time>2011-02-18T21:31:57Z</time>
      </trkpt>
      <trkpt lat="43.487" lon="3.75261">
        <ele>210.8</ele>
        <time>2011-02-18T21:31:58Z</time>
      </trkpt>
      <trkpt lat="43.48703" lon="3.75266">
        <ele>210.5</ele>
        <time>2011-02-18T21:31:59Z</time>
      </trkpt>
      <trkpt lat="43.48707" lon="3.75271">
        <ele>210.2</ele>
        <time>2011-02-18T21:32:00Z</time>
      </trkpt>
      <trkpt lat="43.4871" lon="3.75277">
        <ele>210.1</ele>
        <time>2011-02-18T21:32:01Z</time>
      </trkpt>
      <trkpt lat="43.48714" lon="3.75283">
        <ele>210.1</ele>
        <time>2011-02-18T21:32:02Z</time>
      </trkpt>
      <trkpt lat="43.48717" lon="3.7529">
        <ele>210</ele>
        <time>2011-02-18T21:32:03Z</time>
      </trkpt>
      <trkpt lat="43.4872" lon="3.75297">
        <ele>209.9</ele>
        <time>2011-02-18T21:32:04Z</time>
      </trkpt>
      <trkpt lat="43.48722" lon="3.75305">
        <ele>209.8</ele>
        <time>2011-02-18T21:32:05Z</time>
      </trkpt>
      <trkpt lat="43.48724" lon="3.75313">
        <ele>209.7</ele>
        <time>2011-02-18T21:32:06Z</time>
      </trkpt>
      <trkpt lat="43.48727" lon="3.75321">
        <ele>209.7</ele>
        <time>2011-02-18T21:32:07Z</time>
      </trkpt>
      <trkpt lat="43.48729" lon="3.75329">
        <ele>209.4</ele>
        <time>2011-02-18T21:32:08Z</time>
      </trkpt>
      <trkpt lat="43.48731" lon="3.75337">
        <ele>209.3</ele>
        <time>2011-02-18T21:32:09Z</time>
      </trkpt>
      <trkpt lat="43.48732" lon="3.75345">
        <ele>209.1</ele>
        <time>2011-02-18T21:32:10Z</time>
      </trkpt>
      <trkpt lat="43.48732" lon="3.75354">
        <ele>208.4</ele>
        <time>2011-02-18T21:32:11Z</time>
      </trkpt>
      <trkpt lat="43.48732" lon="3.75363">
        <ele>207.8</ele>
        <time>2011-02-18T21:32:12Z</time>
      </trkpt>
      <trkpt lat="43.48731" lon="3.75372">
        <ele>207.4</ele>
        <time>2011-02-18T21:32:13Z</time>
      </trkpt>
      <trkpt lat="43.48728" lon="3.7538">
        <ele>206.5</ele>
        <time>2011-02-18T21:32:14Z</time>
      </trkpt>
      <trkpt lat="43.48725" lon="3.75388">
        <ele>205.8</ele>
        <time>2011-02-18T21:32:15Z</time>
      </trkpt>
      <trkpt lat="43.4872" lon="3.75394">
        <ele>205.3</ele>
        <time>2011-02-18T21:32:16Z</time>
      </trkpt>
      <trkpt lat="43.48715" lon="3.75399">
        <ele>205.6</ele>
        <time>2011-02-18T21:32:17Z</time>
      </trkpt>
      <trkpt lat="43.4871" lon="3.75403">
        <ele>205.8</ele>
        <time>2011-02-18T21:32:18Z</time>
      </trkpt>
      <trkpt lat="43.48705" lon="3.75408">
        <ele>206</ele>
        <time>2011-02-18T21:32:19Z</time>
      </trkpt>
      <trkpt lat="43.48701" lon="3.75412">
        <ele>205.7</ele>
        <time>2011-02-18T21:32:20Z</time>
      </trkpt>
      <trkpt lat="43.48696" lon="3.75417">
        <ele>205.5</ele>
        <time>2011-02-18T21:32:21Z</time>
      </trkpt>
      <trkpt lat="43.48692" lon="3.75421">
        <ele>205.4</ele>
        <time>2011-02-18T21:32:22Z</time>
      </trkpt>
      <trkpt lat="43.48688" lon="3.75425">
        <ele>205.3</ele>
        <time>2011-02-18T21:32:23Z</time>
      </trkpt>
      <trkpt lat="43.48685" lon="3.7543">
        <ele>205.5</ele>
        <time>2011-02-18T21:32:24Z</time>
      </trkpt>
      <trkpt lat="43.48681" lon="3.75435">
        <ele>205.7</ele>
        <time>2011-02-18T21:32:25Z</time>
      </trkpt>
      <trkpt lat="43.48679" lon="3.75441">
        <ele>205.9</ele>
        <time>2011-02-18T21:32:26Z</time>
      </trkpt>
      <trkpt lat="43.48677" lon="3.75447">
        <ele>206.1</ele>
        <time>2011-02-18T21:32:27Z</time>
      </trkpt>
      <trkpt lat="43.48675" lon="3.75453">
        <ele>206.3</ele>
        <time>2011-02-18T21:32:28Z</time>
      </trkpt>
      <trkpt lat="43.48674" lon="3.7546">
        <ele>206.4</ele>
        <time>2011-02-18T21:32:29Z</time>
      </trkpt>
      <trkpt lat="43.48673" lon="3.75467">
        <ele>206.7</ele>
        <time>2011-02-18T21:32:30Z</time>
      </trkpt>
      <trkpt lat="43.48674" lon="3.75474">
        <ele>206.9</ele>
        <time>2011-02-18T21:32:31Z</time>
      </trkpt>
      <trkpt lat="43.48675" lon="3.75481">
        <ele>207.1</ele>
        <time>2011-02-18T21:32:32Z</time>
      </trkpt>
      <trkpt lat="43.48676" lon="3.75488">
        <ele>207.2</ele>
        <time>2011-02-18T21:32:33Z</time>
      </trkpt>
      <trkpt lat="43.48678" lon="3.75494">
        <ele>207.3</ele>
        <time>2011-02-18T21:32:34Z</time>
      </trkpt>
      <trkpt lat="43.48679" lon="3.755">
        <ele>207.4</ele>
        <time>2011-02-18T21:32:35Z</time>
      </trkpt>
      <trkpt lat="43.48681" lon="3.75507">
        <ele>207.4</ele>
        <time>2011-02-18T21:32:36Z</time>
      </trkpt>
      <trkpt lat="43.48681" lon="3.75513">
        <ele>207.4</ele>
        <time>2011-02-18T21:32:37Z</time>
      </trkpt>
      <trkpt lat="43.48682" lon="3.75519">
        <ele>207.5</ele>
        <time>2011-02-18T21:32:38Z</time>
      </trkpt>
      <trkpt lat="43.48682" lon="3.75526">
        <ele>207.8</ele>
        <time>2011-02-18T21:32:39Z</time>
      </trkpt>
      <trkpt lat="43.48682" lon="3.75532">
        <ele>208</ele>
        <time>2011-02-18T21:32:40Z</time>
      </trkpt>
      <trkpt lat="43.48682" lon="3.75544">
        <ele>208.3</ele>
        <time>2011-02-18T21:32:42Z</time>
      </trkpt>
      <trkpt lat="43.48679" lon="3.75556">
        <ele>207.6</ele>
        <time>2011-02-18T21:32:44Z</time>
      </trkpt>
      <trkpt lat="43.48679" lon="3.75562">
        <ele>207.3</ele>
        <time>2011-02-18T21:32:45Z</time>
      </trkpt>
      <trkpt lat="43.48678" lon="3.75569">
        <ele>207.7</ele>
        <time>2011-02-18T21:32:46Z</time>
      </trkpt>
      <trkpt lat="43.48676" lon="3.7558">
        <ele>208.3</ele>
        <time>2011-02-18T21:32:48Z</time>
      </trkpt>
      <trkpt lat="43.48673" lon="3.75592">
        <ele>208.5</ele>
        <time>2011-02-18T21:32:50Z</time>
      </trkpt>
      <trkpt lat="43.48669" lon="3.75602">
        <ele>208.8</ele>
        <time>2011-02-18T21:32:52Z</time>
      </trkpt>
      <trkpt lat="43.48664" lon="3.75611">
        <ele>209.1</ele>
        <time>2011-02-18T21:32:54Z</time>
      </trkpt>
      <trkpt lat="43.48661" lon="3.75623">
        <ele>209.4</ele>
        <time>2011-02-18T21:32:56Z</time>
      </trkpt>
      <trkpt lat="43.48664" lon="3.75635">
        <ele>209.5</ele>
        <time>2011-02-18T21:32:58Z</time>
      </trkpt>
      <trkpt lat="43.48668" lon="3.75645">
        <ele>210.1</ele>
        <time>2011-02-18T21:33:00Z</time>
      </trkpt>
      <trkpt lat="43.48674" lon="3.75654">
        <ele>210.3</ele>
        <time>2011-02-18T21:33:02Z</time>
      </trkpt>
      <trkpt lat="43.48679" lon="3.75661">
        <ele>210.3</ele>
        <time>2011-02-18T21:33:04Z</time>
      </trkpt>
      <trkpt lat="43.48685" lon="3.75668">
        <ele>210.9</ele>
        <time>2011-02-18T21:33:06Z</time>
      </trkpt>
      <trkpt lat="43.48692" lon="3.75673">
        <ele>211</ele>
        <time>2011-02-18T21:33:08Z</time>
      </trkpt>
      <trkpt lat="43.48699" lon="3.75677">
        <ele>210.7</ele>
        <time>2011-02-18T21:33:10Z</time>
      </trkpt>
      <trkpt lat="43.48706" lon="3.7568">
        <ele>210.7</ele>
        <time>2011-02-18T21:33:12Z</time>
      </trkpt>
      <trkpt lat="43.4871" lon="3.7568">
        <ele>210.7</ele>
        <time>2011-02-18T21:33:13Z</time>
      </trkpt>
      <trkpt lat="43.4872" lon="3.75683">
        <ele>210.8</ele>
        <time>2011-02-18T21:33:16Z</time>
      </trkpt>
      <trkpt lat="43.48727" lon="3.75686">
        <ele>211.4</ele>
        <time>2011-02-18T21:33:18Z</time>
      </trkpt>
      <trkpt lat="43.48734" lon="3.75688">
        <ele>212.1</ele>
        <time>2011-02-18T21:33:20Z</time>
      </trkpt>
      <trkpt lat="43.48741" lon="3.75688">
        <ele>212.1</ele>
        <time>2011-02-18T21:33:22Z</time>
      </trkpt>
      <trkpt lat="43.48747" lon="3.75685">
        <ele>212.2</ele>
        <time>2011-02-18T21:33:24Z</time>
      </trkpt>
      <trkpt lat="43.48754" lon="3.75683">
        <ele>212.4</ele>
        <time>2011-02-18T21:33:26Z</time>
      </trkpt>
      <trkpt lat="43.48759" lon="3.75678">
        <ele>212.6</ele>
        <time>2011-02-18T21:33:28Z</time>
      </trkpt>
      <trkpt lat="43.48764" lon="3.75673">
        <ele>212.6</ele>
        <time>2011-02-18T21:33:30Z</time>
      </trkpt>
      <trkpt lat="43.48769" lon="3.75667">
        <ele>212.4</ele>
        <time>2011-02-18T21:33:32Z</time>
      </trkpt>
      <trkpt lat="43.48772" lon="3.7566">
        <ele>212.1</ele>
        <time>2011-02-18T21:33:34Z</time>
      </trkpt>
      <trkpt lat="43.48774" lon="3.75651">
        <ele>211.9</ele>
        <time>2011-02-18T21:33:36Z</time>
      </trkpt>
      <trkpt lat="43.48778" lon="3.75644">
        <ele>212</ele>
        <time>2011-02-18T21:33:38Z</time>
      </trkpt>
      <trkpt lat="43.48782" lon="3.75637">
        <ele>212.2</ele>
        <time>2011-02-18T21:33:40Z</time>
      </trkpt>
      <trkpt lat="43.48786" lon="3.75631">
        <ele>212.3</ele>
        <time>2011-02-18T21:33:42Z</time>
      </trkpt>
      <trkpt lat="43.48791" lon="3.75625">
        <ele>213.3</ele>
        <time>2011-02-18T21:33:44Z</time>
      </trkpt>
      <trkpt lat="43.48797" lon="3.75621">
        <ele>213.9</ele>
        <time>2011-02-18T21:33:46Z</time>
      </trkpt>
      <trkpt lat="43.48803" lon="3.75618">
        <ele>214.5</ele>
        <time>2011-02-18T21:33:48Z</time>
      </trkpt>
      <trkpt lat="43.48809" lon="3.75617">
        <ele>214.5</ele>
        <time>2011-02-18T21:33:50Z</time>
      </trkpt>
      <trkpt lat="43.48815" lon="3.75615">
        <ele>214.2</ele>
        <time>2011-02-18T21:33:52Z</time>
      </trkpt>
      <trkpt lat="43.48822" lon="3.75615">
        <ele>215.2</ele>
        <time>2011-02-18T21:33:54Z</time>
      </trkpt>
      <trkpt lat="43.4883" lon="3.75617">
        <ele>215.9</ele>
        <time>2011-02-18T21:33:57Z</time>
      </trkpt>
      <trkpt lat="43.48837" lon="3.75617">
        <ele>216.2</ele>
        <time>2011-02-18T21:33:59Z</time>
      </trkpt>
      <trkpt lat="43.48845" lon="3.75617">
        <ele>216.6</ele>
        <time>2011-02-18T21:34:02Z</time>
      </trkpt>
      <trkpt lat="43.48854" lon="3.75617">
        <ele>216.8</ele>
        <time>2011-02-18T21:34:05Z</time>
      </trkpt>
      <trkpt lat="43.4886" lon="3.75617">
        <ele>217.2</ele>
        <time>2011-02-18T21:34:07Z</time>
      </trkpt>
      <trkpt lat="43.48869" lon="3.75617">
        <ele>216.5</ele>
        <time>2011-02-18T21:34:10Z</time>
      </trkpt>
      <trkpt lat="43.48878" lon="3.75617">
        <ele>217</ele>
        <time>2011-02-18T21:34:13Z</time>
      </trkpt>
      <trkpt lat="43.48881" lon="3.75617">
        <ele>217.2</ele>
        <time>2011-02-18T21:34:14Z</time>
      </trkpt>
      <trkpt lat="43.48895" lon="3.75619">
        <ele>216.8</ele>
        <time>2011-02-18T21:34:19Z</time>
      </trkpt>
      <trkpt lat="43.48903" lon="3.75621">
        <ele>216.8</ele>
        <time>2011-02-18T21:34:22Z</time>
      </trkpt>
      <trkpt lat="43.4891" lon="3.75623">
        <ele>217.3</ele>
        <time>2011-02-18T21:34:25Z</time>
      </trkpt>
      <trkpt lat="43.48917" lon="3.75626">
        <ele>217.7</ele>
        <time>2011-02-18T21:34:28Z</time>
      </trkpt>
      <trkpt lat="43.48924" lon="3.7563">
        <ele>217.9</ele>
        <time>2011-02-18T21:34:31Z</time>
      </trkpt>
      <trkpt lat="43.48932" lon="3.75636">
        <ele>218.3</ele>
        <time>2011-02-18T21:34:34Z</time>
      </trkpt>
      <trkpt lat="43.48939" lon="3.75642">
        <ele>218.8</ele>
        <time>2011-02-18T21:34:37Z</time>
      </trkpt>
      <trkpt lat="43.48947" lon="3.75647">
        <ele>218.8</ele>
        <time>2011-02-18T21:34:40Z</time>
      </trkpt>
      <trkpt lat="43.48953" lon="3.75651">
        <ele>219.6</ele>
        <time>2011-02-18T21:34:42Z</time>
      </trkpt>
      <trkpt lat="43.48958" lon="3.75656">
        <ele>219.9</ele>
        <time>2011-02-18T21:34:44Z</time>
      </trkpt>
      <trkpt lat="43.48964" lon="3.75661">
        <ele>219.9</ele>
        <time>2011-02-18T21:34:46Z</time>
      </trkpt>
      <trkpt lat="43.48969" lon="3.75666">
        <ele>219.9</ele>
        <time>2011-02-18T21:34:48Z</time>
      </trkpt>
      <trkpt lat="43.48973" lon="3.75673">
        <ele>219.8</ele>
        <time>2011-02-18T21:34:50Z</time>
      </trkpt>
      <trkpt lat="43.48976" lon="3.75681">
        <ele>219.6</ele>
        <time>2011-02-18T21:34:52Z</time>
      </trkpt>
      <trkpt lat="43.48979" lon="3.75688">
        <ele>219.4</ele>
        <time>2011-02-18T21:34:54Z</time>
      </trkpt>
      <trkpt lat="43.48982" lon="3.75697">
        <ele>219.2</ele>
        <time>2011-02-18T21:34:56Z</time>
      </trkpt>
      <trkpt lat="43.48987" lon="3.75706">
        <ele>219.3</ele>
        <time>2011-02-18T21:34:58Z</time>
      </trkpt>
      <trkpt lat="43.48992" lon="3.75714">
        <ele>219.3</ele>
        <time>2011-02-18T21:35:00Z</time>
      </trkpt>
      <trkpt lat="43.48997" lon="3.75722">
        <ele>219.2</ele>
        <time>2011-02-18T21:35:02Z</time>
      </trkpt>
      <trkpt lat="43.49002" lon="3.7573">
        <ele>219.3</ele>
        <time>2011-02-18T21:35:04Z</time>
      </trkpt>
      <trkpt lat="43.49006" lon="3.75738">
        <ele>219.3</ele>
        <time>2011-02-18T21:35:06Z</time>
      </trkpt>
      <trkpt lat="43.4901" lon="3.75747">
        <ele>219.2</ele>
        <time>2011-02-18T21:35:08Z</time>
      </trkpt>
      <trkpt lat="43.49014" lon="3.75757">
        <ele>219.3</ele>
        <time>2011-02-18T21:35:10Z</time>
      </trkpt>
      <trkpt lat="43.49017" lon="3.75767">
        <ele>219.5</ele>
        <time>2011-02-18T21:35:12Z</time>
      </trkpt>
      <trkpt lat="43.49021" lon="3.75776">
        <ele>219.3</ele>
        <time>2011-02-18T21:35:14Z</time>
      </trkpt>
      <trkpt lat="43.49023" lon="3.7578">
        <ele>219.2</ele>
        <time>2011-02-18T21:35:15Z</time>
      </trkpt>
      <trkpt lat="43.49027" lon="3.75792">
        <ele>219.5</ele>
        <time>2011-02-18T21:35:18Z</time>
      </trkpt>
      <trkpt lat="43.49029" lon="3.758">
        <ele>220</ele>
        <time>2011-02-18T21:35:20Z</time>
      </trkpt>
      <trkpt lat="43.49032" lon="3.75809">
        <ele>220.1</ele>
        <time>2011-02-18T21:35:22Z</time>
      </trkpt>
      <trkpt lat="43.49035" lon="3.75817">
        <ele>219.9</ele>
        <time>2011-02-18T21:35:24Z</time>
      </trkpt>
      <trkpt lat="43.49037" lon="3.75826">
        <ele>220.5</ele>
        <time>2011-02-18T21:35:26Z</time>
      </trkpt>
      <trkpt lat="43.4904" lon="3.75834">
        <ele>220.8</ele>
        <time>2011-02-18T21:35:28Z</time>
      </trkpt>
      <trkpt lat="43.49044" lon="3.75843">
        <ele>220.8</ele>
        <time>2011-02-18T21:35:30Z</time>
      </trkpt>
      <trkpt lat="43.49048" lon="3.75851">
        <ele>220.8</ele>
        <time>2011-02-18T21:35:32Z</time>
      </trkpt>
      <trkpt lat="43.49051" lon="3.75858">
        <ele>220.7</ele>
        <time>2011-02-18T21:35:34Z</time>
      </trkpt>
      <trkpt lat="43.49055" lon="3.75866">
        <ele>221</ele>
        <time>2011-02-18T21:35:36Z</time>
      </trkpt>
      <trkpt lat="43.49059" lon="3.75873">
        <ele>221.1</ele>
        <time>2011-02-18T21:35:38Z</time>
      </trkpt>
      <trkpt lat="43.49064" lon="3.75879">
        <ele>221.1</ele>
        <time>2011-02-18T21:35:40Z</time>
      </trkpt>
      <trkpt lat="43.4907" lon="3.75883">
        <ele>221.4</ele>
        <time>2011-02-18T21:35:42Z</time>
      </trkpt>
      <trkpt lat="43.49077" lon="3.75886">
        <ele>221.6</ele>
        <time>2011-02-18T21:35:44Z</time>
      </trkpt>
      <trkpt lat="43.49084" lon="3.75888">
        <ele>221.7</ele>
        <time>2011-02-18T21:35:46Z</time>
      </trkpt>
      <trkpt lat="43.49092" lon="3.75887">
        <ele>221.5</ele>
        <time>2011-02-18T21:35:48Z</time>
      </trkpt>
      <trkpt lat="43.49098" lon="3.75884">
        <ele>221.1</ele>
        <time>2011-02-18T21:35:50Z</time>
      </trkpt>
      <trkpt lat="43.49104" lon="3.7588">
        <ele>220.8</ele>
        <time>2011-02-18T21:35:52Z</time>
      </trkpt>
      <trkpt lat="43.4911" lon="3.75874">
        <ele>220.4</ele>
        <time>2011-02-18T21:35:54Z</time>
      </trkpt>
      <trkpt lat="43.49113" lon="3.75867">
        <ele>219.8</ele>
        <time>2011-02-18T21:35:56Z</time>
      </trkpt>
      <trkpt lat="43.49115" lon="3.75858">
        <ele>220.1</ele>
        <time>2011-02-18T21:35:58Z</time>
      </trkpt>
      <trkpt lat="43.49117" lon="3.75848">
        <ele>220.2</ele>
        <time>2011-02-18T21:36:00Z</time>
      </trkpt>
      <trkpt lat="43.49122" lon="3.75841">
        <ele>220.3</ele>
        <time>2011-02-18T21:36:02Z</time>
      </trkpt>
      <trkpt lat="43.49127" lon="3.75834">
        <ele>220.3</ele>
        <time>2011-02-18T21:36:04Z</time>
      </trkpt>
      <trkpt lat="43.49133" lon="3.7583">
        <ele>220.3</ele>
        <time>2011-02-18T21:36:06Z</time>
      </trkpt>
      <trkpt lat="43.49139" lon="3.75827">
        <ele>220.4</ele>
        <time>2011-02-18T21:36:08Z</time>
      </trkpt>
      <trkpt lat="43.49145" lon="3.75824">
        <ele>220.8</ele>
        <time>2011-02-18T21:36:10Z</time>
      </trkpt>
      <trkpt lat="43.49151" lon="3.75821">
        <ele>221.1</ele>
        <time>2011-02-18T21:36:12Z</time>
      </trkpt>
      <trkpt lat="43.49156" lon="3.75817">
        <ele>221.6</ele>
        <time>2011-02-18T21:36:14Z</time>
      </trkpt>
      <trkpt lat="43.49162" lon="3.75815">
        <ele>221.8</ele>
        <time>2011-02-18T21:36:16Z</time>
      </trkpt>
      <trkpt lat="43.49165" lon="3.75814">
        <ele>222</ele>
        <time>2011-02-18T21:36:17Z</time>
      </trkpt>
      <trkpt lat="43.49175" lon="3.7581">
        <ele>221.9</ele>
        <time>2011-02-18T21:36:20Z</time>
      </trkpt>
      <trkpt lat="43.49181" lon="3.75809">
        <ele>221.5</ele>
        <time>2011-02-18T21:36:22Z</time>
      </trkpt>
      <trkpt lat="43.49188" lon="3.75808">
        <ele>221</ele>
        <time>2011-02-18T21:36:24Z</time>
      </trkpt>
      <trkpt lat="43.49194" lon="3.75807">
        <ele>221.1</ele>
        <time>2011-02-18T21:36:26Z</time>
      </trkpt>
      <trkpt lat="43.49201" lon="3.75807">
        <ele>221.5</ele>
        <time>2011-02-18T21:36:28Z</time>
      </trkpt>
      <trkpt lat="43.49207" lon="3.75808">
        <ele>221.8</ele>
        <time>2011-02-18T21:36:30Z</time>
      </trkpt>
      <trkpt lat="43.49214" lon="3.75809">
        <ele>222</ele>
        <time>2011-02-18T21:36:32Z</time>
      </trkpt>
      <trkpt lat="43.4922" lon="3.75812">
        <ele>222.3</ele>
        <time>2011-02-18T21:36:34Z</time>
      </trkpt>
      <trkpt lat="43.49226" lon="3.75815">
        <ele>222.1</ele>
        <time>2011-02-18T21:36:36Z</time>
      </trkpt>
      <trkpt lat="43.49232" lon="3.75819">
        <ele>221.7</ele>
        <time>2011-02-18T21:36:38Z</time>
      </trkpt>
      <trkpt lat="43.49237" lon="3.75823">
        <ele>222.2</ele>
        <time>2011-02-18T21:36:40Z</time>
      </trkpt>
      <trkpt lat="43.49243" lon="3.75828">
        <ele>222.7</ele>
        <time>2011-02-18T21:36:42Z</time>
      </trkpt>
      <trkpt lat="43.49249" lon="3.75834">
        <ele>223.2</ele>
        <time>2011-02-18T21:36:44Z</time>
      </trkpt>
      <trkpt lat="43.49254" lon="3.75841">
        <ele>223.3</ele>
        <time>2011-02-18T21:36:46Z</time>
      </trkpt>
      <trkpt lat="43.4926" lon="3.75847">
        <ele>223.2</ele>
        <time>2011-02-18T21:36:48Z</time>
      </trkpt>
      <trkpt lat="43.49267" lon="3.75853">
        <ele>222.9</ele>
        <time>2011-02-18T21:36:50Z</time>
      </trkpt>
      <trkpt lat="43.49273" lon="3.75859">
        <ele>223</ele>
        <time>2011-02-18T21:36:52Z</time>
      </trkpt>
      <trkpt lat="43.4928" lon="3.75864">
        <ele>223.2</ele>
        <time>2011-02-18T21:36:54Z</time>
      </trkpt>
      <trkpt lat="43.49286" lon="3.75868">
        <ele>223.6</ele>
        <time>2011-02-18T21:36:56Z</time>
      </trkpt>
      <trkpt lat="43.49293" lon="3.75871">
        <ele>223.5</ele>
        <time>2011-02-18T21:36:58Z</time>
      </trkpt>
      <trkpt lat="43.49301" lon="3.75875">
        <ele>223.2</ele>
        <time>2011-02-18T21:37:00Z</time>
      </trkpt>
      <trkpt lat="43.49308" lon="3.75878">
        <ele>223.6</ele>
        <time>2011-02-18T21:37:02Z</time>
      </trkpt>
      <trkpt lat="43.49315" lon="3.7588">
        <ele>223.7</ele>
        <time>2011-02-18T21:37:04Z</time>
      </trkpt>
      <trkpt lat="43.49322" lon="3.75883">
        <ele>223.8</ele>
        <time>2011-02-18T21:37:06Z</time>
      </trkpt>
      <trkpt lat="43.49329" lon="3.75887">
        <ele>223.5</ele>
        <time>2011-02-18T21:37:08Z</time>
      </trkpt>
      <trkpt lat="43.49336" lon="3.7589">
        <ele>223.2</ele>
        <time>2011-02-18T21:37:10Z</time>
      </trkpt>
      <trkpt lat="43.49343" lon="3.75891">
        <ele>223.2</ele>
        <time>2011-02-18T21:37:12Z</time>
      </trkpt>
      <trkpt lat="43.4935" lon="3.75889">
        <ele>223</ele>
        <time>2011-02-18T21:37:14Z</time>
      </trkpt>
      <trkpt lat="43.49357" lon="3.75885">
        <ele>222.6</ele>
        <time>2011-02-18T21:37:16Z</time>
      </trkpt>
      <trkpt lat="43.49364" lon="3.75881">
        <ele>223.2</ele>
        <time>2011-02-18T21:37:18Z</time>
      </trkpt>
      <trkpt lat="43.49367" lon="3.75878">
        <ele>223.3</ele>
        <time>2011-02-18T21:37:19Z</time>
      </trkpt>
      <trkpt lat="43.49376" lon="3.75869">
        <ele>223.8</ele>
        <time>2011-02-18T21:37:22Z</time>
      </trkpt>
      <trkpt lat="43.4938" lon="3.75861">
        <ele>223.7</ele>
        <time>2011-02-18T21:37:24Z</time>
      </trkpt>
      <trkpt lat="43.49383" lon="3.75851">
        <ele>223.4</ele>
        <time>2011-02-18T21:37:26Z</time>
      </trkpt>
      <trkpt lat="43.49384" lon="3.75841">
        <ele>223.7</ele>
        <time>2011-02-18T21:37:28Z</time>
      </trkpt>
      <trkpt lat="43.49384" lon="3.75831">
        <ele>223.8</ele>
        <time>2011-02-18T21:37:30Z</time>
      </trkpt>
      <trkpt lat="43.49383" lon="3.75821">
        <ele>223.7</ele>
        <time>2011-02-18T21:37:32Z</time>
      </trkpt>
      <trkpt lat="43.49383" lon="3.75811">
        <ele>223.4</ele>
        <time>2011-02-18T21:37:34Z</time>
      </trkpt>
      <trkpt lat="43.49385" lon="3.75801">
        <ele>223.7</ele>
        <time>2011-02-18T21:37:36Z</time>
      </trkpt>
      <trkpt lat="43.49387" lon="3.7579">
        <ele>224.2</ele>
        <time>2011-02-18T21:37:38Z</time>
      </trkpt>
      <trkpt lat="43.49388" lon="3.7578">
        <ele>224</ele>
        <time>2011-02-18T21:37:40Z</time>
      </trkpt>
      <trkpt lat="43.49387" lon="3.75769">
        <ele>223.6</ele>
        <time>2011-02-18T21:37:42Z</time>
      </trkpt>
      <trkpt lat="43.49388" lon="3.75759">
        <ele>223.9</ele>
        <time>2011-02-18T21:37:44Z</time>
      </trkpt>
      <trkpt lat="43.49389" lon="3.75749">
        <ele>224.1</ele>
        <time>2011-02-18T21:37:46Z</time>
      </trkpt>
      <trkpt lat="43.4939" lon="3.75739">
        <ele>224.3</ele>
        <time>2011-02-18T21:37:48Z</time>
      </trkpt>
      <trkpt lat="43.49388" lon="3.75729">
        <ele>223.5</ele>
        <time>2011-02-18T21:37:50Z</time>
      </trkpt>
      <trkpt lat="43.49387" lon="3.75718">
        <ele>223.5</ele>
        <time>2011-02-18T21:37:52Z</time>
      </trkpt>
      <trkpt lat="43.49389" lon="3.75708">
        <ele>223.8</ele>
        <time>2011-02-18T21:37:54Z</time>
      </trkpt>
      <trkpt lat="43.49392" lon="3.75698">
        <ele>223.5</ele>
        <time>2011-02-18T21:37:56Z</time>
      </trkpt>
      <trkpt lat="43.49393" lon="3.75688">
        <ele>223.4</ele>
        <time>2011-02-18T21:37:58Z</time>
      </trkpt>
      <trkpt lat="43.49393" lon="3.75677">
        <ele>223.2</ele>
        <time>2011-02-18T21:38:00Z</time>
      </trkpt>
      <trkpt lat="43.49393" lon="3.75665">
        <ele>222.9</ele>
        <time>2011-02-18T21:38:02Z</time>
      </trkpt>
      <trkpt lat="43.49393" lon="3.75659">
        <ele>222.8</ele>
        <time>2011-02-18T21:38:03Z</time>
      </trkpt>
      <trkpt lat="43.49392" lon="3.75652">
        <ele>222.7</ele>
        <time>2011-02-18T21:38:04Z</time>
      </trkpt>
      <trkpt lat="43.49391" lon="3.75645">
        <ele>222.5</ele>
        <time>2011-02-18T21:38:05Z</time>
      </trkpt>
      <trkpt lat="43.4939" lon="3.75638">
        <ele>222.4</ele>
        <time>2011-02-18T21:38:06Z</time>
      </trkpt>
      <trkpt lat="43.49389" lon="3.75631">
        <ele>222.2</ele>
        <time>2011-02-18T21:38:07Z</time>
      </trkpt>
      <trkpt lat="43.49388" lon="3.75623">
        <ele>221.8</ele>
        <time>2011-02-18T21:38:08Z</time>
      </trkpt>
      <trkpt lat="43.49387" lon="3.75616">
        <ele>221.4</ele>
        <time>2011-02-18T21:38:09Z</time>
      </trkpt>
      <trkpt lat="43.49386" lon="3.75609">
        <ele>221.1</ele>
        <time>2011-02-18T21:38:10Z</time>
      </trkpt>
      <trkpt lat="43.49385" lon="3.75602">
        <ele>220.9</ele>
        <time>2011-02-18T21:38:11Z</time>
      </trkpt>
      <trkpt lat="43.49384" lon="3.75595">
        <ele>220.7</ele>
        <time>2011-02-18T21:38:12Z</time>
      </trkpt>
      <trkpt lat="43.49383" lon="3.75588">
        <ele>220.6</ele>
        <time>2011-02-18T21:38:13Z</time>
      </trkpt>
      <trkpt lat="43.49382" lon="3.75582">
        <ele>220.5</ele>
        <time>2011-02-18T21:38:14Z</time>
      </trkpt>
      <trkpt lat="43.49381" lon="3.7557">
        <ele>220.2</ele>
        <time>2011-02-18T21:38:16Z</time>
      </trkpt>
      <trkpt lat="43.4938" lon="3.75564">
        <ele>220.1</ele>
        <time>2011-02-18T21:38:17Z</time>
      </trkpt>
      <trkpt lat="43.49378" lon="3.75558">
        <ele>219.9</ele>
        <time>2011-02-18T21:38:18Z</time>
      </trkpt>
      <trkpt lat="43.49376" lon="3.75552">
        <ele>219.7</ele>
        <time>2011-02-18T21:38:19Z</time>
      </trkpt>
      <trkpt lat="43.49375" lon="3.75546">
        <ele>219.6</ele>
        <time>2011-02-18T21:38:20Z</time>
      </trkpt>
      <trkpt lat="43.49373" lon="3.7554">
        <ele>219.6</ele>
        <time>2011-02-18T21:38:21Z</time>
      </trkpt>
      <trkpt lat="43.49371" lon="3.75534">
        <ele>219.6</ele>
        <time>2011-02-18T21:38:22Z</time>
      </trkpt>
      <trkpt lat="43.49369" lon="3.75527">
        <ele>219.7</ele>
        <time>2011-02-18T21:38:23Z</time>
      </trkpt>
      <trkpt lat="43.49367" lon="3.75521">
        <ele>219.7</ele>
        <time>2011-02-18T21:38:24Z</time>
      </trkpt>
      <trkpt lat="43.49366" lon="3.75515">
        <ele>219.8</ele>
        <time>2011-02-18T21:38:25Z</time>
      </trkpt>
      <trkpt lat="43.49364" lon="3.75508">
        <ele>219.8</ele>
        <time>2011-02-18T21:38:26Z</time>
      </trkpt>
      <trkpt lat="43.49362" lon="3.75502">
        <ele>219.7</ele>
        <time>2011-02-18T21:38:27Z</time>
      </trkpt>
      <trkpt lat="43.4936" lon="3.75496">
        <ele>219.6</ele>
        <time>2011-02-18T21:38:28Z</time>
      </trkpt>
      <trkpt lat="43.49359" lon="3.75489">
        <ele>219.5</ele>
        <time>2011-02-18T21:38:29Z</time>
      </trkpt>
      <trkpt lat="43.49358" lon="3.75483">
        <ele>219.4</ele>
        <time>2011-02-18T21:38:30Z</time>
      </trkpt>
      <trkpt lat="43.49356" lon="3.75476">
        <ele>218.8</ele>
        <time>2011-02-18T21:38:31Z</time>
      </trkpt>
      <trkpt lat="43.49355" lon="3.75469">
        <ele>218.3</ele>
        <time>2011-02-18T21:38:32Z</time>
      </trkpt>
      <trkpt lat="43.49354" lon="3.75462">
        <ele>218</ele>
        <time>2011-02-18T21:38:33Z</time>
      </trkpt>
      <trkpt lat="43.49353" lon="3.75455">
        <ele>218</ele>
        <time>2011-02-18T21:38:34Z</time>
      </trkpt>
      <trkpt lat="43.49352" lon="3.75448">
        <ele>218.1</ele>
        <time>2011-02-18T21:38:35Z</time>
      </trkpt>
      <trkpt lat="43.49352" lon="3.7544">
        <ele>218.1</ele>
        <time>2011-02-18T21:38:36Z</time>
      </trkpt>
      <trkpt lat="43.49352" lon="3.75432">
        <ele>217.6</ele>
        <time>2011-02-18T21:38:37Z</time>
      </trkpt>
      <trkpt lat="43.49353" lon="3.75424">
        <ele>217.3</ele>
        <time>2011-02-18T21:38:38Z</time>
      </trkpt>
      <trkpt lat="43.49354" lon="3.75415">
        <ele>217</ele>
        <time>2011-02-18T21:38:39Z</time>
      </trkpt>
      <trkpt lat="43.49355" lon="3.75407">
        <ele>216.4</ele>
        <time>2011-02-18T21:38:40Z</time>
      </trkpt>
      <trkpt lat="43.49357" lon="3.75398">
        <ele>215.9</ele>
        <time>2011-02-18T21:38:41Z</time>
      </trkpt>
      <trkpt lat="43.49358" lon="3.7539">
        <ele>215.5</ele>
        <time>2011-02-18T21:38:42Z</time>
      </trkpt>
      <trkpt lat="43.4936" lon="3.75382">
        <ele>215.3</ele>
        <time>2011-02-18T21:38:43Z</time>
      </trkpt>
      <trkpt lat="43.49362" lon="3.75374">
        <ele>215.1</ele>
        <time>2011-02-18T21:38:44Z</time>
      </trkpt>
      <trkpt lat="43.49364" lon="3.75366">
        <ele>215</ele>
        <time>2011-02-18T21:38:45Z</time>
      </trkpt>
      <trkpt lat="43.49367" lon="3.75358">
        <ele>214.9</ele>
        <time>2011-02-18T21:38:46Z</time>
      </trkpt>
      <trkpt lat="43.4937" lon="3.75351">
        <ele>214.5</ele>
        <time>2011-02-18T21:38:47Z</time>
      </trkpt>
      <trkpt lat="43.49373" lon="3.75344">
        <ele>214.2</ele>
        <time>2011-02-18T21:38:48Z</time>
      </trkpt>
      <trkpt lat="43.49377" lon="3.75339">
        <ele>214</ele>
        <time>2011-02-18T21:38:49Z</time>
      </trkpt>
      <trkpt lat="43.49381" lon="3.75334">
        <ele>213.9</ele>
        <time>2011-02-18T21:38:50Z</time>
      </trkpt>
      <trkpt lat="43.49386" lon="3.7533">
        <ele>213.7</ele>
        <time>2011-02-18T21:38:51Z</time>
      </trkpt>
      <trkpt lat="43.49391" lon="3.75326">
        <ele>213.6</ele>
        <time>2011-02-18T21:38:52Z</time>
      </trkpt>
      <trkpt lat="43.49395" lon="3.75323">
        <ele>213.7</ele>
        <time>2011-02-18T21:38:53Z</time>
      </trkpt>
      <trkpt lat="43.494" lon="3.75321">
        <ele>213.7</ele>
        <time>2011-02-18T21:38:54Z</time>
      </trkpt>
      <trkpt lat="43.49404" lon="3.75318">
        <ele>213.7</ele>
        <time>2011-02-18T21:38:55Z</time>
      </trkpt>
      <trkpt lat="43.49408" lon="3.75316">
        <ele>214.2</ele>
        <time>2011-02-18T21:38:56Z</time>
      </trkpt>
      <trkpt lat="43.49412" lon="3.75313">
        <ele>214.5</ele>
        <time>2011-02-18T21:38:57Z</time>
      </trkpt>
      <trkpt lat="43.49417" lon="3.75311">
        <ele>214.7</ele>
        <time>2011-02-18T21:38:58Z</time>
      </trkpt>
      <trkpt lat="43.49421" lon="3.75309">
        <ele>214.9</ele>
        <time>2011-02-18T21:38:59Z</time>
      </trkpt>
      <trkpt lat="43.49425" lon="3.75306">
        <ele>215</ele>
        <time>2011-02-18T21:39:00Z</time>
      </trkpt>
      <trkpt lat="43.4943" lon="3.75303">
        <ele>215.1</ele>
        <time>2011-02-18T21:39:01Z</time>
      </trkpt>
      <trkpt lat="43.49434" lon="3.753">
        <ele>215.2</ele>
        <time>2011-02-18T21:39:02Z</time>
      </trkpt>
      <trkpt lat="43.49437" lon="3.75296">
        <ele>215.6</ele>
        <time>2011-02-18T21:39:03Z</time>
      </trkpt>
      <trkpt lat="43.49444" lon="3.75289">
        <ele>216.1</ele>
        <time>2011-02-18T21:39:05Z</time>
      </trkpt>
      <trkpt lat="43.49451" lon="3.75281">
        <ele>216.9</ele>
        <time>2011-02-18T21:39:07Z</time>
      </trkpt>
      <trkpt lat="43.49458" lon="3.75275">
        <ele>217.4</ele>
        <time>2011-02-18T21:39:09Z</time>
      </trkpt>
      <trkpt lat="43.49465" lon="3.75268">
        <ele>217.6</ele>
        <time>2011-02-18T21:39:11Z</time>
      </trkpt>
      <trkpt lat="43.49472" lon="3.75262">
        <ele>217.8</ele>
        <time>2011-02-18T21:39:13Z</time>
      </trkpt>
      <trkpt lat="43.4948" lon="3.75257">
        <ele>218.1</ele>
        <time>2011-02-18T21:39:15Z</time>
      </trkpt>
      <trkpt lat="43.49487" lon="3.75251">
        <ele>218.3</ele>
        <time>2011-02-18T21:39:17Z</time>
      </trkpt>
      <trkpt lat="43.49493" lon="3.75245">
        <ele>218.4</ele>
        <time>2011-02-18T21:39:19Z</time>
      </trkpt>
      <trkpt lat="43.49499" lon="3.75239">
        <ele>218.4</ele>
        <time>2011-02-18T21:39:21Z</time>
      </trkpt>
      <trkpt lat="43.49502" lon="3.75235">
        <ele>218.6</ele>
        <time>2011-02-18T21:39:22Z</time>
      </trkpt>
      <trkpt lat="43.4951" lon="3.75222">
        <ele>219.2</ele>
        <time>2011-02-18T21:39:25Z</time>
      </trkpt>
      <trkpt lat="43.49512" lon="3.75213">
        <ele>219.6</ele>
        <time>2011-02-18T21:39:27Z</time>
      </trkpt>
      <trkpt lat="43.49513" lon="3.75205">
        <ele>219.6</ele>
        <time>2011-02-18T21:39:29Z</time>
      </trkpt>
      <trkpt lat="43.49517" lon="3.75194">
        <ele>220.8</ele>
        <time>2011-02-18T21:39:32Z</time>
      </trkpt>
      <trkpt lat="43.4952" lon="3.75183">
        <ele>221.7</ele>
        <time>2011-02-18T21:39:35Z</time>
      </trkpt>
      <trkpt lat="43.49519" lon="3.75171">
        <ele>222.4</ele>
        <time>2011-02-18T21:39:38Z</time>
      </trkpt>
      <trkpt lat="43.4952" lon="3.75159">
        <ele>223.6</ele>
        <time>2011-02-18T21:39:41Z</time>
      </trkpt>
      <trkpt lat="43.49521" lon="3.75147">
        <ele>224.3</ele>
        <time>2011-02-18T21:39:46Z</time>
      </trkpt>
      <trkpt lat="43.4953" lon="3.75143">
        <ele>225.2</ele>
        <time>2011-02-18T21:39:59Z</time>
      </trkpt>
      <trkpt lat="43.49532" lon="3.75133">
        <ele>225.7</ele>
        <time>2011-02-18T21:40:04Z</time>
      </trkpt>
      <trkpt lat="43.49532" lon="3.75121">
        <ele>225.9</ele>
        <time>2011-02-18T21:40:08Z</time>
      </trkpt>
      <trkpt lat="43.49532" lon="3.75111">
        <ele>226</ele>
        <time>2011-02-18T21:40:11Z</time>
      </trkpt>
      <trkpt lat="43.49532" lon="3.75101">
        <ele>225.6</ele>
        <time>2011-02-18T21:40:14Z</time>
      </trkpt>
      <trkpt lat="43.49534" lon="3.75092">
        <ele>225.7</ele>
        <time>2011-02-18T21:40:17Z</time>
      </trkpt>
      <trkpt lat="43.49538" lon="3.75083">
        <ele>226.2</ele>
        <time>2011-02-18T21:40:20Z</time>
      </trkpt>
      <trkpt lat="43.49541" lon="3.75073">
        <ele>226.8</ele>
        <time>2011-02-18T21:40:23Z</time>
      </trkpt>
      <trkpt lat="43.49541" lon="3.75069">
        <ele>227</ele>
        <time>2011-02-18T21:40:24Z</time>
      </trkpt>
      <trkpt lat="43.49546" lon="3.75053">
        <ele>228</ele>
        <time>2011-02-18T21:40:29Z</time>
      </trkpt>
      <trkpt lat="43.49549" lon="3.75042">
        <ele>227.8</ele>
        <time>2011-02-18T21:40:32Z</time>
      </trkpt>
      <trkpt lat="43.49551" lon="3.75031">
        <ele>227.4</ele>
        <time>2011-02-18T21:40:35Z</time>
      </trkpt>
      <trkpt lat="43.49552" lon="3.75021">
        <ele>226.6</ele>
        <time>2011-02-18T21:40:38Z</time>
      </trkpt>
      <trkpt lat="43.4955" lon="3.75009">
        <ele>225.5</ele>
        <time>2011-02-18T21:40:41Z</time>
      </trkpt>
      <trkpt lat="43.49549" lon="3.74998">
        <ele>226.2</ele>
        <time>2011-02-18T21:40:44Z</time>
      </trkpt>
      <trkpt lat="43.49547" lon="3.74986">
        <ele>226.8</ele>
        <time>2011-02-18T21:40:47Z</time>
      </trkpt>
      <trkpt lat="43.49543" lon="3.74975">
        <ele>227.3</ele>
        <time>2011-02-18T21:40:50Z</time>
      </trkpt>
      <trkpt lat="43.4954" lon="3.74963">
        <ele>227.3</ele>
        <time>2011-02-18T21:40:53Z</time>
      </trkpt>
      <trkpt lat="43.49533" lon="3.74958">
        <ele>227.9</ele>
        <time>2011-02-18T21:40:56Z</time>
      </trkpt>
      <trkpt lat="43.49525" lon="3.74954">
        <ele>227.8</ele>
        <time>2011-02-18T21:41:00Z</time>
      </trkpt>
      <trkpt lat="43.49517" lon="3.74953">
        <ele>228.3</ele>
        <time>2011-02-18T21:41:04Z</time>
      </trkpt>
      <trkpt lat="43.49509" lon="3.7495">
        <ele>227.4</ele>
        <time>2011-02-18T21:41:08Z</time>
      </trkpt>
      <trkpt lat="43.49502" lon="3.74945">
        <ele>227.3</ele>
        <time>2011-02-18T21:41:11Z</time>
      </trkpt>
      <trkpt lat="43.49495" lon="3.74941">
        <ele>226.9</ele>
        <time>2011-02-18T21:41:14Z</time>
      </trkpt>
      <trkpt lat="43.49488" lon="3.74934">
        <ele>226.5</ele>
        <time>2011-02-18T21:41:18Z</time>
      </trkpt>
      <trkpt lat="43.49483" lon="3.74929">
        <ele>226</ele>
        <time>2011-02-18T21:41:20Z</time>
      </trkpt>
      <trkpt lat="43.49476" lon="3.74927">
        <ele>225.6</ele>
        <time>2011-02-18T21:41:22Z</time>
      </trkpt>
      <trkpt lat="43.49469" lon="3.74924">
        <ele>225.4</ele>
        <time>2011-02-18T21:41:26Z</time>
      </trkpt>
      <trkpt lat="43.49467" lon="3.74922">
        <ele>225.7</ele>
        <time>2011-02-18T21:41:27Z</time>
      </trkpt>
      <trkpt lat="43.49458" lon="3.74911">
        <ele>225.9</ele>
        <time>2011-02-18T21:41:32Z</time>
      </trkpt>
      <trkpt lat="43.49451" lon="3.74906">
        <ele>226.7</ele>
        <time>2011-02-18T21:41:38Z</time>
      </trkpt>
      <trkpt lat="43.49444" lon="3.74899">
        <ele>226.1</ele>
        <time>2011-02-18T21:41:43Z</time>
      </trkpt>
      <trkpt lat="43.49436" lon="3.74896">
        <ele>226.6</ele>
        <time>2011-02-18T21:41:47Z</time>
      </trkpt>
      <trkpt lat="43.49428" lon="3.74892">
        <ele>227.1</ele>
        <time>2011-02-18T21:41:51Z</time>
      </trkpt>
      <trkpt lat="43.4942" lon="3.74885">
        <ele>226.8</ele>
        <time>2011-02-18T21:41:54Z</time>
      </trkpt>
      <trkpt lat="43.49412" lon="3.7488">
        <ele>227.3</ele>
        <time>2011-02-18T21:41:57Z</time>
      </trkpt>
      <trkpt lat="43.49407" lon="3.74876">
        <ele>227.1</ele>
        <time>2011-02-18T21:41:59Z</time>
      </trkpt>
      <trkpt lat="43.494" lon="3.74871">
        <ele>226.7</ele>
        <time>2011-02-18T21:42:01Z</time>
      </trkpt>
      <trkpt lat="43.49394" lon="3.74869">
        <ele>226.3</ele>
        <time>2011-02-18T21:42:03Z</time>
      </trkpt>
      <trkpt lat="43.49386" lon="3.74863">
        <ele>225.7</ele>
        <time>2011-02-18T21:42:06Z</time>
      </trkpt>
      <trkpt lat="43.49383" lon="3.74855">
        <ele>224.9</ele>
        <time>2011-02-18T21:42:08Z</time>
      </trkpt>
      <trkpt lat="43.49379" lon="3.74848">
        <ele>224.1</ele>
        <time>2011-02-18T21:42:10Z</time>
      </trkpt>
      <trkpt lat="43.49374" lon="3.74842">
        <ele>224.4</ele>
        <time>2011-02-18T21:42:13Z</time>
      </trkpt>
      <trkpt lat="43.49372" lon="3.74833">
        <ele>224.9</ele>
        <time>2011-02-18T21:42:16Z</time>
      </trkpt>
      <trkpt lat="43.49371" lon="3.74822">
        <ele>224.4</ele>
        <time>2011-02-18T21:42:19Z</time>
      </trkpt>
      <trkpt lat="43.49366" lon="3.74813">
        <ele>224.7</ele>
        <time>2011-02-18T21:42:22Z</time>
      </trkpt>
      <trkpt lat="43.4936" lon="3.74805">
        <ele>224.4</ele>
        <time>2011-02-18T21:42:25Z</time>
      </trkpt>
      <trkpt lat="43.49355" lon="3.74798">
        <ele>224.3</ele>
        <time>2011-02-18T21:42:27Z</time>
      </trkpt>
      <trkpt lat="43.49353" lon="3.74796">
        <ele>224.4</ele>
        <time>2011-02-18T21:42:28Z</time>
      </trkpt>
      <trkpt lat="43.49339" lon="3.74798">
        <ele>224.1</ele>
        <time>2011-02-18T21:42:33Z</time>
      </trkpt>
      <trkpt lat="43.49331" lon="3.74793">
        <ele>223.8</ele>
        <time>2011-02-18T21:42:36Z</time>
      </trkpt>
      <trkpt lat="43.49326" lon="3.74788">
        <ele>223.4</ele>
        <time>2011-02-18T21:42:38Z</time>
      </trkpt>
      <trkpt lat="43.49321" lon="3.7478">
        <ele>223.3</ele>
        <time>2011-02-18T21:42:40Z</time>
      </trkpt>
      <trkpt lat="43.49317" lon="3.7477">
        <ele>222.9</ele>
        <time>2011-02-18T21:42:44Z</time>
      </trkpt>
      <trkpt lat="43.49308" lon="3.74771">
        <ele>222.8</ele>
        <time>2011-02-18T21:42:48Z</time>
      </trkpt>
      <trkpt lat="43.493" lon="3.74771">
        <ele>222.6</ele>
        <time>2011-02-18T21:42:51Z</time>
      </trkpt>
      <trkpt lat="43.49294" lon="3.74772">
        <ele>222.1</ele>
        <time>2011-02-18T21:42:53Z</time>
      </trkpt>
      <trkpt lat="43.49286" lon="3.74769">
        <ele>221.2</ele>
        <time>2011-02-18T21:42:56Z</time>
      </trkpt>
      <trkpt lat="43.49279" lon="3.74769">
        <ele>220.5</ele>
        <time>2011-02-18T21:42:59Z</time>
      </trkpt>
      <trkpt lat="43.49272" lon="3.74775">
        <ele>220.2</ele>
        <time>2011-02-18T21:43:02Z</time>
      </trkpt>
      <trkpt lat="43.49266" lon="3.74774">
        <ele>219.8</ele>
        <time>2011-02-18T21:43:04Z</time>
      </trkpt>
      <trkpt lat="43.49257" lon="3.74774">
        <ele>219.9</ele>
        <time>2011-02-18T21:43:07Z</time>
      </trkpt>
      <trkpt lat="43.49256" lon="3.74763">
        <ele>219.9</ele>
        <time>2011-02-18T21:43:11Z</time>
      </trkpt>
      <trkpt lat="43.49259" lon="3.74753">
        <ele>219.4</ele>
        <time>2011-02-18T21:43:14Z</time>
      </trkpt>
      <trkpt lat="43.49265" lon="3.74743">
        <ele>218.6</ele>
        <time>2011-02-18T21:43:17Z</time>
      </trkpt>
      <trkpt lat="43.49271" lon="3.74739">
        <ele>217.9</ele>
        <time>2011-02-18T21:43:19Z</time>
      </trkpt>
      <trkpt lat="43.49279" lon="3.74738">
        <ele>217.4</ele>
        <time>2011-02-18T21:43:21Z</time>
      </trkpt>
      <trkpt lat="43.49284" lon="3.74737">
        <ele>217.2</ele>
        <time>2011-02-18T21:43:22Z</time>
      </trkpt>
      <trkpt lat="43.49288" lon="3.74737">
        <ele>217.1</ele>
        <time>2011-02-18T21:43:23Z</time>
      </trkpt>
      <trkpt lat="43.49293" lon="3.74736">
        <ele>216.7</ele>
        <time>2011-02-18T21:43:24Z</time>
      </trkpt>
      <trkpt lat="43.49298" lon="3.74735">
        <ele>216.4</ele>
        <time>2011-02-18T21:43:25Z</time>
      </trkpt>
      <trkpt lat="43.49303" lon="3.74734">
        <ele>216.2</ele>
        <time>2011-02-18T21:43:26Z</time>
      </trkpt>
      <trkpt lat="43.49309" lon="3.74733">
        <ele>216</ele>
        <time>2011-02-18T21:43:27Z</time>
      </trkpt>
      <trkpt lat="43.49314" lon="3.74733">
        <ele>215.3</ele>
        <time>2011-02-18T21:43:28Z</time>
      </trkpt>
      <trkpt lat="43.4932" lon="3.74732">
        <ele>214.8</ele>
        <time>2011-02-18T21:43:29Z</time>
      </trkpt>
      <trkpt lat="43.49326" lon="3.74732">
        <ele>214.4</ele>
        <time>2011-02-18T21:43:30Z</time>
      </trkpt>
      <trkpt lat="43.49332" lon="3.74732">
        <ele>214</ele>
        <time>2011-02-18T21:43:31Z</time>
      </trkpt>
      <trkpt lat="43.49338" lon="3.74731">
        <ele>213.7</ele>
        <time>2011-02-18T21:43:32Z</time>
      </trkpt>
      <trkpt lat="43.49344" lon="3.74731">
        <ele>213.4</ele>
        <time>2011-02-18T21:43:33Z</time>
      </trkpt>
      <trkpt lat="43.49351" lon="3.74733">
        <ele>212.3</ele>
        <time>2011-02-18T21:43:34Z</time>
      </trkpt>
      <trkpt lat="43.49357" lon="3.74735">
        <ele>211.5</ele>
        <time>2011-02-18T21:43:35Z</time>
      </trkpt>
      <trkpt lat="43.49364" lon="3.74737">
        <ele>210.9</ele>
        <time>2011-02-18T21:43:36Z</time>
      </trkpt>
      <trkpt lat="43.4937" lon="3.7474">
        <ele>210.3</ele>
        <time>2011-02-18T21:43:37Z</time>
      </trkpt>
      <trkpt lat="43.49377" lon="3.74744">
        <ele>209.8</ele>
        <time>2011-02-18T21:43:38Z</time>
      </trkpt>
      <trkpt lat="43.49383" lon="3.74748">
        <ele>209.5</ele>
        <time>2011-02-18T21:43:39Z</time>
      </trkpt>
      <trkpt lat="43.49389" lon="3.74753">
        <ele>208.8</ele>
        <time>2011-02-18T21:43:40Z</time>
      </trkpt>
      <trkpt lat="43.49395" lon="3.74759">
        <ele>208.3</ele>
        <time>2011-02-18T21:43:41Z</time>
      </trkpt>
      <trkpt lat="43.49401" lon="3.74766">
        <ele>207.9</ele>
        <time>2011-02-18T21:43:42Z</time>
      </trkpt>
      <trkpt lat="43.49406" lon="3.74773">
        <ele>207.6</ele>
        <time>2011-02-18T21:43:43Z</time>
      </trkpt>
      <trkpt lat="43.49411" lon="3.74781">
        <ele>206.8</ele>
        <time>2011-02-18T21:43:44Z</time>
      </trkpt>
      <trkpt lat="43.49415" lon="3.7479">
        <ele>206.3</ele>
        <time>2011-02-18T21:43:45Z</time>
      </trkpt>
      <trkpt lat="43.49419" lon="3.74799">
        <ele>205.9</ele>
        <time>2011-02-18T21:43:46Z</time>
      </trkpt>
      <trkpt lat="43.49422" lon="3.74807">
        <ele>204.9</ele>
        <time>2011-02-18T21:43:47Z</time>
      </trkpt>
      <trkpt lat="43.49428" lon="3.74813">
        <ele>204.1</ele>
        <time>2011-02-18T21:43:48Z</time>
      </trkpt>
      <trkpt lat="43.49434" lon="3.74817">
        <ele>203.6</ele>
        <time>2011-02-18T21:43:49Z</time>
      </trkpt>
      <trkpt lat="43.4944" lon="3.7482">
        <ele>202.7</ele>
        <time>2011-02-18T21:43:50Z</time>
      </trkpt>
      <trkpt lat="43.49447" lon="3.74822">
        <ele>202.1</ele>
        <time>2011-02-18T21:43:51Z</time>
      </trkpt>
      <trkpt lat="43.49455" lon="3.74823">
        <ele>201.6</ele>
        <time>2011-02-18T21:43:52Z</time>
      </trkpt>
      <trkpt lat="43.49462" lon="3.74825">
        <ele>200.9</ele>
        <time>2011-02-18T21:43:53Z</time>
      </trkpt>
      <trkpt lat="43.49469" lon="3.74827">
        <ele>200.3</ele>
        <time>2011-02-18T21:43:54Z</time>
      </trkpt>
      <trkpt lat="43.49476" lon="3.74831">
        <ele>199.9</ele>
        <time>2011-02-18T21:43:55Z</time>
      </trkpt>
      <trkpt lat="43.49483" lon="3.74834">
        <ele>198.8</ele>
        <time>2011-02-18T21:43:56Z</time>
      </trkpt>
      <trkpt lat="43.4949" lon="3.74838">
        <ele>197.9</ele>
        <time>2011-02-18T21:43:57Z</time>
      </trkpt>
      <trkpt lat="43.49497" lon="3.74842">
        <ele>197.3</ele>
        <time>2011-02-18T21:43:58Z</time>
      </trkpt>
      <trkpt lat="43.49505" lon="3.74846">
        <ele>196.5</ele>
        <time>2011-02-18T21:43:59Z</time>
      </trkpt>
      <trkpt lat="43.49512" lon="3.74847">
        <ele>195.8</ele>
        <time>2011-02-18T21:44:00Z</time>
      </trkpt>
      <trkpt lat="43.4952" lon="3.74847">
        <ele>195.4</ele>
        <time>2011-02-18T21:44:01Z</time>
      </trkpt>
      <trkpt lat="43.49528" lon="3.74844">
        <ele>195</ele>
        <time>2011-02-18T21:44:02Z</time>
      </trkpt>
      <trkpt lat="43.49536" lon="3.7484">
        <ele>194</ele>
        <time>2011-02-18T21:44:03Z</time>
      </trkpt>
      <trkpt lat="43.49543" lon="3.74835">
        <ele>193.3</ele>
        <time>2011-02-18T21:44:04Z</time>
      </trkpt>
      <trkpt lat="43.49552" lon="3.74831">
        <ele>192.7</ele>
        <time>2011-02-18T21:44:05Z</time>
      </trkpt>
      <trkpt lat="43.4956" lon="3.74828">
        <ele>191.6</ele>
        <time>2011-02-18T21:44:06Z</time>
      </trkpt>
      <trkpt lat="43.49569" lon="3.74824">
        <ele>190.8</ele>
        <time>2011-02-18T21:44:07Z</time>
      </trkpt>
      <trkpt lat="43.49578" lon="3.7482">
        <ele>190.2</ele>
        <time>2011-02-18T21:44:08Z</time>
      </trkpt>
      <trkpt lat="43.49586" lon="3.74816">
        <ele>188.9</ele>
        <time>2011-02-18T21:44:09Z</time>
      </trkpt>
      <trkpt lat="43.49593" lon="3.74812">
        <ele>188</ele>
        <time>2011-02-18T21:44:10Z</time>
      </trkpt>
      <trkpt lat="43.496" lon="3.7481">
        <ele>187.2</ele>
        <time>2011-02-18T21:44:11Z</time>
      </trkpt>
      <trkpt lat="43.49606" lon="3.74809">
        <ele>186.5</ele>
        <time>2011-02-18T21:44:12Z</time>
      </trkpt>
      <trkpt lat="43.49611" lon="3.74811">
        <ele>185.9</ele>
        <time>2011-02-18T21:44:13Z</time>
      </trkpt>
      <trkpt lat="43.49619" lon="3.74816">
        <ele>185.3</ele>
        <time>2011-02-18T21:44:15Z</time>
      </trkpt>
      <trkpt lat="43.49626" lon="3.7482">
        <ele>185.1</ele>
        <time>2011-02-18T21:44:17Z</time>
      </trkpt>
      <trkpt lat="43.49634" lon="3.74821">
        <ele>185.7</ele>
        <time>2011-02-18T21:44:20Z</time>
      </trkpt>
      <trkpt lat="43.49642" lon="3.74826">
        <ele>185.6</ele>
        <time>2011-02-18T21:44:23Z</time>
      </trkpt>
      <trkpt lat="43.49648" lon="3.74828">
        <ele>185.6</ele>
        <time>2011-02-18T21:44:27Z</time>
      </trkpt>
      <trkpt lat="43.49656" lon="3.74831">
        <ele>184.5</ele>
        <time>2011-02-18T21:44:30Z</time>
      </trkpt>
      <trkpt lat="43.49657" lon="3.74835">
        <ele>184.3</ele>
        <time>2011-02-18T21:44:31Z</time>
      </trkpt>
      <trkpt lat="43.49662" lon="3.74846">
        <ele>184.1</ele>
        <time>2011-02-18T21:44:34Z</time>
      </trkpt>
      <trkpt lat="43.49668" lon="3.74851">
        <ele>184.2</ele>
        <time>2011-02-18T21:44:36Z</time>
      </trkpt>
      <trkpt lat="43.49673" lon="3.74858">
        <ele>183.7</ele>
        <time>2011-02-18T21:44:38Z</time>
      </trkpt>
      <trkpt lat="43.49676" lon="3.74867">
        <ele>183</ele>
        <time>2011-02-18T21:44:40Z</time>
      </trkpt>
      <trkpt lat="43.4968" lon="3.74874">
        <ele>181.7</ele>
        <time>2011-02-18T21:44:42Z</time>
      </trkpt>
      <trkpt lat="43.49686" lon="3.74879">
        <ele>181.1</ele>
        <time>2011-02-18T21:44:44Z</time>
      </trkpt>
      <trkpt lat="43.49691" lon="3.74885">
        <ele>180.9</ele>
        <time>2011-02-18T21:44:46Z</time>
      </trkpt>
      <trkpt lat="43.49694" lon="3.74895">
        <ele>179.8</ele>
        <time>2011-02-18T21:44:48Z</time>
      </trkpt>
      <trkpt lat="43.49701" lon="3.74902">
        <ele>179.1</ele>
        <time>2011-02-18T21:44:52Z</time>
      </trkpt>
      <trkpt lat="43.49707" lon="3.74906">
        <ele>178.4</ele>
        <time>2011-02-18T21:44:55Z</time>
      </trkpt>
      <trkpt lat="43.49713" lon="3.74909">
        <ele>177.3</ele>
        <time>2011-02-18T21:44:57Z</time>
      </trkpt>
      <trkpt lat="43.4972" lon="3.7491">
        <ele>176.3</ele>
        <time>2011-02-18T21:44:59Z</time>
      </trkpt>
      <trkpt lat="43.49726" lon="3.74914">
        <ele>174.8</ele>
        <time>2011-02-18T21:45:01Z</time>
      </trkpt>
      <trkpt lat="43.49732" lon="3.74919">
        <ele>173.6</ele>
        <time>2011-02-18T21:45:03Z</time>
      </trkpt>
      <trkpt lat="43.49737" lon="3.74925">
        <ele>172.6</ele>
        <time>2011-02-18T21:45:05Z</time>
      </trkpt>
      <trkpt lat="43.4974" lon="3.74933">
        <ele>172</ele>
        <time>2011-02-18T21:45:07Z</time>
      </trkpt>
      <trkpt lat="43.49746" lon="3.74942">
        <ele>171</ele>
        <time>2011-02-18T21:45:10Z</time>
      </trkpt>
      <trkpt lat="43.4975" lon="3.74949">
        <ele>170.1</ele>
        <time>2011-02-18T21:45:12Z</time>
      </trkpt>
      <trkpt lat="43.49755" lon="3.74955">
        <ele>168.9</ele>
        <time>2011-02-18T21:45:14Z</time>
      </trkpt>
      <trkpt lat="43.49762" lon="3.7496">
        <ele>168.1</ele>
        <time>2011-02-18T21:45:16Z</time>
      </trkpt>
      <trkpt lat="43.4977" lon="3.74963">
        <ele>167.6</ele>
        <time>2011-02-18T21:45:18Z</time>
      </trkpt>
      <trkpt lat="43.49777" lon="3.74967">
        <ele>167</ele>
        <time>2011-02-18T21:45:20Z</time>
      </trkpt>
      <trkpt lat="43.49785" lon="3.74973">
        <ele>166.5</ele>
        <time>2011-02-18T21:45:22Z</time>
      </trkpt>
      <trkpt lat="43.49792" lon="3.74979">
        <ele>165.9</ele>
        <time>2011-02-18T21:45:24Z</time>
      </trkpt>
      <trkpt lat="43.49797" lon="3.74987">
        <ele>165.7</ele>
        <time>2011-02-18T21:45:26Z</time>
      </trkpt>
      <trkpt lat="43.49803" lon="3.74996">
        <ele>165.6</ele>
        <time>2011-02-18T21:45:28Z</time>
      </trkpt>
      <trkpt lat="43.49806" lon="3.75001">
        <ele>165.2</ele>
        <time>2011-02-18T21:45:29Z</time>
      </trkpt>
      <trkpt lat="43.49812" lon="3.75009">
        <ele>164.6</ele>
        <time>2011-02-18T21:45:31Z</time>
      </trkpt>
      <trkpt lat="43.49818" lon="3.75014">
        <ele>163.6</ele>
        <time>2011-02-18T21:45:33Z</time>
      </trkpt>
      <trkpt lat="43.49822" lon="3.75017">
        <ele>163.3</ele>
        <time>2011-02-18T21:45:34Z</time>
      </trkpt>
      <trkpt lat="43.49831" lon="3.75021">
        <ele>162</ele>
        <time>2011-02-18T21:45:37Z</time>
      </trkpt>
      <trkpt lat="43.49839" lon="3.75022">
        <ele>160.5</ele>
        <time>2011-02-18T21:45:40Z</time>
      </trkpt>
      <trkpt lat="43.49848" lon="3.75022">
        <ele>159</ele>
        <time>2011-02-18T21:45:43Z</time>
      </trkpt>
      <trkpt lat="43.49853" lon="3.75021">
        <ele>158.2</ele>
        <time>2011-02-18T21:45:45Z</time>
      </trkpt>
      <trkpt lat="43.4986" lon="3.7502">
        <ele>157.7</ele>
        <time>2011-02-18T21:45:47Z</time>
      </trkpt>
      <trkpt lat="43.49867" lon="3.75019">
        <ele>157.4</ele>
        <time>2011-02-18T21:45:49Z</time>
      </trkpt>
      <trkpt lat="43.49874" lon="3.75018">
        <ele>156.5</ele>
        <time>2011-02-18T21:45:51Z</time>
      </trkpt>
      <trkpt lat="43.49881" lon="3.75014">
        <ele>155.5</ele>
        <time>2011-02-18T21:45:53Z</time>
      </trkpt>
      <trkpt lat="43.49888" lon="3.7501">
        <ele>154.9</ele>
        <time>2011-02-18T21:45:55Z</time>
      </trkpt>
      <trkpt lat="43.49893" lon="3.75005">
        <ele>154.5</ele>
        <time>2011-02-18T21:45:57Z</time>
      </trkpt>
      <trkpt lat="43.49897" lon="3.74999">
        <ele>153.8</ele>
        <time>2011-02-18T21:45:59Z</time>
      </trkpt>
      <trkpt lat="43.49902" lon="3.74992">
        <ele>153.3</ele>
        <time>2011-02-18T21:46:01Z</time>
      </trkpt>
      <trkpt lat="43.49909" lon="3.74986">
        <ele>152.9</ele>
        <time>2011-02-18T21:46:03Z</time>
      </trkpt>
      <trkpt lat="43.49913" lon="3.74983">
        <ele>152.4</ele>
        <time>2011-02-18T21:46:04Z</time>
      </trkpt>
      <trkpt lat="43.49917" lon="3.7498">
        <ele>152.1</ele>
        <time>2011-02-18T21:46:05Z</time>
      </trkpt>
      <trkpt lat="43.49922" lon="3.74977">
        <ele>151.8</ele>
        <time>2011-02-18T21:46:06Z</time>
      </trkpt>
      <trkpt lat="43.49927" lon="3.74975">
        <ele>151.2</ele>
        <time>2011-02-18T21:46:07Z</time>
      </trkpt>
      <trkpt lat="43.49933" lon="3.74972">
        <ele>150.7</ele>
        <time>2011-02-18T21:46:08Z</time>
      </trkpt>
      <trkpt lat="43.49938" lon="3.74969">
        <ele>150.4</ele>
        <time>2011-02-18T21:46:09Z</time>
      </trkpt>
      <trkpt lat="43.49944" lon="3.74967">
        <ele>149.9</ele>
        <time>2011-02-18T21:46:10Z</time>
      </trkpt>
      <trkpt lat="43.4995" lon="3.74965">
        <ele>149.5</ele>
        <time>2011-02-18T21:46:11Z</time>
      </trkpt>
      <trkpt lat="43.49955" lon="3.74964">
        <ele>149.2</ele>
        <time>2011-02-18T21:46:12Z</time>
      </trkpt>
      <trkpt lat="43.4996" lon="3.74962">
        <ele>149</ele>
        <time>2011-02-18T21:46:13Z</time>
      </trkpt>
      <trkpt lat="43.49965" lon="3.74962">
        <ele>148.9</ele>
        <time>2011-02-18T21:46:14Z</time>
      </trkpt>
      <trkpt lat="43.4997" lon="3.74961">
        <ele>148.8</ele>
        <time>2011-02-18T21:46:15Z</time>
      </trkpt>
      <trkpt lat="43.49974" lon="3.7496">
        <ele>148.7</ele>
        <time>2011-02-18T21:46:16Z</time>
      </trkpt>
      <trkpt lat="43.49979" lon="3.7496">
        <ele>148.4</ele>
        <time>2011-02-18T21:46:17Z</time>
      </trkpt>
      <trkpt lat="43.49984" lon="3.7496">
        <ele>148.1</ele>
        <time>2011-02-18T21:46:18Z</time>
      </trkpt>
      <trkpt lat="43.49989" lon="3.7496">
        <ele>147.9</ele>
        <time>2011-02-18T21:46:19Z</time>
      </trkpt>
      <trkpt lat="43.49994" lon="3.74961">
        <ele>147.7</ele>
        <time>2011-02-18T21:46:20Z</time>
      </trkpt>
      <trkpt lat="43.49999" lon="3.74963">
        <ele>147.6</ele>
        <time>2011-02-18T21:46:21Z</time>
      </trkpt>
      <trkpt lat="43.50004" lon="3.74964">
        <ele>147.6</ele>
        <time>2011-02-18T21:46:22Z</time>
      </trkpt>
      <trkpt lat="43.50009" lon="3.74965">
        <ele>147</ele>
        <time>2011-02-18T21:46:23Z</time>
      </trkpt>
      <trkpt lat="43.50015" lon="3.74966">
        <ele>146.7</ele>
        <time>2011-02-18T21:46:24Z</time>
      </trkpt>
      <trkpt lat="43.50019" lon="3.74967">
        <ele>146.4</ele>
        <time>2011-02-18T21:46:25Z</time>
      </trkpt>
      <trkpt lat="43.50025" lon="3.74967">
        <ele>145.9</ele>
        <time>2011-02-18T21:46:26Z</time>
      </trkpt>
      <trkpt lat="43.5003" lon="3.74968">
        <ele>145.6</ele>
        <time>2011-02-18T21:46:27Z</time>
      </trkpt>
      <trkpt lat="43.50035" lon="3.74969">
        <ele>145.4</ele>
        <time>2011-02-18T21:46:28Z</time>
      </trkpt>
      <trkpt lat="43.5004" lon="3.7497">
        <ele>145.2</ele>
        <time>2011-02-18T21:46:29Z</time>
      </trkpt>
      <trkpt lat="43.50046" lon="3.7497">
        <ele>145</ele>
        <time>2011-02-18T21:46:30Z</time>
      </trkpt>
      <trkpt lat="43.50051" lon="3.74971">
        <ele>144.8</ele>
        <time>2011-02-18T21:46:31Z</time>
      </trkpt>
      <trkpt lat="43.50057" lon="3.74972">
        <ele>144.7</ele>
        <time>2011-02-18T21:46:32Z</time>
      </trkpt>
      <trkpt lat="43.50063" lon="3.74974">
        <ele>144.2</ele>
        <time>2011-02-18T21:46:33Z</time>
      </trkpt>
      <trkpt lat="43.50069" lon="3.74976">
        <ele>143.8</ele>
        <time>2011-02-18T21:46:34Z</time>
      </trkpt>
      <trkpt lat="43.50075" lon="3.74978">
        <ele>143.5</ele>
        <time>2011-02-18T21:46:35Z</time>
      </trkpt>
      <trkpt lat="43.50081" lon="3.74982">
        <ele>143</ele>
        <time>2011-02-18T21:46:36Z</time>
      </trkpt>
      <trkpt lat="43.50087" lon="3.74984">
        <ele>142.6</ele>
        <time>2011-02-18T21:46:37Z</time>
      </trkpt>
      <trkpt lat="43.50092" lon="3.74986">
        <ele>142.3</ele>
        <time>2011-02-18T21:46:38Z</time>
      </trkpt>
      <trkpt lat="43.501" lon="3.74983">
        <ele>141.6</ele>
        <time>2011-02-18T21:46:40Z</time>
      </trkpt>
      <trkpt lat="43.50108" lon="3.74982">
        <ele>141.1</ele>
        <time>2011-02-18T21:46:42Z</time>
      </trkpt>
      <trkpt lat="43.50117" lon="3.74982">
        <ele>140.7</ele>
        <time>2011-02-18T21:46:44Z</time>
      </trkpt>
      <trkpt lat="43.50121" lon="3.74982">
        <ele>140.5</ele>
        <time>2011-02-18T21:46:45Z</time>
      </trkpt>
      <trkpt lat="43.50126" lon="3.74983">
        <ele>140.3</ele>
        <time>2011-02-18T21:46:46Z</time>
      </trkpt>
      <trkpt lat="43.50133" lon="3.74983">
        <ele>140.1</ele>
        <time>2011-02-18T21:46:48Z</time>
      </trkpt>
      <trkpt lat="43.5014" lon="3.74978">
        <ele>139.1</ele>
        <time>2011-02-18T21:46:51Z</time>
      </trkpt>
      <trkpt lat="43.50147" lon="3.74977">
        <ele>138.7</ele>
        <time>2011-02-18T21:46:54Z</time>
      </trkpt>
      <trkpt lat="43.50154" lon="3.74983">
        <ele>138</ele>
        <time>2011-02-18T21:46:57Z</time>
      </trkpt>
      <trkpt lat="43.50157" lon="3.74988">
        <ele>137.9</ele>
        <time>2011-02-18T21:46:58Z</time>
      </trkpt>
      <trkpt lat="43.50161" lon="3.74992">
        <ele>137.8</ele>
        <time>2011-02-18T21:46:59Z</time>
      </trkpt>
      <trkpt lat="43.50166" lon="3.74996">
        <ele>137.7</ele>
        <time>2011-02-18T21:47:00Z</time>
      </trkpt>
      <trkpt lat="43.5017" lon="3.75001">
        <ele>137.3</ele>
        <time>2011-02-18T21:47:01Z</time>
      </trkpt>
      <trkpt lat="43.50174" lon="3.75006">
        <ele>136.9</ele>
        <time>2011-02-18T21:47:02Z</time>
      </trkpt>
      <trkpt lat="43.50178" lon="3.75011">
        <ele>136.7</ele>
        <time>2011-02-18T21:47:03Z</time>
      </trkpt>
      <trkpt lat="43.50183" lon="3.75017">
        <ele>136.5</ele>
        <time>2011-02-18T21:47:04Z</time>
      </trkpt>
      <trkpt lat="43.50188" lon="3.75022">
        <ele>135.8</ele>
        <time>2011-02-18T21:47:05Z</time>
      </trkpt>
      <trkpt lat="43.50192" lon="3.75027">
        <ele>135.3</ele>
        <time>2011-02-18T21:47:06Z</time>
      </trkpt>
      <trkpt lat="43.50197" lon="3.75031">
        <ele>134.9</ele>
        <time>2011-02-18T21:47:07Z</time>
      </trkpt>
      <trkpt lat="43.50201" lon="3.75035">
        <ele>134.8</ele>
        <time>2011-02-18T21:47:08Z</time>
      </trkpt>
      <trkpt lat="43.50205" lon="3.75039">
        <ele>134.7</ele>
        <time>2011-02-18T21:47:09Z</time>
      </trkpt>
      <trkpt lat="43.50209" lon="3.75043">
        <ele>134.6</ele>
        <time>2011-02-18T21:47:10Z</time>
      </trkpt>
      <trkpt lat="43.50213" lon="3.75047">
        <ele>134.9</ele>
        <time>2011-02-18T21:47:11Z</time>
      </trkpt>
      <trkpt lat="43.50216" lon="3.75052">
        <ele>135.1</ele>
        <time>2011-02-18T21:47:12Z</time>
      </trkpt>
      <trkpt lat="43.50219" lon="3.75057">
        <ele>135.2</ele>
        <time>2011-02-18T21:47:13Z</time>
      </trkpt>
      <trkpt lat="43.50221" lon="3.75062">
        <ele>135.3</ele>
        <time>2011-02-18T21:47:14Z</time>
      </trkpt>
      <trkpt lat="43.50223" lon="3.75068">
        <ele>135.4</ele>
        <time>2011-02-18T21:47:15Z</time>
      </trkpt>
      <trkpt lat="43.50226" lon="3.75074">
        <ele>135.4</ele>
        <time>2011-02-18T21:47:16Z</time>
      </trkpt>
      <trkpt lat="43.50229" lon="3.75079">
        <ele>135.5</ele>
        <time>2011-02-18T21:47:17Z</time>
      </trkpt>
      <trkpt lat="43.50236" lon="3.75084">
        <ele>135.7</ele>
        <time>2011-02-18T21:47:19Z</time>
      </trkpt>
      <trkpt lat="43.50244" lon="3.75083">
        <ele>137</ele>
        <time>2011-02-18T21:47:22Z</time>
      </trkpt>
      <trkpt lat="43.50251" lon="3.7508">
        <ele>138.5</ele>
        <time>2011-02-18T21:47:25Z</time>
      </trkpt>
      <trkpt lat="43.50259" lon="3.75079">
        <ele>140.1</ele>
        <time>2011-02-18T21:47:28Z</time>
      </trkpt>
      <trkpt lat="43.50267" lon="3.75078">
        <ele>140.3</ele>
        <time>2011-02-18T21:47:31Z</time>
      </trkpt>
      <trkpt lat="43.50276" lon="3.75079">
        <ele>140.1</ele>
        <time>2011-02-18T21:47:34Z</time>
      </trkpt>
      <trkpt lat="43.50285" lon="3.75081">
        <ele>140.2</ele>
        <time>2011-02-18T21:47:37Z</time>
      </trkpt>
      <trkpt lat="43.50287" lon="3.75082">
        <ele>140.4</ele>
        <time>2011-02-18T21:47:38Z</time>
      </trkpt>
      <trkpt lat="43.50301" lon="3.7509">
        <ele>141.1</ele>
        <time>2011-02-18T21:47:43Z</time>
      </trkpt>
      <trkpt lat="43.50306" lon="3.75099">
        <ele>142.3</ele>
        <time>2011-02-18T21:47:46Z</time>
      </trkpt>
      <trkpt lat="43.5031" lon="3.7511">
        <ele>142.8</ele>
        <time>2011-02-18T21:47:49Z</time>
      </trkpt>
      <trkpt lat="43.50311" lon="3.75118">
        <ele>142.8</ele>
        <time>2011-02-18T21:47:51Z</time>
      </trkpt>
      <trkpt lat="43.50313" lon="3.75127">
        <ele>142.7</ele>
        <time>2011-02-18T21:47:53Z</time>
      </trkpt>
      <trkpt lat="43.50314" lon="3.75133">
        <ele>142.6</ele>
        <time>2011-02-18T21:47:54Z</time>
      </trkpt>
      <trkpt lat="43.50315" lon="3.75139">
        <ele>142.6</ele>
        <time>2011-02-18T21:47:55Z</time>
      </trkpt>
      <trkpt lat="43.50316" lon="3.75146">
        <ele>142.5</ele>
        <time>2011-02-18T21:47:56Z</time>
      </trkpt>
      <trkpt lat="43.50318" lon="3.75153">
        <ele>142.4</ele>
        <time>2011-02-18T21:47:57Z</time>
      </trkpt>
      <trkpt lat="43.5032" lon="3.7516">
        <ele>142.4</ele>
        <time>2011-02-18T21:47:58Z</time>
      </trkpt>
      <trkpt lat="43.50322" lon="3.75166">
        <ele>142</ele>
        <time>2011-02-18T21:47:59Z</time>
      </trkpt>
      <trkpt lat="43.50326" lon="3.75177">
        <ele>141.5</ele>
        <time>2011-02-18T21:48:01Z</time>
      </trkpt>
      <trkpt lat="43.5033" lon="3.75184">
        <ele>141.3</ele>
        <time>2011-02-18T21:48:03Z</time>
      </trkpt>
      <trkpt lat="43.50336" lon="3.75193">
        <ele>142.2</ele>
        <time>2011-02-18T21:48:06Z</time>
      </trkpt>
      <trkpt lat="43.50339" lon="3.752">
        <ele>143</ele>
        <time>2011-02-18T21:48:08Z</time>
      </trkpt>
      <trkpt lat="43.50343" lon="3.75206">
        <ele>143.8</ele>
        <time>2011-02-18T21:48:10Z</time>
      </trkpt>
      <trkpt lat="43.50347" lon="3.75213">
        <ele>144</ele>
        <time>2011-02-18T21:48:12Z</time>
      </trkpt>
      <trkpt lat="43.50351" lon="3.75221">
        <ele>143.9</ele>
        <time>2011-02-18T21:48:14Z</time>
      </trkpt>
      <trkpt lat="43.50354" lon="3.75228">
        <ele>144.3</ele>
        <time>2011-02-18T21:48:16Z</time>
      </trkpt>
      <trkpt lat="43.50357" lon="3.75236">
        <ele>144.6</ele>
        <time>2011-02-18T21:48:18Z</time>
      </trkpt>
      <trkpt lat="43.5036" lon="3.75244">
        <ele>144.7</ele>
        <time>2011-02-18T21:48:20Z</time>
      </trkpt>
      <trkpt lat="43.50362" lon="3.75252">
        <ele>145.9</ele>
        <time>2011-02-18T21:48:22Z</time>
      </trkpt>
      <trkpt lat="43.50363" lon="3.7526">
        <ele>146.7</ele>
        <time>2011-02-18T21:48:24Z</time>
      </trkpt>
      <trkpt lat="43.50364" lon="3.75268">
        <ele>147.2</ele>
        <time>2011-02-18T21:48:26Z</time>
      </trkpt>
      <trkpt lat="43.50364" lon="3.75277">
        <ele>147.4</ele>
        <time>2011-02-18T21:48:28Z</time>
      </trkpt>
      <trkpt lat="43.50364" lon="3.75289">
        <ele>147.3</ele>
        <time>2011-02-18T21:48:31Z</time>
      </trkpt>
      <trkpt lat="43.50365" lon="3.75301">
        <ele>147.7</ele>
        <time>2011-02-18T21:48:34Z</time>
      </trkpt>
      <trkpt lat="43.50366" lon="3.75311">
        <ele>148.5</ele>
        <time>2011-02-18T21:48:37Z</time>
      </trkpt>
      <trkpt lat="43.50367" lon="3.75322">
        <ele>149.2</ele>
        <time>2011-02-18T21:48:40Z</time>
      </trkpt>
      <trkpt lat="43.50368" lon="3.75325">
        <ele>149.5</ele>
        <time>2011-02-18T21:48:41Z</time>
      </trkpt>
      <trkpt lat="43.50373" lon="3.75332">
        <ele>152.2</ele>
        <time>2011-02-18T21:49:55Z</time>
      </trkpt>
      <trkpt lat="43.50383" lon="3.75347">
        <ele>152</ele>
        <time>2011-02-18T21:50:03Z</time>
      </trkpt>
      <trkpt lat="43.50389" lon="3.75355">
        <ele>151.8</ele>
        <time>2011-02-18T21:50:06Z</time>
      </trkpt>
      <trkpt lat="43.50394" lon="3.75363">
        <ele>152.6</ele>
        <time>2011-02-18T21:50:09Z</time>
      </trkpt>
      <trkpt lat="43.50399" lon="3.75371">
        <ele>153</ele>
        <time>2011-02-18T21:50:12Z</time>
      </trkpt>
      <trkpt lat="43.50404" lon="3.7538">
        <ele>153.5</ele>
        <time>2011-02-18T21:50:15Z</time>
      </trkpt>
      <trkpt lat="43.5041" lon="3.75389">
        <ele>153.8</ele>
        <time>2011-02-18T21:50:18Z</time>
      </trkpt>
      <trkpt lat="43.50415" lon="3.75398">
        <ele>153.7</ele>
        <time>2011-02-18T21:50:21Z</time>
      </trkpt>
      <trkpt lat="43.50421" lon="3.75407">
        <ele>154.3</ele>
        <time>2011-02-18T21:50:24Z</time>
      </trkpt>
      <trkpt lat="43.50427" lon="3.75416">
        <ele>154.2</ele>
        <time>2011-02-18T21:50:27Z</time>
      </trkpt>
      <trkpt lat="43.50433" lon="3.75425">
        <ele>154.7</ele>
        <time>2011-02-18T21:50:30Z</time>
      </trkpt>
      <trkpt lat="43.50439" lon="3.75433">
        <ele>155.1</ele>
        <time>2011-02-18T21:50:33Z</time>
      </trkpt>
      <trkpt lat="43.50444" lon="3.75439">
        <ele>155.3</ele>
        <time>2011-02-18T21:50:35Z</time>
      </trkpt>
      <trkpt lat="43.50449" lon="3.75446">
        <ele>155.4</ele>
        <time>2011-02-18T21:50:37Z</time>
      </trkpt>
      <trkpt lat="43.50453" lon="3.75453">
        <ele>155.6</ele>
        <time>2011-02-18T21:50:39Z</time>
      </trkpt>
      <trkpt lat="43.50459" lon="3.75459">
        <ele>155.8</ele>
        <time>2011-02-18T21:50:41Z</time>
      </trkpt>
      <trkpt lat="43.50464" lon="3.75466">
        <ele>156.2</ele>
        <time>2011-02-18T21:50:43Z</time>
      </trkpt>
      <trkpt lat="43.50469" lon="3.75473">
        <ele>156.5</ele>
        <time>2011-02-18T21:50:45Z</time>
      </trkpt>
      <trkpt lat="43.50473" lon="3.75479">
        <ele>156.8</ele>
        <time>2011-02-18T21:50:47Z</time>
      </trkpt>
      <trkpt lat="43.50478" lon="3.75486">
        <ele>156.8</ele>
        <time>2011-02-18T21:50:49Z</time>
      </trkpt>
      <trkpt lat="43.50483" lon="3.75493">
        <ele>157.2</ele>
        <time>2011-02-18T21:50:51Z</time>
      </trkpt>
      <trkpt lat="43.50486" lon="3.75501">
        <ele>157.7</ele>
        <time>2011-02-18T21:50:53Z</time>
      </trkpt>
      <trkpt lat="43.50487" lon="3.75511">
        <ele>157.5</ele>
        <time>2011-02-18T21:50:55Z</time>
      </trkpt>
      <trkpt lat="43.50487" lon="3.75516">
        <ele>157.5</ele>
        <time>2011-02-18T21:50:56Z</time>
      </trkpt>
      <trkpt lat="43.50485" lon="3.7553">
        <ele>158.5</ele>
        <time>2011-02-18T21:50:59Z</time>
      </trkpt>
      <trkpt lat="43.50484" lon="3.75539">
        <ele>159.2</ele>
        <time>2011-02-18T21:51:01Z</time>
      </trkpt>
      <trkpt lat="43.50483" lon="3.75548">
        <ele>159.6</ele>
        <time>2011-02-18T21:51:03Z</time>
      </trkpt>
      <trkpt lat="43.50482" lon="3.75557">
        <ele>160.2</ele>
        <time>2011-02-18T21:51:05Z</time>
      </trkpt>
      <trkpt lat="43.50484" lon="3.75567">
        <ele>160.7</ele>
        <time>2011-02-18T21:51:07Z</time>
      </trkpt>
      <trkpt lat="43.50486" lon="3.75575">
        <ele>161.2</ele>
        <time>2011-02-18T21:51:09Z</time>
      </trkpt>
      <trkpt lat="43.50489" lon="3.75582">
        <ele>161.6</ele>
        <time>2011-02-18T21:51:11Z</time>
      </trkpt>
      <trkpt lat="43.50493" lon="3.75591">
        <ele>161.8</ele>
        <time>2011-02-18T21:51:13Z</time>
      </trkpt>
      <trkpt lat="43.50495" lon="3.75596">
        <ele>161.8</ele>
        <time>2011-02-18T21:51:14Z</time>
      </trkpt>
      <trkpt lat="43.50498" lon="3.75601">
        <ele>161.7</ele>
        <time>2011-02-18T21:51:15Z</time>
      </trkpt>
      <trkpt lat="43.50502" lon="3.75606">
        <ele>161.7</ele>
        <time>2011-02-18T21:51:16Z</time>
      </trkpt>
      <trkpt lat="43.50507" lon="3.7561">
        <ele>161</ele>
        <time>2011-02-18T21:51:17Z</time>
      </trkpt>
      <trkpt lat="43.50511" lon="3.75614">
        <ele>160.5</ele>
        <time>2011-02-18T21:51:18Z</time>
      </trkpt>
      <trkpt lat="43.50515" lon="3.75617">
        <ele>160.2</ele>
        <time>2011-02-18T21:51:19Z</time>
      </trkpt>
      <trkpt lat="43.5052" lon="3.75621">
        <ele>159.7</ele>
        <time>2011-02-18T21:51:20Z</time>
      </trkpt>
      <trkpt lat="43.50526" lon="3.75624">
        <ele>159.4</ele>
        <time>2011-02-18T21:51:21Z</time>
      </trkpt>
      <trkpt lat="43.50532" lon="3.75627">
        <ele>159.2</ele>
        <time>2011-02-18T21:51:22Z</time>
      </trkpt>
      <trkpt lat="43.50539" lon="3.75631">
        <ele>158.4</ele>
        <time>2011-02-18T21:51:23Z</time>
      </trkpt>
      <trkpt lat="43.50545" lon="3.75636">
        <ele>157.8</ele>
        <time>2011-02-18T21:51:24Z</time>
      </trkpt>
      <trkpt lat="43.50551" lon="3.75641">
        <ele>157.3</ele>
        <time>2011-02-18T21:51:25Z</time>
      </trkpt>
      <trkpt lat="43.50556" lon="3.75646">
        <ele>156.6</ele>
        <time>2011-02-18T21:51:26Z</time>
      </trkpt>
      <trkpt lat="43.50561" lon="3.75653">
        <ele>156.1</ele>
        <time>2011-02-18T21:51:27Z</time>
      </trkpt>
      <trkpt lat="43.50565" lon="3.75661">
        <ele>155.6</ele>
        <time>2011-02-18T21:51:28Z</time>
      </trkpt>
      <trkpt lat="43.50568" lon="3.75669">
        <ele>154.4</ele>
        <time>2011-02-18T21:51:29Z</time>
      </trkpt>
      <trkpt lat="43.50571" lon="3.75677">
        <ele>153.5</ele>
        <time>2011-02-18T21:51:30Z</time>
      </trkpt>
      <trkpt lat="43.50574" lon="3.75686">
        <ele>152.8</ele>
        <time>2011-02-18T21:51:31Z</time>
      </trkpt>
      <trkpt lat="43.50578" lon="3.75694">
        <ele>152.2</ele>
        <time>2011-02-18T21:51:32Z</time>
      </trkpt>
      <trkpt lat="43.50583" lon="3.75702">
        <ele>151.5</ele>
        <time>2011-02-18T21:51:33Z</time>
      </trkpt>
      <trkpt lat="43.50588" lon="3.75707">
        <ele>151</ele>
        <time>2011-02-18T21:51:34Z</time>
      </trkpt>
      <trkpt lat="43.50593" lon="3.75711">
        <ele>150.5</ele>
        <time>2011-02-18T21:51:35Z</time>
      </trkpt>
      <trkpt lat="43.50599" lon="3.75712">
        <ele>150.3</ele>
        <time>2011-02-18T21:51:36Z</time>
      </trkpt>
      <trkpt lat="43.50604" lon="3.75713">
        <ele>150.2</ele>
        <time>2011-02-18T21:51:37Z</time>
      </trkpt>
      <trkpt lat="43.5061" lon="3.75713">
        <ele>150.1</ele>
        <time>2011-02-18T21:51:38Z</time>
      </trkpt>
      <trkpt lat="43.50615" lon="3.75712">
        <ele>149.1</ele>
        <time>2011-02-18T21:51:39Z</time>
      </trkpt>
      <trkpt lat="43.50621" lon="3.7571">
        <ele>148.4</ele>
        <time>2011-02-18T21:51:40Z</time>
      </trkpt>
      <trkpt lat="43.50626" lon="3.75708">
        <ele>147.8</ele>
        <time>2011-02-18T21:51:41Z</time>
      </trkpt>
      <trkpt lat="43.50632" lon="3.75705">
        <ele>146.9</ele>
        <time>2011-02-18T21:51:42Z</time>
      </trkpt>
      <trkpt lat="43.50637" lon="3.75703">
        <ele>146.3</ele>
        <time>2011-02-18T21:51:43Z</time>
      </trkpt>
      <trkpt lat="43.50642" lon="3.757">
        <ele>145.8</ele>
        <time>2011-02-18T21:51:44Z</time>
      </trkpt>
      <trkpt lat="43.50648" lon="3.75698">
        <ele>145.4</ele>
        <time>2011-02-18T21:51:45Z</time>
      </trkpt>
      <trkpt lat="43.50654" lon="3.75695">
        <ele>144.7</ele>
        <time>2011-02-18T21:51:46Z</time>
      </trkpt>
      <trkpt lat="43.50659" lon="3.75692">
        <ele>144.1</ele>
        <time>2011-02-18T21:51:47Z</time>
      </trkpt>
      <trkpt lat="43.50665" lon="3.75689">
        <ele>143.7</ele>
        <time>2011-02-18T21:51:48Z</time>
      </trkpt>
      <trkpt lat="43.50671" lon="3.75687">
        <ele>143.3</ele>
        <time>2011-02-18T21:51:49Z</time>
      </trkpt>
      <trkpt lat="43.50678" lon="3.75686">
        <ele>143</ele>
        <time>2011-02-18T21:51:50Z</time>
      </trkpt>
      <trkpt lat="43.50685" lon="3.75684">
        <ele>142.8</ele>
        <time>2011-02-18T21:51:51Z</time>
      </trkpt>
      <trkpt lat="43.50691" lon="3.75683">
        <ele>142</ele>
        <time>2011-02-18T21:51:52Z</time>
      </trkpt>
      <trkpt lat="43.50696" lon="3.75683">
        <ele>141.3</ele>
        <time>2011-02-18T21:51:53Z</time>
      </trkpt>
      <trkpt lat="43.50704" lon="3.75684">
        <ele>140.1</ele>
        <time>2011-02-18T21:51:55Z</time>
      </trkpt>
      <trkpt lat="43.5071" lon="3.75692">
        <ele>138.9</ele>
        <time>2011-02-18T21:51:58Z</time>
      </trkpt>
      <trkpt lat="43.5071" lon="3.75696">
        <ele>138.8</ele>
        <time>2011-02-18T21:51:59Z</time>
      </trkpt>
      <trkpt lat="43.50702" lon="3.75709">
        <ele>137.5</ele>
        <time>2011-02-18T21:52:03Z</time>
      </trkpt>
      <trkpt lat="43.50697" lon="3.75715">
        <ele>137.5</ele>
        <time>2011-02-18T21:52:05Z</time>
      </trkpt>
      <trkpt lat="43.50692" lon="3.75724">
        <ele>137.8</ele>
        <time>2011-02-18T21:52:08Z</time>
      </trkpt>
      <trkpt lat="43.50686" lon="3.75731">
        <ele>137.6</ele>
        <time>2011-02-18T21:52:11Z</time>
      </trkpt>
      <trkpt lat="43.50681" lon="3.75737">
        <ele>137.4</ele>
        <time>2011-02-18T21:52:13Z</time>
      </trkpt>
      <trkpt lat="43.50677" lon="3.75744">
        <ele>136.7</ele>
        <time>2011-02-18T21:52:15Z</time>
      </trkpt>
      <trkpt lat="43.50673" lon="3.75751">
        <ele>136.6</ele>
        <time>2011-02-18T21:52:17Z</time>
      </trkpt>
      <trkpt lat="43.50668" lon="3.75757">
        <ele>136.8</ele>
        <time>2011-02-18T21:52:19Z</time>
      </trkpt>
      <trkpt lat="43.50663" lon="3.75764">
        <ele>136.7</ele>
        <time>2011-02-18T21:52:21Z</time>
      </trkpt>
      <trkpt lat="43.50656" lon="3.75771">
        <ele>136.4</ele>
        <time>2011-02-18T21:52:23Z</time>
      </trkpt>
      <trkpt lat="43.50648" lon="3.75776">
        <ele>136.5</ele>
        <time>2011-02-18T21:52:25Z</time>
      </trkpt>
      <trkpt lat="43.50641" lon="3.75781">
        <ele>136.4</ele>
        <time>2011-02-18T21:52:27Z</time>
      </trkpt>
      <trkpt lat="43.50635" lon="3.75791">
        <ele>136.1</ele>
        <time>2011-02-18T21:52:29Z</time>
      </trkpt>
      <trkpt lat="43.50637" lon="3.75803">
        <ele>135.7</ele>
        <time>2011-02-18T21:52:31Z</time>
      </trkpt>
      <trkpt lat="43.50642" lon="3.75811">
        <ele>135.6</ele>
        <time>2011-02-18T21:52:33Z</time>
      </trkpt>
      <trkpt lat="43.50648" lon="3.75818">
        <ele>135.7</ele>
        <time>2011-02-18T21:52:35Z</time>
      </trkpt>
      <trkpt lat="43.50656" lon="3.75824">
        <ele>135.6</ele>
        <time>2011-02-18T21:52:37Z</time>
      </trkpt>
      <trkpt lat="43.50659" lon="3.75828">
        <ele>135.6</ele>
        <time>2011-02-18T21:52:38Z</time>
      </trkpt>
      <trkpt lat="43.50663" lon="3.75832">
        <ele>135.5</ele>
        <time>2011-02-18T21:52:39Z</time>
      </trkpt>
      <trkpt lat="43.50666" lon="3.75836">
        <ele>135.7</ele>
        <time>2011-02-18T21:52:40Z</time>
      </trkpt>
      <trkpt lat="43.5067" lon="3.75841">
        <ele>135.8</ele>
        <time>2011-02-18T21:52:41Z</time>
      </trkpt>
      <trkpt lat="43.50673" lon="3.75846">
        <ele>135.9</ele>
        <time>2011-02-18T21:52:42Z</time>
      </trkpt>
      <trkpt lat="43.50675" lon="3.75852">
        <ele>135.6</ele>
        <time>2011-02-18T21:52:43Z</time>
      </trkpt>
      <trkpt lat="43.50678" lon="3.75858">
        <ele>135.3</ele>
        <time>2011-02-18T21:52:44Z</time>
      </trkpt>
      <trkpt lat="43.5068" lon="3.75864">
        <ele>135.2</ele>
        <time>2011-02-18T21:52:45Z</time>
      </trkpt>
      <trkpt lat="43.50683" lon="3.75871">
        <ele>135.2</ele>
        <time>2011-02-18T21:52:46Z</time>
      </trkpt>
      <trkpt lat="43.50685" lon="3.75878">
        <ele>135.3</ele>
        <time>2011-02-18T21:52:47Z</time>
      </trkpt>
      <trkpt lat="43.50686" lon="3.75884">
        <ele>135.3</ele>
        <time>2011-02-18T21:52:48Z</time>
      </trkpt>
      <trkpt lat="43.50688" lon="3.75891">
        <ele>135.2</ele>
        <time>2011-02-18T21:52:49Z</time>
      </trkpt>
      <trkpt lat="43.50689" lon="3.75899">
        <ele>135.1</ele>
        <time>2011-02-18T21:52:50Z</time>
      </trkpt>
      <trkpt lat="43.5069" lon="3.75906">
        <ele>135</ele>
        <time>2011-02-18T21:52:51Z</time>
      </trkpt>
      <trkpt lat="43.5069" lon="3.75913">
        <ele>135</ele>
        <time>2011-02-18T21:52:52Z</time>
      </trkpt>
      <trkpt lat="43.5069" lon="3.7592">
        <ele>135.1</ele>
        <time>2011-02-18T21:52:53Z</time>
      </trkpt>
      <trkpt lat="43.50691" lon="3.75927">
        <ele>135.2</ele>
        <time>2011-02-18T21:52:54Z</time>
      </trkpt>
      <trkpt lat="43.50692" lon="3.75934">
        <ele>135.3</ele>
        <time>2011-02-18T21:52:55Z</time>
      </trkpt>
      <trkpt lat="43.50692" lon="3.75941">
        <ele>135.1</ele>
        <time>2011-02-18T21:52:56Z</time>
      </trkpt>
      <trkpt lat="43.50692" lon="3.75948">
        <ele>134.9</ele>
        <time>2011-02-18T21:52:57Z</time>
      </trkpt>
      <trkpt lat="43.50693" lon="3.75955">
        <ele>134.8</ele>
        <time>2011-02-18T21:52:58Z</time>
      </trkpt>
      <trkpt lat="43.50693" lon="3.75962">
        <ele>135</ele>
        <time>2011-02-18T21:52:59Z</time>
      </trkpt>
      <trkpt lat="43.50693" lon="3.7597">
        <ele>135.1</ele>
        <time>2011-02-18T21:53:00Z</time>
      </trkpt>
      <trkpt lat="43.50692" lon="3.75977">
        <ele>135.2</ele>
        <time>2011-02-18T21:53:01Z</time>
      </trkpt>
      <trkpt lat="43.50692" lon="3.75984">
        <ele>135.4</ele>
        <time>2011-02-18T21:53:02Z</time>
      </trkpt>
      <trkpt lat="43.50691" lon="3.75992">
        <ele>135.5</ele>
        <time>2011-02-18T21:53:03Z</time>
      </trkpt>
      <trkpt lat="43.5069" lon="3.75999">
        <ele>135.6</ele>
        <time>2011-02-18T21:53:04Z</time>
      </trkpt>
      <trkpt lat="43.50689" lon="3.76006">
        <ele>135.5</ele>
        <time>2011-02-18T21:53:05Z</time>
      </trkpt>
      <trkpt lat="43.50688" lon="3.76012">
        <ele>135.5</ele>
        <time>2011-02-18T21:53:06Z</time>
      </trkpt>
      <trkpt lat="43.50686" lon="3.76019">
        <ele>135.5</ele>
        <time>2011-02-18T21:53:07Z</time>
      </trkpt>
      <trkpt lat="43.50684" lon="3.76026">
        <ele>135.4</ele>
        <time>2011-02-18T21:53:08Z</time>
      </trkpt>
      <trkpt lat="43.50682" lon="3.76033">
        <ele>135.6</ele>
        <time>2011-02-18T21:53:09Z</time>
      </trkpt>
      <trkpt lat="43.50681" lon="3.7604">
        <ele>135.8</ele>
        <time>2011-02-18T21:53:10Z</time>
      </trkpt>
      <trkpt lat="43.50679" lon="3.76047">
        <ele>135.9</ele>
        <time>2011-02-18T21:53:11Z</time>
      </trkpt>
      <trkpt lat="43.50676" lon="3.76053">
        <ele>135.5</ele>
        <time>2011-02-18T21:53:12Z</time>
      </trkpt>
      <trkpt lat="43.50673" lon="3.7606">
        <ele>135.3</ele>
        <time>2011-02-18T21:53:13Z</time>
      </trkpt>
      <trkpt lat="43.5067" lon="3.76066">
        <ele>135.1</ele>
        <time>2011-02-18T21:53:14Z</time>
      </trkpt>
      <trkpt lat="43.50667" lon="3.76072">
        <ele>134.9</ele>
        <time>2011-02-18T21:53:15Z</time>
      </trkpt>
      <trkpt lat="43.50662" lon="3.76077">
        <ele>134.7</ele>
        <time>2011-02-18T21:53:16Z</time>
      </trkpt>
      <trkpt lat="43.50658" lon="3.76081">
        <ele>134.6</ele>
        <time>2011-02-18T21:53:17Z</time>
      </trkpt>
      <trkpt lat="43.50653" lon="3.76085">
        <ele>134.4</ele>
        <time>2011-02-18T21:53:18Z</time>
      </trkpt>
      <trkpt lat="43.50648" lon="3.76088">
        <ele>134.3</ele>
        <time>2011-02-18T21:53:19Z</time>
      </trkpt>
      <trkpt lat="43.50643" lon="3.76089">
        <ele>134.2</ele>
        <time>2011-02-18T21:53:20Z</time>
      </trkpt>
      <trkpt lat="43.50637" lon="3.7609">
        <ele>134.1</ele>
        <time>2011-02-18T21:53:21Z</time>
      </trkpt>
      <trkpt lat="43.50632" lon="3.7609">
        <ele>134</ele>
        <time>2011-02-18T21:53:22Z</time>
      </trkpt>
      <trkpt lat="43.50627" lon="3.7609">
        <ele>133.9</ele>
        <time>2011-02-18T21:53:23Z</time>
      </trkpt>
      <trkpt lat="43.50622" lon="3.76089">
        <ele>133.7</ele>
        <time>2011-02-18T21:53:24Z</time>
      </trkpt>
      <trkpt lat="43.50617" lon="3.76088">
        <ele>133.6</ele>
        <time>2011-02-18T21:53:25Z</time>
      </trkpt>
      <trkpt lat="43.50612" lon="3.76087">
        <ele>133.4</ele>
        <time>2011-02-18T21:53:26Z</time>
      </trkpt>
      <trkpt lat="43.50607" lon="3.76086">
        <ele>133.4</ele>
        <time>2011-02-18T21:53:27Z</time>
      </trkpt>
      <trkpt lat="43.50603" lon="3.76085">
        <ele>133.4</ele>
        <time>2011-02-18T21:53:28Z</time>
      </trkpt>
      <trkpt lat="43.50598" lon="3.76084">
        <ele>133.5</ele>
        <time>2011-02-18T21:53:29Z</time>
      </trkpt>
      <trkpt lat="43.50593" lon="3.76083">
        <ele>133.6</ele>
        <time>2011-02-18T21:53:30Z</time>
      </trkpt>
      <trkpt lat="43.50588" lon="3.76082">
        <ele>133.6</ele>
        <time>2011-02-18T21:53:31Z</time>
      </trkpt>
      <trkpt lat="43.50583" lon="3.76081">
        <ele>133.7</ele>
        <time>2011-02-18T21:53:32Z</time>
      </trkpt>
      <trkpt lat="43.50578" lon="3.7608">
        <ele>133.7</ele>
        <time>2011-02-18T21:53:33Z</time>
      </trkpt>
      <trkpt lat="43.50573" lon="3.76079">
        <ele>133.5</ele>
        <time>2011-02-18T21:53:34Z</time>
      </trkpt>
      <trkpt lat="43.50568" lon="3.76077">
        <ele>133.3</ele>
        <time>2011-02-18T21:53:35Z</time>
      </trkpt>
      <trkpt lat="43.50563" lon="3.76076">
        <ele>133.2</ele>
        <time>2011-02-18T21:53:36Z</time>
      </trkpt>
      <trkpt lat="43.50559" lon="3.76074">
        <ele>133.1</ele>
        <time>2011-02-18T21:53:37Z</time>
      </trkpt>
      <trkpt lat="43.50554" lon="3.76072">
        <ele>133</ele>
        <time>2011-02-18T21:53:38Z</time>
      </trkpt>
      <trkpt lat="43.50549" lon="3.76071">
        <ele>132.9</ele>
        <time>2011-02-18T21:53:39Z</time>
      </trkpt>
      <trkpt lat="43.50544" lon="3.7607">
        <ele>132.7</ele>
        <time>2011-02-18T21:53:40Z</time>
      </trkpt>
      <trkpt lat="43.50538" lon="3.76069">
        <ele>132.6</ele>
        <time>2011-02-18T21:53:41Z</time>
      </trkpt>
      <trkpt lat="43.50533" lon="3.76069">
        <ele>132.5</ele>
        <time>2011-02-18T21:53:42Z</time>
      </trkpt>
      <trkpt lat="43.50528" lon="3.76068">
        <ele>132.4</ele>
        <time>2011-02-18T21:53:43Z</time>
      </trkpt>
      <trkpt lat="43.50522" lon="3.76068">
        <ele>132.1</ele>
        <time>2011-02-18T21:53:44Z</time>
      </trkpt>
      <trkpt lat="43.50517" lon="3.76066">
        <ele>131.9</ele>
        <time>2011-02-18T21:53:45Z</time>
      </trkpt>
      <trkpt lat="43.50511" lon="3.76064">
        <ele>131.7</ele>
        <time>2011-02-18T21:53:46Z</time>
      </trkpt>
      <trkpt lat="43.50506" lon="3.76063">
        <ele>131.5</ele>
        <time>2011-02-18T21:53:47Z</time>
      </trkpt>
      <trkpt lat="43.50501" lon="3.76061">
        <ele>131.3</ele>
        <time>2011-02-18T21:53:48Z</time>
      </trkpt>
      <trkpt lat="43.50495" lon="3.76059">
        <ele>131.2</ele>
        <time>2011-02-18T21:53:49Z</time>
      </trkpt>
      <trkpt lat="43.5049" lon="3.76058">
        <ele>130.9</ele>
        <time>2011-02-18T21:53:50Z</time>
      </trkpt>
      <trkpt lat="43.50485" lon="3.76058">
        <ele>130.7</ele>
        <time>2011-02-18T21:53:51Z</time>
      </trkpt>
      <trkpt lat="43.50477" lon="3.76062">
        <ele>130.5</ele>
        <time>2011-02-18T21:53:53Z</time>
      </trkpt>
      <trkpt lat="43.50474" lon="3.76071">
        <ele>130.5</ele>
        <time>2011-02-18T21:53:55Z</time>
      </trkpt>
      <trkpt lat="43.50474" lon="3.7608">
        <ele>130.3</ele>
        <time>2011-02-18T21:53:57Z</time>
      </trkpt>
      <trkpt lat="43.50474" lon="3.7609">
        <ele>130.2</ele>
        <time>2011-02-18T21:53:59Z</time>
      </trkpt>
      <trkpt lat="43.50474" lon="3.76102">
        <ele>130.4</ele>
        <time>2011-02-18T21:54:01Z</time>
      </trkpt>
      <trkpt lat="43.50474" lon="3.76107">
        <ele>130.5</ele>
        <time>2011-02-18T21:54:02Z</time>
      </trkpt>
      <trkpt lat="43.50473" lon="3.7612">
        <ele>129.8</ele>
        <time>2011-02-18T21:54:04Z</time>
      </trkpt>
      <trkpt lat="43.50473" lon="3.76127">
        <ele>129.5</ele>
        <time>2011-02-18T21:54:05Z</time>
      </trkpt>
      <trkpt lat="43.50472" lon="3.76133">
        <ele>129.7</ele>
        <time>2011-02-18T21:54:06Z</time>
      </trkpt>
      <trkpt lat="43.50471" lon="3.76139">
        <ele>129.9</ele>
        <time>2011-02-18T21:54:07Z</time>
      </trkpt>
      <trkpt lat="43.50469" lon="3.76145">
        <ele>130</ele>
        <time>2011-02-18T21:54:08Z</time>
      </trkpt>
      <trkpt lat="43.50467" lon="3.76152">
        <ele>129.9</ele>
        <time>2011-02-18T21:54:09Z</time>
      </trkpt>
      <trkpt lat="43.50465" lon="3.76157">
        <ele>129.7</ele>
        <time>2011-02-18T21:54:10Z</time>
      </trkpt>
      <trkpt lat="43.50463" lon="3.76163">
        <ele>129.7</ele>
        <time>2011-02-18T21:54:11Z</time>
      </trkpt>
      <trkpt lat="43.5046" lon="3.76168">
        <ele>129.3</ele>
        <time>2011-02-18T21:54:12Z</time>
      </trkpt>
      <trkpt lat="43.50456" lon="3.76173">
        <ele>129.1</ele>
        <time>2011-02-18T21:54:13Z</time>
      </trkpt>
      <trkpt lat="43.50452" lon="3.76177">
        <ele>128.9</ele>
        <time>2011-02-18T21:54:14Z</time>
      </trkpt>
      <trkpt lat="43.50448" lon="3.76181">
        <ele>128.8</ele>
        <time>2011-02-18T21:54:15Z</time>
      </trkpt>
      <trkpt lat="43.50443" lon="3.76184">
        <ele>129</ele>
        <time>2011-02-18T21:54:16Z</time>
      </trkpt>
      <trkpt lat="43.50439" lon="3.76186">
        <ele>129.2</ele>
        <time>2011-02-18T21:54:17Z</time>
      </trkpt>
      <trkpt lat="43.50434" lon="3.76189">
        <ele>129.3</ele>
        <time>2011-02-18T21:54:18Z</time>
      </trkpt>
      <trkpt lat="43.50429" lon="3.76191">
        <ele>129.2</ele>
        <time>2011-02-18T21:54:19Z</time>
      </trkpt>
      <trkpt lat="43.50425" lon="3.76193">
        <ele>129.1</ele>
        <time>2011-02-18T21:54:20Z</time>
      </trkpt>
      <trkpt lat="43.5042" lon="3.76194">
        <ele>129</ele>
        <time>2011-02-18T21:54:21Z</time>
      </trkpt>
      <trkpt lat="43.50415" lon="3.76196">
        <ele>129.1</ele>
        <time>2011-02-18T21:54:22Z</time>
      </trkpt>
      <trkpt lat="43.5041" lon="3.76199">
        <ele>129.3</ele>
        <time>2011-02-18T21:54:23Z</time>
      </trkpt>
      <trkpt lat="43.50406" lon="3.76201">
        <ele>129.3</ele>
        <time>2011-02-18T21:54:24Z</time>
      </trkpt>
      <trkpt lat="43.50401" lon="3.76204">
        <ele>129.2</ele>
        <time>2011-02-18T21:54:25Z</time>
      </trkpt>
      <trkpt lat="43.50397" lon="3.76208">
        <ele>129.1</ele>
        <time>2011-02-18T21:54:26Z</time>
      </trkpt>
      <trkpt lat="43.50389" lon="3.76214">
        <ele>128.6</ele>
        <time>2011-02-18T21:54:28Z</time>
      </trkpt>
      <trkpt lat="43.50383" lon="3.76222">
        <ele>128.1</ele>
        <time>2011-02-18T21:54:30Z</time>
      </trkpt>
      <trkpt lat="43.50378" lon="3.76231">
        <ele>127.9</ele>
        <time>2011-02-18T21:54:32Z</time>
      </trkpt>
      <trkpt lat="43.50372" lon="3.7624">
        <ele>128</ele>
        <time>2011-02-18T21:54:34Z</time>
      </trkpt>
      <trkpt lat="43.50367" lon="3.76249">
        <ele>128.1</ele>
        <time>2011-02-18T21:54:36Z</time>
      </trkpt>
      <trkpt lat="43.50362" lon="3.76257">
        <ele>128.1</ele>
        <time>2011-02-18T21:54:38Z</time>
      </trkpt>
      <trkpt lat="43.50358" lon="3.76265">
        <ele>128.1</ele>
        <time>2011-02-18T21:54:40Z</time>
      </trkpt>
      <trkpt lat="43.50353" lon="3.76273">
        <ele>128.2</ele>
        <time>2011-02-18T21:54:42Z</time>
      </trkpt>
      <trkpt lat="43.5035" lon="3.76282">
        <ele>128.3</ele>
        <time>2011-02-18T21:54:44Z</time>
      </trkpt>
      <trkpt lat="43.50346" lon="3.76291">
        <ele>128.3</ele>
        <time>2011-02-18T21:54:46Z</time>
      </trkpt>
      <trkpt lat="43.50344" lon="3.76301">
        <ele>128.4</ele>
        <time>2011-02-18T21:54:48Z</time>
      </trkpt>
      <trkpt lat="43.50342" lon="3.76312">
        <ele>128.5</ele>
        <time>2011-02-18T21:54:50Z</time>
      </trkpt>
      <trkpt lat="43.50342" lon="3.76323">
        <ele>129</ele>
        <time>2011-02-18T21:54:52Z</time>
      </trkpt>
      <trkpt lat="43.5034" lon="3.76334">
        <ele>129.2</ele>
        <time>2011-02-18T21:54:54Z</time>
      </trkpt>
      <trkpt lat="43.50337" lon="3.76344">
        <ele>129.3</ele>
        <time>2011-02-18T21:54:56Z</time>
      </trkpt>
      <trkpt lat="43.50334" lon="3.76355">
        <ele>129</ele>
        <time>2011-02-18T21:54:58Z</time>
      </trkpt>
      <trkpt lat="43.50332" lon="3.76366">
        <ele>128.9</ele>
        <time>2011-02-18T21:55:00Z</time>
      </trkpt>
      <trkpt lat="43.50331" lon="3.76378">
        <ele>128.8</ele>
        <time>2011-02-18T21:55:02Z</time>
      </trkpt>
      <trkpt lat="43.5033" lon="3.76384">
        <ele>129</ele>
        <time>2011-02-18T21:55:03Z</time>
      </trkpt>
      <trkpt lat="43.50325" lon="3.76397">
        <ele>129.2</ele>
        <time>2011-02-18T21:55:06Z</time>
      </trkpt>
      <trkpt lat="43.50321" lon="3.76405">
        <ele>128.9</ele>
        <time>2011-02-18T21:55:08Z</time>
      </trkpt>
      <trkpt lat="43.50317" lon="3.76413">
        <ele>128.4</ele>
        <time>2011-02-18T21:55:10Z</time>
      </trkpt>
      <trkpt lat="43.50312" lon="3.7642">
        <ele>127.9</ele>
        <time>2011-02-18T21:55:12Z</time>
      </trkpt>
      <trkpt lat="43.50306" lon="3.76428">
        <ele>127.5</ele>
        <time>2011-02-18T21:55:14Z</time>
      </trkpt>
      <trkpt lat="43.503" lon="3.76438">
        <ele>127</ele>
        <time>2011-02-18T21:55:16Z</time>
      </trkpt>
      <trkpt lat="43.50295" lon="3.76447">
        <ele>126.6</ele>
        <time>2011-02-18T21:55:18Z</time>
      </trkpt>
      <trkpt lat="43.5029" lon="3.76455">
        <ele>126.4</ele>
        <time>2011-02-18T21:55:20Z</time>
      </trkpt>
      <trkpt lat="43.50284" lon="3.76463">
        <ele>126.2</ele>
        <time>2011-02-18T21:55:22Z</time>
      </trkpt>
      <trkpt lat="43.50277" lon="3.76471">
        <ele>125.3</ele>
        <time>2011-02-18T21:55:24Z</time>
      </trkpt>
      <trkpt lat="43.50274" lon="3.76476">
        <ele>125</ele>
        <time>2011-02-18T21:55:25Z</time>
      </trkpt>
      <trkpt lat="43.5027" lon="3.76481">
        <ele>124</ele>
        <time>2011-02-18T21:55:26Z</time>
      </trkpt>
      <trkpt lat="43.50266" lon="3.76485">
        <ele>123.3</ele>
        <time>2011-02-18T21:55:27Z</time>
      </trkpt>
      <trkpt lat="43.5026" lon="3.76491">
        <ele>122.1</ele>
        <time>2011-02-18T21:55:29Z</time>
      </trkpt>
      <trkpt lat="43.50254" lon="3.76495">
        <ele>121.3</ele>
        <time>2011-02-18T21:55:31Z</time>
      </trkpt>
      <trkpt lat="43.50246" lon="3.76497">
        <ele>120.7</ele>
        <time>2011-02-18T21:55:33Z</time>
      </trkpt>
      <trkpt lat="43.50241" lon="3.76504">
        <ele>119.8</ele>
        <time>2011-02-18T21:55:35Z</time>
      </trkpt>
      <trkpt lat="43.50238" lon="3.76511">
        <ele>118.9</ele>
        <time>2011-02-18T21:55:37Z</time>
      </trkpt>
      <trkpt lat="43.50235" lon="3.7652">
        <ele>118.4</ele>
        <time>2011-02-18T21:55:39Z</time>
      </trkpt>
      <trkpt lat="43.50231" lon="3.76529">
        <ele>118.3</ele>
        <time>2011-02-18T21:55:41Z</time>
      </trkpt>
      <trkpt lat="43.50225" lon="3.76538">
        <ele>117.1</ele>
        <time>2011-02-18T21:55:43Z</time>
      </trkpt>
      <trkpt lat="43.5022" lon="3.76545">
        <ele>116.2</ele>
        <time>2011-02-18T21:55:45Z</time>
      </trkpt>
      <trkpt lat="43.50216" lon="3.76549">
        <ele>115.9</ele>
        <time>2011-02-18T21:55:46Z</time>
      </trkpt>
      <trkpt lat="43.50213" lon="3.76553">
        <ele>115.6</ele>
        <time>2011-02-18T21:55:47Z</time>
      </trkpt>
      <trkpt lat="43.50209" lon="3.76558">
        <ele>114.9</ele>
        <time>2011-02-18T21:55:48Z</time>
      </trkpt>
      <trkpt lat="43.50203" lon="3.76566">
        <ele>114</ele>
        <time>2011-02-18T21:55:50Z</time>
      </trkpt>
      <trkpt lat="43.50197" lon="3.76575">
        <ele>113.2</ele>
        <time>2011-02-18T21:55:52Z</time>
      </trkpt>
      <trkpt lat="43.50194" lon="3.76579">
        <ele>112.9</ele>
        <time>2011-02-18T21:55:53Z</time>
      </trkpt>
      <trkpt lat="43.5019" lon="3.76583">
        <ele>112.7</ele>
        <time>2011-02-18T21:55:54Z</time>
      </trkpt>
      <trkpt lat="43.50184" lon="3.76592">
        <ele>112.4</ele>
        <time>2011-02-18T21:55:56Z</time>
      </trkpt>
      <trkpt lat="43.50181" lon="3.76602">
        <ele>111.6</ele>
        <time>2011-02-18T21:55:58Z</time>
      </trkpt>
      <trkpt lat="43.50177" lon="3.76611">
        <ele>110.7</ele>
        <time>2011-02-18T21:56:00Z</time>
      </trkpt>
      <trkpt lat="43.50173" lon="3.7662">
        <ele>110.5</ele>
        <time>2011-02-18T21:56:02Z</time>
      </trkpt>
      <trkpt lat="43.50169" lon="3.76629">
        <ele>110</ele>
        <time>2011-02-18T21:56:04Z</time>
      </trkpt>
      <trkpt lat="43.50166" lon="3.76633">
        <ele>109.7</ele>
        <time>2011-02-18T21:56:05Z</time>
      </trkpt>
      <trkpt lat="43.50158" lon="3.76647">
        <ele>109.1</ele>
        <time>2011-02-18T21:56:08Z</time>
      </trkpt>
      <trkpt lat="43.50151" lon="3.76654">
        <ele>108.4</ele>
        <time>2011-02-18T21:56:10Z</time>
      </trkpt>
      <trkpt lat="43.50144" lon="3.7666">
        <ele>107.8</ele>
        <time>2011-02-18T21:56:12Z</time>
      </trkpt>
      <trkpt lat="43.50137" lon="3.76664">
        <ele>106.9</ele>
        <time>2011-02-18T21:56:14Z</time>
      </trkpt>
      <trkpt lat="43.50131" lon="3.76673">
        <ele>105.9</ele>
        <time>2011-02-18T21:56:16Z</time>
      </trkpt>
      <trkpt lat="43.50128" lon="3.76684">
        <ele>104.1</ele>
        <time>2011-02-18T21:56:18Z</time>
      </trkpt>
      <trkpt lat="43.50124" lon="3.76694">
        <ele>103</ele>
        <time>2011-02-18T21:56:20Z</time>
      </trkpt>
      <trkpt lat="43.50121" lon="3.76699">
        <ele>102.6</ele>
        <time>2011-02-18T21:56:21Z</time>
      </trkpt>
      <trkpt lat="43.50119" lon="3.76711">
        <ele>101.7</ele>
        <time>2011-02-18T21:56:23Z</time>
      </trkpt>
      <trkpt lat="43.50121" lon="3.76721">
        <ele>100.9</ele>
        <time>2011-02-18T21:56:25Z</time>
      </trkpt>
      <trkpt lat="43.50121" lon="3.7673">
        <ele>100.1</ele>
        <time>2011-02-18T21:56:27Z</time>
      </trkpt>
      <trkpt lat="43.50121" lon="3.76742">
        <ele>99.1</ele>
        <time>2011-02-18T21:56:30Z</time>
      </trkpt>
      <trkpt lat="43.50122" lon="3.76751">
        <ele>98.4</ele>
        <time>2011-02-18T21:56:32Z</time>
      </trkpt>
      <trkpt lat="43.50124" lon="3.76762">
        <ele>98</ele>
        <time>2011-02-18T21:56:34Z</time>
      </trkpt>
      <trkpt lat="43.50128" lon="3.76772">
        <ele>98.1</ele>
        <time>2011-02-18T21:56:36Z</time>
      </trkpt>
      <trkpt lat="43.50132" lon="3.76782">
        <ele>98.5</ele>
        <time>2011-02-18T21:56:38Z</time>
      </trkpt>
      <trkpt lat="43.50135" lon="3.76793">
        <ele>98.1</ele>
        <time>2011-02-18T21:56:40Z</time>
      </trkpt>
      <trkpt lat="43.50138" lon="3.76804">
        <ele>97.5</ele>
        <time>2011-02-18T21:56:42Z</time>
      </trkpt>
      <trkpt lat="43.50142" lon="3.76816">
        <ele>96.6</ele>
        <time>2011-02-18T21:56:45Z</time>
      </trkpt>
      <trkpt lat="43.50146" lon="3.76826">
        <ele>95.5</ele>
        <time>2011-02-18T21:56:49Z</time>
      </trkpt>
      <trkpt lat="43.5015" lon="3.76837">
        <ele>94.5</ele>
        <time>2011-02-18T21:56:52Z</time>
      </trkpt>
      <trkpt lat="43.50153" lon="3.76846">
        <ele>94</ele>
        <time>2011-02-18T21:56:54Z</time>
      </trkpt>
      <trkpt lat="43.50158" lon="3.76853">
        <ele>93</ele>
        <time>2011-02-18T21:56:56Z</time>
      </trkpt>
      <trkpt lat="43.50164" lon="3.7686">
        <ele>92.3</ele>
        <time>2011-02-18T21:56:58Z</time>
      </trkpt>
      <trkpt lat="43.50167" lon="3.76864">
        <ele>92.1</ele>
        <time>2011-02-18T21:56:59Z</time>
      </trkpt>
      <trkpt lat="43.50171" lon="3.76867">
        <ele>91.9</ele>
        <time>2011-02-18T21:57:00Z</time>
      </trkpt>
      <trkpt lat="43.50176" lon="3.7687">
        <ele>91.8</ele>
        <time>2011-02-18T21:57:01Z</time>
      </trkpt>
      <trkpt lat="43.5018" lon="3.76873">
        <ele>90.9</ele>
        <time>2011-02-18T21:57:02Z</time>
      </trkpt>
      <trkpt lat="43.50188" lon="3.76877">
        <ele>89.8</ele>
        <time>2011-02-18T21:57:04Z</time>
      </trkpt>
      <trkpt lat="43.50194" lon="3.76883">
        <ele>89.7</ele>
        <time>2011-02-18T21:57:06Z</time>
      </trkpt>
      <trkpt lat="43.50196" lon="3.76887">
        <ele>89.7</ele>
        <time>2011-02-18T21:57:07Z</time>
      </trkpt>
      <trkpt lat="43.502" lon="3.76899">
        <ele>88.8</ele>
        <time>2011-02-18T21:57:10Z</time>
      </trkpt>
      <trkpt lat="43.50203" lon="3.7691">
        <ele>88.7</ele>
        <time>2011-02-18T21:57:13Z</time>
      </trkpt>
      <trkpt lat="43.50203" lon="3.7692">
        <ele>87</ele>
        <time>2011-02-18T21:57:16Z</time>
      </trkpt>
      <trkpt lat="43.50202" lon="3.76931">
        <ele>85.7</ele>
        <time>2011-02-18T21:57:19Z</time>
      </trkpt>
      <trkpt lat="43.50205" lon="3.76941">
        <ele>84.6</ele>
        <time>2011-02-18T21:57:22Z</time>
      </trkpt>
      <trkpt lat="43.50209" lon="3.76949">
        <ele>82.8</ele>
        <time>2011-02-18T21:57:26Z</time>
      </trkpt>
      <trkpt lat="43.50217" lon="3.76951">
        <ele>81.9</ele>
        <time>2011-02-18T21:57:29Z</time>
      </trkpt>
      <trkpt lat="43.50224" lon="3.76951">
        <ele>81.1</ele>
        <time>2011-02-18T21:57:32Z</time>
      </trkpt>
      <trkpt lat="43.50231" lon="3.7695">
        <ele>81.1</ele>
        <time>2011-02-18T21:57:34Z</time>
      </trkpt>
      <trkpt lat="43.50238" lon="3.76949">
        <ele>81.1</ele>
        <time>2011-02-18T21:57:36Z</time>
      </trkpt>
      <trkpt lat="43.50245" lon="3.76947">
        <ele>80.8</ele>
        <time>2011-02-18T21:57:38Z</time>
      </trkpt>
      <trkpt lat="43.50252" lon="3.76947">
        <ele>80.4</ele>
        <time>2011-02-18T21:57:40Z</time>
      </trkpt>
      <trkpt lat="43.50258" lon="3.76956">
        <ele>79.8</ele>
        <time>2011-02-18T21:57:44Z</time>
      </trkpt>
      <trkpt lat="43.50261" lon="3.76964">
        <ele>79</ele>
        <time>2011-02-18T21:57:47Z</time>
      </trkpt>
      <trkpt lat="43.5026" lon="3.76974">
        <ele>77.4</ele>
        <time>2011-02-18T21:57:50Z</time>
      </trkpt>
      <trkpt lat="43.50259" lon="3.76983">
        <ele>76.7</ele>
        <time>2011-02-18T21:57:52Z</time>
      </trkpt>
      <trkpt lat="43.50256" lon="3.76993">
        <ele>75.8</ele>
        <time>2011-02-18T21:57:54Z</time>
      </trkpt>
      <trkpt lat="43.50253" lon="3.77001">
        <ele>74.9</ele>
        <time>2011-02-18T21:57:56Z</time>
      </trkpt>
      <trkpt lat="43.50248" lon="3.77008">
        <ele>73.2</ele>
        <time>2011-02-18T21:57:59Z</time>
      </trkpt>
      <trkpt lat="43.50248" lon="3.77019">
        <ele>70.4</ele>
        <time>2011-02-18T21:58:04Z</time>
      </trkpt>
      <trkpt lat="43.50246" lon="3.7703">
        <ele>68.9</ele>
        <time>2011-02-18T21:58:10Z</time>
      </trkpt>
      <trkpt lat="43.50246" lon="3.77034">
        <ele>68.6</ele>
        <time>2011-02-18T21:58:11Z</time>
      </trkpt>
      <trkpt lat="43.5025" lon="3.7705">
        <ele>67.9</ele>
        <time>2011-02-18T21:58:16Z</time>
      </trkpt>
      <trkpt lat="43.50255" lon="3.77057">
        <ele>66.7</ele>
        <time>2011-02-18T21:58:19Z</time>
      </trkpt>
      <trkpt lat="43.50262" lon="3.77062">
        <ele>65.1</ele>
        <time>2011-02-18T21:58:23Z</time>
      </trkpt>
      <trkpt lat="43.50265" lon="3.77074">
        <ele>65.4</ele>
        <time>2011-02-18T21:58:27Z</time>
      </trkpt>
      <trkpt lat="43.50267" lon="3.77083">
        <ele>65.6</ele>
        <time>2011-02-18T21:58:29Z</time>
      </trkpt>
      <trkpt lat="43.50268" lon="3.77093">
        <ele>65.3</ele>
        <time>2011-02-18T21:58:31Z</time>
      </trkpt>
      <trkpt lat="43.50268" lon="3.77104">
        <ele>64.8</ele>
        <time>2011-02-18T21:58:33Z</time>
      </trkpt>
      <trkpt lat="43.50268" lon="3.77111">
        <ele>64.7</ele>
        <time>2011-02-18T21:58:34Z</time>
      </trkpt>
      <trkpt lat="43.50268" lon="3.77123">
        <ele>64.6</ele>
        <time>2011-02-18T21:58:36Z</time>
      </trkpt>
      <trkpt lat="43.5027" lon="3.77135">
        <ele>64</ele>
        <time>2011-02-18T21:58:38Z</time>
      </trkpt>
      <trkpt lat="43.5027" lon="3.77146">
        <ele>63.8</ele>
        <time>2011-02-18T21:58:40Z</time>
      </trkpt>
      <trkpt lat="43.50272" lon="3.77157">
        <ele>63.8</ele>
        <time>2011-02-18T21:58:42Z</time>
      </trkpt>
      <trkpt lat="43.50271" lon="3.77168">
        <ele>63.6</ele>
        <time>2011-02-18T21:58:44Z</time>
      </trkpt>
      <trkpt lat="43.50271" lon="3.77177">
        <ele>63.3</ele>
        <time>2011-02-18T21:58:46Z</time>
      </trkpt>
      <trkpt lat="43.5027" lon="3.77186">
        <ele>63</ele>
        <time>2011-02-18T21:58:48Z</time>
      </trkpt>
      <trkpt lat="43.50271" lon="3.77195">
        <ele>62.5</ele>
        <time>2011-02-18T21:58:50Z</time>
      </trkpt>
      <trkpt lat="43.50275" lon="3.77204">
        <ele>61.9</ele>
        <time>2011-02-18T21:58:53Z</time>
      </trkpt>
      <trkpt lat="43.5028" lon="3.77211">
        <ele>61.7</ele>
        <time>2011-02-18T21:58:56Z</time>
      </trkpt>
      <trkpt lat="43.50286" lon="3.77215">
        <ele>61.4</ele>
        <time>2011-02-18T21:58:59Z</time>
      </trkpt>
      <trkpt lat="43.50293" lon="3.77222">
        <ele>61.1</ele>
        <time>2011-02-18T21:59:02Z</time>
      </trkpt>
      <trkpt lat="43.50296" lon="3.77231">
        <ele>61.1</ele>
        <time>2011-02-18T21:59:05Z</time>
      </trkpt>
      <trkpt lat="43.50299" lon="3.77238">
        <ele>60.4</ele>
        <time>2011-02-18T21:59:07Z</time>
      </trkpt>
      <trkpt lat="43.50303" lon="3.77246">
        <ele>59.9</ele>
        <time>2011-02-18T21:59:09Z</time>
      </trkpt>
      <trkpt lat="43.50308" lon="3.77252">
        <ele>59.5</ele>
        <time>2011-02-18T21:59:11Z</time>
      </trkpt>
      <trkpt lat="43.50315" lon="3.77259">
        <ele>60.3</ele>
        <time>2011-02-18T21:59:14Z</time>
      </trkpt>
      <trkpt lat="43.50316" lon="3.77263">
        <ele>60.4</ele>
        <time>2011-02-18T21:59:15Z</time>
      </trkpt>
      <trkpt lat="43.5032" lon="3.77279">
        <ele>58.2</ele>
        <time>2011-02-18T21:59:20Z</time>
      </trkpt>
      <trkpt lat="43.50327" lon="3.77284">
        <ele>58</ele>
        <time>2011-02-18T21:59:23Z</time>
      </trkpt>
      <trkpt lat="43.50333" lon="3.77288">
        <ele>57.8</ele>
        <time>2011-02-18T21:59:25Z</time>
      </trkpt>
      <trkpt lat="43.50339" lon="3.77293">
        <ele>57.6</ele>
        <time>2011-02-18T21:59:27Z</time>
      </trkpt>
      <trkpt lat="43.50341" lon="3.77303">
        <ele>56.8</ele>
        <time>2011-02-18T21:59:30Z</time>
      </trkpt>
      <trkpt lat="43.5034" lon="3.77314">
        <ele>56.6</ele>
        <time>2011-02-18T21:59:33Z</time>
      </trkpt>
      <trkpt lat="43.50341" lon="3.77324">
        <ele>56.2</ele>
        <time>2011-02-18T21:59:35Z</time>
      </trkpt>
      <trkpt lat="43.50342" lon="3.77334">
        <ele>55.6</ele>
        <time>2011-02-18T21:59:37Z</time>
      </trkpt>
      <trkpt lat="43.50344" lon="3.77345">
        <ele>55.3</ele>
        <time>2011-02-18T21:59:40Z</time>
      </trkpt>
      <trkpt lat="43.50346" lon="3.77353">
        <ele>55.2</ele>
        <time>2011-02-18T21:59:42Z</time>
      </trkpt>
      <trkpt lat="43.5035" lon="3.77359">
        <ele>54.8</ele>
        <time>2011-02-18T21:59:44Z</time>
      </trkpt>
      <trkpt lat="43.50356" lon="3.77365">
        <ele>54.4</ele>
        <time>2011-02-18T21:59:46Z</time>
      </trkpt>
      <trkpt lat="43.50361" lon="3.77369">
        <ele>54.5</ele>
        <time>2011-02-18T21:59:48Z</time>
      </trkpt>
      <trkpt lat="43.50367" lon="3.77372">
        <ele>54.9</ele>
        <time>2011-02-18T21:59:50Z</time>
      </trkpt>
      <trkpt lat="43.50374" lon="3.77374">
        <ele>55.2</ele>
        <time>2011-02-18T21:59:52Z</time>
      </trkpt>
      <trkpt lat="43.5038" lon="3.77377">
        <ele>55.6</ele>
        <time>2011-02-18T21:59:54Z</time>
      </trkpt>
      <trkpt lat="43.50386" lon="3.77383">
        <ele>56</ele>
        <time>2011-02-18T21:59:56Z</time>
      </trkpt>
      <trkpt lat="43.5039" lon="3.77391">
        <ele>56.5</ele>
        <time>2011-02-18T21:59:58Z</time>
      </trkpt>
      <trkpt lat="43.50394" lon="3.77399">
        <ele>56.3</ele>
        <time>2011-02-18T22:00:00Z</time>
      </trkpt>
      <trkpt lat="43.50399" lon="3.77406">
        <ele>55.9</ele>
        <time>2011-02-18T22:00:02Z</time>
      </trkpt>
      <trkpt lat="43.50403" lon="3.77415">
        <ele>55.5</ele>
        <time>2011-02-18T22:00:05Z</time>
      </trkpt>
      <trkpt lat="43.50404" lon="3.77426">
        <ele>55.3</ele>
        <time>2011-02-18T22:00:08Z</time>
      </trkpt>
      <trkpt lat="43.50405" lon="3.77434">
        <ele>54.9</ele>
        <time>2011-02-18T22:00:10Z</time>
      </trkpt>
      <trkpt lat="43.50406" lon="3.77443">
        <ele>54.4</ele>
        <time>2011-02-18T22:00:12Z</time>
      </trkpt>
      <trkpt lat="43.50407" lon="3.77454">
        <ele>53.9</ele>
        <time>2011-02-18T22:00:15Z</time>
      </trkpt>
      <trkpt lat="43.50412" lon="3.77463">
        <ele>53.5</ele>
        <time>2011-02-18T22:00:24Z</time>
      </trkpt>
      <trkpt lat="43.50413" lon="3.77464">
        <ele>53.4</ele>
        <time>2011-02-18T22:00:25Z</time>
      </trkpt>
      <trkpt lat="43.50422" lon="3.77478">
        <ele>51.9</ele>
        <time>2011-02-18T22:00:37Z</time>
      </trkpt>
      <trkpt lat="43.50428" lon="3.77484">
        <ele>52.4</ele>
        <time>2011-02-18T22:00:40Z</time>
      </trkpt>
      <trkpt lat="43.50433" lon="3.77493">
        <ele>51.9</ele>
        <time>2011-02-18T22:00:43Z</time>
      </trkpt>
      <trkpt lat="43.5044" lon="3.77498">
        <ele>50.6</ele>
        <time>2011-02-18T22:00:48Z</time>
      </trkpt>
      <trkpt lat="43.50448" lon="3.77501">
        <ele>51.1</ele>
        <time>2011-02-18T22:00:52Z</time>
      </trkpt>
      <trkpt lat="43.50456" lon="3.77506">
        <ele>51</ele>
        <time>2011-02-18T22:00:55Z</time>
      </trkpt>
      <trkpt lat="43.50459" lon="3.77518">
        <ele>49.3</ele>
        <time>2011-02-18T22:01:00Z</time>
      </trkpt>
      <trkpt lat="43.50462" lon="3.77528">
        <ele>50</ele>
        <time>2011-02-18T22:01:03Z</time>
      </trkpt>
      <trkpt lat="43.50465" lon="3.77539">
        <ele>48.7</ele>
        <time>2011-02-18T22:01:06Z</time>
      </trkpt>
      <trkpt lat="43.50463" lon="3.77549">
        <ele>48.4</ele>
        <time>2011-02-18T22:01:09Z</time>
      </trkpt>
      <trkpt lat="43.50462" lon="3.77561">
        <ele>46.4</ele>
        <time>2011-02-18T22:01:13Z</time>
      </trkpt>
      <trkpt lat="43.50464" lon="3.77573">
        <ele>44.9</ele>
        <time>2011-02-18T22:01:17Z</time>
      </trkpt>
      <trkpt lat="43.50466" lon="3.77582">
        <ele>44.1</ele>
        <time>2011-02-18T22:01:20Z</time>
      </trkpt>
      <trkpt lat="43.50467" lon="3.77591">
        <ele>43.4</ele>
        <time>2011-02-18T22:01:22Z</time>
      </trkpt>
      <trkpt lat="43.50466" lon="3.77599">
        <ele>43.1</ele>
        <time>2011-02-18T22:01:24Z</time>
      </trkpt>
      <trkpt lat="43.50466" lon="3.7761">
        <ele>42.9</ele>
        <time>2011-02-18T22:01:26Z</time>
      </trkpt>
      <trkpt lat="43.50467" lon="3.77616">
        <ele>42.9</ele>
        <time>2011-02-18T22:01:27Z</time>
      </trkpt>
      <trkpt lat="43.50472" lon="3.77632">
        <ele>42.3</ele>
        <time>2011-02-18T22:01:30Z</time>
      </trkpt>
      <trkpt lat="43.50475" lon="3.77639">
        <ele>41.5</ele>
        <time>2011-02-18T22:01:32Z</time>
      </trkpt>
      <trkpt lat="43.5048" lon="3.77648">
        <ele>41.1</ele>
        <time>2011-02-18T22:01:35Z</time>
      </trkpt>
      <trkpt lat="43.50488" lon="3.77646">
        <ele>41.1</ele>
        <time>2011-02-18T22:01:43Z</time>
      </trkpt>
      <trkpt lat="43.50495" lon="3.77648">
        <ele>41.6</ele>
        <time>2011-02-18T22:01:47Z</time>
      </trkpt>
      <trkpt lat="43.50503" lon="3.77652">
        <ele>41.9</ele>
        <time>2011-02-18T22:01:51Z</time>
      </trkpt>
      <trkpt lat="43.50511" lon="3.77653">
        <ele>42.1</ele>
        <time>2011-02-18T22:01:55Z</time>
      </trkpt>
      <trkpt lat="43.50519" lon="3.77653">
        <ele>42.7</ele>
        <time>2011-02-18T22:01:59Z</time>
      </trkpt>
      <trkpt lat="43.50527" lon="3.77652">
        <ele>43.1</ele>
        <time>2011-02-18T22:02:03Z</time>
      </trkpt>
      <trkpt lat="43.50536" lon="3.77651">
        <ele>44.4</ele>
        <time>2011-02-18T22:02:07Z</time>
      </trkpt>
      <trkpt lat="43.50544" lon="3.7765">
        <ele>44.9</ele>
        <time>2011-02-18T22:02:11Z</time>
      </trkpt>
      <trkpt lat="43.50552" lon="3.7765">
        <ele>45.1</ele>
        <time>2011-02-18T22:02:15Z</time>
      </trkpt>
      <trkpt lat="43.5056" lon="3.77649">
        <ele>45.3</ele>
        <time>2011-02-18T22:02:19Z</time>
      </trkpt>
      <trkpt lat="43.50569" lon="3.77647">
        <ele>46.2</ele>
        <time>2011-02-18T22:02:23Z</time>
      </trkpt>
      <trkpt lat="43.50576" lon="3.77645">
        <ele>46.6</ele>
        <time>2011-02-18T22:02:26Z</time>
      </trkpt>
      <trkpt lat="43.50584" lon="3.77643">
        <ele>46.9</ele>
        <time>2011-02-18T22:02:29Z</time>
      </trkpt>
      <trkpt lat="43.50586" lon="3.77643">
        <ele>47</ele>
        <time>2011-02-18T22:02:30Z</time>
      </trkpt>
      <trkpt lat="43.50598" lon="3.77639">
        <ele>46.1</ele>
        <time>2011-02-18T22:02:35Z</time>
      </trkpt>
      <trkpt lat="43.50606" lon="3.77636">
        <ele>46.1</ele>
        <time>2011-02-18T22:02:38Z</time>
      </trkpt>
      <trkpt lat="43.50614" lon="3.77634">
        <ele>46.6</ele>
        <time>2011-02-18T22:02:41Z</time>
      </trkpt>
      <trkpt lat="43.50622" lon="3.77631">
        <ele>46.8</ele>
        <time>2011-02-18T22:02:44Z</time>
      </trkpt>
      <trkpt lat="43.50631" lon="3.77628">
        <ele>46.1</ele>
        <time>2011-02-18T22:02:47Z</time>
      </trkpt>
      <trkpt lat="43.50637" lon="3.77626">
        <ele>45.7</ele>
        <time>2011-02-18T22:02:49Z</time>
      </trkpt>
      <trkpt lat="43.50644" lon="3.77624">
        <ele>46.1</ele>
        <time>2011-02-18T22:02:51Z</time>
      </trkpt>
      <trkpt lat="43.50651" lon="3.77622">
        <ele>46.2</ele>
        <time>2011-02-18T22:02:53Z</time>
      </trkpt>
      <trkpt lat="43.50658" lon="3.77621">
        <ele>46.3</ele>
        <time>2011-02-18T22:02:55Z</time>
      </trkpt>
      <trkpt lat="43.50666" lon="3.7762">
        <ele>46.1</ele>
        <time>2011-02-18T22:02:57Z</time>
      </trkpt>
      <trkpt lat="43.50672" lon="3.77621">
        <ele>46</ele>
        <time>2011-02-18T22:02:59Z</time>
      </trkpt>
      <trkpt lat="43.50681" lon="3.7762">
        <ele>46.5</ele>
        <time>2011-02-18T22:03:02Z</time>
      </trkpt>
      <trkpt lat="43.50687" lon="3.77619">
        <ele>47.2</ele>
        <time>2011-02-18T22:03:04Z</time>
      </trkpt>
      <trkpt lat="43.50696" lon="3.77617">
        <ele>47.7</ele>
        <time>2011-02-18T22:03:07Z</time>
      </trkpt>
      <trkpt lat="43.50702" lon="3.77615">
        <ele>47.9</ele>
        <time>2011-02-18T22:03:09Z</time>
      </trkpt>
      <trkpt lat="43.5071" lon="3.77612">
        <ele>48.1</ele>
        <time>2011-02-18T22:03:12Z</time>
      </trkpt>
      <trkpt lat="43.50716" lon="3.77608">
        <ele>47.9</ele>
        <time>2011-02-18T22:03:14Z</time>
      </trkpt>
      <trkpt lat="43.50723" lon="3.77606">
        <ele>48</ele>
        <time>2011-02-18T22:03:16Z</time>
      </trkpt>
      <trkpt lat="43.5073" lon="3.77606">
        <ele>48.2</ele>
        <time>2011-02-18T22:03:18Z</time>
      </trkpt>
      <trkpt lat="43.50737" lon="3.77603">
        <ele>48.3</ele>
        <time>2011-02-18T22:03:20Z</time>
      </trkpt>
      <trkpt lat="43.50744" lon="3.77603">
        <ele>48.1</ele>
        <time>2011-02-18T22:03:22Z</time>
      </trkpt>
      <trkpt lat="43.50751" lon="3.77601">
        <ele>47.9</ele>
        <time>2011-02-18T22:03:24Z</time>
      </trkpt>
      <trkpt lat="43.50758" lon="3.776">
        <ele>48</ele>
        <time>2011-02-18T22:03:26Z</time>
      </trkpt>
      <trkpt lat="43.50765" lon="3.776">
        <ele>48.1</ele>
        <time>2011-02-18T22:03:28Z</time>
      </trkpt>
      <trkpt lat="43.50772" lon="3.77602">
        <ele>48.2</ele>
        <time>2011-02-18T22:03:30Z</time>
      </trkpt>
      <trkpt lat="43.5078" lon="3.77603">
        <ele>48.4</ele>
        <time>2011-02-18T22:03:33Z</time>
      </trkpt>
      <trkpt lat="43.50784" lon="3.77602">
        <ele>48.5</ele>
        <time>2011-02-18T22:03:34Z</time>
      </trkpt>
      <trkpt lat="43.50795" lon="3.77602">
        <ele>49.1</ele>
        <time>2011-02-18T22:03:37Z</time>
      </trkpt>
      <trkpt lat="43.50802" lon="3.776">
        <ele>49.8</ele>
        <time>2011-02-18T22:03:39Z</time>
      </trkpt>
      <trkpt lat="43.50808" lon="3.77597">
        <ele>49.7</ele>
        <time>2011-02-18T22:03:41Z</time>
      </trkpt>
      <trkpt lat="43.50814" lon="3.77595">
        <ele>49.2</ele>
        <time>2011-02-18T22:03:43Z</time>
      </trkpt>
      <trkpt lat="43.5082" lon="3.77592">
        <ele>49.2</ele>
        <time>2011-02-18T22:03:45Z</time>
      </trkpt>
      <trkpt lat="43.50828" lon="3.77586">
        <ele>49.5</ele>
        <time>2011-02-18T22:03:48Z</time>
      </trkpt>
      <trkpt lat="43.50834" lon="3.77579">
        <ele>50.4</ele>
        <time>2011-02-18T22:03:51Z</time>
      </trkpt>
      <trkpt lat="43.50841" lon="3.77572">
        <ele>51</ele>
        <time>2011-02-18T22:03:54Z</time>
      </trkpt>
      <trkpt lat="43.50847" lon="3.77564">
        <ele>51.3</ele>
        <time>2011-02-18T22:03:57Z</time>
      </trkpt>
      <trkpt lat="43.50855" lon="3.77557">
        <ele>51.5</ele>
        <time>2011-02-18T22:04:00Z</time>
      </trkpt>
      <trkpt lat="43.5086" lon="3.77552">
        <ele>51.4</ele>
        <time>2011-02-18T22:04:02Z</time>
      </trkpt>
      <trkpt lat="43.50864" lon="3.77547">
        <ele>51.4</ele>
        <time>2011-02-18T22:04:04Z</time>
      </trkpt>
      <trkpt lat="43.50868" lon="3.77541">
        <ele>51.6</ele>
        <time>2011-02-18T22:04:06Z</time>
      </trkpt>
      <trkpt lat="43.50873" lon="3.77535">
        <ele>51.9</ele>
        <time>2011-02-18T22:04:08Z</time>
      </trkpt>
      <trkpt lat="43.50878" lon="3.7753">
        <ele>51.9</ele>
        <time>2011-02-18T22:04:10Z</time>
      </trkpt>
      <trkpt lat="43.50884" lon="3.77526">
        <ele>52.2</ele>
        <time>2011-02-18T22:04:12Z</time>
      </trkpt>
      <trkpt lat="43.5089" lon="3.77521">
        <ele>52.5</ele>
        <time>2011-02-18T22:04:14Z</time>
      </trkpt>
      <trkpt lat="43.50896" lon="3.77513">
        <ele>52.7</ele>
        <time>2011-02-18T22:04:17Z</time>
      </trkpt>
      <trkpt lat="43.509" lon="3.77508">
        <ele>53</ele>
        <time>2011-02-18T22:04:19Z</time>
      </trkpt>
      <trkpt lat="43.50906" lon="3.77503">
        <ele>53.5</ele>
        <time>2011-02-18T22:04:21Z</time>
      </trkpt>
      <trkpt lat="43.50912" lon="3.77497">
        <ele>53.5</ele>
        <time>2011-02-18T22:04:23Z</time>
      </trkpt>
      <trkpt lat="43.50918" lon="3.77492">
        <ele>53.3</ele>
        <time>2011-02-18T22:04:25Z</time>
      </trkpt>
      <trkpt lat="43.50924" lon="3.77485">
        <ele>53.1</ele>
        <time>2011-02-18T22:04:27Z</time>
      </trkpt>
      <trkpt lat="43.5093" lon="3.77478">
        <ele>52.6</ele>
        <time>2011-02-18T22:04:29Z</time>
      </trkpt>
      <trkpt lat="43.50935" lon="3.77472">
        <ele>52.3</ele>
        <time>2011-02-18T22:04:31Z</time>
      </trkpt>
      <trkpt lat="43.5094" lon="3.77464">
        <ele>52.1</ele>
        <time>2011-02-18T22:04:33Z</time>
      </trkpt>
      <trkpt lat="43.50943" lon="3.77456">
        <ele>52.2</ele>
        <time>2011-02-18T22:04:35Z</time>
      </trkpt>
      <trkpt lat="43.50944" lon="3.77451">
        <ele>52.4</ele>
        <time>2011-02-18T22:04:36Z</time>
      </trkpt>
      <trkpt lat="43.50948" lon="3.77439">
        <ele>52.3</ele>
        <time>2011-02-18T22:04:39Z</time>
      </trkpt>
      <trkpt lat="43.5095" lon="3.77431">
        <ele>52.3</ele>
        <time>2011-02-18T22:04:41Z</time>
      </trkpt>
      <trkpt lat="43.50952" lon="3.77422">
        <ele>52.3</ele>
        <time>2011-02-18T22:04:43Z</time>
      </trkpt>
      <trkpt lat="43.50953" lon="3.77413">
        <ele>52.8</ele>
        <time>2011-02-18T22:04:45Z</time>
      </trkpt>
      <trkpt lat="43.50954" lon="3.77401">
        <ele>53.6</ele>
        <time>2011-02-18T22:04:48Z</time>
      </trkpt>
      <trkpt lat="43.50956" lon="3.77391">
        <ele>54.8</ele>
        <time>2011-02-18T22:04:51Z</time>
      </trkpt>
      <trkpt lat="43.50957" lon="3.77382">
        <ele>55.8</ele>
        <time>2011-02-18T22:04:54Z</time>
      </trkpt>
      <trkpt lat="43.50962" lon="3.77372">
        <ele>56.5</ele>
        <time>2011-02-18T22:04:58Z</time>
      </trkpt>
      <trkpt lat="43.50967" lon="3.77364">
        <ele>57.2</ele>
        <time>2011-02-18T22:05:02Z</time>
      </trkpt>
      <trkpt lat="43.50973" lon="3.77357">
        <ele>58.3</ele>
        <time>2011-02-18T22:05:06Z</time>
      </trkpt>
      <trkpt lat="43.5098" lon="3.77351">
        <ele>58.6</ele>
        <time>2011-02-18T22:05:10Z</time>
      </trkpt>
      <trkpt lat="43.50986" lon="3.77345">
        <ele>58.9</ele>
        <time>2011-02-18T22:05:13Z</time>
      </trkpt>
      <trkpt lat="43.50993" lon="3.77338">
        <ele>58.9</ele>
        <time>2011-02-18T22:05:16Z</time>
      </trkpt>
      <trkpt lat="43.50999" lon="3.7733">
        <ele>58.6</ele>
        <time>2011-02-18T22:05:19Z</time>
      </trkpt>
      <trkpt lat="43.51004" lon="3.77324">
        <ele>58.3</ele>
        <time>2011-02-18T22:05:21Z</time>
      </trkpt>
      <trkpt lat="43.51008" lon="3.77318">
        <ele>58.3</ele>
        <time>2011-02-18T22:05:23Z</time>
      </trkpt>
      <trkpt lat="43.51011" lon="3.7731">
        <ele>58.4</ele>
        <time>2011-02-18T22:05:25Z</time>
      </trkpt>
      <trkpt lat="43.51013" lon="3.77299">
        <ele>59.3</ele>
        <time>2011-02-18T22:05:28Z</time>
      </trkpt>
      <trkpt lat="43.51015" lon="3.77287">
        <ele>59.6</ele>
        <time>2011-02-18T22:05:31Z</time>
      </trkpt>
      <trkpt lat="43.51016" lon="3.77276">
        <ele>60.2</ele>
        <time>2011-02-18T22:05:34Z</time>
      </trkpt>
      <trkpt lat="43.51016" lon="3.77264">
        <ele>60</ele>
        <time>2011-02-18T22:05:37Z</time>
      </trkpt>
      <trkpt lat="43.51016" lon="3.7726">
        <ele>59.9</ele>
        <time>2011-02-18T22:05:38Z</time>
      </trkpt>
      <trkpt lat="43.51014" lon="3.77243">
        <ele>60.7</ele>
        <time>2011-02-18T22:05:43Z</time>
      </trkpt>
      <trkpt lat="43.51013" lon="3.77233">
        <ele>61</ele>
        <time>2011-02-18T22:05:46Z</time>
      </trkpt>
      <trkpt lat="43.51013" lon="3.77222">
        <ele>61.1</ele>
        <time>2011-02-18T22:05:49Z</time>
      </trkpt>
      <trkpt lat="43.51013" lon="3.77211">
        <ele>61.8</ele>
        <time>2011-02-18T22:05:52Z</time>
      </trkpt>
      <trkpt lat="43.51012" lon="3.77201">
        <ele>62.6</ele>
        <time>2011-02-18T22:05:55Z</time>
      </trkpt>
      <trkpt lat="43.5101" lon="3.77191">
        <ele>63.5</ele>
        <time>2011-02-18T22:05:58Z</time>
      </trkpt>
      <trkpt lat="43.51007" lon="3.77181">
        <ele>64.5</ele>
        <time>2011-02-18T22:06:01Z</time>
      </trkpt>
      <trkpt lat="43.51005" lon="3.77171">
        <ele>65.1</ele>
        <time>2011-02-18T22:06:04Z</time>
      </trkpt>
      <trkpt lat="43.51002" lon="3.77162">
        <ele>65.7</ele>
        <time>2011-02-18T22:06:07Z</time>
      </trkpt>
      <trkpt lat="43.51" lon="3.77151">
        <ele>66.3</ele>
        <time>2011-02-18T22:06:10Z</time>
      </trkpt>
      <trkpt lat="43.50998" lon="3.7714">
        <ele>66.6</ele>
        <time>2011-02-18T22:06:13Z</time>
      </trkpt>
      <trkpt lat="43.50995" lon="3.77131">
        <ele>67.2</ele>
        <time>2011-02-18T22:06:16Z</time>
      </trkpt>
      <trkpt lat="43.50992" lon="3.77121">
        <ele>67.6</ele>
        <time>2011-02-18T22:06:19Z</time>
      </trkpt>
      <trkpt lat="43.50988" lon="3.7711">
        <ele>68.2</ele>
        <time>2011-02-18T22:06:23Z</time>
      </trkpt>
      <trkpt lat="43.50984" lon="3.771">
        <ele>68.6</ele>
        <time>2011-02-18T22:06:27Z</time>
      </trkpt>
      <trkpt lat="43.50982" lon="3.77089">
        <ele>68.8</ele>
        <time>2011-02-18T22:06:31Z</time>
      </trkpt>
      <trkpt lat="43.50982" lon="3.77077">
        <ele>68.7</ele>
        <time>2011-02-18T22:06:35Z</time>
      </trkpt>
      <trkpt lat="43.50981" lon="3.77066">
        <ele>70</ele>
        <time>2011-02-18T22:06:39Z</time>
      </trkpt>
      <trkpt lat="43.5098" lon="3.77063">
        <ele>70.2</ele>
        <time>2011-02-18T22:06:40Z</time>
      </trkpt>
      <trkpt lat="43.50979" lon="3.77043">
        <ele>70.9</ele>
        <time>2011-02-18T22:06:47Z</time>
      </trkpt>
      <trkpt lat="43.5098" lon="3.77031">
        <ele>71.6</ele>
        <time>2011-02-18T22:06:51Z</time>
      </trkpt>
      <trkpt lat="43.5098" lon="3.7702">
        <ele>72.7</ele>
        <time>2011-02-18T22:06:55Z</time>
      </trkpt>
      <trkpt lat="43.5098" lon="3.77008">
        <ele>73.6</ele>
        <time>2011-02-18T22:06:59Z</time>
      </trkpt>
      <trkpt lat="43.50981" lon="3.76997">
        <ele>73.9</ele>
        <time>2011-02-18T22:07:03Z</time>
      </trkpt>
      <trkpt lat="43.50981" lon="3.76984">
        <ele>76.4</ele>
        <time>2011-02-18T22:07:45Z</time>
      </trkpt>
      <trkpt lat="43.50981" lon="3.76984">
        <ele>76.4</ele>
        <time>2011-02-18T22:07:46Z</time>
      </trkpt>
      <trkpt lat="43.50979" lon="3.76961">
        <ele>76.6</ele>
        <time>2011-02-18T22:07:59Z</time>
      </trkpt>
      <trkpt lat="43.50979" lon="3.76949">
        <ele>77.7</ele>
        <time>2011-02-18T22:08:04Z</time>
      </trkpt>
      <trkpt lat="43.5098" lon="3.76939">
        <ele>78.6</ele>
        <time>2011-02-18T22:08:09Z</time>
      </trkpt>
      <trkpt lat="43.50984" lon="3.76929">
        <ele>79</ele>
        <time>2011-02-18T22:08:14Z</time>
      </trkpt>
      <trkpt lat="43.50988" lon="3.76921">
        <ele>79.9</ele>
        <time>2011-02-18T22:08:19Z</time>
      </trkpt>
      <trkpt lat="43.50993" lon="3.76912">
        <ele>80.7</ele>
        <time>2011-02-18T22:08:24Z</time>
      </trkpt>
      <trkpt lat="43.50997" lon="3.76903">
        <ele>81.8</ele>
        <time>2011-02-18T22:08:29Z</time>
      </trkpt>
      <trkpt lat="43.51001" lon="3.76892">
        <ele>82.2</ele>
        <time>2011-02-18T22:08:34Z</time>
      </trkpt>
      <trkpt lat="43.51005" lon="3.76882">
        <ele>83</ele>
        <time>2011-02-18T22:08:39Z</time>
      </trkpt>
      <trkpt lat="43.51009" lon="3.76871">
        <ele>84.4</ele>
        <time>2011-02-18T22:08:44Z</time>
      </trkpt>
      <trkpt lat="43.51011" lon="3.76862">
        <ele>85.4</ele>
        <time>2011-02-18T22:08:48Z</time>
      </trkpt>
      <trkpt lat="43.51012" lon="3.7686">
        <ele>85.5</ele>
        <time>2011-02-18T22:08:49Z</time>
      </trkpt>
      <trkpt lat="43.51019" lon="3.76844">
        <ele>86.8</ele>
        <time>2011-02-18T22:08:56Z</time>
      </trkpt>
      <trkpt lat="43.51024" lon="3.76835">
        <ele>87.5</ele>
        <time>2011-02-18T22:09:00Z</time>
      </trkpt>
      <trkpt lat="43.51028" lon="3.76826">
        <ele>87.3</ele>
        <time>2011-02-18T22:09:03Z</time>
      </trkpt>
      <trkpt lat="43.51032" lon="3.76816">
        <ele>86.8</ele>
        <time>2011-02-18T22:09:06Z</time>
      </trkpt>
      <trkpt lat="43.51036" lon="3.76808">
        <ele>86.2</ele>
        <time>2011-02-18T22:09:08Z</time>
      </trkpt>
      <trkpt lat="43.51038" lon="3.76799">
        <ele>85.6</ele>
        <time>2011-02-18T22:09:10Z</time>
      </trkpt>
      <trkpt lat="43.51039" lon="3.7679">
        <ele>85.3</ele>
        <time>2011-02-18T22:09:12Z</time>
      </trkpt>
      <trkpt lat="43.5104" lon="3.76782">
        <ele>84.9</ele>
        <time>2011-02-18T22:09:14Z</time>
      </trkpt>
      <trkpt lat="43.5104" lon="3.76773">
        <ele>85.2</ele>
        <time>2011-02-18T22:09:16Z</time>
      </trkpt>
      <trkpt lat="43.51041" lon="3.76764">
        <ele>85.7</ele>
        <time>2011-02-18T22:09:18Z</time>
      </trkpt>
      <trkpt lat="43.51043" lon="3.76754">
        <ele>85.6</ele>
        <time>2011-02-18T22:09:20Z</time>
      </trkpt>
      <trkpt lat="43.51046" lon="3.76746">
        <ele>85.4</ele>
        <time>2011-02-18T22:09:22Z</time>
      </trkpt>
      <trkpt lat="43.51051" lon="3.76737">
        <ele>85.4</ele>
        <time>2011-02-18T22:09:25Z</time>
      </trkpt>
      <trkpt lat="43.51057" lon="3.76729">
        <ele>85.7</ele>
        <time>2011-02-18T22:09:28Z</time>
      </trkpt>
      <trkpt lat="43.51064" lon="3.76721">
        <ele>85.9</ele>
        <time>2011-02-18T22:09:31Z</time>
      </trkpt>
      <trkpt lat="43.51071" lon="3.76715">
        <ele>86.2</ele>
        <time>2011-02-18T22:09:34Z</time>
      </trkpt>
      <trkpt lat="43.51079" lon="3.76709">
        <ele>86.3</ele>
        <time>2011-02-18T22:09:37Z</time>
      </trkpt>
      <trkpt lat="43.51086" lon="3.76703">
        <ele>86.5</ele>
        <time>2011-02-18T22:09:40Z</time>
      </trkpt>
      <trkpt lat="43.51092" lon="3.76698">
        <ele>86.9</ele>
        <time>2011-02-18T22:09:43Z</time>
      </trkpt>
      <trkpt lat="43.51101" lon="3.76696">
        <ele>87.4</ele>
        <time>2011-02-18T22:09:46Z</time>
      </trkpt>
      <trkpt lat="43.51109" lon="3.76695">
        <ele>87.1</ele>
        <time>2011-02-18T22:09:49Z</time>
      </trkpt>
      <trkpt lat="43.51113" lon="3.76695">
        <ele>87</ele>
        <time>2011-02-18T22:09:50Z</time>
      </trkpt>
      <trkpt lat="43.51122" lon="3.76696">
        <ele>87.1</ele>
        <time>2011-02-18T22:09:53Z</time>
      </trkpt>
      <trkpt lat="43.51128" lon="3.76694">
        <ele>86.7</ele>
        <time>2011-02-18T22:09:55Z</time>
      </trkpt>
      <trkpt lat="43.51134" lon="3.76692">
        <ele>87.1</ele>
        <time>2011-02-18T22:09:57Z</time>
      </trkpt>
      <trkpt lat="43.5114" lon="3.76689">
        <ele>87.9</ele>
        <time>2011-02-18T22:09:59Z</time>
      </trkpt>
      <trkpt lat="43.51146" lon="3.76687">
        <ele>88.5</ele>
        <time>2011-02-18T22:10:01Z</time>
      </trkpt>
      <trkpt lat="43.51154" lon="3.76683">
        <ele>88.7</ele>
        <time>2011-02-18T22:10:04Z</time>
      </trkpt>
      <trkpt lat="43.51162" lon="3.76678">
        <ele>88.8</ele>
        <time>2011-02-18T22:10:07Z</time>
      </trkpt>
      <trkpt lat="43.51169" lon="3.76672">
        <ele>89.8</ele>
        <time>2011-02-18T22:10:10Z</time>
      </trkpt>
      <trkpt lat="43.51177" lon="3.76667">
        <ele>90.6</ele>
        <time>2011-02-18T22:10:13Z</time>
      </trkpt>
      <trkpt lat="43.51183" lon="3.76659">
        <ele>91.1</ele>
        <time>2011-02-18T22:10:16Z</time>
      </trkpt>
      <trkpt lat="43.51189" lon="3.76651">
        <ele>91.8</ele>
        <time>2011-02-18T22:10:19Z</time>
      </trkpt>
      <trkpt lat="43.51196" lon="3.76645">
        <ele>92.4</ele>
        <time>2011-02-18T22:10:22Z</time>
      </trkpt>
      <trkpt lat="43.51202" lon="3.76639">
        <ele>92.5</ele>
        <time>2011-02-18T22:10:25Z</time>
      </trkpt>
      <trkpt lat="43.51208" lon="3.76635">
        <ele>93.8</ele>
        <time>2011-02-18T22:10:28Z</time>
      </trkpt>
      <trkpt lat="43.51216" lon="3.76631">
        <ele>93.9</ele>
        <time>2011-02-18T22:10:31Z</time>
      </trkpt>
      <trkpt lat="43.51223" lon="3.76628">
        <ele>94.9</ele>
        <time>2011-02-18T22:10:34Z</time>
      </trkpt>
      <trkpt lat="43.51231" lon="3.76625">
        <ele>94.8</ele>
        <time>2011-02-18T22:10:37Z</time>
      </trkpt>
      <trkpt lat="43.51239" lon="3.76622">
        <ele>94.7</ele>
        <time>2011-02-18T22:10:40Z</time>
      </trkpt>
      <trkpt lat="43.51246" lon="3.76619">
        <ele>94.9</ele>
        <time>2011-02-18T22:10:43Z</time>
      </trkpt>
      <trkpt lat="43.51254" lon="3.76616">
        <ele>94.4</ele>
        <time>2011-02-18T22:10:46Z</time>
      </trkpt>
      <trkpt lat="43.51262" lon="3.76613">
        <ele>94.3</ele>
        <time>2011-02-18T22:10:49Z</time>
      </trkpt>
      <trkpt lat="43.5127" lon="3.7661">
        <ele>95.1</ele>
        <time>2011-02-18T22:10:52Z</time>
      </trkpt>
      <trkpt lat="43.51272" lon="3.76608">
        <ele>95.4</ele>
        <time>2011-02-18T22:10:53Z</time>
      </trkpt>
      <trkpt lat="43.51285" lon="3.76603">
        <ele>95.6</ele>
        <time>2011-02-18T22:10:58Z</time>
      </trkpt>
      <trkpt lat="43.51293" lon="3.76602">
        <ele>96.2</ele>
        <time>2011-02-18T22:11:01Z</time>
      </trkpt>
      <trkpt lat="43.513" lon="3.76599">
        <ele>96.9</ele>
        <time>2011-02-18T22:11:04Z</time>
      </trkpt>
      <trkpt lat="43.51306" lon="3.7659">
        <ele>97.4</ele>
        <time>2011-02-18T22:11:08Z</time>
      </trkpt>
      <trkpt lat="43.51306" lon="3.76578">
        <ele>97.2</ele>
        <time>2011-02-18T22:11:14Z</time>
      </trkpt>
      <trkpt lat="43.51304" lon="3.76568">
        <ele>97.7</ele>
        <time>2011-02-18T22:11:19Z</time>
      </trkpt>
      <trkpt lat="43.51303" lon="3.76558">
        <ele>98.3</ele>
        <time>2011-02-18T22:11:24Z</time>
      </trkpt>
      <trkpt lat="43.51303" lon="3.76546">
        <ele>98.4</ele>
        <time>2011-02-18T22:11:30Z</time>
      </trkpt>
      <trkpt lat="43.51302" lon="3.76533">
        <ele>97.5</ele>
        <time>2011-02-18T22:11:36Z</time>
      </trkpt>
      <trkpt lat="43.51301" lon="3.76521">
        <ele>97</ele>
        <time>2011-02-18T22:11:42Z</time>
      </trkpt>
      <trkpt lat="43.51299" lon="3.7651">
        <ele>97.6</ele>
        <time>2011-02-18T22:11:46Z</time>
      </trkpt>
      <trkpt lat="43.51297" lon="3.76499">
        <ele>97.4</ele>
        <time>2011-02-18T22:11:50Z</time>
      </trkpt>
      <trkpt lat="43.51295" lon="3.76488">
        <ele>96.7</ele>
        <time>2011-02-18T22:11:54Z</time>
      </trkpt>
      <trkpt lat="43.51294" lon="3.76485">
        <ele>96.6</ele>
        <time>2011-02-18T22:11:55Z</time>
      </trkpt>
      <trkpt lat="43.51306" lon="3.76476">
        <ele>96.6</ele>
        <time>2011-02-18T22:12:02Z</time>
      </trkpt>
      <trkpt lat="43.51314" lon="3.76477">
        <ele>96.5</ele>
        <time>2011-02-18T22:12:05Z</time>
      </trkpt>
      <trkpt lat="43.51319" lon="3.76481">
        <ele>96.3</ele>
        <time>2011-02-18T22:12:07Z</time>
      </trkpt>
      <trkpt lat="43.51325" lon="3.76484">
        <ele>96</ele>
        <time>2011-02-18T22:12:09Z</time>
      </trkpt>
      <trkpt lat="43.51331" lon="3.76488">
        <ele>95.8</ele>
        <time>2011-02-18T22:12:11Z</time>
      </trkpt>
      <trkpt lat="43.51336" lon="3.76493">
        <ele>95.7</ele>
        <time>2011-02-18T22:12:13Z</time>
      </trkpt>
      <trkpt lat="43.51342" lon="3.76497">
        <ele>96</ele>
        <time>2011-02-18T22:12:15Z</time>
      </trkpt>
      <trkpt lat="43.51348" lon="3.76502">
        <ele>96.1</ele>
        <time>2011-02-18T22:12:17Z</time>
      </trkpt>
      <trkpt lat="43.51353" lon="3.76508">
        <ele>95.7</ele>
        <time>2011-02-18T22:12:19Z</time>
      </trkpt>
      <trkpt lat="43.51359" lon="3.76512">
        <ele>95.6</ele>
        <time>2011-02-18T22:12:21Z</time>
      </trkpt>
      <trkpt lat="43.51364" lon="3.76517">
        <ele>95.7</ele>
        <time>2011-02-18T22:12:23Z</time>
      </trkpt>
      <trkpt lat="43.5137" lon="3.76522">
        <ele>95.7</ele>
        <time>2011-02-18T22:12:25Z</time>
      </trkpt>
      <trkpt lat="43.51376" lon="3.76527">
        <ele>95.7</ele>
        <time>2011-02-18T22:12:27Z</time>
      </trkpt>
      <trkpt lat="43.51382" lon="3.76533">
        <ele>95.8</ele>
        <time>2011-02-18T22:12:29Z</time>
      </trkpt>
      <trkpt lat="43.51388" lon="3.76539">
        <ele>95.5</ele>
        <time>2011-02-18T22:12:31Z</time>
      </trkpt>
      <trkpt lat="43.51394" lon="3.76546">
        <ele>95.3</ele>
        <time>2011-02-18T22:12:33Z</time>
      </trkpt>
      <trkpt lat="43.514" lon="3.76552">
        <ele>94.8</ele>
        <time>2011-02-18T22:12:35Z</time>
      </trkpt>
      <trkpt lat="43.51406" lon="3.76559">
        <ele>94.5</ele>
        <time>2011-02-18T22:12:37Z</time>
      </trkpt>
      <trkpt lat="43.51412" lon="3.76565">
        <ele>94.4</ele>
        <time>2011-02-18T22:12:39Z</time>
      </trkpt>
      <trkpt lat="43.51418" lon="3.76572">
        <ele>94.1</ele>
        <time>2011-02-18T22:12:41Z</time>
      </trkpt>
      <trkpt lat="43.51424" lon="3.76579">
        <ele>94</ele>
        <time>2011-02-18T22:12:43Z</time>
      </trkpt>
      <trkpt lat="43.5143" lon="3.76586">
        <ele>94</ele>
        <time>2011-02-18T22:12:45Z</time>
      </trkpt>
      <trkpt lat="43.51436" lon="3.76594">
        <ele>93.7</ele>
        <time>2011-02-18T22:12:47Z</time>
      </trkpt>
      <trkpt lat="43.51442" lon="3.76602">
        <ele>93.5</ele>
        <time>2011-02-18T22:12:49Z</time>
      </trkpt>
      <trkpt lat="43.51448" lon="3.7661">
        <ele>93</ele>
        <time>2011-02-18T22:12:51Z</time>
      </trkpt>
      <trkpt lat="43.51453" lon="3.76619">
        <ele>92.9</ele>
        <time>2011-02-18T22:12:53Z</time>
      </trkpt>
      <trkpt lat="43.51459" lon="3.76627">
        <ele>93</ele>
        <time>2011-02-18T22:12:55Z</time>
      </trkpt>
      <trkpt lat="43.51465" lon="3.76636">
        <ele>92.6</ele>
        <time>2011-02-18T22:12:57Z</time>
      </trkpt>
      <trkpt lat="43.51467" lon="3.76642">
        <ele>92.5</ele>
        <time>2011-02-18T22:12:58Z</time>
      </trkpt>
      <trkpt lat="43.51474" lon="3.76656">
        <ele>92.7</ele>
        <time>2011-02-18T22:13:01Z</time>
      </trkpt>
      <trkpt lat="43.51478" lon="3.76666">
        <ele>92.3</ele>
        <time>2011-02-18T22:13:03Z</time>
      </trkpt>
      <trkpt lat="43.51481" lon="3.76677">
        <ele>92.1</ele>
        <time>2011-02-18T22:13:05Z</time>
      </trkpt>
      <trkpt lat="43.51485" lon="3.76687">
        <ele>92</ele>
        <time>2011-02-18T22:13:07Z</time>
      </trkpt>
      <trkpt lat="43.51487" lon="3.76697">
        <ele>91.8</ele>
        <time>2011-02-18T22:13:09Z</time>
      </trkpt>
      <trkpt lat="43.51492" lon="3.76705">
        <ele>91.5</ele>
        <time>2011-02-18T22:13:11Z</time>
      </trkpt>
      <trkpt lat="43.51495" lon="3.76715">
        <ele>90.9</ele>
        <time>2011-02-18T22:13:13Z</time>
      </trkpt>
      <trkpt lat="43.51497" lon="3.76721">
        <ele>90.7</ele>
        <time>2011-02-18T22:13:14Z</time>
      </trkpt>
      <trkpt lat="43.51499" lon="3.76727">
        <ele>90.4</ele>
        <time>2011-02-18T22:13:15Z</time>
      </trkpt>
      <trkpt lat="43.51501" lon="3.76733">
        <ele>90.3</ele>
        <time>2011-02-18T22:13:16Z</time>
      </trkpt>
      <trkpt lat="43.51502" lon="3.76739">
        <ele>90.1</ele>
        <time>2011-02-18T22:13:17Z</time>
      </trkpt>
      <trkpt lat="43.51504" lon="3.76746">
        <ele>90.3</ele>
        <time>2011-02-18T22:13:18Z</time>
      </trkpt>
      <trkpt lat="43.51506" lon="3.76752">
        <ele>90.3</ele>
        <time>2011-02-18T22:13:19Z</time>
      </trkpt>
      <trkpt lat="43.51508" lon="3.76759">
        <ele>90.4</ele>
        <time>2011-02-18T22:13:20Z</time>
      </trkpt>
      <trkpt lat="43.5151" lon="3.76765">
        <ele>90.5</ele>
        <time>2011-02-18T22:13:21Z</time>
      </trkpt>
      <trkpt lat="43.51512" lon="3.76772">
        <ele>90.2</ele>
        <time>2011-02-18T22:13:22Z</time>
      </trkpt>
      <trkpt lat="43.51514" lon="3.76779">
        <ele>89.9</ele>
        <time>2011-02-18T22:13:23Z</time>
      </trkpt>
      <trkpt lat="43.51516" lon="3.76785">
        <ele>89.7</ele>
        <time>2011-02-18T22:13:24Z</time>
      </trkpt>
      <trkpt lat="43.51517" lon="3.76792">
        <ele>89.6</ele>
        <time>2011-02-18T22:13:25Z</time>
      </trkpt>
      <trkpt lat="43.51519" lon="3.76799">
        <ele>89.5</ele>
        <time>2011-02-18T22:13:26Z</time>
      </trkpt>
      <trkpt lat="43.5152" lon="3.76805">
        <ele>89.5</ele>
        <time>2011-02-18T22:13:27Z</time>
      </trkpt>
      <trkpt lat="43.51522" lon="3.76811">
        <ele>89.4</ele>
        <time>2011-02-18T22:13:28Z</time>
      </trkpt>
      <trkpt lat="43.51523" lon="3.76818">
        <ele>89.4</ele>
        <time>2011-02-18T22:13:29Z</time>
      </trkpt>
      <trkpt lat="43.51525" lon="3.76824">
        <ele>89.4</ele>
        <time>2011-02-18T22:13:30Z</time>
      </trkpt>
      <trkpt lat="43.51526" lon="3.7683">
        <ele>89.4</ele>
        <time>2011-02-18T22:13:31Z</time>
      </trkpt>
      <trkpt lat="43.51529" lon="3.76841">
        <ele>89.3</ele>
        <time>2011-02-18T22:13:33Z</time>
      </trkpt>
      <trkpt lat="43.51532" lon="3.76853">
        <ele>89</ele>
        <time>2011-02-18T22:13:35Z</time>
      </trkpt>
      <trkpt lat="43.51533" lon="3.76858">
        <ele>89</ele>
        <time>2011-02-18T22:13:36Z</time>
      </trkpt>
      <trkpt lat="43.51535" lon="3.76864">
        <ele>88.8</ele>
        <time>2011-02-18T22:13:37Z</time>
      </trkpt>
      <trkpt lat="43.51536" lon="3.76871">
        <ele>88.6</ele>
        <time>2011-02-18T22:13:38Z</time>
      </trkpt>
      <trkpt lat="43.51538" lon="3.76877">
        <ele>88.5</ele>
        <time>2011-02-18T22:13:39Z</time>
      </trkpt>
      <trkpt lat="43.51541" lon="3.76882">
        <ele>88.5</ele>
        <time>2011-02-18T22:13:40Z</time>
      </trkpt>
      <trkpt lat="43.51543" lon="3.76888">
        <ele>88.4</ele>
        <time>2011-02-18T22:13:41Z</time>
      </trkpt>
      <trkpt lat="43.51545" lon="3.76894">
        <ele>88.4</ele>
        <time>2011-02-18T22:13:42Z</time>
      </trkpt>
      <trkpt lat="43.51547" lon="3.769">
        <ele>88.4</ele>
        <time>2011-02-18T22:13:43Z</time>
      </trkpt>
      <trkpt lat="43.51551" lon="3.7691">
        <ele>88.3</ele>
        <time>2011-02-18T22:13:45Z</time>
      </trkpt>
      <trkpt lat="43.51556" lon="3.76919">
        <ele>88.4</ele>
        <time>2011-02-18T22:13:47Z</time>
      </trkpt>
      <trkpt lat="43.5156" lon="3.76927">
        <ele>88.5</ele>
        <time>2011-02-18T22:13:49Z</time>
      </trkpt>
      <trkpt lat="43.51566" lon="3.76937">
        <ele>88.1</ele>
        <time>2011-02-18T22:13:52Z</time>
      </trkpt>
      <trkpt lat="43.51568" lon="3.76946">
        <ele>88.2</ele>
        <time>2011-02-18T22:28:06Z</time>
      </trkpt>
      <trkpt lat="43.51569" lon="3.76952">
        <ele>88</ele>
        <time>2011-02-18T22:28:07Z</time>
      </trkpt>
      <trkpt lat="43.51573" lon="3.76968">
        <ele>87.7</ele>
        <time>2011-02-18T22:28:11Z</time>
      </trkpt>
      <trkpt lat="43.51581" lon="3.76975">
        <ele>88.6</ele>
        <time>2011-02-18T22:28:19Z</time>
      </trkpt>
      <trkpt lat="43.51587" lon="3.76969">
        <ele>88.6</ele>
        <time>2011-02-18T22:28:21Z</time>
      </trkpt>
      <trkpt lat="43.5159" lon="3.76963">
        <ele>88.7</ele>
        <time>2011-02-18T22:28:22Z</time>
      </trkpt>
      <trkpt lat="43.51592" lon="3.76956">
        <ele>88.8</ele>
        <time>2011-02-18T22:28:23Z</time>
      </trkpt>
      <trkpt lat="43.51596" lon="3.76947">
        <ele>88.9</ele>
        <time>2011-02-18T22:28:24Z</time>
      </trkpt>
      <trkpt lat="43.51599" lon="3.76936">
        <ele>89</ele>
        <time>2011-02-18T22:28:25Z</time>
      </trkpt>
      <trkpt lat="43.51604" lon="3.76924">
        <ele>89.1</ele>
        <time>2011-02-18T22:28:26Z</time>
      </trkpt>
      <trkpt lat="43.51608" lon="3.76911">
        <ele>89.2</ele>
        <time>2011-02-18T22:28:27Z</time>
      </trkpt>
      <trkpt lat="43.51613" lon="3.76898">
        <ele>89.6</ele>
        <time>2011-02-18T22:28:28Z</time>
      </trkpt>
      <trkpt lat="43.51618" lon="3.76884">
        <ele>89.8</ele>
        <time>2011-02-18T22:28:29Z</time>
      </trkpt>
      <trkpt lat="43.51622" lon="3.7687">
        <ele>90</ele>
        <time>2011-02-18T22:28:30Z</time>
      </trkpt>
      <trkpt lat="43.51625" lon="3.76854">
        <ele>89.9</ele>
        <time>2011-02-18T22:28:31Z</time>
      </trkpt>
      <trkpt lat="43.51628" lon="3.76838">
        <ele>89.9</ele>
        <time>2011-02-18T22:28:32Z</time>
      </trkpt>
      <trkpt lat="43.51629" lon="3.76821">
        <ele>89.8</ele>
        <time>2011-02-18T22:28:33Z</time>
      </trkpt>
      <trkpt lat="43.51629" lon="3.76803">
        <ele>89.6</ele>
        <time>2011-02-18T22:28:34Z</time>
      </trkpt>
      <trkpt lat="43.51629" lon="3.76785">
        <ele>89.4</ele>
        <time>2011-02-18T22:28:35Z</time>
      </trkpt>
      <trkpt lat="43.51629" lon="3.76768">
        <ele>89.3</ele>
        <time>2011-02-18T22:28:36Z</time>
      </trkpt>
      <trkpt lat="43.5163" lon="3.76752">
        <ele>88.4</ele>
        <time>2011-02-18T22:28:37Z</time>
      </trkpt>
      <trkpt lat="43.51632" lon="3.76736">
        <ele>87.7</ele>
        <time>2011-02-18T22:28:38Z</time>
      </trkpt>
      <trkpt lat="43.51636" lon="3.76721">
        <ele>87.1</ele>
        <time>2011-02-18T22:28:39Z</time>
      </trkpt>
      <trkpt lat="43.51641" lon="3.76706">
        <ele>86.7</ele>
        <time>2011-02-18T22:28:40Z</time>
      </trkpt>
      <trkpt lat="43.51647" lon="3.76692">
        <ele>85.7</ele>
        <time>2011-02-18T22:28:41Z</time>
      </trkpt>
      <trkpt lat="43.51655" lon="3.76678">
        <ele>84.9</ele>
        <time>2011-02-18T22:28:42Z</time>
      </trkpt>
      <trkpt lat="43.51663" lon="3.76664">
        <ele>84.2</ele>
        <time>2011-02-18T22:28:43Z</time>
      </trkpt>
      <trkpt lat="43.51671" lon="3.7665">
        <ele>83.7</ele>
        <time>2011-02-18T22:28:44Z</time>
      </trkpt>
      <trkpt lat="43.51678" lon="3.76636">
        <ele>83.3</ele>
        <time>2011-02-18T22:28:45Z</time>
      </trkpt>
      <trkpt lat="43.51686" lon="3.76624">
        <ele>83</ele>
        <time>2011-02-18T22:28:46Z</time>
      </trkpt>
      <trkpt lat="43.51693" lon="3.76611">
        <ele>82.3</ele>
        <time>2011-02-18T22:28:47Z</time>
      </trkpt>
      <trkpt lat="43.517" lon="3.76598">
        <ele>81.7</ele>
        <time>2011-02-18T22:28:48Z</time>
      </trkpt>
      <trkpt lat="43.51708" lon="3.76586">
        <ele>81.3</ele>
        <time>2011-02-18T22:28:49Z</time>
      </trkpt>
      <trkpt lat="43.51716" lon="3.76573">
        <ele>80.5</ele>
        <time>2011-02-18T22:28:50Z</time>
      </trkpt>
      <trkpt lat="43.51723" lon="3.76561">
        <ele>80</ele>
        <time>2011-02-18T22:28:51Z</time>
      </trkpt>
      <trkpt lat="43.51731" lon="3.76549">
        <ele>79.5</ele>
        <time>2011-02-18T22:28:52Z</time>
      </trkpt>
      <trkpt lat="43.51739" lon="3.76537">
        <ele>79.1</ele>
        <time>2011-02-18T22:28:53Z</time>
      </trkpt>
      <trkpt lat="43.51746" lon="3.76526">
        <ele>78.7</ele>
        <time>2011-02-18T22:28:54Z</time>
      </trkpt>
      <trkpt lat="43.51754" lon="3.76516">
        <ele>78.4</ele>
        <time>2011-02-18T22:28:55Z</time>
      </trkpt>
      <trkpt lat="43.51763" lon="3.76506">
        <ele>78.2</ele>
        <time>2011-02-18T22:28:56Z</time>
      </trkpt>
      <trkpt lat="43.51772" lon="3.76498">
        <ele>77.8</ele>
        <time>2011-02-18T22:28:57Z</time>
      </trkpt>
      <trkpt lat="43.51782" lon="3.76492">
        <ele>77.5</ele>
        <time>2011-02-18T22:28:58Z</time>
      </trkpt>
      <trkpt lat="43.51793" lon="3.76488">
        <ele>77.2</ele>
        <time>2011-02-18T22:28:59Z</time>
      </trkpt>
      <trkpt lat="43.51804" lon="3.76487">
        <ele>77.3</ele>
        <time>2011-02-18T22:29:00Z</time>
      </trkpt>
      <trkpt lat="43.51815" lon="3.76487">
        <ele>77.3</ele>
        <time>2011-02-18T22:29:01Z</time>
      </trkpt>
      <trkpt lat="43.51827" lon="3.76488">
        <ele>77.4</ele>
        <time>2011-02-18T22:29:02Z</time>
      </trkpt>
      <trkpt lat="43.51838" lon="3.76488">
        <ele>77.3</ele>
        <time>2011-02-18T22:29:03Z</time>
      </trkpt>
      <trkpt lat="43.51849" lon="3.76489">
        <ele>77.2</ele>
        <time>2011-02-18T22:29:04Z</time>
      </trkpt>
      <trkpt lat="43.5186" lon="3.7649">
        <ele>77.1</ele>
        <time>2011-02-18T22:29:05Z</time>
      </trkpt>
      <trkpt lat="43.51871" lon="3.76491">
        <ele>76.6</ele>
        <time>2011-02-18T22:29:06Z</time>
      </trkpt>
      <trkpt lat="43.51882" lon="3.76492">
        <ele>76.2</ele>
        <time>2011-02-18T22:29:07Z</time>
      </trkpt>
      <trkpt lat="43.51894" lon="3.76493">
        <ele>75.9</ele>
        <time>2011-02-18T22:29:08Z</time>
      </trkpt>
      <trkpt lat="43.51905" lon="3.76494">
        <ele>75.5</ele>
        <time>2011-02-18T22:29:09Z</time>
      </trkpt>
      <trkpt lat="43.51917" lon="3.76496">
        <ele>75.2</ele>
        <time>2011-02-18T22:29:10Z</time>
      </trkpt>
      <trkpt lat="43.51928" lon="3.76497">
        <ele>75</ele>
        <time>2011-02-18T22:29:11Z</time>
      </trkpt>
      <trkpt lat="43.5194" lon="3.76498">
        <ele>74.8</ele>
        <time>2011-02-18T22:29:12Z</time>
      </trkpt>
      <trkpt lat="43.51951" lon="3.76498">
        <ele>74.1</ele>
        <time>2011-02-18T22:29:13Z</time>
      </trkpt>
      <trkpt lat="43.51963" lon="3.76499">
        <ele>73.6</ele>
        <time>2011-02-18T22:29:14Z</time>
      </trkpt>
      <trkpt lat="43.51974" lon="3.76499">
        <ele>73.2</ele>
        <time>2011-02-18T22:29:15Z</time>
      </trkpt>
      <trkpt lat="43.51985" lon="3.76498">
        <ele>72.9</ele>
        <time>2011-02-18T22:29:16Z</time>
      </trkpt>
      <trkpt lat="43.51996" lon="3.76496">
        <ele>72.7</ele>
        <time>2011-02-18T22:29:17Z</time>
      </trkpt>
      <trkpt lat="43.52007" lon="3.76494">
        <ele>72.6</ele>
        <time>2011-02-18T22:29:18Z</time>
      </trkpt>
      <trkpt lat="43.52018" lon="3.7649">
        <ele>72.3</ele>
        <time>2011-02-18T22:29:19Z</time>
      </trkpt>
    </trkseg>
  </trk>
</gpx>